<?xml version="1.0" encoding="UTF-8" standalone="no" ?>
<gpx xmlns="http://www.topografix.com/GPX/1/1" xmlns:xsi="http://www.w3.org/2001/XMLSchema-instance" xsi:schemaLocation="http://www.topografix.com/GPX/1/1 http://www.topografix.com/GPX/1/1/gpx.xsd" version="1.1" creator="VisuGPX - https://www.visugpx.com">
  <metadata>
    <name>Château de Chouvigny - 170 kms</name>
  </metadata>
  <trk>
    <name><![CDATA[Château de Chouvigny - 170 kms]]></name>
    <extensions>
      <line xmlns="http://www.topografix.com/GPX/gpx_style/0/2">
        <color>FF0000</color>
        <width>4</width>
      </line>
    </extensions>
    <trkseg>
      <trkpt lat="46.18875" lon="2.42234">
        <ele>330.023638</ele>
        <time>2024-06-26T18:40:05.694Z</time>
      </trkpt>
      <trkpt lat="46.18866" lon="2.4232">
        <ele>330.023638</ele>
        <time>2024-06-26T18:40:15.375Z</time>
      </trkpt>
      <trkpt lat="46.1886" lon="2.42369">
        <ele>330.014232</ele>
        <time>2024-06-26T18:40:20.839Z</time>
      </trkpt>
      <trkpt lat="46.18852" lon="2.42441">
        <ele>329.916339</ele>
        <time>2024-06-26T18:40:28.355Z</time>
      </trkpt>
      <trkpt lat="46.18849" lon="2.42469">
        <ele>329.87726</ele>
        <time>2024-06-26T18:40:31.198Z</time>
      </trkpt>
      <trkpt lat="46.18843" lon="2.42526">
        <ele>329.799552</ele>
        <time>2024-06-26T18:40:37.083Z</time>
      </trkpt>
      <trkpt lat="46.18839" lon="2.42559">
        <ele>329.753726</ele>
        <time>2024-06-26T18:40:40.299Z</time>
      </trkpt>
      <trkpt lat="46.18836" lon="2.42589">
        <ele>329.713567</ele>
        <time>2024-06-26T18:40:43.132Z</time>
      </trkpt>
      <trkpt lat="46.18835" lon="2.42592">
        <ele>329.709463</ele>
        <time>2024-06-26T18:40:43.413Z</time>
      </trkpt>
      <trkpt lat="46.18834" lon="2.42613">
        <ele>329.679628</ele>
        <time>2024-06-26T18:40:45.363Z</time>
      </trkpt>
      <trkpt lat="46.18832" lon="2.42633">
        <ele>329.614194</ele>
        <time>2024-06-26T18:40:47.171Z</time>
      </trkpt>
      <trkpt lat="46.18829" lon="2.42669">
        <ele>329.470758</ele>
        <time>2024-06-26T18:40:50.139Z</time>
      </trkpt>
      <trkpt lat="46.18825" lon="2.42705">
        <ele>329.321674</ele>
        <time>2024-06-26T18:40:53.374Z</time>
      </trkpt>
      <trkpt lat="46.18823" lon="2.42728">
        <ele>329.228571</ele>
        <time>2024-06-26T18:40:55.362Z</time>
      </trkpt>
      <trkpt lat="46.18818" lon="2.42765">
        <ele>329.077262</ele>
        <time>2024-06-26T18:40:58.758Z</time>
      </trkpt>
      <trkpt lat="46.18811" lon="2.42802">
        <ele>328.92443</ele>
        <time>2024-06-26T18:41:02.192Z</time>
      </trkpt>
      <trkpt lat="46.188" lon="2.42818">
        <ele>328.835174</ele>
        <time>2024-06-26T18:41:04.144Z</time>
      </trkpt>
      <trkpt lat="46.18765" lon="2.42847">
        <ele>328.800075</ele>
        <time>2024-06-26T18:41:09.576Z</time>
      </trkpt>
      <trkpt lat="46.18723" lon="2.42882">
        <ele>330.413554</ele>
        <time>2024-06-26T18:41:16.254Z</time>
      </trkpt>
      <trkpt lat="46.18717" lon="2.42887">
        <ele>330.637301</ele>
        <time>2024-06-26T18:41:17.657Z</time>
      </trkpt>
      <trkpt lat="46.18698" lon="2.42904">
        <ele>331.383124</ele>
        <time>2024-06-26T18:41:22.291Z</time>
      </trkpt>
      <trkpt lat="46.18599" lon="2.42986">
        <ele>335.455283</ele>
        <time>2024-06-26T18:42:05.984Z</time>
      </trkpt>
      <trkpt lat="46.18597" lon="2.42987">
        <ele>335.586391</ele>
        <time>2024-06-26T18:42:06.872Z</time>
      </trkpt>
      <trkpt lat="46.18528" lon="2.43045">
        <ele>339.667189</ele>
        <time>2024-06-26T18:42:39.886Z</time>
      </trkpt>
      <trkpt lat="46.18519" lon="2.43056">
        <ele>340.267758</ele>
        <time>2024-06-26T18:42:45.080Z</time>
      </trkpt>
      <trkpt lat="46.18514" lon="2.43068">
        <ele>340.766762</ele>
        <time>2024-06-26T18:42:49.294Z</time>
      </trkpt>
      <trkpt lat="46.18511" lon="2.43083">
        <ele>341.315792</ele>
        <time>2024-06-26T18:42:52.814Z</time>
      </trkpt>
      <trkpt lat="46.1851" lon="2.43103">
        <ele>342.021679</ele>
        <time>2024-06-26T18:42:58.436Z</time>
      </trkpt>
      <trkpt lat="46.18511" lon="2.43385">
        <ele>344.923214</ele>
        <time>2024-06-26T18:43:36.956Z</time>
      </trkpt>
      <trkpt lat="46.18511" lon="2.43744">
        <ele>340.579037</ele>
        <time>2024-06-26T18:44:02.566Z</time>
      </trkpt>
      <trkpt lat="46.18518" lon="2.43808">
        <ele>340.618476</ele>
        <time>2024-06-26T18:44:08.772Z</time>
      </trkpt>
      <trkpt lat="46.18532" lon="2.43874">
        <ele>340.661009</ele>
        <time>2024-06-26T18:44:18.465Z</time>
      </trkpt>
      <trkpt lat="46.18532" lon="2.43931">
        <ele>340.728663</ele>
        <time>2024-06-26T18:44:28.661Z</time>
      </trkpt>
      <trkpt lat="46.18523" lon="2.43987">
        <ele>341.856272</ele>
        <time>2024-06-26T18:44:38.758Z</time>
      </trkpt>
      <trkpt lat="46.18492" lon="2.44128">
        <ele>344.775293</ele>
        <time>2024-06-26T18:45:06.619Z</time>
      </trkpt>
      <trkpt lat="46.18462" lon="2.44259">
        <ele>346.874461</ele>
        <time>2024-06-26T18:45:32.150Z</time>
      </trkpt>
      <trkpt lat="46.18426" lon="2.44399">
        <ele>348.705617</ele>
        <time>2024-06-26T18:45:52.724Z</time>
      </trkpt>
      <trkpt lat="46.18407" lon="2.44489">
        <ele>348.895893</ele>
        <time>2024-06-26T18:46:05.038Z</time>
      </trkpt>
      <trkpt lat="46.18372" lon="2.44769">
        <ele>347.690766</ele>
        <time>2024-06-26T18:46:29.867Z</time>
      </trkpt>
      <trkpt lat="46.18372" lon="2.44792">
        <ele>347.472631</ele>
        <time>2024-06-26T18:46:31.655Z</time>
      </trkpt>
      <trkpt lat="46.18373" lon="2.44815">
        <ele>347.254037</ele>
        <time>2024-06-26T18:46:33.454Z</time>
      </trkpt>
      <trkpt lat="46.1842" lon="2.4513">
        <ele>344.015508</ele>
        <time>2024-06-26T18:46:58.697Z</time>
      </trkpt>
      <trkpt lat="46.18427" lon="2.45183">
        <ele>343.450053</ele>
        <time>2024-06-26T18:47:03.115Z</time>
      </trkpt>
      <trkpt lat="46.1843" lon="2.45234">
        <ele>343.23785</ele>
        <time>2024-06-26T18:47:07.406Z</time>
      </trkpt>
      <trkpt lat="46.18411" lon="2.4562">
        <ele>341.469785</ele>
        <time>2024-06-26T18:47:44.352Z</time>
      </trkpt>
      <trkpt lat="46.18411" lon="2.45681">
        <ele>341.121773</ele>
        <time>2024-06-26T18:47:49.227Z</time>
      </trkpt>
      <trkpt lat="46.18415" lon="2.45715">
        <ele>340.772775</ele>
        <time>2024-06-26T18:47:51.854Z</time>
      </trkpt>
      <trkpt lat="46.18429" lon="2.4577">
        <ele>339.592008</ele>
        <time>2024-06-26T18:47:56.321Z</time>
      </trkpt>
      <trkpt lat="46.18464" lon="2.45883">
        <ele>337.099305</ele>
        <time>2024-06-26T18:48:04.998Z</time>
      </trkpt>
      <trkpt lat="46.18503" lon="2.46023">
        <ele>334.863212</ele>
        <time>2024-06-26T18:48:15.302Z</time>
      </trkpt>
      <trkpt lat="46.1851" lon="2.46048">
        <ele>334.582289</ele>
        <time>2024-06-26T18:48:17.363Z</time>
      </trkpt>
      <trkpt lat="46.18511" lon="2.46053">
        <ele>334.528268</ele>
        <time>2024-06-26T18:48:17.817Z</time>
      </trkpt>
      <trkpt lat="46.18515" lon="2.46068">
        <ele>334.364923</ele>
        <time>2024-06-26T18:48:19.059Z</time>
      </trkpt>
      <trkpt lat="46.1852" lon="2.46088">
        <ele>334.14388</ele>
        <time>2024-06-26T18:48:20.882Z</time>
      </trkpt>
      <trkpt lat="46.18521" lon="2.46122">
        <ele>333.783613</ele>
        <time>2024-06-26T18:48:24.222Z</time>
      </trkpt>
      <trkpt lat="46.18499" lon="2.46198">
        <ele>333.309222</ele>
        <time>2024-06-26T18:48:32.760Z</time>
      </trkpt>
      <trkpt lat="46.18485" lon="2.46286">
        <ele>335.577899</ele>
        <time>2024-06-26T18:48:45.503Z</time>
      </trkpt>
      <trkpt lat="46.18482" lon="2.46328">
        <ele>336.641969</ele>
        <time>2024-06-26T18:48:55.419Z</time>
      </trkpt>
      <trkpt lat="46.18481" lon="2.46372">
        <ele>337.742065</ele>
        <time>2024-06-26T18:49:06.682Z</time>
      </trkpt>
      <trkpt lat="46.18484" lon="2.46499">
        <ele>342.046332</ele>
        <time>2024-06-26T18:49:39.851Z</time>
      </trkpt>
      <trkpt lat="46.18475" lon="2.46585">
        <ele>346.0283</ele>
        <time>2024-06-26T18:50:02.666Z</time>
      </trkpt>
      <trkpt lat="46.18466" lon="2.46614">
        <ele>347.470004</ele>
        <time>2024-06-26T18:50:12.295Z</time>
      </trkpt>
      <trkpt lat="46.1844" lon="2.46659">
        <ele>350.154634</ele>
        <time>2024-06-26T18:50:30.750Z</time>
      </trkpt>
      <trkpt lat="46.18415" lon="2.46713">
        <ele>353.382793</ele>
        <time>2024-06-26T18:50:51.556Z</time>
      </trkpt>
      <trkpt lat="46.18411" lon="2.4673">
        <ele>354.330469</ele>
        <time>2024-06-26T18:50:56.987Z</time>
      </trkpt>
      <trkpt lat="46.18409" lon="2.46753">
        <ele>355.573331</ele>
        <time>2024-06-26T18:51:04.362Z</time>
      </trkpt>
      <trkpt lat="46.18409" lon="2.46814">
        <ele>358.809446</ele>
        <time>2024-06-26T18:51:23.192Z</time>
      </trkpt>
      <trkpt lat="46.18405" lon="2.46874">
        <ele>362.044564</ele>
        <time>2024-06-26T18:51:42.092Z</time>
      </trkpt>
      <trkpt lat="46.18406" lon="2.46899">
        <ele>363.357767</ele>
        <time>2024-06-26T18:51:49.931Z</time>
      </trkpt>
      <trkpt lat="46.1842" lon="2.47006">
        <ele>369.240084</ele>
        <time>2024-06-26T18:52:26.210Z</time>
      </trkpt>
      <trkpt lat="46.1841" lon="2.47072">
        <ele>372.887292</ele>
        <time>2024-06-26T18:52:46.809Z</time>
      </trkpt>
      <trkpt lat="46.18404" lon="2.47138">
        <ele>376.466975</ele>
        <time>2024-06-26T18:53:07.449Z</time>
      </trkpt>
      <trkpt lat="46.18399" lon="2.47298">
        <ele>385.269122</ele>
        <time>2024-06-26T18:53:59.745Z</time>
      </trkpt>
      <trkpt lat="46.18389" lon="2.4739">
        <ele>390.430565</ele>
        <time>2024-06-26T18:54:29.768Z</time>
      </trkpt>
      <trkpt lat="46.18374" lon="2.4748">
        <ele>395.58032</ele>
        <time>2024-06-26T18:54:59.814Z</time>
      </trkpt>
      <trkpt lat="46.18375" lon="2.47605">
        <ele>402.647976</ele>
        <time>2024-06-26T18:55:41.080Z</time>
      </trkpt>
      <trkpt lat="46.18373" lon="2.47635">
        <ele>404.387772</ele>
        <time>2024-06-26T18:55:50.985Z</time>
      </trkpt>
      <trkpt lat="46.18357" lon="2.47736">
        <ele>410.479051</ele>
        <time>2024-06-26T18:56:24.853Z</time>
      </trkpt>
      <trkpt lat="46.18335" lon="2.47837">
        <ele>417.129773</ele>
        <time>2024-06-26T18:57:02.634Z</time>
      </trkpt>
      <trkpt lat="46.18308" lon="2.47951">
        <ele>424.721977</ele>
        <time>2024-06-26T18:57:46.873Z</time>
      </trkpt>
      <trkpt lat="46.183" lon="2.47976">
        <ele>426.360915</ele>
        <time>2024-06-26T18:57:57.145Z</time>
      </trkpt>
      <trkpt lat="46.18279" lon="2.48003">
        <ele>428.683245</ele>
        <time>2024-06-26T18:58:11.451Z</time>
      </trkpt>
      <trkpt lat="46.18247" lon="2.48025">
        <ele>431.65368</ele>
        <time>2024-06-26T18:58:29.488Z</time>
      </trkpt>
      <trkpt lat="46.18184" lon="2.48055">
        <ele>437.226676</ele>
        <time>2024-06-26T18:59:02.014Z</time>
      </trkpt>
      <trkpt lat="46.18157" lon="2.48067">
        <ele>439.659979</ele>
        <time>2024-06-26T18:59:14.728Z</time>
      </trkpt>
      <trkpt lat="46.1806" lon="2.48113">
        <ele>445.070669</ele>
        <time>2024-06-26T18:59:54.298Z</time>
      </trkpt>
      <trkpt lat="46.18011" lon="2.4813">
        <ele>447.703595</ele>
        <time>2024-06-26T19:00:10.476Z</time>
      </trkpt>
      <trkpt lat="46.17938" lon="2.48164">
        <ele>450.639892</ele>
        <time>2024-06-26T19:00:32.075Z</time>
      </trkpt>
      <trkpt lat="46.17913" lon="2.48183">
        <ele>451.476027</ele>
        <time>2024-06-26T19:00:39.158Z</time>
      </trkpt>
      <trkpt lat="46.17878" lon="2.48199">
        <ele>452.541744</ele>
        <time>2024-06-26T19:00:48.355Z</time>
      </trkpt>
      <trkpt lat="46.17852" lon="2.48217">
        <ele>453.414861</ele>
        <time>2024-06-26T19:00:56.271Z</time>
      </trkpt>
      <trkpt lat="46.17807" lon="2.48261">
        <ele>454.926577</ele>
        <time>2024-06-26T19:01:10.300Z</time>
      </trkpt>
      <trkpt lat="46.17786" lon="2.48283">
        <ele>455.525465</ele>
        <time>2024-06-26T19:01:16.828Z</time>
      </trkpt>
      <trkpt lat="46.17774" lon="2.48296">
        <ele>455.882896</ele>
        <time>2024-06-26T19:01:20.559Z</time>
      </trkpt>
      <trkpt lat="46.17766" lon="2.48305">
        <ele>456.110345</ele>
        <time>2024-06-26T19:01:23.135Z</time>
      </trkpt>
      <trkpt lat="46.17715" lon="2.4836">
        <ele>457.578954</ele>
        <time>2024-06-26T19:01:38.233Z</time>
      </trkpt>
      <trkpt lat="46.17702" lon="2.48392">
        <ele>458.175452</ele>
        <time>2024-06-26T19:01:44.243Z</time>
      </trkpt>
      <trkpt lat="46.17696" lon="2.48414">
        <ele>458.562838</ele>
        <time>2024-06-26T19:01:48.271Z</time>
      </trkpt>
      <trkpt lat="46.17691" lon="2.48453">
        <ele>458.928051</ele>
        <time>2024-06-26T19:01:54.561Z</time>
      </trkpt>
      <trkpt lat="46.1768" lon="2.485">
        <ele>459.220876</ele>
        <time>2024-06-26T19:02:01.820Z</time>
      </trkpt>
      <trkpt lat="46.17661" lon="2.48544">
        <ele>459.534806</ele>
        <time>2024-06-26T19:02:08.378Z</time>
      </trkpt>
      <trkpt lat="46.17655" lon="2.48543">
        <ele>459.585039</ele>
        <time>2024-06-26T19:02:09.406Z</time>
      </trkpt>
      <trkpt lat="46.17638" lon="2.48605">
        <ele>459.978703</ele>
        <time>2024-06-26T19:02:16.815Z</time>
      </trkpt>
      <trkpt lat="46.17632" lon="2.48615">
        <ele>460.05889</ele>
        <time>2024-06-26T19:02:18.216Z</time>
      </trkpt>
      <trkpt lat="46.17623" lon="2.48621">
        <ele>460.144648</ele>
        <time>2024-06-26T19:02:19.766Z</time>
      </trkpt>
      <trkpt lat="46.17602" lon="2.48639">
        <ele>460.258461</ele>
        <time>2024-06-26T19:02:23.618Z</time>
      </trkpt>
      <trkpt lat="46.17599" lon="2.48644">
        <ele>460.195696</ele>
        <time>2024-06-26T19:02:24.375Z</time>
      </trkpt>
      <trkpt lat="46.17591" lon="2.48678">
        <ele>459.904921</ele>
        <time>2024-06-26T19:02:27.923Z</time>
      </trkpt>
      <trkpt lat="46.17572" lon="2.4869">
        <ele>459.662369</ele>
        <time>2024-06-26T19:02:30.848Z</time>
      </trkpt>
      <trkpt lat="46.1754" lon="2.48701">
        <ele>459.260843</ele>
        <time>2024-06-26T19:02:35.104Z</time>
      </trkpt>
      <trkpt lat="46.1752" lon="2.48708">
        <ele>459.019615</ele>
        <time>2024-06-26T19:02:37.465Z</time>
      </trkpt>
      <trkpt lat="46.17512" lon="2.48714">
        <ele>458.907698</ele>
        <time>2024-06-26T19:02:38.500Z</time>
      </trkpt>
      <trkpt lat="46.17507" lon="2.48728">
        <ele>458.778131</ele>
        <time>2024-06-26T19:02:39.659Z</time>
      </trkpt>
      <trkpt lat="46.17487" lon="2.48728">
        <ele>458.537332</ele>
        <time>2024-06-26T19:02:41.869Z</time>
      </trkpt>
      <trkpt lat="46.17458" lon="2.48728">
        <ele>458.194792</ele>
        <time>2024-06-26T19:02:44.850Z</time>
      </trkpt>
      <trkpt lat="46.17452" lon="2.48722">
        <ele>458.018353</ele>
        <time>2024-06-26T19:02:45.655Z</time>
      </trkpt>
      <trkpt lat="46.17421" lon="2.48719">
        <ele>457.123005</ele>
        <time>2024-06-26T19:02:48.880Z</time>
      </trkpt>
      <trkpt lat="46.17391" lon="2.48728">
        <ele>456.18773</ele>
        <time>2024-06-26T19:02:52.238Z</time>
      </trkpt>
      <trkpt lat="46.17345" lon="2.48745">
        <ele>454.807008</ele>
        <time>2024-06-26T19:02:57.131Z</time>
      </trkpt>
      <trkpt lat="46.17299" lon="2.48765">
        <ele>453.382904</ele>
        <time>2024-06-26T19:03:01.913Z</time>
      </trkpt>
      <trkpt lat="46.17287" lon="2.48777">
        <ele>452.935654</ele>
        <time>2024-06-26T19:03:03.368Z</time>
      </trkpt>
      <trkpt lat="46.17277" lon="2.48796">
        <ele>452.345975</ele>
        <time>2024-06-26T19:03:04.952Z</time>
      </trkpt>
      <trkpt lat="46.17256" lon="2.48838">
        <ele>450.968501</ele>
        <time>2024-06-26T19:03:08.442Z</time>
      </trkpt>
      <trkpt lat="46.17248" lon="2.48864">
        <ele>450.211981</ele>
        <time>2024-06-26T19:03:10.368Z</time>
      </trkpt>
      <trkpt lat="46.17241" lon="2.48923">
        <ele>448.623542</ele>
        <time>2024-06-26T19:03:14.539Z</time>
      </trkpt>
      <trkpt lat="46.17232" lon="2.4896">
        <ele>447.579493</ele>
        <time>2024-06-26T19:03:17.234Z</time>
      </trkpt>
      <trkpt lat="46.17189" lon="2.49084">
        <ele>444.030654</ele>
        <time>2024-06-26T19:03:26.544Z</time>
      </trkpt>
      <trkpt lat="46.17179" lon="2.491">
        <ele>443.49668</ele>
        <time>2024-06-26T19:03:27.982Z</time>
      </trkpt>
      <trkpt lat="46.17138" lon="2.4915">
        <ele>441.556381</ele>
        <time>2024-06-26T19:03:33.238Z</time>
      </trkpt>
      <trkpt lat="46.17045" lon="2.49259">
        <ele>439.192873</ele>
        <time>2024-06-26T19:03:45.906Z</time>
      </trkpt>
      <trkpt lat="46.17018" lon="2.49272">
        <ele>439.055541</ele>
        <time>2024-06-26T19:03:49.565Z</time>
      </trkpt>
      <trkpt lat="46.16973" lon="2.4928">
        <ele>438.841603</ele>
        <time>2024-06-26T19:03:56.633Z</time>
      </trkpt>
      <trkpt lat="46.16915" lon="2.49312">
        <ele>438.832112</ele>
        <time>2024-06-26T19:04:09.538Z</time>
      </trkpt>
      <trkpt lat="46.16832" lon="2.49402">
        <ele>440.069469</ele>
        <time>2024-06-26T19:04:34.134Z</time>
      </trkpt>
      <trkpt lat="46.16817" lon="2.49419">
        <ele>440.292267</ele>
        <time>2024-06-26T19:04:37.666Z</time>
      </trkpt>
      <trkpt lat="46.16778" lon="2.49461">
        <ele>440.57093</ele>
        <time>2024-06-26T19:04:44.891Z</time>
      </trkpt>
      <trkpt lat="46.16762" lon="2.49488">
        <ele>440.067571</ele>
        <time>2024-06-26T19:04:47.960Z</time>
      </trkpt>
      <trkpt lat="46.16684" lon="2.49708">
        <ele>436.988081</ele>
        <time>2024-06-26T19:05:05.769Z</time>
      </trkpt>
      <trkpt lat="46.16669" lon="2.49746">
        <ele>436.882732</ele>
        <time>2024-06-26T19:05:09.059Z</time>
      </trkpt>
      <trkpt lat="46.16652" lon="2.49776">
        <ele>436.78937</ele>
        <time>2024-06-26T19:05:12.247Z</time>
      </trkpt>
      <trkpt lat="46.16632" lon="2.49795">
        <ele>436.706109</ele>
        <time>2024-06-26T19:05:15.477Z</time>
      </trkpt>
      <trkpt lat="46.16531" lon="2.49859">
        <ele>437.491111</ele>
        <time>2024-06-26T19:05:38.450Z</time>
      </trkpt>
      <trkpt lat="46.1649" lon="2.49889">
        <ele>438.809329</ele>
        <time>2024-06-26T19:05:51.534Z</time>
      </trkpt>
      <trkpt lat="46.16476" lon="2.49905">
        <ele>439.321393</ele>
        <time>2024-06-26T19:05:56.861Z</time>
      </trkpt>
      <trkpt lat="46.16441" lon="2.49967">
        <ele>440.910153</ele>
        <time>2024-06-26T19:06:12.789Z</time>
      </trkpt>
      <trkpt lat="46.16424" lon="2.49985">
        <ele>441.514747</ele>
        <time>2024-06-26T19:06:18.556Z</time>
      </trkpt>
      <trkpt lat="46.16359" lon="2.5002">
        <ele>443.282964</ele>
        <time>2024-06-26T19:06:36.076Z</time>
      </trkpt>
      <trkpt lat="46.16333" lon="2.50044">
        <ele>444.064724</ele>
        <time>2024-06-26T19:06:43.107Z</time>
      </trkpt>
      <trkpt lat="46.16321" lon="2.50068">
        <ele>444.584085</ele>
        <time>2024-06-26T19:06:47.760Z</time>
      </trkpt>
      <trkpt lat="46.16308" lon="2.50083">
        <ele>445.005658</ele>
        <time>2024-06-26T19:06:51.832Z</time>
      </trkpt>
      <trkpt lat="46.16276" lon="2.50096">
        <ele>445.847789</ele>
        <time>2024-06-26T19:07:00.064Z</time>
      </trkpt>
      <trkpt lat="46.16256" lon="2.50109">
        <ele>446.507376</ele>
        <time>2024-06-26T19:07:05.625Z</time>
      </trkpt>
      <trkpt lat="46.16245" lon="2.50128">
        <ele>447.130333</ele>
        <time>2024-06-26T19:07:10.270Z</time>
      </trkpt>
      <trkpt lat="46.16238" lon="2.50169">
        <ele>448.20349</ele>
        <time>2024-06-26T19:07:18.278Z</time>
      </trkpt>
      <trkpt lat="46.16229" lon="2.50196">
        <ele>448.967573</ele>
        <time>2024-06-26T19:07:24.135Z</time>
      </trkpt>
      <trkpt lat="46.16206" lon="2.50229">
        <ele>450.115121</ele>
        <time>2024-06-26T19:07:33.430Z</time>
      </trkpt>
      <trkpt lat="46.16037" lon="2.50434">
        <ele>458.738164</ele>
        <time>2024-06-26T19:08:44.682Z</time>
      </trkpt>
      <trkpt lat="46.15929" lon="2.5058">
        <ele>462.979711</ele>
        <time>2024-06-26T19:09:24.313Z</time>
      </trkpt>
      <trkpt lat="46.15891" lon="2.50632">
        <ele>464.317979</ele>
        <time>2024-06-26T19:09:36.206Z</time>
      </trkpt>
      <trkpt lat="46.15739" lon="2.50844">
        <ele>466.286163</ele>
        <time>2024-06-26T19:10:17.515Z</time>
      </trkpt>
      <trkpt lat="46.15623" lon="2.51002">
        <ele>464.580367</ele>
        <time>2024-06-26T19:10:36.250Z</time>
      </trkpt>
      <trkpt lat="46.15552" lon="2.5111">
        <ele>460.913726</ele>
        <time>2024-06-26T19:10:46.534Z</time>
      </trkpt>
      <trkpt lat="46.15548" lon="2.51116">
        <ele>460.690344</ele>
        <time>2024-06-26T19:10:47.153Z</time>
      </trkpt>
      <trkpt lat="46.15469" lon="2.51238">
        <ele>456.511116</ele>
        <time>2024-06-26T19:10:58.263Z</time>
      </trkpt>
      <trkpt lat="46.15366" lon="2.51332">
        <ele>451.974368</ele>
        <time>2024-06-26T19:11:10.251Z</time>
      </trkpt>
      <trkpt lat="46.15326" lon="2.51352">
        <ele>451.125393</ele>
        <time>2024-06-26T19:11:14.604Z</time>
      </trkpt>
      <trkpt lat="46.1518" lon="2.51408">
        <ele>449.176845</ele>
        <time>2024-06-26T19:11:32.417Z</time>
      </trkpt>
      <trkpt lat="46.15147" lon="2.51415">
        <ele>450.235386</ele>
        <time>2024-06-26T19:11:39.598Z</time>
      </trkpt>
      <trkpt lat="46.1514" lon="2.51416">
        <ele>450.461079</ele>
        <time>2024-06-26T19:11:41.297Z</time>
      </trkpt>
      <trkpt lat="46.15104" lon="2.51422">
        <ele>451.571957</ele>
        <time>2024-06-26T19:11:50.514Z</time>
      </trkpt>
      <trkpt lat="46.1509" lon="2.51433">
        <ele>452.070128</ele>
        <time>2024-06-26T19:11:55.206Z</time>
      </trkpt>
      <trkpt lat="46.15074" lon="2.51458">
        <ele>452.807046</ele>
        <time>2024-06-26T19:12:02.309Z</time>
      </trkpt>
      <trkpt lat="46.15054" lon="2.51572">
        <ele>455.724658</ele>
        <time>2024-06-26T19:12:30.542Z</time>
      </trkpt>
      <trkpt lat="46.15046" lon="2.5159">
        <ele>456.470238</ele>
        <time>2024-06-26T19:12:36.188Z</time>
      </trkpt>
      <trkpt lat="46.1502" lon="2.51615">
        <ele>458.042394</ele>
        <time>2024-06-26T19:12:48.149Z</time>
      </trkpt>
      <trkpt lat="46.15" lon="2.51629">
        <ele>459.16099</ele>
        <time>2024-06-26T19:12:56.530Z</time>
      </trkpt>
      <trkpt lat="46.14767" lon="2.51779">
        <ele>471.316414</ele>
        <time>2024-06-26T19:14:21.661Z</time>
      </trkpt>
      <trkpt lat="46.1472" lon="2.51803">
        <ele>473.381922</ele>
        <time>2024-06-26T19:14:37.916Z</time>
      </trkpt>
      <trkpt lat="46.14695" lon="2.51807">
        <ele>474.363694</ele>
        <time>2024-06-26T19:14:46.060Z</time>
      </trkpt>
      <trkpt lat="46.14612" lon="2.5179">
        <ele>477.635787</ele>
        <time>2024-06-26T19:15:12.054Z</time>
      </trkpt>
      <trkpt lat="46.14593" lon="2.5179">
        <ele>478.381299</ele>
        <time>2024-06-26T19:15:17.629Z</time>
      </trkpt>
      <trkpt lat="46.1457" lon="2.51796">
        <ele>479.200472</ele>
        <time>2024-06-26T19:15:23.998Z</time>
      </trkpt>
      <trkpt lat="46.14564" lon="2.51801">
        <ele>479.331496</ele>
        <time>2024-06-26T19:15:25.963Z</time>
      </trkpt>
      <trkpt lat="46.14532" lon="2.51837">
        <ele>480.079424</ele>
        <time>2024-06-26T19:15:36.388Z</time>
      </trkpt>
      <trkpt lat="46.14414" lon="2.51993">
        <ele>482.666367</ele>
        <time>2024-06-26T19:16:08.584Z</time>
      </trkpt>
      <trkpt lat="46.14326" lon="2.52109">
        <ele>483.621038</ele>
        <time>2024-06-26T19:16:28.805Z</time>
      </trkpt>
      <trkpt lat="46.14293" lon="2.52144">
        <ele>483.985241</ele>
        <time>2024-06-26T19:16:36.087Z</time>
      </trkpt>
      <trkpt lat="46.14251" lon="2.52179">
        <ele>484.513591</ele>
        <time>2024-06-26T19:16:44.949Z</time>
      </trkpt>
      <trkpt lat="46.14054" lon="2.52295">
        <ele>487.642823</ele>
        <time>2024-06-26T19:17:27.439Z</time>
      </trkpt>
      <trkpt lat="46.14019" lon="2.52328">
        <ele>488.459806</ele>
        <time>2024-06-26T19:17:36.719Z</time>
      </trkpt>
      <trkpt lat="46.13919" lon="2.52438">
        <ele>492.901137</ele>
        <time>2024-06-26T19:18:11.824Z</time>
      </trkpt>
      <trkpt lat="46.13891" lon="2.52484">
        <ele>494.763133</ele>
        <time>2024-06-26T19:18:26.536Z</time>
      </trkpt>
      <trkpt lat="46.13809" lon="2.5266">
        <ele>501.409613</ele>
        <time>2024-06-26T19:19:21.981Z</time>
      </trkpt>
      <trkpt lat="46.13794" lon="2.52685">
        <ele>502.453409</ele>
        <time>2024-06-26T19:19:29.790Z</time>
      </trkpt>
      <trkpt lat="46.13775" lon="2.52703">
        <ele>503.498128</ele>
        <time>2024-06-26T19:19:36.891Z</time>
      </trkpt>
      <trkpt lat="46.13768" lon="2.52706">
        <ele>503.828469</ele>
        <time>2024-06-26T19:19:39.066Z</time>
      </trkpt>
      <trkpt lat="46.13757" lon="2.52719">
        <ele>504.487577</ele>
        <time>2024-06-26T19:19:43.448Z</time>
      </trkpt>
      <trkpt lat="46.13766" lon="2.5273">
        <ele>505.009513</ele>
        <time>2024-06-26T19:19:46.265Z</time>
      </trkpt>
      <trkpt lat="46.13814" lon="2.52781">
        <ele>506.13036</ele>
        <time>2024-06-26T19:20:00.610Z</time>
      </trkpt>
      <trkpt lat="46.13886" lon="2.52867">
        <ele>507.349401</ele>
        <time>2024-06-26T19:20:17.202Z</time>
      </trkpt>
      <trkpt lat="46.13919" lon="2.52902">
        <ele>507.857432</ele>
        <time>2024-06-26T19:20:23.989Z</time>
      </trkpt>
      <trkpt lat="46.14041" lon="2.52982">
        <ele>508.831372</ele>
        <time>2024-06-26T19:20:48.224Z</time>
      </trkpt>
      <trkpt lat="46.14062" lon="2.52999">
        <ele>509.002925</ele>
        <time>2024-06-26T19:20:52.593Z</time>
      </trkpt>
      <trkpt lat="46.14077" lon="2.53016">
        <ele>509.130827</ele>
        <time>2024-06-26T19:20:56.246Z</time>
      </trkpt>
      <trkpt lat="46.14103" lon="2.5305">
        <ele>509.068873</ele>
        <time>2024-06-26T19:21:02.197Z</time>
      </trkpt>
      <trkpt lat="46.14105" lon="2.53053">
        <ele>509.062421</ele>
        <time>2024-06-26T19:21:02.801Z</time>
      </trkpt>
      <trkpt lat="46.1438" lon="2.53404">
        <ele>508.229669</ele>
        <time>2024-06-26T19:21:51.447Z</time>
      </trkpt>
      <trkpt lat="46.14407" lon="2.5343">
        <ele>508.39979</ele>
        <time>2024-06-26T19:21:56.863Z</time>
      </trkpt>
      <trkpt lat="46.14406" lon="2.53443">
        <ele>508.447091</ele>
        <time>2024-06-26T19:21:58.992Z</time>
      </trkpt>
      <trkpt lat="46.14565" lon="2.53717">
        <ele>510.146747</ele>
        <time>2024-06-26T19:22:59.378Z</time>
      </trkpt>
      <trkpt lat="46.14632" lon="2.53806">
        <ele>509.713694</ele>
        <time>2024-06-26T19:23:17.459Z</time>
      </trkpt>
      <trkpt lat="46.14651" lon="2.53827">
        <ele>509.496457</ele>
        <time>2024-06-26T19:23:21.707Z</time>
      </trkpt>
      <trkpt lat="46.14814" lon="2.54">
        <ele>506.081564</ele>
        <time>2024-06-26T19:23:54.217Z</time>
      </trkpt>
      <trkpt lat="46.14936" lon="2.5413">
        <ele>501.423644</ele>
        <time>2024-06-26T19:24:16.493Z</time>
      </trkpt>
      <trkpt lat="46.15116" lon="2.54316">
        <ele>492.514391</ele>
        <time>2024-06-26T19:24:47.156Z</time>
      </trkpt>
      <trkpt lat="46.15131" lon="2.5432">
        <ele>491.857219</ele>
        <time>2024-06-26T19:24:49.284Z</time>
      </trkpt>
      <trkpt lat="46.1513" lon="2.54379">
        <ele>490.135716</ele>
        <time>2024-06-26T19:24:53.193Z</time>
      </trkpt>
      <trkpt lat="46.15128" lon="2.54396">
        <ele>489.70947</ele>
        <time>2024-06-26T19:24:54.371Z</time>
      </trkpt>
      <trkpt lat="46.15122" lon="2.54431">
        <ele>488.845963</ele>
        <time>2024-06-26T19:24:56.790Z</time>
      </trkpt>
      <trkpt lat="46.151" lon="2.5457">
        <ele>485.399276</ele>
        <time>2024-06-26T19:25:06.634Z</time>
      </trkpt>
      <trkpt lat="46.15076" lon="2.54731">
        <ele>482.979654</ele>
        <time>2024-06-26T19:25:18.674Z</time>
      </trkpt>
      <trkpt lat="46.15058" lon="2.54745">
        <ele>482.698201</ele>
        <time>2024-06-26T19:25:21.080Z</time>
      </trkpt>
      <trkpt lat="46.15035" lon="2.54751">
        <ele>482.376471</ele>
        <time>2024-06-26T19:25:23.987Z</time>
      </trkpt>
      <trkpt lat="46.15022" lon="2.54765">
        <ele>482.153208</ele>
        <time>2024-06-26T19:25:26.075Z</time>
      </trkpt>
      <trkpt lat="46.15008" lon="2.54892">
        <ele>481.556161</ele>
        <time>2024-06-26T19:25:38.874Z</time>
      </trkpt>
      <trkpt lat="46.14981" lon="2.55037">
        <ele>481.669474</ele>
        <time>2024-06-26T19:25:56.220Z</time>
      </trkpt>
      <trkpt lat="46.14909" lon="2.55137">
        <ele>481.224799</ele>
        <time>2024-06-26T19:26:10.428Z</time>
      </trkpt>
      <trkpt lat="46.14826" lon="2.5528">
        <ele>480.424999</ele>
        <time>2024-06-26T19:26:25.787Z</time>
      </trkpt>
      <trkpt lat="46.14767" lon="2.55345">
        <ele>480.533896</ele>
        <time>2024-06-26T19:26:35.584Z</time>
      </trkpt>
      <trkpt lat="46.14656" lon="2.55468">
        <ele>481.054524</ele>
        <time>2024-06-26T19:27:02.019Z</time>
      </trkpt>
      <trkpt lat="46.14614" lon="2.55511">
        <ele>481.457995</ele>
        <time>2024-06-26T19:27:14.602Z</time>
      </trkpt>
      <trkpt lat="46.1459" lon="2.55529">
        <ele>481.665488</ele>
        <time>2024-06-26T19:27:19.600Z</time>
      </trkpt>
      <trkpt lat="46.14505" lon="2.55524">
        <ele>480.928086</ele>
        <time>2024-06-26T19:27:30.940Z</time>
      </trkpt>
      <trkpt lat="46.14398" lon="2.55517">
        <ele>477.294265</ele>
        <time>2024-06-26T19:27:41.863Z</time>
      </trkpt>
      <trkpt lat="46.14376" lon="2.55504">
        <ele>476.502085</ele>
        <time>2024-06-26T19:27:44.030Z</time>
      </trkpt>
      <trkpt lat="46.14293" lon="2.5544">
        <ele>470.51821</ele>
        <time>2024-06-26T19:27:52.438Z</time>
      </trkpt>
      <trkpt lat="46.14259" lon="2.55414">
        <ele>467.848577</ele>
        <time>2024-06-26T19:27:55.859Z</time>
      </trkpt>
      <trkpt lat="46.14161" lon="2.55336">
        <ele>460.21472</ele>
        <time>2024-06-26T19:28:05.919Z</time>
      </trkpt>
      <trkpt lat="46.14148" lon="2.55314">
        <ele>458.898296</ele>
        <time>2024-06-26T19:28:07.697Z</time>
      </trkpt>
      <trkpt lat="46.14147" lon="2.55254">
        <ele>456.165772</ele>
        <time>2024-06-26T19:28:11.480Z</time>
      </trkpt>
      <trkpt lat="46.14139" lon="2.55248">
        <ele>455.593323</ele>
        <time>2024-06-26T19:28:12.291Z</time>
      </trkpt>
      <trkpt lat="46.14135" lon="2.55246">
        <ele>455.297193</ele>
        <time>2024-06-26T19:28:12.702Z</time>
      </trkpt>
      <trkpt lat="46.1412" lon="2.55252">
        <ele>454.274394</ele>
        <time>2024-06-26T19:28:14.129Z</time>
      </trkpt>
      <trkpt lat="46.14114" lon="2.5527">
        <ele>453.364965</ele>
        <time>2024-06-26T19:28:15.417Z</time>
      </trkpt>
      <trkpt lat="46.14113" lon="2.55344">
        <ele>449.968095</ele>
        <time>2024-06-26T19:28:20.130Z</time>
      </trkpt>
      <trkpt lat="46.1414" lon="2.55404">
        <ele>446.657076</ele>
        <time>2024-06-26T19:28:24.636Z</time>
      </trkpt>
      <trkpt lat="46.14144" lon="2.55436">
        <ele>445.152221</ele>
        <time>2024-06-26T19:28:26.650Z</time>
      </trkpt>
      <trkpt lat="46.14138" lon="2.55449">
        <ele>444.429329</ele>
        <time>2024-06-26T19:28:27.615Z</time>
      </trkpt>
      <trkpt lat="46.14122" lon="2.55468">
        <ele>443.045388</ele>
        <time>2024-06-26T19:28:29.481Z</time>
      </trkpt>
      <trkpt lat="46.14066" lon="2.55496">
        <ele>438.973373</ele>
        <time>2024-06-26T19:28:34.843Z</time>
      </trkpt>
      <trkpt lat="46.14052" lon="2.55509">
        <ele>437.626163</ele>
        <time>2024-06-26T19:28:36.336Z</time>
      </trkpt>
      <trkpt lat="46.14046" lon="2.55521">
        <ele>436.796387</ele>
        <time>2024-06-26T19:28:37.250Z</time>
      </trkpt>
      <trkpt lat="46.1402" lon="2.55681">
        <ele>427.586702</ele>
        <time>2024-06-26T19:28:47.276Z</time>
      </trkpt>
      <trkpt lat="46.13996" lon="2.55788">
        <ele>420.858657</ele>
        <time>2024-06-26T19:28:54.070Z</time>
      </trkpt>
      <trkpt lat="46.14004" lon="2.55841">
        <ele>417.47842</ele>
        <time>2024-06-26T19:28:57.300Z</time>
      </trkpt>
      <trkpt lat="46.14007" lon="2.55878">
        <ele>415.154817</ele>
        <time>2024-06-26T19:28:59.525Z</time>
      </trkpt>
      <trkpt lat="46.14" lon="2.55917">
        <ele>412.639687</ele>
        <time>2024-06-26T19:29:01.943Z</time>
      </trkpt>
      <trkpt lat="46.13976" lon="2.5597">
        <ele>408.800954</ele>
        <time>2024-06-26T19:29:05.804Z</time>
      </trkpt>
      <trkpt lat="46.13968" lon="2.56044">
        <ele>406.732154</ele>
        <time>2024-06-26T19:29:10.454Z</time>
      </trkpt>
      <trkpt lat="46.13958" lon="2.56071">
        <ele>405.885518</ele>
        <time>2024-06-26T19:29:12.414Z</time>
      </trkpt>
      <trkpt lat="46.13956" lon="2.56096">
        <ele>405.173118</ele>
        <time>2024-06-26T19:29:14.104Z</time>
      </trkpt>
      <trkpt lat="46.13961" lon="2.56117">
        <ele>404.575315</ele>
        <time>2024-06-26T19:29:15.571Z</time>
      </trkpt>
      <trkpt lat="46.1397" lon="2.56139">
        <ele>403.865191</ele>
        <time>2024-06-26T19:29:17.383Z</time>
      </trkpt>
      <trkpt lat="46.13991" lon="2.56171">
        <ele>402.643341</ele>
        <time>2024-06-26T19:29:20.973Z</time>
      </trkpt>
      <trkpt lat="46.13998" lon="2.56187">
        <ele>402.097643</ele>
        <time>2024-06-26T19:29:23.174Z</time>
      </trkpt>
      <trkpt lat="46.14005" lon="2.56217">
        <ele>401.665069</ele>
        <time>2024-06-26T19:29:26.935Z</time>
      </trkpt>
      <trkpt lat="46.14013" lon="2.56232">
        <ele>401.630976</ele>
        <time>2024-06-26T19:29:29.695Z</time>
      </trkpt>
      <trkpt lat="46.14021" lon="2.56238">
        <ele>401.606644</ele>
        <time>2024-06-26T19:29:31.695Z</time>
      </trkpt>
      <trkpt lat="46.14032" lon="2.5624">
        <ele>401.574734</ele>
        <time>2024-06-26T19:29:34.327Z</time>
      </trkpt>
      <trkpt lat="46.14038" lon="2.56239">
        <ele>401.55897</ele>
        <time>2024-06-26T19:29:35.721Z</time>
      </trkpt>
      <trkpt lat="46.14077" lon="2.56219">
        <ele>401.446173</ele>
        <time>2024-06-26T19:29:44.399Z</time>
      </trkpt>
      <trkpt lat="46.14093" lon="2.56213">
        <ele>401.404084</ele>
        <time>2024-06-26T19:29:47.163Z</time>
      </trkpt>
      <trkpt lat="46.1412" lon="2.56204">
        <ele>401.326708</ele>
        <time>2024-06-26T19:29:51.387Z</time>
      </trkpt>
      <trkpt lat="46.14154" lon="2.56181">
        <ele>401.224769</ele>
        <time>2024-06-26T19:29:55.652Z</time>
      </trkpt>
      <trkpt lat="46.14166" lon="2.56178">
        <ele>400.805517</ele>
        <time>2024-06-26T19:29:56.884Z</time>
      </trkpt>
      <trkpt lat="46.1424" lon="2.56205">
        <ele>395.527108</ele>
        <time>2024-06-26T19:30:04.157Z</time>
      </trkpt>
      <trkpt lat="46.14303" lon="2.56234">
        <ele>390.956372</ele>
        <time>2024-06-26T19:30:09.949Z</time>
      </trkpt>
      <trkpt lat="46.1432" lon="2.56252">
        <ele>389.488591</ele>
        <time>2024-06-26T19:30:11.779Z</time>
      </trkpt>
      <trkpt lat="46.14338" lon="2.56297">
        <ele>386.530452</ele>
        <time>2024-06-26T19:30:14.820Z</time>
      </trkpt>
      <trkpt lat="46.14342" lon="2.56317">
        <ele>385.212606</ele>
        <time>2024-06-26T19:30:16.083Z</time>
      </trkpt>
      <trkpt lat="46.14353" lon="2.56422">
        <ele>378.693685</ele>
        <time>2024-06-26T19:30:22.383Z</time>
      </trkpt>
      <trkpt lat="46.1434" lon="2.56542">
        <ele>372.48264</ele>
        <time>2024-06-26T19:30:29.903Z</time>
      </trkpt>
      <trkpt lat="46.14341" lon="2.56562">
        <ele>372.202426</ele>
        <time>2024-06-26T19:30:31.251Z</time>
      </trkpt>
      <trkpt lat="46.14357" lon="2.56606">
        <ele>371.517542</ele>
        <time>2024-06-26T19:30:34.630Z</time>
      </trkpt>
      <trkpt lat="46.14372" lon="2.56623">
        <ele>371.14072</ele>
        <time>2024-06-26T19:30:36.714Z</time>
      </trkpt>
      <trkpt lat="46.14384" lon="2.56629">
        <ele>370.886978</ele>
        <time>2024-06-26T19:30:38.233Z</time>
      </trkpt>
      <trkpt lat="46.14404" lon="2.56626">
        <ele>370.477796</ele>
        <time>2024-06-26T19:30:41.203Z</time>
      </trkpt>
      <trkpt lat="46.14406" lon="2.56639">
        <ele>370.300466</ele>
        <time>2024-06-26T19:30:44.030Z</time>
      </trkpt>
      <trkpt lat="46.14404" lon="2.56626">
        <ele>370.123136</ele>
        <time>2024-06-26T19:30:47.601Z</time>
      </trkpt>
      <trkpt lat="46.14413" lon="2.56626">
        <ele>369.957295</ele>
        <time>2024-06-26T19:30:49.159Z</time>
      </trkpt>
      <trkpt lat="46.14422" lon="2.56631">
        <ele>369.761836</ele>
        <time>2024-06-26T19:30:50.880Z</time>
      </trkpt>
      <trkpt lat="46.14453" lon="2.56666">
        <ele>369.837166</ele>
        <time>2024-06-26T19:30:58.365Z</time>
      </trkpt>
      <trkpt lat="46.14465" lon="2.5667">
        <ele>370.324511</ele>
        <time>2024-06-26T19:31:01.121Z</time>
      </trkpt>
      <trkpt lat="46.14489" lon="2.56637">
        <ele>371.618451</ele>
        <time>2024-06-26T19:31:10.258Z</time>
      </trkpt>
      <trkpt lat="46.14511" lon="2.5659">
        <ele>373.188593</ele>
        <time>2024-06-26T19:31:23.824Z</time>
      </trkpt>
      <trkpt lat="46.14524" lon="2.56571">
        <ele>373.917417</ele>
        <time>2024-06-26T19:31:30.592Z</time>
      </trkpt>
      <trkpt lat="46.14542" lon="2.56551">
        <ele>374.803732</ele>
        <time>2024-06-26T19:31:38.248Z</time>
      </trkpt>
      <trkpt lat="46.14579" lon="2.56532">
        <ele>376.368105</ele>
        <time>2024-06-26T19:31:52.664Z</time>
      </trkpt>
      <trkpt lat="46.14603" lon="2.56534">
        <ele>377.354621</ele>
        <time>2024-06-26T19:32:01.755Z</time>
      </trkpt>
      <trkpt lat="46.14667" lon="2.56553">
        <ele>380.091107</ele>
        <time>2024-06-26T19:32:22.870Z</time>
      </trkpt>
      <trkpt lat="46.14769" lon="2.56559">
        <ele>384.407478</ele>
        <time>2024-06-26T19:32:52.656Z</time>
      </trkpt>
      <trkpt lat="46.14789" lon="2.56556">
        <ele>385.384152</ele>
        <time>2024-06-26T19:32:57.705Z</time>
      </trkpt>
      <trkpt lat="46.1482" lon="2.56528">
        <ele>387.236579</ele>
        <time>2024-06-26T19:33:08.130Z</time>
      </trkpt>
      <trkpt lat="46.14848" lon="2.56509">
        <ele>388.763083</ele>
        <time>2024-06-26T19:33:17.241Z</time>
      </trkpt>
      <trkpt lat="46.14922" lon="2.56479">
        <ele>392.622113</ele>
        <time>2024-06-26T19:33:46.304Z</time>
      </trkpt>
      <trkpt lat="46.1494" lon="2.56469">
        <ele>394.57053</ele>
        <time>2024-06-26T19:33:55.488Z</time>
      </trkpt>
      <trkpt lat="46.14967" lon="2.5646">
        <ele>397.733537</ele>
        <time>2024-06-26T19:34:10.362Z</time>
      </trkpt>
      <trkpt lat="46.14989" lon="2.5647">
        <ele>400.326355</ele>
        <time>2024-06-26T19:34:23.752Z</time>
      </trkpt>
      <trkpt lat="46.15044" lon="2.56512">
        <ele>407.491246</ele>
        <time>2024-06-26T19:35:05.090Z</time>
      </trkpt>
      <trkpt lat="46.1507" lon="2.56534">
        <ele>410.983767</ele>
        <time>2024-06-26T19:35:26.166Z</time>
      </trkpt>
      <trkpt lat="46.1509" lon="2.56561">
        <ele>414.18684</ele>
        <time>2024-06-26T19:35:45.641Z</time>
      </trkpt>
      <trkpt lat="46.15093" lon="2.56587">
        <ele>416.233281</ele>
        <time>2024-06-26T19:35:58.091Z</time>
      </trkpt>
      <trkpt lat="46.15089" lon="2.56619">
        <ele>418.802973</ele>
        <time>2024-06-26T19:36:13.263Z</time>
      </trkpt>
      <trkpt lat="46.1509" lon="2.56647">
        <ele>420.999767</ele>
        <time>2024-06-26T19:36:26.175Z</time>
      </trkpt>
      <trkpt lat="46.15094" lon="2.56669">
        <ele>422.839032</ele>
        <time>2024-06-26T19:36:36.466Z</time>
      </trkpt>
      <trkpt lat="46.15102" lon="2.56684">
        <ele>424.294349</ele>
        <time>2024-06-26T19:36:44.633Z</time>
      </trkpt>
      <trkpt lat="46.15113" lon="2.56733">
        <ele>428.327288</ele>
        <time>2024-06-26T19:37:05.680Z</time>
      </trkpt>
      <trkpt lat="46.15113" lon="2.56744">
        <ele>429.255599</ele>
        <time>2024-06-26T19:37:10.112Z</time>
      </trkpt>
      <trkpt lat="46.15092" lon="2.5679">
        <ele>433.633941</ele>
        <time>2024-06-26T19:37:30.173Z</time>
      </trkpt>
      <trkpt lat="46.15077" lon="2.56832">
        <ele>436.084573</ele>
        <time>2024-06-26T19:37:45.491Z</time>
      </trkpt>
      <trkpt lat="46.15061" lon="2.5692">
        <ele>440.640121</ele>
        <time>2024-06-26T19:38:13.128Z</time>
      </trkpt>
      <trkpt lat="46.15052" lon="2.56931">
        <ele>441.47539</ele>
        <time>2024-06-26T19:38:17.805Z</time>
      </trkpt>
      <trkpt lat="46.15033" lon="2.56945">
        <ele>442.980035</ele>
        <time>2024-06-26T19:38:26.323Z</time>
      </trkpt>
      <trkpt lat="46.14979" lon="2.56977">
        <ele>447.110933</ele>
        <time>2024-06-26T19:38:50.393Z</time>
      </trkpt>
      <trkpt lat="46.14953" lon="2.57004">
        <ele>448.719738</ele>
        <time>2024-06-26T19:39:03.214Z</time>
      </trkpt>
      <trkpt lat="46.14923" lon="2.57041">
        <ele>450.692303</ele>
        <time>2024-06-26T19:39:17.967Z</time>
      </trkpt>
      <trkpt lat="46.14869" lon="2.57106">
        <ele>454.247384</ele>
        <time>2024-06-26T19:39:42.013Z</time>
      </trkpt>
      <trkpt lat="46.14864" lon="2.57114">
        <ele>454.61755</ele>
        <time>2024-06-26T19:39:44.472Z</time>
      </trkpt>
      <trkpt lat="46.1486" lon="2.57123">
        <ele>454.993531</ele>
        <time>2024-06-26T19:39:46.917Z</time>
      </trkpt>
      <trkpt lat="46.14852" lon="2.57158">
        <ele>456.120352</ele>
        <time>2024-06-26T19:39:54.161Z</time>
      </trkpt>
      <trkpt lat="46.14841" lon="2.57185">
        <ele>456.699619</ele>
        <time>2024-06-26T19:40:00.224Z</time>
      </trkpt>
      <trkpt lat="46.1479" lon="2.57263">
        <ele>458.633774</ele>
        <time>2024-06-26T19:40:18.509Z</time>
      </trkpt>
      <trkpt lat="46.14765" lon="2.57289">
        <ele>459.45264</ele>
        <time>2024-06-26T19:40:25.354Z</time>
      </trkpt>
      <trkpt lat="46.1471" lon="2.57316">
        <ele>461.193714</ele>
        <time>2024-06-26T19:40:38.324Z</time>
      </trkpt>
      <trkpt lat="46.14685" lon="2.57343">
        <ele>462.625526</ele>
        <time>2024-06-26T19:40:46.752Z</time>
      </trkpt>
      <trkpt lat="46.14658" lon="2.57398">
        <ele>464.740482</ele>
        <time>2024-06-26T19:41:01.293Z</time>
      </trkpt>
      <trkpt lat="46.14615" lon="2.57503">
        <ele>468.596002</ele>
        <time>2024-06-26T19:41:32.802Z</time>
      </trkpt>
      <trkpt lat="46.14595" lon="2.57574">
        <ele>471.919316</ele>
        <time>2024-06-26T19:41:54.854Z</time>
      </trkpt>
      <trkpt lat="46.14595" lon="2.57596">
        <ele>472.94129</ele>
        <time>2024-06-26T19:42:01.599Z</time>
      </trkpt>
      <trkpt lat="46.14618" lon="2.57684">
        <ele>477.194395</ele>
        <time>2024-06-26T19:42:29.715Z</time>
      </trkpt>
      <trkpt lat="46.1462" lon="2.57709">
        <ele>478.311104</ele>
        <time>2024-06-26T19:42:36.785Z</time>
      </trkpt>
      <trkpt lat="46.14612" lon="2.57838">
        <ele>482.795764</ele>
        <time>2024-06-26T19:43:11.544Z</time>
      </trkpt>
      <trkpt lat="46.14607" lon="2.57878">
        <ele>483.948948</ele>
        <time>2024-06-26T19:43:21.168Z</time>
      </trkpt>
      <trkpt lat="46.14574" lon="2.58047">
        <ele>488.370148</ele>
        <time>2024-06-26T19:43:52.682Z</time>
      </trkpt>
      <trkpt lat="46.14562" lon="2.58084">
        <ele>488.978305</ele>
        <time>2024-06-26T19:43:58.327Z</time>
      </trkpt>
      <trkpt lat="46.1453" lon="2.58166">
        <ele>490.38949</ele>
        <time>2024-06-26T19:44:11.198Z</time>
      </trkpt>
      <trkpt lat="46.14517" lon="2.58246">
        <ele>491.628264</ele>
        <time>2024-06-26T19:44:25.094Z</time>
      </trkpt>
      <trkpt lat="46.14487" lon="2.58316">
        <ele>494.525298</ele>
        <time>2024-06-26T19:44:41.635Z</time>
      </trkpt>
      <trkpt lat="46.14482" lon="2.58346">
        <ele>495.675958</ele>
        <time>2024-06-26T19:44:49.085Z</time>
      </trkpt>
      <trkpt lat="46.14483" lon="2.58365">
        <ele>496.387134</ele>
        <time>2024-06-26T19:44:53.812Z</time>
      </trkpt>
      <trkpt lat="46.14496" lon="2.5843">
        <ele>498.909444</ele>
        <time>2024-06-26T19:45:12.387Z</time>
      </trkpt>
      <trkpt lat="46.14503" lon="2.58452">
        <ele>499.817357</ele>
        <time>2024-06-26T19:45:19.739Z</time>
      </trkpt>
      <trkpt lat="46.14511" lon="2.58477">
        <ele>500.832266</ele>
        <time>2024-06-26T19:45:27.808Z</time>
      </trkpt>
      <trkpt lat="46.14514" lon="2.58501">
        <ele>501.795299</ele>
        <time>2024-06-26T19:45:35.436Z</time>
      </trkpt>
      <trkpt lat="46.14518" lon="2.58556">
        <ele>504.254664</ele>
        <time>2024-06-26T19:45:53.203Z</time>
      </trkpt>
      <trkpt lat="46.14534" lon="2.58657">
        <ele>508.889824</ele>
        <time>2024-06-26T19:46:23.920Z</time>
      </trkpt>
      <trkpt lat="46.14529" lon="2.58762">
        <ele>513.313945</ele>
        <time>2024-06-26T19:46:50.215Z</time>
      </trkpt>
      <trkpt lat="46.14524" lon="2.58816">
        <ele>514.738083</ele>
        <time>2024-06-26T19:47:03.042Z</time>
      </trkpt>
      <trkpt lat="46.14523" lon="2.58852">
        <ele>515.680069</ele>
        <time>2024-06-26T19:47:11.095Z</time>
      </trkpt>
      <trkpt lat="46.14521" lon="2.58895">
        <ele>516.786499</ele>
        <time>2024-06-26T19:47:19.901Z</time>
      </trkpt>
      <trkpt lat="46.14517" lon="2.58931">
        <ele>517.726254</ele>
        <time>2024-06-26T19:47:26.799Z</time>
      </trkpt>
      <trkpt lat="46.14516" lon="2.58945">
        <ele>518.100014</ele>
        <time>2024-06-26T19:47:29.385Z</time>
      </trkpt>
      <trkpt lat="46.1451" lon="2.58991">
        <ele>519.322224</ele>
        <time>2024-06-26T19:47:37.507Z</time>
      </trkpt>
      <trkpt lat="46.14506" lon="2.59008">
        <ele>519.741969</ele>
        <time>2024-06-26T19:47:40.492Z</time>
      </trkpt>
      <trkpt lat="46.14492" lon="2.5906">
        <ele>520.497604</ele>
        <time>2024-06-26T19:47:50.035Z</time>
      </trkpt>
      <trkpt lat="46.1448" lon="2.59085">
        <ele>520.907323</ele>
        <time>2024-06-26T19:47:55.316Z</time>
      </trkpt>
      <trkpt lat="46.14443" lon="2.59148">
        <ele>522.028215</ele>
        <time>2024-06-26T19:48:09.079Z</time>
      </trkpt>
      <trkpt lat="46.1443" lon="2.59173">
        <ele>522.444636</ele>
        <time>2024-06-26T19:48:13.614Z</time>
      </trkpt>
      <trkpt lat="46.14425" lon="2.59198">
        <ele>522.805087</ele>
        <time>2024-06-26T19:48:17.318Z</time>
      </trkpt>
      <trkpt lat="46.14425" lon="2.59294">
        <ele>523.202927</ele>
        <time>2024-06-26T19:48:29.254Z</time>
      </trkpt>
      <trkpt lat="46.14416" lon="2.59447">
        <ele>523.185777</ele>
        <time>2024-06-26T19:48:45.294Z</time>
      </trkpt>
      <trkpt lat="46.14415" lon="2.59482">
        <ele>523.181866</ele>
        <time>2024-06-26T19:48:48.283Z</time>
      </trkpt>
      <trkpt lat="46.14421" lon="2.59589">
        <ele>522.106799</ele>
        <time>2024-06-26T19:48:56.582Z</time>
      </trkpt>
      <trkpt lat="46.14423" lon="2.59616">
        <ele>521.82841</ele>
        <time>2024-06-26T19:48:58.543Z</time>
      </trkpt>
      <trkpt lat="46.14436" lon="2.59667">
        <ele>521.253546</ele>
        <time>2024-06-26T19:49:02.641Z</time>
      </trkpt>
      <trkpt lat="46.14457" lon="2.59718">
        <ele>520.634269</ele>
        <time>2024-06-26T19:49:07.356Z</time>
      </trkpt>
      <trkpt lat="46.14483" lon="2.59769">
        <ele>520.361632</ele>
        <time>2024-06-26T19:49:13.034Z</time>
      </trkpt>
      <trkpt lat="46.14499" lon="2.59819">
        <ele>520.241062</ele>
        <time>2024-06-26T19:49:19.153Z</time>
      </trkpt>
      <trkpt lat="46.14531" lon="2.60001">
        <ele>519.920385</ele>
        <time>2024-06-26T19:49:37.321Z</time>
      </trkpt>
      <trkpt lat="46.14535" lon="2.60012">
        <ele>519.929731</ele>
        <time>2024-06-26T19:49:38.597Z</time>
      </trkpt>
      <trkpt lat="46.14531" lon="2.60001">
        <ele>519.939078</ele>
        <time>2024-06-26T19:49:39.751Z</time>
      </trkpt>
      <trkpt lat="46.14499" lon="2.59819">
        <ele>520.088363</ele>
        <time>2024-06-26T19:50:00.394Z</time>
      </trkpt>
      <trkpt lat="46.14483" lon="2.59769">
        <ele>520.423104</ele>
        <time>2024-06-26T19:50:05.681Z</time>
      </trkpt>
      <trkpt lat="46.14457" lon="2.59718">
        <ele>520.959204</ele>
        <time>2024-06-26T19:50:13.141Z</time>
      </trkpt>
      <trkpt lat="46.14436" lon="2.59667">
        <ele>521.463959</ele>
        <time>2024-06-26T19:50:21.709Z</time>
      </trkpt>
      <trkpt lat="46.14423" lon="2.59616">
        <ele>521.932516</ele>
        <time>2024-06-26T19:50:30.732Z</time>
      </trkpt>
      <trkpt lat="46.14421" lon="2.59589">
        <ele>522.159423</ele>
        <time>2024-06-26T19:50:35.264Z</time>
      </trkpt>
      <trkpt lat="46.14415" lon="2.59482">
        <ele>522.758522</ele>
        <time>2024-06-26T19:50:51.836Z</time>
      </trkpt>
      <trkpt lat="46.14416" lon="2.59447">
        <ele>522.932105</ele>
        <time>2024-06-26T19:50:56.391Z</time>
      </trkpt>
      <trkpt lat="46.14425" lon="2.59294">
        <ele>523.486159</ele>
        <time>2024-06-26T19:51:11.970Z</time>
      </trkpt>
      <trkpt lat="46.14425" lon="2.59198">
        <ele>522.893032</ele>
        <time>2024-06-26T19:51:20.291Z</time>
      </trkpt>
      <trkpt lat="46.1443" lon="2.59173">
        <ele>522.727588</ele>
        <time>2024-06-26T19:51:22.451Z</time>
      </trkpt>
      <trkpt lat="46.14443" lon="2.59148">
        <ele>522.536455</ele>
        <time>2024-06-26T19:51:24.878Z</time>
      </trkpt>
      <trkpt lat="46.1448" lon="2.59085">
        <ele>522.021974</ele>
        <time>2024-06-26T19:51:31.576Z</time>
      </trkpt>
      <trkpt lat="46.14492" lon="2.5906">
        <ele>521.9702</ele>
        <time>2024-06-26T19:51:34.254Z</time>
      </trkpt>
      <trkpt lat="46.14506" lon="2.59008">
        <ele>521.931038</ele>
        <time>2024-06-26T19:51:39.473Z</time>
      </trkpt>
      <trkpt lat="46.1451" lon="2.58991">
        <ele>521.918492</ele>
        <time>2024-06-26T19:51:41.177Z</time>
      </trkpt>
      <trkpt lat="46.14516" lon="2.58945">
        <ele>521.885427</ele>
        <time>2024-06-26T19:51:45.865Z</time>
      </trkpt>
      <trkpt lat="46.1451" lon="2.58991">
        <ele>521.852361</ele>
        <time>2024-06-26T19:51:50.865Z</time>
      </trkpt>
      <trkpt lat="46.14506" lon="2.59008">
        <ele>521.839815</ele>
        <time>2024-06-26T19:51:52.856Z</time>
      </trkpt>
      <trkpt lat="46.14492" lon="2.5906">
        <ele>521.848545</ele>
        <time>2024-06-26T19:51:59.215Z</time>
      </trkpt>
      <trkpt lat="46.1448" lon="2.59085">
        <ele>522.045736</ele>
        <time>2024-06-26T19:52:02.903Z</time>
      </trkpt>
      <trkpt lat="46.14443" lon="2.59148">
        <ele>522.585202</ele>
        <time>2024-06-26T19:52:14.526Z</time>
      </trkpt>
      <trkpt lat="46.1443" lon="2.59173">
        <ele>522.785618</ele>
        <time>2024-06-26T19:52:19.061Z</time>
      </trkpt>
      <trkpt lat="46.14425" lon="2.59198">
        <ele>522.959097</ele>
        <time>2024-06-26T19:52:22.765Z</time>
      </trkpt>
      <trkpt lat="46.14425" lon="2.59294">
        <ele>523.457531</ele>
        <time>2024-06-26T19:52:34.701Z</time>
      </trkpt>
      <trkpt lat="46.14416" lon="2.59447">
        <ele>522.974835</ele>
        <time>2024-06-26T19:52:50.742Z</time>
      </trkpt>
      <trkpt lat="46.14415" lon="2.59482">
        <ele>522.86475</ele>
        <time>2024-06-26T19:52:53.729Z</time>
      </trkpt>
      <trkpt lat="46.14421" lon="2.59589">
        <ele>522.257848</ele>
        <time>2024-06-26T19:53:02.029Z</time>
      </trkpt>
      <trkpt lat="46.14423" lon="2.59616">
        <ele>522.031072</ele>
        <time>2024-06-26T19:53:03.990Z</time>
      </trkpt>
      <trkpt lat="46.14436" lon="2.59667">
        <ele>521.562788</ele>
        <time>2024-06-26T19:53:08.088Z</time>
      </trkpt>
      <trkpt lat="46.14457" lon="2.59718">
        <ele>521.058325</ele>
        <time>2024-06-26T19:53:12.804Z</time>
      </trkpt>
      <trkpt lat="46.14483" lon="2.59769">
        <ele>520.522536</ele>
        <time>2024-06-26T19:53:18.481Z</time>
      </trkpt>
      <trkpt lat="46.14499" lon="2.59819">
        <ele>521.137208</ele>
        <time>2024-06-26T19:53:24.824Z</time>
      </trkpt>
      <trkpt lat="46.14531" lon="2.60001">
        <ele>523.701696</ele>
        <time>2024-06-26T19:53:56.607Z</time>
      </trkpt>
      <trkpt lat="46.14545" lon="2.60041">
        <ele>524.313481</ele>
        <time>2024-06-26T19:54:05.765Z</time>
      </trkpt>
      <trkpt lat="46.14569" lon="2.60094">
        <ele>525.206316</ele>
        <time>2024-06-26T19:54:18.597Z</time>
      </trkpt>
      <trkpt lat="46.1462" lon="2.6023">
        <ele>527.397741</ele>
        <time>2024-06-26T19:54:42.445Z</time>
      </trkpt>
      <trkpt lat="46.14628" lon="2.60273">
        <ele>527.545134</ele>
        <time>2024-06-26T19:54:47.440Z</time>
      </trkpt>
      <trkpt lat="46.14626" lon="2.60328">
        <ele>527.259315</ele>
        <time>2024-06-26T19:54:52.652Z</time>
      </trkpt>
      <trkpt lat="46.14588" lon="2.60624">
        <ele>525.504157</ele>
        <time>2024-06-26T19:55:17.114Z</time>
      </trkpt>
      <trkpt lat="46.14586" lon="2.60749">
        <ele>524.65447</ele>
        <time>2024-06-26T19:55:27.840Z</time>
      </trkpt>
      <trkpt lat="46.14579" lon="2.60832">
        <ele>524.874828</ele>
        <time>2024-06-26T19:55:36.023Z</time>
      </trkpt>
      <trkpt lat="46.14559" lon="2.60973">
        <ele>525.499774</ele>
        <time>2024-06-26T19:55:53.995Z</time>
      </trkpt>
      <trkpt lat="46.14502" lon="2.61259">
        <ele>528.249443</ele>
        <time>2024-06-26T19:56:38.219Z</time>
      </trkpt>
      <trkpt lat="46.14495" lon="2.61288">
        <ele>528.381544</ele>
        <time>2024-06-26T19:56:42.106Z</time>
      </trkpt>
      <trkpt lat="46.14432" lon="2.61462">
        <ele>528.934224</ele>
        <time>2024-06-26T19:57:04.298Z</time>
      </trkpt>
      <trkpt lat="46.14398" lon="2.6165">
        <ele>529.031481</ele>
        <time>2024-06-26T19:57:22.896Z</time>
      </trkpt>
      <trkpt lat="46.14362" lon="2.61788">
        <ele>529.159324</ele>
        <time>2024-06-26T19:57:39.211Z</time>
      </trkpt>
      <trkpt lat="46.14357" lon="2.61828">
        <ele>529.289874</ele>
        <time>2024-06-26T19:57:43.693Z</time>
      </trkpt>
      <trkpt lat="46.14361" lon="2.61887">
        <ele>529.481283</ele>
        <time>2024-06-26T19:57:50.399Z</time>
      </trkpt>
      <trkpt lat="46.14358" lon="2.61917">
        <ele>529.579383</ele>
        <time>2024-06-26T19:57:53.928Z</time>
      </trkpt>
      <trkpt lat="46.14352" lon="2.6193">
        <ele>529.629615</ele>
        <time>2024-06-26T19:57:55.624Z</time>
      </trkpt>
      <trkpt lat="46.14255" lon="2.62094">
        <ele>530.958721</ele>
        <time>2024-06-26T19:58:22.582Z</time>
      </trkpt>
      <trkpt lat="46.14251" lon="2.62104">
        <ele>531.050922</ele>
        <time>2024-06-26T19:58:24.004Z</time>
      </trkpt>
      <trkpt lat="46.14249" lon="2.62109">
        <ele>531.095088</ele>
        <time>2024-06-26T19:58:24.723Z</time>
      </trkpt>
      <trkpt lat="46.14251" lon="2.62126">
        <ele>531.221166</ele>
        <time>2024-06-26T19:58:26.928Z</time>
      </trkpt>
      <trkpt lat="46.14093" lon="2.62305">
        <ele>534.752304</ele>
        <time>2024-06-26T19:59:10.229Z</time>
      </trkpt>
      <trkpt lat="46.14073" lon="2.62337">
        <ele>535.350146</ele>
        <time>2024-06-26T19:59:17.992Z</time>
      </trkpt>
      <trkpt lat="46.14037" lon="2.62417">
        <ele>537.722839</ele>
        <time>2024-06-26T19:59:36.673Z</time>
      </trkpt>
      <trkpt lat="46.14023" lon="2.62442">
        <ele>538.522476</ele>
        <time>2024-06-26T19:59:43.118Z</time>
      </trkpt>
      <trkpt lat="46.14007" lon="2.62459">
        <ele>539.26784</ele>
        <time>2024-06-26T19:59:49.226Z</time>
      </trkpt>
      <trkpt lat="46.1396" lon="2.62498">
        <ele>541.271841</ele>
        <time>2024-06-26T20:00:06.554Z</time>
      </trkpt>
      <trkpt lat="46.13949" lon="2.62509">
        <ele>541.763856</ele>
        <time>2024-06-26T20:00:10.853Z</time>
      </trkpt>
      <trkpt lat="46.13885" lon="2.62601">
        <ele>544.689549</ele>
        <time>2024-06-26T20:00:38.818Z</time>
      </trkpt>
      <trkpt lat="46.13865" lon="2.62632">
        <ele>545.608465</ele>
        <time>2024-06-26T20:00:46.692Z</time>
      </trkpt>
      <trkpt lat="46.13842" lon="2.62684">
        <ele>546.982099</ele>
        <time>2024-06-26T20:00:57.564Z</time>
      </trkpt>
      <trkpt lat="46.13833" lon="2.62696">
        <ele>547.364943</ele>
        <time>2024-06-26T20:01:00.434Z</time>
      </trkpt>
      <trkpt lat="46.13816" lon="2.62709">
        <ele>547.875318</ele>
        <time>2024-06-26T20:01:04.957Z</time>
      </trkpt>
      <trkpt lat="46.13801" lon="2.62715">
        <ele>548.01688</ele>
        <time>2024-06-26T20:01:08.547Z</time>
      </trkpt>
      <trkpt lat="46.13793" lon="2.6272">
        <ele>548.091703</ele>
        <time>2024-06-26T20:01:10.422Z</time>
      </trkpt>
      <trkpt lat="46.13787" lon="2.62729">
        <ele>548.165804</ele>
        <time>2024-06-26T20:01:12.218Z</time>
      </trkpt>
      <trkpt lat="46.13782" lon="2.62743">
        <ele>548.261912</ele>
        <time>2024-06-26T20:01:14.432Z</time>
      </trkpt>
      <trkpt lat="46.13782" lon="2.62758">
        <ele>548.355996</ele>
        <time>2024-06-26T20:01:16.585Z</time>
      </trkpt>
      <trkpt lat="46.13783" lon="2.62766">
        <ele>548.404889</ele>
        <time>2024-06-26T20:01:17.701Z</time>
      </trkpt>
      <trkpt lat="46.13788" lon="2.62789">
        <ele>548.549916</ele>
        <time>2024-06-26T20:01:20.789Z</time>
      </trkpt>
      <trkpt lat="46.13788" lon="2.62806">
        <ele>548.656272</ele>
        <time>2024-06-26T20:01:22.927Z</time>
      </trkpt>
      <trkpt lat="46.13785" lon="2.62824">
        <ele>548.772648</ele>
        <time>2024-06-26T20:01:25.200Z</time>
      </trkpt>
      <trkpt lat="46.13764" lon="2.62875">
        <ele>549.134011</ele>
        <time>2024-06-26T20:01:31.661Z</time>
      </trkpt>
      <trkpt lat="46.13751" lon="2.6291">
        <ele>549.379231</ele>
        <time>2024-06-26T20:01:35.734Z</time>
      </trkpt>
      <trkpt lat="46.13746" lon="2.62922">
        <ele>549.412125</ele>
        <time>2024-06-26T20:01:37.124Z</time>
      </trkpt>
      <trkpt lat="46.13718" lon="2.62994">
        <ele>549.187294</ele>
        <time>2024-06-26T20:01:45.225Z</time>
      </trkpt>
      <trkpt lat="46.13654" lon="2.63133">
        <ele>548.729244</ele>
        <time>2024-06-26T20:02:00.367Z</time>
      </trkpt>
      <trkpt lat="46.13605" lon="2.63237">
        <ele>548.757871</ele>
        <time>2024-06-26T20:02:12.019Z</time>
      </trkpt>
      <trkpt lat="46.13499" lon="2.63434">
        <ele>549.402789</ele>
        <time>2024-06-26T20:02:41.158Z</time>
      </trkpt>
      <trkpt lat="46.13476" lon="2.6346">
        <ele>549.631849</ele>
        <time>2024-06-26T20:02:47.054Z</time>
      </trkpt>
      <trkpt lat="46.13311" lon="2.63606">
        <ele>550.610949</ele>
        <time>2024-06-26T20:03:22.303Z</time>
      </trkpt>
      <trkpt lat="46.13287" lon="2.63638">
        <ele>550.723955</ele>
        <time>2024-06-26T20:03:27.077Z</time>
      </trkpt>
      <trkpt lat="46.13146" lon="2.63858">
        <ele>549.402558</ele>
        <time>2024-06-26T20:03:52.564Z</time>
      </trkpt>
      <trkpt lat="46.13113" lon="2.63912">
        <ele>550.001545</ele>
        <time>2024-06-26T20:03:59.293Z</time>
      </trkpt>
      <trkpt lat="46.13083" lon="2.64">
        <ele>550.820282</ele>
        <time>2024-06-26T20:04:12.007Z</time>
      </trkpt>
      <trkpt lat="46.13049" lon="2.64084">
        <ele>551.778469</ele>
        <time>2024-06-26T20:04:28.857Z</time>
      </trkpt>
      <trkpt lat="46.12921" lon="2.64307">
        <ele>558.575498</ele>
        <time>2024-06-26T20:05:30.235Z</time>
      </trkpt>
      <trkpt lat="46.12884" lon="2.64379">
        <ele>559.724924</ele>
        <time>2024-06-26T20:05:45.576Z</time>
      </trkpt>
      <trkpt lat="46.12783" lon="2.64514">
        <ele>561.523009</ele>
        <time>2024-06-26T20:06:10.011Z</time>
      </trkpt>
      <trkpt lat="46.12771" lon="2.64557">
        <ele>561.591002</ele>
        <time>2024-06-26T20:06:14.784Z</time>
      </trkpt>
      <trkpt lat="46.12768" lon="2.64583">
        <ele>561.629971</ele>
        <time>2024-06-26T20:06:17.330Z</time>
      </trkpt>
      <trkpt lat="46.12768" lon="2.64666">
        <ele>561.751667</ele>
        <time>2024-06-26T20:06:25.969Z</time>
      </trkpt>
      <trkpt lat="46.12771" lon="2.64743">
        <ele>561.831218</ele>
        <time>2024-06-26T20:06:33.962Z</time>
      </trkpt>
      <trkpt lat="46.12769" lon="2.6478">
        <ele>561.855219</ele>
        <time>2024-06-26T20:06:37.850Z</time>
      </trkpt>
      <trkpt lat="46.12738" lon="2.64976">
        <ele>562.003734</ele>
        <time>2024-06-26T20:06:59.146Z</time>
      </trkpt>
      <trkpt lat="46.12733" lon="2.65137">
        <ele>562.269455</ele>
        <time>2024-06-26T20:07:16.176Z</time>
      </trkpt>
      <trkpt lat="46.12721" lon="2.65201">
        <ele>562.379117</ele>
        <time>2024-06-26T20:07:23.225Z</time>
      </trkpt>
      <trkpt lat="46.12618" lon="2.65536">
        <ele>564.778757</ele>
        <time>2024-06-26T20:08:09.473Z</time>
      </trkpt>
      <trkpt lat="46.12617" lon="2.65539">
        <ele>564.810959</ele>
        <time>2024-06-26T20:08:09.940Z</time>
      </trkpt>
      <trkpt lat="46.12603" lon="2.65581">
        <ele>565.27492</ele>
        <time>2024-06-26T20:08:17.190Z</time>
      </trkpt>
      <trkpt lat="46.12577" lon="2.65685">
        <ele>566.382046</ele>
        <time>2024-06-26T20:08:34.806Z</time>
      </trkpt>
      <trkpt lat="46.12556" lon="2.65817">
        <ele>566.932705</ele>
        <time>2024-06-26T20:08:53.903Z</time>
      </trkpt>
      <trkpt lat="46.12529" lon="2.65892">
        <ele>567.258662</ele>
        <time>2024-06-26T20:09:02.897Z</time>
      </trkpt>
      <trkpt lat="46.12469" lon="2.65995">
        <ele>566.274101</ele>
        <time>2024-06-26T20:09:14.176Z</time>
      </trkpt>
      <trkpt lat="46.12457" lon="2.66026">
        <ele>565.812819</ele>
        <time>2024-06-26T20:09:16.905Z</time>
      </trkpt>
      <trkpt lat="46.12403" lon="2.66159">
        <ele>563.812348</ele>
        <time>2024-06-26T20:09:28.155Z</time>
      </trkpt>
      <trkpt lat="46.12303" lon="2.66329">
        <ele>560.681937</ele>
        <time>2024-06-26T20:09:44.741Z</time>
      </trkpt>
      <trkpt lat="46.12234" lon="2.66508">
        <ele>559.731478</ele>
        <time>2024-06-26T20:10:03.520Z</time>
      </trkpt>
      <trkpt lat="46.12182" lon="2.66617">
        <ele>559.123434</ele>
        <time>2024-06-26T20:10:17.252Z</time>
      </trkpt>
      <trkpt lat="46.12056" lon="2.66764">
        <ele>557.752015</ele>
        <time>2024-06-26T20:10:37.082Z</time>
      </trkpt>
      <trkpt lat="46.12044" lon="2.668">
        <ele>557.446315</ele>
        <time>2024-06-26T20:10:40.054Z</time>
      </trkpt>
      <trkpt lat="46.12018" lon="2.66937">
        <ele>556.348881</ele>
        <time>2024-06-26T20:10:51.305Z</time>
      </trkpt>
      <trkpt lat="46.11975" lon="2.6706">
        <ele>556.834686</ele>
        <time>2024-06-26T20:11:05.978Z</time>
      </trkpt>
      <trkpt lat="46.11941" lon="2.67136">
        <ele>557.60939</ele>
        <time>2024-06-26T20:11:19.738Z</time>
      </trkpt>
      <trkpt lat="46.1187" lon="2.67217">
        <ele>558.500282</ele>
        <time>2024-06-26T20:11:41.900Z</time>
      </trkpt>
      <trkpt lat="46.11855" lon="2.67243">
        <ele>558.660394</ele>
        <time>2024-06-26T20:11:47.324Z</time>
      </trkpt>
      <trkpt lat="46.11838" lon="2.67284">
        <ele>558.88712</ele>
        <time>2024-06-26T20:11:54.152Z</time>
      </trkpt>
      <trkpt lat="46.1182" lon="2.6731">
        <ele>559.058358</ele>
        <time>2024-06-26T20:11:58.651Z</time>
      </trkpt>
      <trkpt lat="46.11774" lon="2.67342">
        <ele>559.410588</ele>
        <time>2024-06-26T20:12:06.016Z</time>
      </trkpt>
      <trkpt lat="46.11642" lon="2.67412">
        <ele>554.810489</ele>
        <time>2024-06-26T20:12:20.176Z</time>
      </trkpt>
      <trkpt lat="46.11627" lon="2.67423">
        <ele>554.206396</ele>
        <time>2024-06-26T20:12:21.793Z</time>
      </trkpt>
      <trkpt lat="46.11567" lon="2.67563">
        <ele>549.370507</ele>
        <time>2024-06-26T20:12:32.462Z</time>
      </trkpt>
      <trkpt lat="46.11558" lon="2.67578">
        <ele>548.754311</ele>
        <time>2024-06-26T20:12:33.770Z</time>
      </trkpt>
      <trkpt lat="46.11542" lon="2.67607">
        <ele>547.594471</ele>
        <time>2024-06-26T20:12:36.214Z</time>
      </trkpt>
      <trkpt lat="46.11526" lon="2.67649">
        <ele>546.1043</ele>
        <time>2024-06-26T20:12:39.411Z</time>
      </trkpt>
      <trkpt lat="46.11516" lon="2.67667">
        <ele>545.377942</ele>
        <time>2024-06-26T20:12:41.018Z</time>
      </trkpt>
      <trkpt lat="46.11508" lon="2.67679">
        <ele>545.000135</ele>
        <time>2024-06-26T20:12:42.166Z</time>
      </trkpt>
      <trkpt lat="46.11495" lon="2.67692">
        <ele>544.729952</ele>
        <time>2024-06-26T20:12:43.815Z</time>
      </trkpt>
      <trkpt lat="46.11462" lon="2.67713">
        <ele>544.142491</ele>
        <time>2024-06-26T20:12:47.524Z</time>
      </trkpt>
      <trkpt lat="46.11424" lon="2.67751">
        <ele>543.383857</ele>
        <time>2024-06-26T20:12:52.798Z</time>
      </trkpt>
      <trkpt lat="46.11389" lon="2.67803">
        <ele>542.56321</ele>
        <time>2024-06-26T20:12:59.432Z</time>
      </trkpt>
      <trkpt lat="46.11378" lon="2.67826">
        <ele>542.243963</ele>
        <time>2024-06-26T20:13:02.031Z</time>
      </trkpt>
      <trkpt lat="46.11363" lon="2.67867">
        <ele>541.951057</ele>
        <time>2024-06-26T20:13:06.625Z</time>
      </trkpt>
      <trkpt lat="46.11343" lon="2.67938">
        <ele>541.583486</ele>
        <time>2024-06-26T20:13:14.267Z</time>
      </trkpt>
      <trkpt lat="46.11335" lon="2.67973">
        <ele>541.410401</ele>
        <time>2024-06-26T20:13:17.643Z</time>
      </trkpt>
      <trkpt lat="46.11323" lon="2.68056">
        <ele>541.006096</ele>
        <time>2024-06-26T20:13:25.054Z</time>
      </trkpt>
      <trkpt lat="46.11287" lon="2.68176">
        <ele>538.941667</ele>
        <time>2024-06-26T20:13:35.122Z</time>
      </trkpt>
      <trkpt lat="46.1127" lon="2.6825">
        <ele>537.507065</ele>
        <time>2024-06-26T20:13:40.573Z</time>
      </trkpt>
      <trkpt lat="46.11262" lon="2.68275">
        <ele>537.006773</ele>
        <time>2024-06-26T20:13:42.447Z</time>
      </trkpt>
      <trkpt lat="46.11233" lon="2.68343">
        <ele>535.759595</ele>
        <time>2024-06-26T20:13:47.932Z</time>
      </trkpt>
      <trkpt lat="46.11222" lon="2.68363">
        <ele>535.45424</ele>
        <time>2024-06-26T20:13:49.803Z</time>
      </trkpt>
      <trkpt lat="46.11211" lon="2.68375">
        <ele>535.225092</ele>
        <time>2024-06-26T20:13:51.213Z</time>
      </trkpt>
      <trkpt lat="46.11186" lon="2.68395">
        <ele>534.748387</ele>
        <time>2024-06-26T20:13:54.261Z</time>
      </trkpt>
      <trkpt lat="46.11154" lon="2.68441">
        <ele>533.993536</ele>
        <time>2024-06-26T20:13:59.533Z</time>
      </trkpt>
      <trkpt lat="46.11143" lon="2.68447">
        <ele>533.801247</ele>
        <time>2024-06-26T20:14:01.057Z</time>
      </trkpt>
      <trkpt lat="46.11088" lon="2.68463">
        <ele>533.205976</ele>
        <time>2024-06-26T20:14:09.583Z</time>
      </trkpt>
      <trkpt lat="46.11064" lon="2.68476">
        <ele>533.345384</ele>
        <time>2024-06-26T20:14:14.325Z</time>
      </trkpt>
      <trkpt lat="46.11055" lon="2.68487">
        <ele>533.409483</ele>
        <time>2024-06-26T20:14:16.583Z</time>
      </trkpt>
      <trkpt lat="46.1101" lon="2.68571">
        <ele>533.809322</ele>
        <time>2024-06-26T20:14:30.278Z</time>
      </trkpt>
      <trkpt lat="46.10965" lon="2.68643">
        <ele>534.006568</ele>
        <time>2024-06-26T20:14:41.486Z</time>
      </trkpt>
      <trkpt lat="46.10962" lon="2.68653">
        <ele>533.952368</ele>
        <time>2024-06-26T20:14:42.660Z</time>
      </trkpt>
      <trkpt lat="46.10938" lon="2.68727">
        <ele>533.562039</ele>
        <time>2024-06-26T20:14:50.337Z</time>
      </trkpt>
      <trkpt lat="46.10933" lon="2.68794">
        <ele>533.236594</ele>
        <time>2024-06-26T20:14:56.025Z</time>
      </trkpt>
      <trkpt lat="46.10935" lon="2.68836">
        <ele>533.03319</ele>
        <time>2024-06-26T20:14:59.435Z</time>
      </trkpt>
      <trkpt lat="46.10944" lon="2.68891">
        <ele>532.730639</ele>
        <time>2024-06-26T20:15:03.924Z</time>
      </trkpt>
      <trkpt lat="46.10964" lon="2.69014">
        <ele>531.887453</ele>
        <time>2024-06-26T20:15:14.562Z</time>
      </trkpt>
      <trkpt lat="46.1098" lon="2.69254">
        <ele>530.84642</ele>
        <time>2024-06-26T20:15:35.992Z</time>
      </trkpt>
      <trkpt lat="46.10985" lon="2.69282">
        <ele>530.780589</ele>
        <time>2024-06-26T20:15:39.137Z</time>
      </trkpt>
      <trkpt lat="46.10966" lon="2.69296">
        <ele>530.709344</ele>
        <time>2024-06-26T20:15:42.152Z</time>
      </trkpt>
      <trkpt lat="46.10952" lon="2.69305">
        <ele>530.662147</ele>
        <time>2024-06-26T20:15:44.442Z</time>
      </trkpt>
      <trkpt lat="46.10929" lon="2.69307">
        <ele>530.584572</ele>
        <time>2024-06-26T20:15:47.792Z</time>
      </trkpt>
      <trkpt lat="46.10911" lon="2.69304">
        <ele>530.525189</ele>
        <time>2024-06-26T20:15:50.549Z</time>
      </trkpt>
      <trkpt lat="46.10901" lon="2.69301">
        <ele>530.488309</ele>
        <time>2024-06-26T20:15:51.950Z</time>
      </trkpt>
      <trkpt lat="46.10902" lon="2.69314">
        <ele>530.457028</ele>
        <time>2024-06-26T20:15:53.435Z</time>
      </trkpt>
      <trkpt lat="46.10914" lon="2.69338">
        <ele>530.38384</ele>
        <time>2024-06-26T20:15:56.734Z</time>
      </trkpt>
      <trkpt lat="46.10931" lon="2.69374">
        <ele>530.280089</ele>
        <time>2024-06-26T20:16:01.194Z</time>
      </trkpt>
      <trkpt lat="46.10934" lon="2.69384">
        <ele>530.253984</ele>
        <time>2024-06-26T20:16:02.148Z</time>
      </trkpt>
      <trkpt lat="46.10939" lon="2.69454">
        <ele>530.081731</ele>
        <time>2024-06-26T20:16:08.382Z</time>
      </trkpt>
      <trkpt lat="46.10942" lon="2.69493">
        <ele>529.985275</ele>
        <time>2024-06-26T20:16:11.865Z</time>
      </trkpt>
      <trkpt lat="46.10957" lon="2.69559">
        <ele>529.698911</ele>
        <time>2024-06-26T20:16:18.412Z</time>
      </trkpt>
      <trkpt lat="46.10937" lon="2.69602">
        <ele>529.422271</ele>
        <time>2024-06-26T20:16:24.878Z</time>
      </trkpt>
      <trkpt lat="46.10925" lon="2.69628">
        <ele>529.256901</ele>
        <time>2024-06-26T20:16:28.662Z</time>
      </trkpt>
      <trkpt lat="46.10901" lon="2.69596">
        <ele>529.006794</ele>
        <time>2024-06-26T20:16:34.567Z</time>
      </trkpt>
      <trkpt lat="46.10891" lon="2.69576">
        <ele>528.876585</ele>
        <time>2024-06-26T20:16:37.737Z</time>
      </trkpt>
      <trkpt lat="46.10865" lon="2.69481">
        <ele>528.139296</ele>
        <time>2024-06-26T20:16:49.976Z</time>
      </trkpt>
      <trkpt lat="46.10864" lon="2.69475">
        <ele>528.076544</ele>
        <time>2024-06-26T20:16:50.440Z</time>
      </trkpt>
      <trkpt lat="46.10866" lon="2.69442">
        <ele>527.731282</ele>
        <time>2024-06-26T20:16:53.144Z</time>
      </trkpt>
      <trkpt lat="46.10863" lon="2.6944">
        <ele>527.675418</ele>
        <time>2024-06-26T20:16:53.552Z</time>
      </trkpt>
      <trkpt lat="46.10861" lon="2.69437">
        <ele>527.62759</ele>
        <time>2024-06-26T20:16:53.910Z</time>
      </trkpt>
      <trkpt lat="46.10861" lon="2.69432">
        <ele>527.578746</ele>
        <time>2024-06-26T20:16:54.278Z</time>
      </trkpt>
      <trkpt lat="46.10865" lon="2.69408">
        <ele>527.326382</ele>
        <time>2024-06-26T20:16:56.329Z</time>
      </trkpt>
      <trkpt lat="46.10867" lon="2.69393">
        <ele>527.158356</ele>
        <time>2024-06-26T20:16:58.246Z</time>
      </trkpt>
      <trkpt lat="46.10869" lon="2.69382">
        <ele>527.049386</ele>
        <time>2024-06-26T20:16:59.385Z</time>
      </trkpt>
      <trkpt lat="46.10869" lon="2.69352">
        <ele>526.736633</ele>
        <time>2024-06-26T20:17:02.919Z</time>
      </trkpt>
      <trkpt lat="46.10869" lon="2.69325">
        <ele>526.452957</ele>
        <time>2024-06-26T20:17:05.903Z</time>
      </trkpt>
      <trkpt lat="46.10873" lon="2.69297">
        <ele>526.157149</ele>
        <time>2024-06-26T20:17:09.221Z</time>
      </trkpt>
      <trkpt lat="46.10822" lon="2.69293">
        <ele>525.352073</ele>
        <time>2024-06-26T20:17:14.678Z</time>
      </trkpt>
      <trkpt lat="46.10783" lon="2.69242">
        <ele>524.471535</ele>
        <time>2024-06-26T20:17:20.331Z</time>
      </trkpt>
      <trkpt lat="46.10731" lon="2.69195">
        <ele>523.440384</ele>
        <time>2024-06-26T20:17:26.974Z</time>
      </trkpt>
      <trkpt lat="46.10707" lon="2.69175">
        <ele>522.973118</ele>
        <time>2024-06-26T20:17:30.348Z</time>
      </trkpt>
      <trkpt lat="46.10693" lon="2.69168">
        <ele>522.953976</ele>
        <time>2024-06-26T20:17:32.391Z</time>
      </trkpt>
      <trkpt lat="46.1066" lon="2.69154">
        <ele>523.68136</ele>
        <time>2024-06-26T20:17:38.243Z</time>
      </trkpt>
      <trkpt lat="46.10614" lon="2.69135">
        <ele>524.701212</ele>
        <time>2024-06-26T20:17:48.434Z</time>
      </trkpt>
      <trkpt lat="46.10606" lon="2.69132">
        <ele>524.877739</ele>
        <time>2024-06-26T20:17:50.387Z</time>
      </trkpt>
      <trkpt lat="46.10597" lon="2.6913">
        <ele>525.06338</ele>
        <time>2024-06-26T20:17:52.423Z</time>
      </trkpt>
      <trkpt lat="46.10574" lon="2.69119">
        <ele>525.575847</ele>
        <time>2024-06-26T20:17:58.876Z</time>
      </trkpt>
      <trkpt lat="46.10558" lon="2.69101">
        <ele>526.016804</ele>
        <time>2024-06-26T20:18:04.672Z</time>
      </trkpt>
      <trkpt lat="46.10552" lon="2.69106">
        <ele>526.158522</ele>
        <time>2024-06-26T20:18:06.733Z</time>
      </trkpt>
      <trkpt lat="46.10531" lon="2.69099">
        <ele>526.616725</ele>
        <time>2024-06-26T20:18:13.400Z</time>
      </trkpt>
      <trkpt lat="46.10511" lon="2.69092">
        <ele>527.665084</ele>
        <time>2024-06-26T20:18:20.158Z</time>
      </trkpt>
      <trkpt lat="46.10356" lon="2.68989">
        <ele>536.985437</ele>
        <time>2024-06-26T20:19:25.102Z</time>
      </trkpt>
      <trkpt lat="46.10296" lon="2.6896">
        <ele>540.181301</ele>
        <time>2024-06-26T20:19:49.968Z</time>
      </trkpt>
      <trkpt lat="46.1021" lon="2.68919">
        <ele>544.767543</ele>
        <time>2024-06-26T20:20:21.273Z</time>
      </trkpt>
      <trkpt lat="46.10171" lon="2.68901">
        <ele>546.276458</ele>
        <time>2024-06-26T20:20:32.570Z</time>
      </trkpt>
      <trkpt lat="46.10151" lon="2.68883">
        <ele>546.974442</ele>
        <time>2024-06-26T20:20:39.133Z</time>
      </trkpt>
      <trkpt lat="46.10117" lon="2.68819">
        <ele>548.612839</ele>
        <time>2024-06-26T20:20:53.290Z</time>
      </trkpt>
      <trkpt lat="46.10099" lon="2.68794">
        <ele>549.325229</ele>
        <time>2024-06-26T20:20:59.276Z</time>
      </trkpt>
      <trkpt lat="46.10067" lon="2.68766">
        <ele>550.440781</ele>
        <time>2024-06-26T20:21:08.643Z</time>
      </trkpt>
      <trkpt lat="46.10008" lon="2.6873">
        <ele>552.776529</ele>
        <time>2024-06-26T20:21:24.218Z</time>
      </trkpt>
      <trkpt lat="46.09897" lon="2.68678">
        <ele>557.323093</ele>
        <time>2024-06-26T20:22:01.745Z</time>
      </trkpt>
      <trkpt lat="46.0988" lon="2.68665">
        <ele>558.026509</ele>
        <time>2024-06-26T20:22:08.398Z</time>
      </trkpt>
      <trkpt lat="46.09872" lon="2.68645">
        <ele>558.625902</ele>
        <time>2024-06-26T20:22:14.400Z</time>
      </trkpt>
      <trkpt lat="46.09865" lon="2.68558">
        <ele>560.836162</ele>
        <time>2024-06-26T20:22:35.536Z</time>
      </trkpt>
      <trkpt lat="46.09858" lon="2.68523">
        <ele>561.746726</ele>
        <time>2024-06-26T20:22:43.164Z</time>
      </trkpt>
      <trkpt lat="46.09846" lon="2.685">
        <ele>562.485564</ele>
        <time>2024-06-26T20:22:48.988Z</time>
      </trkpt>
      <trkpt lat="46.09811" lon="2.68464">
        <ele>564.045981</ele>
        <time>2024-06-26T20:22:59.629Z</time>
      </trkpt>
      <trkpt lat="46.09763" lon="2.68421">
        <ele>564.044375</ele>
        <time>2024-06-26T20:23:10.582Z</time>
      </trkpt>
      <trkpt lat="46.09697" lon="2.6836">
        <ele>563.564388</ele>
        <time>2024-06-26T20:23:20.357Z</time>
      </trkpt>
      <trkpt lat="46.09681" lon="2.6833">
        <ele>563.400507</ele>
        <time>2024-06-26T20:23:23.272Z</time>
      </trkpt>
      <trkpt lat="46.0966" lon="2.68274">
        <ele>562.798746</ele>
        <time>2024-06-26T20:23:27.923Z</time>
      </trkpt>
      <trkpt lat="46.09651" lon="2.68255">
        <ele>562.397129</ele>
        <time>2024-06-26T20:23:29.571Z</time>
      </trkpt>
      <trkpt lat="46.0964" lon="2.68241">
        <ele>562.032261</ele>
        <time>2024-06-26T20:23:31.066Z</time>
      </trkpt>
      <trkpt lat="46.09626" lon="2.68226">
        <ele>561.593934</ele>
        <time>2024-06-26T20:23:32.878Z</time>
      </trkpt>
      <trkpt lat="46.09602" lon="2.68209">
        <ele>560.930175</ele>
        <time>2024-06-26T20:23:35.634Z</time>
      </trkpt>
      <trkpt lat="46.0959" lon="2.68204">
        <ele>560.623677</ele>
        <time>2024-06-26T20:23:36.919Z</time>
      </trkpt>
      <trkpt lat="46.09566" lon="2.68203">
        <ele>560.021652</ele>
        <time>2024-06-26T20:23:39.437Z</time>
      </trkpt>
      <trkpt lat="46.09534" lon="2.68213">
        <ele>559.198513</ele>
        <time>2024-06-26T20:23:42.908Z</time>
      </trkpt>
      <trkpt lat="46.09518" lon="2.68221">
        <ele>558.772684</ele>
        <time>2024-06-26T20:23:44.711Z</time>
      </trkpt>
      <trkpt lat="46.09463" lon="2.68264">
        <ele>557.929258</ele>
        <time>2024-06-26T20:23:51.509Z</time>
      </trkpt>
      <trkpt lat="46.09377" lon="2.68316">
        <ele>556.709064</ele>
        <time>2024-06-26T20:24:02.721Z</time>
      </trkpt>
      <trkpt lat="46.09325" lon="2.68374">
        <ele>556.178627</ele>
        <time>2024-06-26T20:24:12.404Z</time>
      </trkpt>
      <trkpt lat="46.09311" lon="2.68402">
        <ele>556.064924</ele>
        <time>2024-06-26T20:24:15.791Z</time>
      </trkpt>
      <trkpt lat="46.09295" lon="2.6849">
        <ele>555.764506</ele>
        <time>2024-06-26T20:24:24.440Z</time>
      </trkpt>
      <trkpt lat="46.09286" lon="2.68514">
        <ele>555.670844</ele>
        <time>2024-06-26T20:24:26.996Z</time>
      </trkpt>
      <trkpt lat="46.09271" lon="2.68528">
        <ele>555.586516</ele>
        <time>2024-06-26T20:24:29.187Z</time>
      </trkpt>
      <trkpt lat="46.09253" lon="2.68529">
        <ele>555.487879</ele>
        <time>2024-06-26T20:24:31.437Z</time>
      </trkpt>
      <trkpt lat="46.0918" lon="2.68484">
        <ele>554.610743</ele>
        <time>2024-06-26T20:24:40.960Z</time>
      </trkpt>
      <trkpt lat="46.09164" lon="2.68479">
        <ele>554.421358</ele>
        <time>2024-06-26T20:24:42.888Z</time>
      </trkpt>
      <trkpt lat="46.09148" lon="2.68479">
        <ele>554.245919</ele>
        <time>2024-06-26T20:24:44.671Z</time>
      </trkpt>
      <trkpt lat="46.09133" lon="2.68483">
        <ele>554.080613</ele>
        <time>2024-06-26T20:24:46.281Z</time>
      </trkpt>
      <trkpt lat="46.0912" lon="2.68493">
        <ele>553.912806</ele>
        <time>2024-06-26T20:24:47.929Z</time>
      </trkpt>
      <trkpt lat="46.0902" lon="2.68582">
        <ele>554.877318</ele>
        <time>2024-06-26T20:25:03.872Z</time>
      </trkpt>
      <trkpt lat="46.08999" lon="2.68593">
        <ele>555.244007</ele>
        <time>2024-06-26T20:25:08.553Z</time>
      </trkpt>
      <trkpt lat="46.08978" lon="2.68591">
        <ele>555.608665</ele>
        <time>2024-06-26T20:25:13.966Z</time>
      </trkpt>
      <trkpt lat="46.08956" lon="2.68583">
        <ele>555.98854</ele>
        <time>2024-06-26T20:25:20.137Z</time>
      </trkpt>
      <trkpt lat="46.08949" lon="2.6858">
        <ele>556.110751</ele>
        <time>2024-06-26T20:25:22.234Z</time>
      </trkpt>
      <trkpt lat="46.08797" lon="2.68523">
        <ele>563.404506</ele>
        <time>2024-06-26T20:26:18.822Z</time>
      </trkpt>
      <trkpt lat="46.08783" lon="2.68519">
        <ele>564.121924</ele>
        <time>2024-06-26T20:26:23.800Z</time>
      </trkpt>
      <trkpt lat="46.08769" lon="2.68523">
        <ele>564.856553</ele>
        <time>2024-06-26T20:26:29.261Z</time>
      </trkpt>
      <trkpt lat="46.08724" lon="2.68541">
        <ele>567.335892</ele>
        <time>2024-06-26T20:26:46.701Z</time>
      </trkpt>
      <trkpt lat="46.08716" lon="2.68541">
        <ele>567.769247</ele>
        <time>2024-06-26T20:26:49.558Z</time>
      </trkpt>
      <trkpt lat="46.08697" lon="2.68554">
        <ele>568.85833</ele>
        <time>2024-06-26T20:26:57.195Z</time>
      </trkpt>
      <trkpt lat="46.08716" lon="2.68541">
        <ele>569.947412</ele>
        <time>2024-06-26T20:27:04.191Z</time>
      </trkpt>
      <trkpt lat="46.08706" lon="2.68535">
        <ele>570.51535</ele>
        <time>2024-06-26T20:27:08.161Z</time>
      </trkpt>
      <trkpt lat="46.0869" lon="2.6852">
        <ele>571.527046</ele>
        <time>2024-06-26T20:27:14.583Z</time>
      </trkpt>
      <trkpt lat="46.08647" lon="2.68449">
        <ele>574.955194</ele>
        <time>2024-06-26T20:27:37.163Z</time>
      </trkpt>
      <trkpt lat="46.0862" lon="2.68414">
        <ele>577.142644</ele>
        <time>2024-06-26T20:27:50.955Z</time>
      </trkpt>
      <trkpt lat="46.08557" lon="2.68335">
        <ele>582.338096</ele>
        <time>2024-06-26T20:28:24.653Z</time>
      </trkpt>
      <trkpt lat="46.08532" lon="2.68304">
        <ele>584.368933</ele>
        <time>2024-06-26T20:28:38.169Z</time>
      </trkpt>
      <trkpt lat="46.0852" lon="2.68299">
        <ele>585.174524</ele>
        <time>2024-06-26T20:28:43.693Z</time>
      </trkpt>
      <trkpt lat="46.08507" lon="2.683">
        <ele>585.95871</ele>
        <time>2024-06-26T20:28:48.807Z</time>
      </trkpt>
      <trkpt lat="46.08498" lon="2.68307">
        <ele>586.603094</ele>
        <time>2024-06-26T20:28:52.928Z</time>
      </trkpt>
      <trkpt lat="46.08491" lon="2.68317">
        <ele>587.148536</ele>
        <time>2024-06-26T20:28:56.906Z</time>
      </trkpt>
      <trkpt lat="46.08415" lon="2.68508">
        <ele>596.080955</ele>
        <time>2024-06-26T20:29:57.508Z</time>
      </trkpt>
      <trkpt lat="46.08392" lon="2.68549">
        <ele>597.882178</ele>
        <time>2024-06-26T20:30:08.774Z</time>
      </trkpt>
      <trkpt lat="46.08363" lon="2.68589">
        <ele>599.464416</ele>
        <time>2024-06-26T20:30:20.566Z</time>
      </trkpt>
      <trkpt lat="46.08318" lon="2.68655">
        <ele>602.049102</ele>
        <time>2024-06-26T20:30:39.743Z</time>
      </trkpt>
      <trkpt lat="46.08309" lon="2.68662">
        <ele>602.4257</ele>
        <time>2024-06-26T20:30:42.624Z</time>
      </trkpt>
      <trkpt lat="46.08297" lon="2.68665">
        <ele>602.902507</ele>
        <time>2024-06-26T20:30:46.183Z</time>
      </trkpt>
      <trkpt lat="46.08283" lon="2.68663">
        <ele>603.471368</ele>
        <time>2024-06-26T20:30:50.524Z</time>
      </trkpt>
      <trkpt lat="46.08272" lon="2.68654">
        <ele>603.965987</ele>
        <time>2024-06-26T20:30:54.253Z</time>
      </trkpt>
      <trkpt lat="46.08232" lon="2.68604">
        <ele>606.694636</ele>
        <time>2024-06-26T20:31:10.555Z</time>
      </trkpt>
      <trkpt lat="46.0822" lon="2.68593">
        <ele>607.449378</ele>
        <time>2024-06-26T20:31:15.158Z</time>
      </trkpt>
      <trkpt lat="46.08205" lon="2.68585">
        <ele>608.311083</ele>
        <time>2024-06-26T20:31:20.652Z</time>
      </trkpt>
      <trkpt lat="46.08145" lon="2.68582">
        <ele>611.46479</ele>
        <time>2024-06-26T20:31:42.901Z</time>
      </trkpt>
      <trkpt lat="46.08118" lon="2.68572">
        <ele>612.944354</ele>
        <time>2024-06-26T20:31:54.403Z</time>
      </trkpt>
      <trkpt lat="46.08076" lon="2.68524">
        <ele>615.930229</ele>
        <time>2024-06-26T20:32:17.460Z</time>
      </trkpt>
      <trkpt lat="46.08055" lon="2.68509">
        <ele>617.214945</ele>
        <time>2024-06-26T20:32:26.998Z</time>
      </trkpt>
      <trkpt lat="46.07954" lon="2.6848">
        <ele>623.004179</ele>
        <time>2024-06-26T20:33:05.334Z</time>
      </trkpt>
      <trkpt lat="46.07889" lon="2.68471">
        <ele>625.27901</ele>
        <time>2024-06-26T20:33:24.678Z</time>
      </trkpt>
      <trkpt lat="46.07872" lon="2.68474">
        <ele>625.780851</ele>
        <time>2024-06-26T20:33:29.050Z</time>
      </trkpt>
      <trkpt lat="46.07834" lon="2.68486">
        <ele>626.901875</ele>
        <time>2024-06-26T20:33:38.484Z</time>
      </trkpt>
      <trkpt lat="46.07834" lon="2.68493">
        <ele>627.046488</ele>
        <time>2024-06-26T20:33:39.881Z</time>
      </trkpt>
      <trkpt lat="46.07764" lon="2.68542">
        <ele>629.282806</ele>
        <time>2024-06-26T20:33:57.069Z</time>
      </trkpt>
      <trkpt lat="46.07734" lon="2.68567">
        <ele>630.413983</ele>
        <time>2024-06-26T20:34:05.611Z</time>
      </trkpt>
      <trkpt lat="46.07689" lon="2.68626">
        <ele>632.396262</ele>
        <time>2024-06-26T20:34:22.304Z</time>
      </trkpt>
      <trkpt lat="46.07666" lon="2.6865">
        <ele>633.325747</ele>
        <time>2024-06-26T20:34:30.909Z</time>
      </trkpt>
      <trkpt lat="46.07611" lon="2.68677">
        <ele>635.347039</ele>
        <time>2024-06-26T20:34:49.373Z</time>
      </trkpt>
      <trkpt lat="46.07508" lon="2.68692">
        <ele>639.713742</ele>
        <time>2024-06-26T20:35:21.632Z</time>
      </trkpt>
      <trkpt lat="46.07476" lon="2.68694">
        <ele>641.10695</ele>
        <time>2024-06-26T20:35:32.353Z</time>
      </trkpt>
      <trkpt lat="46.07425" lon="2.68675">
        <ele>643.26724</ele>
        <time>2024-06-26T20:35:50.152Z</time>
      </trkpt>
      <trkpt lat="46.0741" lon="2.68678">
        <ele>643.854136</ele>
        <time>2024-06-26T20:35:55.033Z</time>
      </trkpt>
      <trkpt lat="46.07396" lon="2.6869">
        <ele>644.477139</ele>
        <time>2024-06-26T20:36:00.065Z</time>
      </trkpt>
      <trkpt lat="46.0732" lon="2.68811">
        <ele>648.857902</ele>
        <time>2024-06-26T20:36:32.186Z</time>
      </trkpt>
      <trkpt lat="46.07251" lon="2.68921">
        <ele>652.693958</ele>
        <time>2024-06-26T20:37:04.768Z</time>
      </trkpt>
      <trkpt lat="46.07221" lon="2.68961">
        <ele>654.196383</ele>
        <time>2024-06-26T20:37:17.254Z</time>
      </trkpt>
      <trkpt lat="46.07182" lon="2.68995">
        <ele>655.868728</ele>
        <time>2024-06-26T20:37:29.444Z</time>
      </trkpt>
      <trkpt lat="46.07137" lon="2.6902">
        <ele>657.404124</ele>
        <time>2024-06-26T20:37:42.037Z</time>
      </trkpt>
      <trkpt lat="46.07079" lon="2.69032">
        <ele>659.205066</ele>
        <time>2024-06-26T20:37:58.381Z</time>
      </trkpt>
      <trkpt lat="46.07067" lon="2.69043">
        <ele>659.662704</ele>
        <time>2024-06-26T20:38:02.735Z</time>
      </trkpt>
      <trkpt lat="46.07025" lon="2.69098">
        <ele>661.417246</ele>
        <time>2024-06-26T20:38:18.435Z</time>
      </trkpt>
      <trkpt lat="46.07014" lon="2.69105">
        <ele>661.768835</ele>
        <time>2024-06-26T20:38:21.358Z</time>
      </trkpt>
      <trkpt lat="46.07001" lon="2.69105">
        <ele>662.160932</ele>
        <time>2024-06-26T20:38:24.503Z</time>
      </trkpt>
      <trkpt lat="46.06938" lon="2.69087">
        <ele>664.109385</ele>
        <time>2024-06-26T20:38:40.427Z</time>
      </trkpt>
      <trkpt lat="46.06858" lon="2.6909">
        <ele>666.537681</ele>
        <time>2024-06-26T20:39:02.529Z</time>
      </trkpt>
      <trkpt lat="46.06831" lon="2.69082">
        <ele>667.385847</ele>
        <time>2024-06-26T20:39:10.746Z</time>
      </trkpt>
      <trkpt lat="46.06807" lon="2.69063">
        <ele>668.256782</ele>
        <time>2024-06-26T20:39:18.638Z</time>
      </trkpt>
      <trkpt lat="46.06772" lon="2.69013">
        <ele>669.830784</ele>
        <time>2024-06-26T20:39:32.783Z</time>
      </trkpt>
      <trkpt lat="46.06754" lon="2.69008">
        <ele>670.399212</ele>
        <time>2024-06-26T20:39:37.834Z</time>
      </trkpt>
      <trkpt lat="46.06722" lon="2.69027">
        <ele>671.512053</ele>
        <time>2024-06-26T20:39:47.479Z</time>
      </trkpt>
      <trkpt lat="46.06702" lon="2.69029">
        <ele>672.155107</ele>
        <time>2024-06-26T20:39:52.909Z</time>
      </trkpt>
      <trkpt lat="46.06673" lon="2.69023">
        <ele>673.057433</ele>
        <time>2024-06-26T20:40:00.359Z</time>
      </trkpt>
      <trkpt lat="46.06652" lon="2.69031">
        <ele>673.649499</ele>
        <time>2024-06-26T20:40:05.484Z</time>
      </trkpt>
      <trkpt lat="46.06627" lon="2.69056">
        <ele>674.495485</ele>
        <time>2024-06-26T20:40:12.605Z</time>
      </trkpt>
      <trkpt lat="46.06525" lon="2.69191">
        <ele>678.34267</ele>
        <time>2024-06-26T20:40:49.373Z</time>
      </trkpt>
      <trkpt lat="46.06459" lon="2.69279">
        <ele>680.955591</ele>
        <time>2024-06-26T20:41:12.545Z</time>
      </trkpt>
      <trkpt lat="46.0644" lon="2.69293">
        <ele>681.571497</ele>
        <time>2024-06-26T20:41:18.060Z</time>
      </trkpt>
      <trkpt lat="46.06426" lon="2.69298">
        <ele>681.996037</ele>
        <time>2024-06-26T20:41:21.974Z</time>
      </trkpt>
      <trkpt lat="46.06401" lon="2.69299">
        <ele>682.725697</ele>
        <time>2024-06-26T20:41:28.974Z</time>
      </trkpt>
      <trkpt lat="46.06315" lon="2.6927">
        <ele>684.669587</ele>
        <time>2024-06-26T20:41:53.227Z</time>
      </trkpt>
      <trkpt lat="46.06284" lon="2.69264">
        <ele>685.339113</ele>
        <time>2024-06-26T20:42:00.569Z</time>
      </trkpt>
      <trkpt lat="46.06219" lon="2.6927">
        <ele>686.732712</ele>
        <time>2024-06-26T20:42:13.156Z</time>
      </trkpt>
      <trkpt lat="46.06189" lon="2.69268">
        <ele>687.123143</ele>
        <time>2024-06-26T20:42:18.542Z</time>
      </trkpt>
      <trkpt lat="46.06093" lon="2.69232">
        <ele>688.249038</ele>
        <time>2024-06-26T20:42:36.643Z</time>
      </trkpt>
      <trkpt lat="46.06079" lon="2.69234">
        <ele>688.406339</ele>
        <time>2024-06-26T20:42:39.313Z</time>
      </trkpt>
      <trkpt lat="46.06069" lon="2.69245">
        <ele>688.550426</ele>
        <time>2024-06-26T20:42:41.716Z</time>
      </trkpt>
      <trkpt lat="46.0606" lon="2.69264">
        <ele>688.730944</ele>
        <time>2024-06-26T20:42:44.914Z</time>
      </trkpt>
      <trkpt lat="46.06058" lon="2.69299">
        <ele>689.212414</ele>
        <time>2024-06-26T20:42:49.947Z</time>
      </trkpt>
      <trkpt lat="46.06069" lon="2.6937">
        <ele>690.792351</ele>
        <time>2024-06-26T20:43:02.386Z</time>
      </trkpt>
      <trkpt lat="46.06094" lon="2.69455">
        <ele>692.778775</ele>
        <time>2024-06-26T20:43:20.707Z</time>
      </trkpt>
      <trkpt lat="46.06105" lon="2.69503">
        <ele>693.882118</ele>
        <time>2024-06-26T20:43:31.649Z</time>
      </trkpt>
      <trkpt lat="46.06105" lon="2.69543">
        <ele>694.746806</ele>
        <time>2024-06-26T20:43:40.413Z</time>
      </trkpt>
      <trkpt lat="46.06097" lon="2.69576">
        <ele>695.549241</ele>
        <time>2024-06-26T20:43:48.091Z</time>
      </trkpt>
      <trkpt lat="46.06081" lon="2.69601">
        <ele>696.318115</ele>
        <time>2024-06-26T20:43:55.366Z</time>
      </trkpt>
      <trkpt lat="46.05983" lon="2.69675">
        <ele>699.950668</ele>
        <time>2024-06-26T20:44:25.949Z</time>
      </trkpt>
      <trkpt lat="46.05959" lon="2.697">
        <ele>700.70083</ele>
        <time>2024-06-26T20:44:32.873Z</time>
      </trkpt>
      <trkpt lat="46.05939" lon="2.69735">
        <ele>701.28537</ele>
        <time>2024-06-26T20:44:39.711Z</time>
      </trkpt>
      <trkpt lat="46.05932" lon="2.69767">
        <ele>701.724702</ele>
        <time>2024-06-26T20:44:44.905Z</time>
      </trkpt>
      <trkpt lat="46.05929" lon="2.69853">
        <ele>702.843004</ele>
        <time>2024-06-26T20:44:58.074Z</time>
      </trkpt>
      <trkpt lat="46.05925" lon="2.69882">
        <ele>703.237555</ele>
        <time>2024-06-26T20:45:02.653Z</time>
      </trkpt>
      <trkpt lat="46.05902" lon="2.69938">
        <ele>703.861989</ele>
        <time>2024-06-26T20:45:12.177Z</time>
      </trkpt>
      <trkpt lat="46.05902" lon="2.69965">
        <ele>703.966462</ele>
        <time>2024-06-26T20:45:16.149Z</time>
      </trkpt>
      <trkpt lat="46.05921" lon="2.70018">
        <ele>704.194967</ele>
        <time>2024-06-26T20:45:23.830Z</time>
      </trkpt>
      <trkpt lat="46.05932" lon="2.70058">
        <ele>704.360891</ele>
        <time>2024-06-26T20:45:28.828Z</time>
      </trkpt>
      <trkpt lat="46.05937" lon="2.70095">
        <ele>704.508092</ele>
        <time>2024-06-26T20:45:32.831Z</time>
      </trkpt>
      <trkpt lat="46.05935" lon="2.70131">
        <ele>704.643821</ele>
        <time>2024-06-26T20:45:36.372Z</time>
      </trkpt>
      <trkpt lat="46.05926" lon="2.70166">
        <ele>704.756204</ele>
        <time>2024-06-26T20:45:39.980Z</time>
      </trkpt>
      <trkpt lat="46.05913" lon="2.70188">
        <ele>704.674317</ele>
        <time>2024-06-26T20:45:42.611Z</time>
      </trkpt>
      <trkpt lat="46.05762" lon="2.70299">
        <ele>704.339803</ele>
        <time>2024-06-26T20:46:04.509Z</time>
      </trkpt>
      <trkpt lat="46.05708" lon="2.70326">
        <ele>705.591393</ele>
        <time>2024-06-26T20:46:15.498Z</time>
      </trkpt>
      <trkpt lat="46.05675" lon="2.70351">
        <ele>706.399062</ele>
        <time>2024-06-26T20:46:24.029Z</time>
      </trkpt>
      <trkpt lat="46.05444" lon="2.7052">
        <ele>715.09398</ele>
        <time>2024-06-26T20:47:44.574Z</time>
      </trkpt>
      <trkpt lat="46.05415" lon="2.70534">
        <ele>715.522904</ele>
        <time>2024-06-26T20:47:52.864Z</time>
      </trkpt>
      <trkpt lat="46.0532" lon="2.70543">
        <ele>716.848428</ele>
        <time>2024-06-26T20:48:13.336Z</time>
      </trkpt>
      <trkpt lat="46.04983" lon="2.70662">
        <ele>715.235772</ele>
        <time>2024-06-26T20:48:56.091Z</time>
      </trkpt>
      <trkpt lat="46.04902" lon="2.70692">
        <ele>714.757694</ele>
        <time>2024-06-26T20:49:08.619Z</time>
      </trkpt>
      <trkpt lat="46.04877" lon="2.70706">
        <ele>714.617084</ele>
        <time>2024-06-26T20:49:13.134Z</time>
      </trkpt>
      <trkpt lat="46.04753" lon="2.70888">
        <ele>712.495826</ele>
        <time>2024-06-26T20:49:35.719Z</time>
      </trkpt>
      <trkpt lat="46.0473" lon="2.70917">
        <ele>711.568177</ele>
        <time>2024-06-26T20:49:38.878Z</time>
      </trkpt>
      <trkpt lat="46.04559" lon="2.7107">
        <ele>704.003609</ele>
        <time>2024-06-26T20:49:58.306Z</time>
      </trkpt>
      <trkpt lat="46.04543" lon="2.71079">
        <ele>703.238905</ele>
        <time>2024-06-26T20:49:59.936Z</time>
      </trkpt>
      <trkpt lat="46.04527" lon="2.71083">
        <ele>702.523501</ele>
        <time>2024-06-26T20:50:01.461Z</time>
      </trkpt>
      <trkpt lat="46.04375" lon="2.71078">
        <ele>696.309881</ele>
        <time>2024-06-26T20:50:15.981Z</time>
      </trkpt>
      <trkpt lat="46.04356" lon="2.71072">
        <ele>695.533613</ele>
        <time>2024-06-26T20:50:17.943Z</time>
      </trkpt>
      <trkpt lat="46.04341" lon="2.71064">
        <ele>694.911629</ele>
        <time>2024-06-26T20:50:19.547Z</time>
      </trkpt>
      <trkpt lat="46.04324" lon="2.71045">
        <ele>694.058149</ele>
        <time>2024-06-26T20:50:21.756Z</time>
      </trkpt>
      <trkpt lat="46.04277" lon="2.70944">
        <ele>691.883413</ele>
        <time>2024-06-26T20:50:30.657Z</time>
      </trkpt>
      <trkpt lat="46.04261" lon="2.7093">
        <ele>691.467419</ele>
        <time>2024-06-26T20:50:32.661Z</time>
      </trkpt>
      <trkpt lat="46.04247" lon="2.70925">
        <ele>691.150615</ele>
        <time>2024-06-26T20:50:34.204Z</time>
      </trkpt>
      <trkpt lat="46.04233" lon="2.70925">
        <ele>690.824942</ele>
        <time>2024-06-26T20:50:35.831Z</time>
      </trkpt>
      <trkpt lat="46.04171" lon="2.70956">
        <ele>689.376705</ele>
        <time>2024-06-26T20:50:43.141Z</time>
      </trkpt>
      <trkpt lat="46.04136" lon="2.7097">
        <ele>688.526356</ele>
        <time>2024-06-26T20:50:47.260Z</time>
      </trkpt>
      <trkpt lat="46.03929" lon="2.70989">
        <ele>683.55431</ele>
        <time>2024-06-26T20:51:09.239Z</time>
      </trkpt>
      <trkpt lat="46.03897" lon="2.71001">
        <ele>682.715609</ele>
        <time>2024-06-26T20:51:12.721Z</time>
      </trkpt>
      <trkpt lat="46.03825" lon="2.71111">
        <ele>679.996862</ele>
        <time>2024-06-26T20:51:23.763Z</time>
      </trkpt>
      <trkpt lat="46.0382" lon="2.7112">
        <ele>679.809832</ele>
        <time>2024-06-26T20:51:24.506Z</time>
      </trkpt>
      <trkpt lat="46.03802" lon="2.71162">
        <ele>678.920528</ele>
        <time>2024-06-26T20:51:28.044Z</time>
      </trkpt>
      <trkpt lat="46.03799" lon="2.71174">
        <ele>678.689281</ele>
        <time>2024-06-26T20:51:28.982Z</time>
      </trkpt>
      <trkpt lat="46.03705" lon="2.71301">
        <ele>675.64287</ele>
        <time>2024-06-26T20:51:42.449Z</time>
      </trkpt>
      <trkpt lat="46.03411" lon="2.71706">
        <ele>672.081051</ele>
        <time>2024-06-26T20:52:32.796Z</time>
      </trkpt>
      <trkpt lat="46.03382" lon="2.71765">
        <ele>672.161627</ele>
        <time>2024-06-26T20:52:42.109Z</time>
      </trkpt>
      <trkpt lat="46.03321" lon="2.71926">
        <ele>672.014611</ele>
        <time>2024-06-26T20:53:04.951Z</time>
      </trkpt>
      <trkpt lat="46.03309" lon="2.71944">
        <ele>671.950708</ele>
        <time>2024-06-26T20:53:07.606Z</time>
      </trkpt>
      <trkpt lat="46.03296" lon="2.71954">
        <ele>671.897216</ele>
        <time>2024-06-26T20:53:09.794Z</time>
      </trkpt>
      <trkpt lat="46.03271" lon="2.71964">
        <ele>671.801657</ele>
        <time>2024-06-26T20:53:13.344Z</time>
      </trkpt>
      <trkpt lat="46.03199" lon="2.71974">
        <ele>671.119534</ele>
        <time>2024-06-26T20:53:21.620Z</time>
      </trkpt>
      <trkpt lat="46.03181" lon="2.7198">
        <ele>670.584932</ele>
        <time>2024-06-26T20:53:23.595Z</time>
      </trkpt>
      <trkpt lat="46.03166" lon="2.71989">
        <ele>670.140007</ele>
        <time>2024-06-26T20:53:25.209Z</time>
      </trkpt>
      <trkpt lat="46.03123" lon="2.72042">
        <ele>668.560798</ele>
        <time>2024-06-26T20:53:30.833Z</time>
      </trkpt>
      <trkpt lat="46.03114" lon="2.72064">
        <ele>668.050331</ele>
        <time>2024-06-26T20:53:32.654Z</time>
      </trkpt>
      <trkpt lat="46.03109" lon="2.72087">
        <ele>667.581937</ele>
        <time>2024-06-26T20:53:34.333Z</time>
      </trkpt>
      <trkpt lat="46.03104" lon="2.72153">
        <ele>666.432369</ele>
        <time>2024-06-26T20:53:38.959Z</time>
      </trkpt>
      <trkpt lat="46.03094" lon="2.72178">
        <ele>666.168148</ele>
        <time>2024-06-26T20:53:41.021Z</time>
      </trkpt>
      <trkpt lat="46.02975" lon="2.72394">
        <ele>665.31709</ele>
        <time>2024-06-26T20:54:04.663Z</time>
      </trkpt>
      <trkpt lat="46.02967" lon="2.72412">
        <ele>665.718202</ele>
        <time>2024-06-26T20:54:07.931Z</time>
      </trkpt>
      <trkpt lat="46.02965" lon="2.72431">
        <ele>666.094319</ele>
        <time>2024-06-26T20:54:11.142Z</time>
      </trkpt>
      <trkpt lat="46.02967" lon="2.7245">
        <ele>666.472328</ele>
        <time>2024-06-26T20:54:14.511Z</time>
      </trkpt>
      <trkpt lat="46.02974" lon="2.72466">
        <ele>666.819803</ele>
        <time>2024-06-26T20:54:18.161Z</time>
      </trkpt>
      <trkpt lat="46.03068" lon="2.72604">
        <ele>671.797077</ele>
        <time>2024-06-26T20:55:04.092Z</time>
      </trkpt>
      <trkpt lat="46.03088" lon="2.72639">
        <ele>673.501107</ele>
        <time>2024-06-26T20:55:16.345Z</time>
      </trkpt>
      <trkpt lat="46.03107" lon="2.72679">
        <ele>675.326021</ele>
        <time>2024-06-26T20:55:29.064Z</time>
      </trkpt>
      <trkpt lat="46.03118" lon="2.72714">
        <ele>676.732265</ele>
        <time>2024-06-26T20:55:38.650Z</time>
      </trkpt>
      <trkpt lat="46.03122" lon="2.7275">
        <ele>678.094517</ele>
        <time>2024-06-26T20:55:47.789Z</time>
      </trkpt>
      <trkpt lat="46.03121" lon="2.72792">
        <ele>679.660424</ele>
        <time>2024-06-26T20:55:58.042Z</time>
      </trkpt>
      <trkpt lat="46.031" lon="2.72962">
        <ele>686.381097</ele>
        <time>2024-06-26T20:56:42.456Z</time>
      </trkpt>
      <trkpt lat="46.03094" lon="2.72988">
        <ele>687.454627</ele>
        <time>2024-06-26T20:56:50.198Z</time>
      </trkpt>
      <trkpt lat="46.03086" lon="2.73004">
        <ele>688.241027</ele>
        <time>2024-06-26T20:56:55.783Z</time>
      </trkpt>
      <trkpt lat="46.03076" lon="2.73014">
        <ele>688.893272</ele>
        <time>2024-06-26T20:57:00.381Z</time>
      </trkpt>
      <trkpt lat="46.03044" lon="2.73026">
        <ele>690.600579</ele>
        <time>2024-06-26T20:57:13.255Z</time>
      </trkpt>
      <trkpt lat="46.03027" lon="2.73025">
        <ele>691.422533</ele>
        <time>2024-06-26T20:57:19.113Z</time>
      </trkpt>
      <trkpt lat="46.02973" lon="2.73006">
        <ele>694.216553</ele>
        <time>2024-06-26T20:57:38.794Z</time>
      </trkpt>
      <trkpt lat="46.02962" lon="2.73008">
        <ele>694.785139</ele>
        <time>2024-06-26T20:57:42.698Z</time>
      </trkpt>
      <trkpt lat="46.02952" lon="2.73017">
        <ele>695.393689</ele>
        <time>2024-06-26T20:57:46.907Z</time>
      </trkpt>
      <trkpt lat="46.02943" lon="2.73036">
        <ele>696.175508</ele>
        <time>2024-06-26T20:57:52.216Z</time>
      </trkpt>
      <trkpt lat="46.02935" lon="2.73067">
        <ele>697.358608</ele>
        <time>2024-06-26T20:58:00.167Z</time>
      </trkpt>
      <trkpt lat="46.02923" lon="2.731">
        <ele>698.199323</ele>
        <time>2024-06-26T20:58:08.398Z</time>
      </trkpt>
      <trkpt lat="46.02913" lon="2.73116">
        <ele>698.480724</ele>
        <time>2024-06-26T20:58:13.146Z</time>
      </trkpt>
      <trkpt lat="46.0285" lon="2.73194">
        <ele>699.982614</ele>
        <time>2024-06-26T20:58:33.234Z</time>
      </trkpt>
      <trkpt lat="46.02834" lon="2.73203">
        <ele>700.300039</ele>
        <time>2024-06-26T20:58:36.162Z</time>
      </trkpt>
      <trkpt lat="46.02814" lon="2.73201">
        <ele>700.670587</ele>
        <time>2024-06-26T20:58:39.107Z</time>
      </trkpt>
      <trkpt lat="46.02736" lon="2.73176">
        <ele>700.52442</ele>
        <time>2024-06-26T20:58:49.752Z</time>
      </trkpt>
      <trkpt lat="46.02712" lon="2.73165">
        <ele>700.179972</ele>
        <time>2024-06-26T20:58:52.651Z</time>
      </trkpt>
      <trkpt lat="46.02678" lon="2.73139">
        <ele>699.633064</ele>
        <time>2024-06-26T20:58:57.368Z</time>
      </trkpt>
      <trkpt lat="46.02662" lon="2.73121">
        <ele>699.345942</ele>
        <time>2024-06-26T20:58:59.724Z</time>
      </trkpt>
      <trkpt lat="46.02604" lon="2.73034">
        <ele>697.316303</ele>
        <time>2024-06-26T20:59:08.447Z</time>
      </trkpt>
      <trkpt lat="46.02589" lon="2.73019">
        <ele>696.628216</ele>
        <time>2024-06-26T20:59:10.295Z</time>
      </trkpt>
      <trkpt lat="46.02562" lon="2.73007">
        <ele>695.590827</ele>
        <time>2024-06-26T20:59:13.028Z</time>
      </trkpt>
      <trkpt lat="46.02521" lon="2.73004">
        <ele>694.027467</ele>
        <time>2024-06-26T20:59:17.171Z</time>
      </trkpt>
      <trkpt lat="46.02358" lon="2.73027">
        <ele>687.084531</ele>
        <time>2024-06-26T20:59:32.701Z</time>
      </trkpt>
      <trkpt lat="46.02329" lon="2.73039">
        <ele>685.698264</ele>
        <time>2024-06-26T20:59:35.603Z</time>
      </trkpt>
      <trkpt lat="46.02272" lon="2.73079">
        <ele>683.220112</ele>
        <time>2024-06-26T20:59:41.764Z</time>
      </trkpt>
      <trkpt lat="46.02217" lon="2.73145">
        <ele>681.20759</ele>
        <time>2024-06-26T20:59:48.876Z</time>
      </trkpt>
      <trkpt lat="46.02201" lon="2.73161">
        <ele>680.654903</ele>
        <time>2024-06-26T20:59:50.908Z</time>
      </trkpt>
      <trkpt lat="46.02184" lon="2.73168">
        <ele>680.157629</ele>
        <time>2024-06-26T20:59:52.802Z</time>
      </trkpt>
      <trkpt lat="46.02161" lon="2.73171">
        <ele>679.521933</ele>
        <time>2024-06-26T20:59:55.284Z</time>
      </trkpt>
      <trkpt lat="46.02129" lon="2.73185">
        <ele>678.730314</ele>
        <time>2024-06-26T20:59:59.195Z</time>
      </trkpt>
      <trkpt lat="46.02063" lon="2.73256">
        <ele>678.019775</ele>
        <time>2024-06-26T21:00:10.510Z</time>
      </trkpt>
      <trkpt lat="46.02051" lon="2.73274">
        <ele>677.870424</ele>
        <time>2024-06-26T21:00:13.021Z</time>
      </trkpt>
      <trkpt lat="46.02041" lon="2.73297">
        <ele>677.711643</ele>
        <time>2024-06-26T21:00:15.309Z</time>
      </trkpt>
      <trkpt lat="46.02017" lon="2.73374">
        <ele>677.142667</ele>
        <time>2024-06-26T21:00:22.348Z</time>
      </trkpt>
      <trkpt lat="46.02005" lon="2.73396">
        <ele>676.726873</ele>
        <time>2024-06-26T21:00:24.567Z</time>
      </trkpt>
      <trkpt lat="46.01971" lon="2.73448">
        <ele>675.672651</ele>
        <time>2024-06-26T21:00:30.206Z</time>
      </trkpt>
      <trkpt lat="46.01955" lon="2.73473">
        <ele>675.156477</ele>
        <time>2024-06-26T21:00:32.924Z</time>
      </trkpt>
      <trkpt lat="46.01938" lon="2.73492">
        <ele>674.705349</ele>
        <time>2024-06-26T21:00:35.237Z</time>
      </trkpt>
      <trkpt lat="46.01916" lon="2.73506">
        <ele>674.206717</ele>
        <time>2024-06-26T21:00:37.725Z</time>
      </trkpt>
      <trkpt lat="46.01885" lon="2.73518">
        <ele>673.514477</ele>
        <time>2024-06-26T21:00:41.050Z</time>
      </trkpt>
      <trkpt lat="46.01781" lon="2.73549">
        <ele>670.369092</ele>
        <time>2024-06-26T21:00:51.580Z</time>
      </trkpt>
      <trkpt lat="46.01765" lon="2.73558">
        <ele>669.851408</ele>
        <time>2024-06-26T21:00:53.394Z</time>
      </trkpt>
      <trkpt lat="46.01754" lon="2.73569">
        <ele>669.461543</ele>
        <time>2024-06-26T21:00:54.769Z</time>
      </trkpt>
      <trkpt lat="46.01745" lon="2.73589">
        <ele>668.951284</ele>
        <time>2024-06-26T21:00:56.612Z</time>
      </trkpt>
      <trkpt lat="46.01738" lon="2.73615">
        <ele>668.368379</ele>
        <time>2024-06-26T21:00:58.732Z</time>
      </trkpt>
      <trkpt lat="46.01707" lon="2.73786">
        <ele>664.794055</ele>
        <time>2024-06-26T21:01:11.656Z</time>
      </trkpt>
      <trkpt lat="46.01667" lon="2.74003">
        <ele>659.964612</ele>
        <time>2024-06-26T21:01:27.190Z</time>
      </trkpt>
      <trkpt lat="46.01651" lon="2.74052">
        <ele>658.708776</ele>
        <time>2024-06-26T21:01:31.097Z</time>
      </trkpt>
      <trkpt lat="46.01624" lon="2.74102">
        <ele>657.281364</ele>
        <time>2024-06-26T21:01:35.573Z</time>
      </trkpt>
      <trkpt lat="46.01609" lon="2.74122">
        <ele>656.630015</ele>
        <time>2024-06-26T21:01:37.680Z</time>
      </trkpt>
      <trkpt lat="46.01592" lon="2.74135">
        <ele>656.051594</ele>
        <time>2024-06-26T21:01:39.595Z</time>
      </trkpt>
      <trkpt lat="46.01568" lon="2.74132">
        <ele>655.292261</ele>
        <time>2024-06-26T21:01:42.039Z</time>
      </trkpt>
      <trkpt lat="46.01555" lon="2.74136">
        <ele>654.907565</ele>
        <time>2024-06-26T21:01:43.324Z</time>
      </trkpt>
      <trkpt lat="46.01544" lon="2.74145">
        <ele>654.498905</ele>
        <time>2024-06-26T21:01:44.640Z</time>
      </trkpt>
      <trkpt lat="46.01478" lon="2.74235">
        <ele>651.708952</ele>
        <time>2024-06-26T21:01:53.780Z</time>
      </trkpt>
      <trkpt lat="46.01467" lon="2.74259">
        <ele>651.190737</ele>
        <time>2024-06-26T21:01:55.926Z</time>
      </trkpt>
      <trkpt lat="46.01461" lon="2.74285">
        <ele>650.804289</ele>
        <time>2024-06-26T21:01:58.093Z</time>
      </trkpt>
      <trkpt lat="46.01456" lon="2.74307">
        <ele>650.487175</ele>
        <time>2024-06-26T21:01:59.817Z</time>
      </trkpt>
      <trkpt lat="46.01455" lon="2.74329">
        <ele>650.179487</ele>
        <time>2024-06-26T21:02:01.461Z</time>
      </trkpt>
      <trkpt lat="46.01466" lon="2.74372">
        <ele>649.543994</ele>
        <time>2024-06-26T21:02:04.971Z</time>
      </trkpt>
      <trkpt lat="46.0151" lon="2.74494">
        <ele>647.53037</ele>
        <time>2024-06-26T21:02:15.904Z</time>
      </trkpt>
      <trkpt lat="46.0152" lon="2.74559">
        <ele>646.057037</ele>
        <time>2024-06-26T21:02:20.921Z</time>
      </trkpt>
      <trkpt lat="46.01534" lon="2.74609">
        <ele>644.830355</ele>
        <time>2024-06-26T21:02:24.840Z</time>
      </trkpt>
      <trkpt lat="46.01559" lon="2.74646">
        <ele>643.69845</ele>
        <time>2024-06-26T21:02:28.326Z</time>
      </trkpt>
      <trkpt lat="46.01568" lon="2.74667">
        <ele>643.141823</ele>
        <time>2024-06-26T21:02:30.009Z</time>
      </trkpt>
      <trkpt lat="46.0157" lon="2.74707">
        <ele>642.243124</ele>
        <time>2024-06-26T21:02:32.736Z</time>
      </trkpt>
      <trkpt lat="46.01565" lon="2.74757">
        <ele>640.486696</ele>
        <time>2024-06-26T21:02:36.078Z</time>
      </trkpt>
      <trkpt lat="46.01561" lon="2.74779">
        <ele>639.612477</ele>
        <time>2024-06-26T21:02:37.530Z</time>
      </trkpt>
      <trkpt lat="46.01554" lon="2.74795">
        <ele>638.908439</ele>
        <time>2024-06-26T21:02:38.733Z</time>
      </trkpt>
      <trkpt lat="46.01546" lon="2.74805">
        <ele>638.276096</ele>
        <time>2024-06-26T21:02:39.787Z</time>
      </trkpt>
      <trkpt lat="46.01534" lon="2.74811">
        <ele>637.585664</ele>
        <time>2024-06-26T21:02:40.917Z</time>
      </trkpt>
      <trkpt lat="46.01518" lon="2.74813">
        <ele>636.717964</ele>
        <time>2024-06-26T21:02:42.360Z</time>
      </trkpt>
      <trkpt lat="46.01488" lon="2.74807">
        <ele>635.012651</ele>
        <time>2024-06-26T21:02:45.155Z</time>
      </trkpt>
      <trkpt lat="46.01446" lon="2.74813">
        <ele>632.665699</ele>
        <time>2024-06-26T21:02:49.012Z</time>
      </trkpt>
      <trkpt lat="46.0143" lon="2.74818">
        <ele>631.804027</ele>
        <time>2024-06-26T21:02:50.490Z</time>
      </trkpt>
      <trkpt lat="46.01419" lon="2.74827">
        <ele>631.149165</ele>
        <time>2024-06-26T21:02:51.728Z</time>
      </trkpt>
      <trkpt lat="46.01393" lon="2.7486">
        <ele>629.412397</ele>
        <time>2024-06-26T21:02:55.019Z</time>
      </trkpt>
      <trkpt lat="46.01375" lon="2.74879">
        <ele>628.287328</ele>
        <time>2024-06-26T21:02:57.148Z</time>
      </trkpt>
      <trkpt lat="46.01353" lon="2.74896">
        <ele>627.01759</ele>
        <time>2024-06-26T21:02:59.546Z</time>
      </trkpt>
      <trkpt lat="46.01281" lon="2.74934">
        <ele>623.162456</ele>
        <time>2024-06-26T21:03:06.714Z</time>
      </trkpt>
      <trkpt lat="46.01241" lon="2.74942">
        <ele>621.274466</ele>
        <time>2024-06-26T21:03:10.544Z</time>
      </trkpt>
      <trkpt lat="46.01222" lon="2.74937">
        <ele>620.363006</ele>
        <time>2024-06-26T21:03:12.386Z</time>
      </trkpt>
      <trkpt lat="46.01199" lon="2.74925">
        <ele>619.248974</ele>
        <time>2024-06-26T21:03:14.653Z</time>
      </trkpt>
      <trkpt lat="46.01142" lon="2.74883">
        <ele>616.273054</ele>
        <time>2024-06-26T21:03:20.761Z</time>
      </trkpt>
      <trkpt lat="46.01124" lon="2.74865">
        <ele>615.225331</ele>
        <time>2024-06-26T21:03:22.902Z</time>
      </trkpt>
      <trkpt lat="46.0111" lon="2.74859">
        <ele>614.578972</ele>
        <time>2024-06-26T21:03:24.254Z</time>
      </trkpt>
      <trkpt lat="46.011" lon="2.74858">
        <ele>614.305551</ele>
        <time>2024-06-26T21:03:25.245Z</time>
      </trkpt>
      <trkpt lat="46.01089" lon="2.74865">
        <ele>614.005508</ele>
        <time>2024-06-26T21:03:26.405Z</time>
      </trkpt>
      <trkpt lat="46.01081" lon="2.74877">
        <ele>613.694868</ele>
        <time>2024-06-26T21:03:27.587Z</time>
      </trkpt>
      <trkpt lat="46.01048" lon="2.74974">
        <ele>611.772214</ele>
        <time>2024-06-26T21:03:35.177Z</time>
      </trkpt>
      <trkpt lat="46.01039" lon="2.74991">
        <ele>611.389144</ele>
        <time>2024-06-26T21:03:36.721Z</time>
      </trkpt>
      <trkpt lat="46.01031" lon="2.75001">
        <ele>611.114557</ele>
        <time>2024-06-26T21:03:37.935Z</time>
      </trkpt>
      <trkpt lat="46.01007" lon="2.75013">
        <ele>610.47816</ele>
        <time>2024-06-26T21:03:40.525Z</time>
      </trkpt>
      <trkpt lat="46.00829" lon="2.75016">
        <ele>611.621389</ele>
        <time>2024-06-26T21:04:13.107Z</time>
      </trkpt>
      <trkpt lat="46.00815" lon="2.7501">
        <ele>611.776573</ele>
        <time>2024-06-26T21:04:17.247Z</time>
      </trkpt>
      <trkpt lat="46.008" lon="2.74996">
        <ele>612.225878</ele>
        <time>2024-06-26T21:04:21.779Z</time>
      </trkpt>
      <trkpt lat="46.00769" lon="2.74956">
        <ele>613.690566</ele>
        <time>2024-06-26T21:04:33.483Z</time>
      </trkpt>
      <trkpt lat="46.00757" lon="2.74948">
        <ele>614.158529</ele>
        <time>2024-06-26T21:04:37.388Z</time>
      </trkpt>
      <trkpt lat="46.00741" lon="2.74946">
        <ele>614.727323</ele>
        <time>2024-06-26T21:04:41.988Z</time>
      </trkpt>
      <trkpt lat="46.00713" lon="2.74958">
        <ele>615.740661</ele>
        <time>2024-06-26T21:04:50.823Z</time>
      </trkpt>
      <trkpt lat="46.00698" lon="2.7496">
        <ele>616.278554</ele>
        <time>2024-06-26T21:04:55.837Z</time>
      </trkpt>
      <trkpt lat="46.00685" lon="2.74959">
        <ele>616.724322</ele>
        <time>2024-06-26T21:04:59.864Z</time>
      </trkpt>
      <trkpt lat="46.00644" lon="2.74939">
        <ele>618.232118</ele>
        <time>2024-06-26T21:05:13.192Z</time>
      </trkpt>
      <trkpt lat="46.00628" lon="2.74935">
        <ele>618.83107</ele>
        <time>2024-06-26T21:05:18.392Z</time>
      </trkpt>
      <trkpt lat="46.00595" lon="2.7494">
        <ele>620.057988</ele>
        <time>2024-06-26T21:05:28.258Z</time>
      </trkpt>
      <trkpt lat="46.00564" lon="2.74953">
        <ele>621.21093</ele>
        <time>2024-06-26T21:05:37.373Z</time>
      </trkpt>
      <trkpt lat="46.00533" lon="2.74952">
        <ele>622.338075</ele>
        <time>2024-06-26T21:05:45.723Z</time>
      </trkpt>
      <trkpt lat="46.00362" lon="2.7488">
        <ele>629.111178</ele>
        <time>2024-06-26T21:06:38.607Z</time>
      </trkpt>
      <trkpt lat="46.0033" lon="2.74876">
        <ele>630.32987</ele>
        <time>2024-06-26T21:06:48.586Z</time>
      </trkpt>
      <trkpt lat="46.00269" lon="2.74906">
        <ele>632.849443</ele>
        <time>2024-06-26T21:07:09.113Z</time>
      </trkpt>
      <trkpt lat="46.00253" lon="2.74909">
        <ele>633.474584</ele>
        <time>2024-06-26T21:07:14.229Z</time>
      </trkpt>
      <trkpt lat="46.00219" lon="2.74906">
        <ele>634.81565</ele>
        <time>2024-06-26T21:07:25.158Z</time>
      </trkpt>
      <trkpt lat="46.00169" lon="2.74888">
        <ele>636.827045</ele>
        <time>2024-06-26T21:07:41.422Z</time>
      </trkpt>
      <trkpt lat="46.00152" lon="2.74887">
        <ele>637.480223</ele>
        <time>2024-06-26T21:07:46.445Z</time>
      </trkpt>
      <trkpt lat="46.00136" lon="2.74891">
        <ele>638.114938</ele>
        <time>2024-06-26T21:07:51.084Z</time>
      </trkpt>
      <trkpt lat="46.00122" lon="2.74899">
        <ele>638.693983</ele>
        <time>2024-06-26T21:07:55.233Z</time>
      </trkpt>
      <trkpt lat="45.9994" lon="2.75063">
        <ele>644.762175</ele>
        <time>2024-06-26T21:08:50.498Z</time>
      </trkpt>
      <trkpt lat="45.99925" lon="2.75073">
        <ele>645.227015</ele>
        <time>2024-06-26T21:08:54.728Z</time>
      </trkpt>
      <trkpt lat="45.99912" lon="2.75076">
        <ele>645.596225</ele>
        <time>2024-06-26T21:08:58.045Z</time>
      </trkpt>
      <trkpt lat="45.99898" lon="2.75074">
        <ele>645.989377</ele>
        <time>2024-06-26T21:09:01.553Z</time>
      </trkpt>
      <trkpt lat="45.99846" lon="2.75031">
        <ele>647.694412</ele>
        <time>2024-06-26T21:09:17.062Z</time>
      </trkpt>
      <trkpt lat="45.99827" lon="2.75024">
        <ele>648.253024</ele>
        <time>2024-06-26T21:09:22.370Z</time>
      </trkpt>
      <trkpt lat="45.99747" lon="2.75008">
        <ele>650.063181</ele>
        <time>2024-06-26T21:09:44.604Z</time>
      </trkpt>
      <trkpt lat="45.99705" lon="2.75007">
        <ele>650.909565</ele>
        <time>2024-06-26T21:09:54.977Z</time>
      </trkpt>
      <trkpt lat="45.99664" lon="2.75012">
        <ele>651.736574</ele>
        <time>2024-06-26T21:10:04.231Z</time>
      </trkpt>
      <trkpt lat="45.99644" lon="2.7502">
        <ele>652.161226</ele>
        <time>2024-06-26T21:10:08.646Z</time>
      </trkpt>
      <trkpt lat="45.99643" lon="2.75041">
        <ele>652.458971</ele>
        <time>2024-06-26T21:10:11.682Z</time>
      </trkpt>
      <trkpt lat="45.99604" lon="2.75343">
        <ele>650.00451</ele>
        <time>2024-06-26T21:10:37.867Z</time>
      </trkpt>
      <trkpt lat="45.99594" lon="2.75405">
        <ele>648.549589</ele>
        <time>2024-06-26T21:10:42.258Z</time>
      </trkpt>
      <trkpt lat="45.9957" lon="2.75529">
        <ele>645.610743</ele>
        <time>2024-06-26T21:10:50.942Z</time>
      </trkpt>
      <trkpt lat="45.99566" lon="2.75562">
        <ele>644.83931</ele>
        <time>2024-06-26T21:10:53.174Z</time>
      </trkpt>
      <trkpt lat="45.99563" lon="2.75593">
        <ele>644.116741</ele>
        <time>2024-06-26T21:10:55.251Z</time>
      </trkpt>
      <trkpt lat="45.99567" lon="2.75695">
        <ele>641.743369</ele>
        <time>2024-06-26T21:11:02.185Z</time>
      </trkpt>
      <trkpt lat="45.99565" lon="2.75713">
        <ele>641.307862</ele>
        <time>2024-06-26T21:11:03.497Z</time>
      </trkpt>
      <trkpt lat="45.99558" lon="2.75737">
        <ele>640.709418</ele>
        <time>2024-06-26T21:11:05.331Z</time>
      </trkpt>
      <trkpt lat="45.99527" lon="2.75793">
        <ele>639.156273</ele>
        <time>2024-06-26T21:11:10.649Z</time>
      </trkpt>
      <trkpt lat="45.99519" lon="2.75815">
        <ele>639.318044</ele>
        <time>2024-06-26T21:11:12.568Z</time>
      </trkpt>
      <trkpt lat="45.99512" lon="2.75841">
        <ele>639.504847</ele>
        <time>2024-06-26T21:11:14.910Z</time>
      </trkpt>
      <trkpt lat="45.99508" lon="2.75869">
        <ele>639.690267</ele>
        <time>2024-06-26T21:11:17.369Z</time>
      </trkpt>
      <trkpt lat="45.99506" lon="2.75983">
        <ele>640.432915</ele>
        <time>2024-06-26T21:11:32.387Z</time>
      </trkpt>
      <trkpt lat="45.99504" lon="2.76011">
        <ele>640.61786</ele>
        <time>2024-06-26T21:11:37.773Z</time>
      </trkpt>
      <trkpt lat="45.99492" lon="2.76022">
        <ele>640.751353</ele>
        <time>2024-06-26T21:11:41.726Z</time>
      </trkpt>
      <trkpt lat="45.99465" lon="2.76073">
        <ele>642.846358</ele>
        <time>2024-06-26T21:11:56.438Z</time>
      </trkpt>
      <trkpt lat="45.99388" lon="2.76244">
        <ele>650.611225</ele>
        <time>2024-06-26T21:12:52.450Z</time>
      </trkpt>
      <trkpt lat="45.99342" lon="2.76339">
        <ele>653.583954</ele>
        <time>2024-06-26T21:13:22.603Z</time>
      </trkpt>
      <trkpt lat="45.99335" lon="2.76349">
        <ele>653.948424</ele>
        <time>2024-06-26T21:13:25.741Z</time>
      </trkpt>
      <trkpt lat="45.99322" lon="2.76363">
        <ele>654.555582</ele>
        <time>2024-06-26T21:13:30.573Z</time>
      </trkpt>
      <trkpt lat="45.99318" lon="2.76366">
        <ele>654.715291</ele>
        <time>2024-06-26T21:13:31.813Z</time>
      </trkpt>
      <trkpt lat="45.99266" lon="2.76384">
        <ele>656.710003</ele>
        <time>2024-06-26T21:13:44.817Z</time>
      </trkpt>
      <trkpt lat="45.99257" lon="2.7639">
        <ele>657.076579</ele>
        <time>2024-06-26T21:13:46.666Z</time>
      </trkpt>
      <trkpt lat="45.99234" lon="2.76412">
        <ele>656.890228</ele>
        <time>2024-06-26T21:13:51.305Z</time>
      </trkpt>
      <trkpt lat="45.99219" lon="2.76437">
        <ele>656.44438</ele>
        <time>2024-06-26T21:13:54.174Z</time>
      </trkpt>
      <trkpt lat="45.99213" lon="2.7643">
        <ele>656.286811</ele>
        <time>2024-06-26T21:13:55.185Z</time>
      </trkpt>
      <trkpt lat="45.992" lon="2.76425">
        <ele>656.014175</ele>
        <time>2024-06-26T21:13:56.790Z</time>
      </trkpt>
      <trkpt lat="45.99174" lon="2.76428">
        <ele>655.505299</ele>
        <time>2024-06-26T21:13:59.609Z</time>
      </trkpt>
      <trkpt lat="45.99164" lon="2.7643">
        <ele>655.309427</ele>
        <time>2024-06-26T21:14:00.630Z</time>
      </trkpt>
      <trkpt lat="45.99152" lon="2.76431">
        <ele>655.065028</ele>
        <time>2024-06-26T21:14:01.877Z</time>
      </trkpt>
      <trkpt lat="45.99126" lon="2.76434">
        <ele>654.55648</ele>
        <time>2024-06-26T21:14:04.488Z</time>
      </trkpt>
      <trkpt lat="45.99015" lon="2.76397">
        <ele>650.521634</ele>
        <time>2024-06-26T21:14:15.580Z</time>
      </trkpt>
      <trkpt lat="45.98957" lon="2.76372">
        <ele>647.847766</ele>
        <time>2024-06-26T21:14:21.388Z</time>
      </trkpt>
      <trkpt lat="45.98942" lon="2.7636">
        <ele>647.088372</ele>
        <time>2024-06-26T21:14:23.038Z</time>
      </trkpt>
      <trkpt lat="45.9892" lon="2.7633">
        <ele>645.753899</ele>
        <time>2024-06-26T21:14:25.914Z</time>
      </trkpt>
      <trkpt lat="45.9882" lon="2.76121">
        <ele>637.118</ele>
        <time>2024-06-26T21:14:42.602Z</time>
      </trkpt>
      <trkpt lat="45.98757" lon="2.76014">
        <ele>631.79123</ele>
        <time>2024-06-26T21:14:51.688Z</time>
      </trkpt>
      <trkpt lat="45.98742" lon="2.75994">
        <ele>630.70357</ele>
        <time>2024-06-26T21:14:53.537Z</time>
      </trkpt>
      <trkpt lat="45.98726" lon="2.75977">
        <ele>629.61921</ele>
        <time>2024-06-26T21:14:55.384Z</time>
      </trkpt>
      <trkpt lat="45.98704" lon="2.75961">
        <ele>628.290712</ele>
        <time>2024-06-26T21:14:57.634Z</time>
      </trkpt>
      <trkpt lat="45.98546" lon="2.75897">
        <ele>620.285067</ele>
        <time>2024-06-26T21:15:13.103Z</time>
      </trkpt>
      <trkpt lat="45.98527" lon="2.75879">
        <ele>619.210216</ele>
        <time>2024-06-26T21:15:15.284Z</time>
      </trkpt>
      <trkpt lat="45.98517" lon="2.75862">
        <ele>618.504758</ele>
        <time>2024-06-26T21:15:16.814Z</time>
      </trkpt>
      <trkpt lat="45.98513" lon="2.7584">
        <ele>617.987463</ele>
        <time>2024-06-26T21:15:18.397Z</time>
      </trkpt>
      <trkpt lat="45.98511" lon="2.75813">
        <ele>617.37388</ele>
        <time>2024-06-26T21:15:20.260Z</time>
      </trkpt>
      <trkpt lat="45.98503" lon="2.75738">
        <ele>615.6768</ele>
        <time>2024-06-26T21:15:25.577Z</time>
      </trkpt>
      <trkpt lat="45.98499" lon="2.75716">
        <ele>615.161299</ele>
        <time>2024-06-26T21:15:27.185Z</time>
      </trkpt>
      <trkpt lat="45.98485" lon="2.75682">
        <ele>614.265947</ele>
        <time>2024-06-26T21:15:30.038Z</time>
      </trkpt>
      <trkpt lat="45.98463" lon="2.75637">
        <ele>613.024804</ele>
        <time>2024-06-26T21:15:33.940Z</time>
      </trkpt>
      <trkpt lat="45.98438" lon="2.75603">
        <ele>612.378025</ele>
        <time>2024-06-26T21:15:37.468Z</time>
      </trkpt>
      <trkpt lat="45.98417" lon="2.75583">
        <ele>611.9986</ele>
        <time>2024-06-26T21:15:40.223Z</time>
      </trkpt>
      <trkpt lat="45.98398" lon="2.75575">
        <ele>611.71407</ele>
        <time>2024-06-26T21:15:42.312Z</time>
      </trkpt>
      <trkpt lat="45.98334" lon="2.75575">
        <ele>610.778064</ele>
        <time>2024-06-26T21:15:49.493Z</time>
      </trkpt>
      <trkpt lat="45.98321" lon="2.75571">
        <ele>610.582138</ele>
        <time>2024-06-26T21:15:51.101Z</time>
      </trkpt>
      <trkpt lat="45.98201" lon="2.7548">
        <ele>612.276432</ele>
        <time>2024-06-26T21:16:15.732Z</time>
      </trkpt>
      <trkpt lat="45.9819" lon="2.75471">
        <ele>612.537785</ele>
        <time>2024-06-26T21:16:19.053Z</time>
      </trkpt>
      <trkpt lat="45.98172" lon="2.75454">
        <ele>612.999974</ele>
        <time>2024-06-26T21:16:25.149Z</time>
      </trkpt>
      <trkpt lat="45.98162" lon="2.75423">
        <ele>613.487838</ele>
        <time>2024-06-26T21:16:32.271Z</time>
      </trkpt>
      <trkpt lat="45.98138" lon="2.75266">
        <ele>618.449094</ele>
        <time>2024-06-26T21:17:11.558Z</time>
      </trkpt>
      <trkpt lat="45.9813" lon="2.75249">
        <ele>619.14653</ele>
        <time>2024-06-26T21:17:16.861Z</time>
      </trkpt>
      <trkpt lat="45.98121" lon="2.75238">
        <ele>619.717015</ele>
        <time>2024-06-26T21:17:21.214Z</time>
      </trkpt>
      <trkpt lat="45.98107" lon="2.75227">
        <ele>620.484921</ele>
        <time>2024-06-26T21:17:26.619Z</time>
      </trkpt>
      <trkpt lat="45.98091" lon="2.75221">
        <ele>621.309684</ele>
        <time>2024-06-26T21:17:32.566Z</time>
      </trkpt>
      <trkpt lat="45.98012" lon="2.75222">
        <ele>624.635823</ele>
        <time>2024-06-26T21:17:58.795Z</time>
      </trkpt>
      <trkpt lat="45.98004" lon="2.75223">
        <ele>624.950459</ele>
        <time>2024-06-26T21:18:01.223Z</time>
      </trkpt>
      <trkpt lat="45.9782" lon="2.75241">
        <ele>631.678844</ele>
        <time>2024-06-26T21:18:54.450Z</time>
      </trkpt>
      <trkpt lat="45.97784" lon="2.75241">
        <ele>632.83552</ele>
        <time>2024-06-26T21:19:03.891Z</time>
      </trkpt>
      <trkpt lat="45.97769" lon="2.75233">
        <ele>633.333116</ele>
        <time>2024-06-26T21:19:07.993Z</time>
      </trkpt>
      <trkpt lat="45.97756" lon="2.75214">
        <ele>633.927079</ele>
        <time>2024-06-26T21:19:12.838Z</time>
      </trkpt>
      <trkpt lat="45.97749" lon="2.7519">
        <ele>634.502723</ele>
        <time>2024-06-26T21:19:17.600Z</time>
      </trkpt>
      <trkpt lat="45.97726" lon="2.7509">
        <ele>637.009142</ele>
        <time>2024-06-26T21:19:38.067Z</time>
      </trkpt>
      <trkpt lat="45.97726" lon="2.75049">
        <ele>638.038165</ele>
        <time>2024-06-26T21:19:46.803Z</time>
      </trkpt>
      <trkpt lat="45.97732" lon="2.74985">
        <ele>639.616586</ele>
        <time>2024-06-26T21:20:00.211Z</time>
      </trkpt>
      <trkpt lat="45.97732" lon="2.74967">
        <ele>640.076689</ele>
        <time>2024-06-26T21:20:04.023Z</time>
      </trkpt>
      <trkpt lat="45.97727" lon="2.74945">
        <ele>640.653947</ele>
        <time>2024-06-26T21:20:08.752Z</time>
      </trkpt>
      <trkpt lat="45.97717" lon="2.7492">
        <ele>641.365701</ele>
        <time>2024-06-26T21:20:14.610Z</time>
      </trkpt>
      <trkpt lat="45.97675" lon="2.74846">
        <ele>643.857656</ele>
        <time>2024-06-26T21:20:33.791Z</time>
      </trkpt>
      <trkpt lat="45.97554" lon="2.74739">
        <ele>649.417217</ele>
        <time>2024-06-26T21:21:16.667Z</time>
      </trkpt>
      <trkpt lat="45.97538" lon="2.74711">
        <ele>650.646511</ele>
        <time>2024-06-26T21:21:24.195Z</time>
      </trkpt>
      <trkpt lat="45.97532" lon="2.74694">
        <ele>651.296971</ele>
        <time>2024-06-26T21:21:28.363Z</time>
      </trkpt>
      <trkpt lat="45.97505" lon="2.74622">
        <ele>654.1396</ele>
        <time>2024-06-26T21:21:47.899Z</time>
      </trkpt>
      <trkpt lat="45.9749" lon="2.74596">
        <ele>655.302344</ele>
        <time>2024-06-26T21:21:56.662Z</time>
      </trkpt>
      <trkpt lat="45.97359" lon="2.74382">
        <ele>665.940101</ele>
        <time>2024-06-26T21:23:14.092Z</time>
      </trkpt>
      <trkpt lat="45.97338" lon="2.74355">
        <ele>667.375973</ele>
        <time>2024-06-26T21:23:23.233Z</time>
      </trkpt>
      <trkpt lat="45.97317" lon="2.74336">
        <ele>667.833309</ele>
        <time>2024-06-26T21:23:30.616Z</time>
      </trkpt>
      <trkpt lat="45.97195" lon="2.74254">
        <ele>670.356721</ele>
        <time>2024-06-26T21:23:59.214Z</time>
      </trkpt>
      <trkpt lat="45.9717" lon="2.74238">
        <ele>670.67701</ele>
        <time>2024-06-26T21:24:02.883Z</time>
      </trkpt>
      <trkpt lat="45.97157" lon="2.74235">
        <ele>670.658064</ele>
        <time>2024-06-26T21:24:04.479Z</time>
      </trkpt>
      <trkpt lat="45.97135" lon="2.74236">
        <ele>670.62476</ele>
        <time>2024-06-26T21:24:07.255Z</time>
      </trkpt>
      <trkpt lat="45.96973" lon="2.74279">
        <ele>670.736719</ele>
        <time>2024-06-26T21:24:30.186Z</time>
      </trkpt>
      <trkpt lat="45.9694" lon="2.74348">
        <ele>671.342734</ele>
        <time>2024-06-26T21:24:41.212Z</time>
      </trkpt>
      <trkpt lat="45.96898" lon="2.74439">
        <ele>672.136079</ele>
        <time>2024-06-26T21:24:57.110Z</time>
      </trkpt>
      <trkpt lat="45.96849" lon="2.74529">
        <ele>673.254804</ele>
        <time>2024-06-26T21:25:14.649Z</time>
      </trkpt>
      <trkpt lat="45.96778" lon="2.74652">
        <ele>674.92677</ele>
        <time>2024-06-26T21:25:37.473Z</time>
      </trkpt>
      <trkpt lat="45.96738" lon="2.74721">
        <ele>675.938245</ele>
        <time>2024-06-26T21:25:49.636Z</time>
      </trkpt>
      <trkpt lat="45.96712" lon="2.74755">
        <ele>676.520724</ele>
        <time>2024-06-26T21:25:56.701Z</time>
      </trkpt>
      <trkpt lat="45.96548" lon="2.74919">
        <ele>680.594103</ele>
        <time>2024-06-26T21:26:42.375Z</time>
      </trkpt>
      <trkpt lat="45.96464" lon="2.7503">
        <ele>683.506119</ele>
        <time>2024-06-26T21:27:12.377Z</time>
      </trkpt>
      <trkpt lat="45.96426" lon="2.7506">
        <ele>684.75525</ele>
        <time>2024-06-26T21:27:24.460Z</time>
      </trkpt>
      <trkpt lat="45.96325" lon="2.75119">
        <ele>687.491619</ele>
        <time>2024-06-26T21:27:53.075Z</time>
      </trkpt>
      <trkpt lat="45.96285" lon="2.75137">
        <ele>687.901786</ele>
        <time>2024-06-26T21:28:02.359Z</time>
      </trkpt>
      <trkpt lat="45.96228" lon="2.75162">
        <ele>688.476809</ele>
        <time>2024-06-26T21:28:14.053Z</time>
      </trkpt>
      <trkpt lat="45.96026" lon="2.75226">
        <ele>687.679794</ele>
        <time>2024-06-26T21:28:40.669Z</time>
      </trkpt>
      <trkpt lat="45.95939" lon="2.7526">
        <ele>686.389586</ele>
        <time>2024-06-26T21:28:50.681Z</time>
      </trkpt>
      <trkpt lat="45.95874" lon="2.75275">
        <ele>685.268106</ele>
        <time>2024-06-26T21:28:57.939Z</time>
      </trkpt>
      <trkpt lat="45.95862" lon="2.75274">
        <ele>685.070016</ele>
        <time>2024-06-26T21:28:59.230Z</time>
      </trkpt>
      <trkpt lat="45.95623" lon="2.75251">
        <ele>681.71677</ele>
        <time>2024-06-26T21:29:27.254Z</time>
      </trkpt>
      <trkpt lat="45.9559" lon="2.75262">
        <ele>681.259976</ele>
        <time>2024-06-26T21:29:31.557Z</time>
      </trkpt>
      <trkpt lat="45.95559" lon="2.75286">
        <ele>680.79835</ele>
        <time>2024-06-26T21:29:35.890Z</time>
      </trkpt>
      <trkpt lat="45.95544" lon="2.75302">
        <ele>680.548224</ele>
        <time>2024-06-26T21:29:38.269Z</time>
      </trkpt>
      <trkpt lat="45.9538" lon="2.7547">
        <ele>676.086263</ele>
        <time>2024-06-26T21:30:00.820Z</time>
      </trkpt>
      <trkpt lat="45.95244" lon="2.75611">
        <ele>668.75104</ele>
        <time>2024-06-26T21:30:16.726Z</time>
      </trkpt>
      <trkpt lat="45.95234" lon="2.7563">
        <ele>667.886943</ele>
        <time>2024-06-26T21:30:18.258Z</time>
      </trkpt>
      <trkpt lat="45.95228" lon="2.75649">
        <ele>667.13476</ele>
        <time>2024-06-26T21:30:19.590Z</time>
      </trkpt>
      <trkpt lat="45.9522" lon="2.7571">
        <ele>664.964133</ele>
        <time>2024-06-26T21:30:23.522Z</time>
      </trkpt>
      <trkpt lat="45.95207" lon="2.75736">
        <ele>663.971957</ele>
        <time>2024-06-26T21:30:25.591Z</time>
      </trkpt>
      <trkpt lat="45.95183" lon="2.75753">
        <ele>662.773273</ele>
        <time>2024-06-26T21:30:28.110Z</time>
      </trkpt>
      <trkpt lat="45.95141" lon="2.75761">
        <ele>660.920585</ele>
        <time>2024-06-26T21:30:32.056Z</time>
      </trkpt>
      <trkpt lat="45.95127" lon="2.75767">
        <ele>660.253274</ele>
        <time>2024-06-26T21:30:33.500Z</time>
      </trkpt>
      <trkpt lat="45.95098" lon="2.75781">
        <ele>658.907701</ele>
        <time>2024-06-26T21:30:36.466Z</time>
      </trkpt>
      <trkpt lat="45.95078" lon="2.75796">
        <ele>657.908773</ele>
        <time>2024-06-26T21:30:38.713Z</time>
      </trkpt>
      <trkpt lat="45.94759" lon="2.76066">
        <ele>652.976888</ele>
        <time>2024-06-26T21:31:23.496Z</time>
      </trkpt>
      <trkpt lat="45.94662" lon="2.76165">
        <ele>651.192201</ele>
        <time>2024-06-26T21:31:37.643Z</time>
      </trkpt>
      <trkpt lat="45.94586" lon="2.76246">
        <ele>649.477543</ele>
        <time>2024-06-26T21:31:47.946Z</time>
      </trkpt>
      <trkpt lat="45.94574" lon="2.76264">
        <ele>649.050141</ele>
        <time>2024-06-26T21:31:49.793Z</time>
      </trkpt>
      <trkpt lat="45.9455" lon="2.763">
        <ele>648.190672</ele>
        <time>2024-06-26T21:31:53.415Z</time>
      </trkpt>
      <trkpt lat="45.94502" lon="2.76339">
        <ele>646.833145</ele>
        <time>2024-06-26T21:31:59.104Z</time>
      </trkpt>
      <trkpt lat="45.94473" lon="2.76357">
        <ele>646.06811</ele>
        <time>2024-06-26T21:32:02.416Z</time>
      </trkpt>
      <trkpt lat="45.94395" lon="2.76389">
        <ele>643.822224</ele>
        <time>2024-06-26T21:32:11.243Z</time>
      </trkpt>
      <trkpt lat="45.94392" lon="2.7639">
        <ele>643.734241</ele>
        <time>2024-06-26T21:32:11.594Z</time>
      </trkpt>
      <trkpt lat="45.9437" lon="2.76388">
        <ele>643.097407</ele>
        <time>2024-06-26T21:32:13.976Z</time>
      </trkpt>
      <trkpt lat="45.94355" lon="2.76379">
        <ele>642.649605</ele>
        <time>2024-06-26T21:32:15.650Z</time>
      </trkpt>
      <trkpt lat="45.94344" lon="2.76366">
        <ele>642.232865</ele>
        <time>2024-06-26T21:32:17.168Z</time>
      </trkpt>
      <trkpt lat="45.94304" lon="2.76306">
        <ele>640.497981</ele>
        <time>2024-06-26T21:32:22.946Z</time>
      </trkpt>
      <trkpt lat="45.94283" lon="2.7627">
        <ele>638.635497</ele>
        <time>2024-06-26T21:32:26.123Z</time>
      </trkpt>
      <trkpt lat="45.94253" lon="2.76187">
        <ele>634.9555</ele>
        <time>2024-06-26T21:32:32.168Z</time>
      </trkpt>
      <trkpt lat="45.94244" lon="2.76171">
        <ele>634.151702</ele>
        <time>2024-06-26T21:32:33.460Z</time>
      </trkpt>
      <trkpt lat="45.94204" lon="2.76134">
        <ele>631.459672</ele>
        <time>2024-06-26T21:32:37.753Z</time>
      </trkpt>
      <trkpt lat="45.94136" lon="2.76085">
        <ele>626.741551</ele>
        <time>2024-06-26T21:32:44.534Z</time>
      </trkpt>
      <trkpt lat="45.94106" lon="2.76054">
        <ele>624.403021</ele>
        <time>2024-06-26T21:32:47.864Z</time>
      </trkpt>
      <trkpt lat="45.94078" lon="2.76045">
        <ele>622.580023</ele>
        <time>2024-06-26T21:32:50.508Z</time>
      </trkpt>
      <trkpt lat="45.94023" lon="2.76053">
        <ele>619.090159</ele>
        <time>2024-06-26T21:32:55.655Z</time>
      </trkpt>
      <trkpt lat="45.94003" lon="2.76063">
        <ele>617.908725</ele>
        <time>2024-06-26T21:32:57.720Z</time>
      </trkpt>
      <trkpt lat="45.93997" lon="2.76072">
        <ele>617.449528</ele>
        <time>2024-06-26T21:32:58.523Z</time>
      </trkpt>
      <trkpt lat="45.93989" lon="2.7609">
        <ele>616.63814</ele>
        <time>2024-06-26T21:32:59.950Z</time>
      </trkpt>
      <trkpt lat="45.93978" lon="2.76114">
        <ele>615.556688</ele>
        <time>2024-06-26T21:33:01.880Z</time>
      </trkpt>
      <trkpt lat="45.93963" lon="2.76121">
        <ele>614.700347</ele>
        <time>2024-06-26T21:33:03.374Z</time>
      </trkpt>
      <trkpt lat="45.93935" lon="2.76116">
        <ele>613.110986</ele>
        <time>2024-06-26T21:33:06.141Z</time>
      </trkpt>
      <trkpt lat="45.93918" lon="2.76107">
        <ele>612.15414</ele>
        <time>2024-06-26T21:33:07.785Z</time>
      </trkpt>
      <trkpt lat="45.93903" lon="2.76093">
        <ele>611.179895</ele>
        <time>2024-06-26T21:33:09.433Z</time>
      </trkpt>
      <trkpt lat="45.93871" lon="2.76054">
        <ele>608.626011</ele>
        <time>2024-06-26T21:33:13.252Z</time>
      </trkpt>
      <trkpt lat="45.93857" lon="2.76025">
        <ele>606.480229</ele>
        <time>2024-06-26T21:33:15.449Z</time>
      </trkpt>
      <trkpt lat="45.9385" lon="2.75996">
        <ele>604.59234</ele>
        <time>2024-06-26T21:33:17.336Z</time>
      </trkpt>
      <trkpt lat="45.93852" lon="2.75937">
        <ele>601.021242</ele>
        <time>2024-06-26T21:33:20.868Z</time>
      </trkpt>
      <trkpt lat="45.93847" lon="2.75917">
        <ele>599.703887</ele>
        <time>2024-06-26T21:33:22.162Z</time>
      </trkpt>
      <trkpt lat="45.93829" lon="2.75897">
        <ele>597.723176</ele>
        <time>2024-06-26T21:33:24.097Z</time>
      </trkpt>
      <trkpt lat="45.93779" lon="2.7586">
        <ele>592.965714</ele>
        <time>2024-06-26T21:33:28.942Z</time>
      </trkpt>
      <trkpt lat="45.93759" lon="2.75852">
        <ele>591.521576</ele>
        <time>2024-06-26T21:33:30.754Z</time>
      </trkpt>
      <trkpt lat="45.93692" lon="2.75845">
        <ele>586.906586</ele>
        <time>2024-06-26T21:33:36.684Z</time>
      </trkpt>
      <trkpt lat="45.93682" lon="2.75849">
        <ele>586.128571</ele>
        <time>2024-06-26T21:33:37.717Z</time>
      </trkpt>
      <trkpt lat="45.93673" lon="2.75856">
        <ele>585.466511</ele>
        <time>2024-06-26T21:33:38.600Z</time>
      </trkpt>
      <trkpt lat="45.93641" lon="2.75895">
        <ele>582.564442</ele>
        <time>2024-06-26T21:33:42.495Z</time>
      </trkpt>
      <trkpt lat="45.936" lon="2.75914">
        <ele>579.781998</ele>
        <time>2024-06-26T21:33:46.578Z</time>
      </trkpt>
      <trkpt lat="45.93583" lon="2.75912">
        <ele>578.773473</ele>
        <time>2024-06-26T21:33:48.199Z</time>
      </trkpt>
      <trkpt lat="45.93546" lon="2.75892">
        <ele>576.467001</ele>
        <time>2024-06-26T21:33:51.863Z</time>
      </trkpt>
      <trkpt lat="45.93514" lon="2.75865">
        <ele>574.256205</ele>
        <time>2024-06-26T21:33:55.371Z</time>
      </trkpt>
      <trkpt lat="45.93489" lon="2.75835">
        <ele>572.364527</ele>
        <time>2024-06-26T21:33:58.328Z</time>
      </trkpt>
      <trkpt lat="45.93456" lon="2.75777">
        <ele>569.09936</ele>
        <time>2024-06-26T21:34:03.060Z</time>
      </trkpt>
      <trkpt lat="45.93443" lon="2.75768">
        <ele>568.152006</ele>
        <time>2024-06-26T21:34:04.330Z</time>
      </trkpt>
      <trkpt lat="45.93425" lon="2.75771">
        <ele>566.998259</ele>
        <time>2024-06-26T21:34:05.869Z</time>
      </trkpt>
      <trkpt lat="45.93406" lon="2.75786">
        <ele>565.51497</ele>
        <time>2024-06-26T21:34:07.845Z</time>
      </trkpt>
      <trkpt lat="45.93393" lon="2.75801">
        <ele>564.446939</ele>
        <time>2024-06-26T21:34:09.273Z</time>
      </trkpt>
      <trkpt lat="45.93382" lon="2.75819">
        <ele>563.296504</ele>
        <time>2024-06-26T21:34:10.817Z</time>
      </trkpt>
      <trkpt lat="45.93376" lon="2.75833">
        <ele>562.557507</ele>
        <time>2024-06-26T21:34:11.819Z</time>
      </trkpt>
      <trkpt lat="45.93366" lon="2.75892">
        <ele>559.764806</ele>
        <time>2024-06-26T21:34:15.718Z</time>
      </trkpt>
      <trkpt lat="45.93356" lon="2.75915">
        <ele>558.568922</ele>
        <time>2024-06-26T21:34:17.470Z</time>
      </trkpt>
      <trkpt lat="45.93339" lon="2.75936">
        <ele>557.755719</ele>
        <time>2024-06-26T21:34:19.696Z</time>
      </trkpt>
      <trkpt lat="45.93274" lon="2.75998">
        <ele>554.981278</ele>
        <time>2024-06-26T21:34:27.270Z</time>
      </trkpt>
      <trkpt lat="45.93251" lon="2.7602">
        <ele>554.002532</ele>
        <time>2024-06-26T21:34:29.996Z</time>
      </trkpt>
      <trkpt lat="45.93208" lon="2.76055">
        <ele>552.219222</ele>
        <time>2024-06-26T21:34:35.107Z</time>
      </trkpt>
      <trkpt lat="45.9319" lon="2.76064">
        <ele>552.027975</ele>
        <time>2024-06-26T21:34:37.472Z</time>
      </trkpt>
      <trkpt lat="45.9318" lon="2.76066">
        <ele>551.943784</ele>
        <time>2024-06-26T21:34:38.716Z</time>
      </trkpt>
      <trkpt lat="45.9313" lon="2.76063">
        <ele>551.51853</ele>
        <time>2024-06-26T21:34:44.841Z</time>
      </trkpt>
      <trkpt lat="45.93089" lon="2.76059">
        <ele>551.173853</ele>
        <time>2024-06-26T21:34:49.926Z</time>
      </trkpt>
      <trkpt lat="45.93066" lon="2.76066">
        <ele>550.970813</ele>
        <time>2024-06-26T21:34:53.944Z</time>
      </trkpt>
      <trkpt lat="45.93036" lon="2.7609">
        <ele>550.684651</ele>
        <time>2024-06-26T21:34:59.312Z</time>
      </trkpt>
      <trkpt lat="45.92999" lon="2.76139">
        <ele>550.320317</ele>
        <time>2024-06-26T21:35:05.917Z</time>
      </trkpt>
      <trkpt lat="45.92982" lon="2.76176">
        <ele>550.101254</ele>
        <time>2024-06-26T21:35:10.779Z</time>
      </trkpt>
      <trkpt lat="45.92972" lon="2.76224">
        <ele>549.847779</ele>
        <time>2024-06-26T21:35:16.542Z</time>
      </trkpt>
      <trkpt lat="45.92968" lon="2.7624">
        <ele>549.761074</ele>
        <time>2024-06-26T21:35:18.688Z</time>
      </trkpt>
      <trkpt lat="45.92964" lon="2.76333">
        <ele>548.863512</ele>
        <time>2024-06-26T21:35:25.933Z</time>
      </trkpt>
      <trkpt lat="45.92962" lon="2.76346">
        <ele>548.407949</ele>
        <time>2024-06-26T21:35:26.872Z</time>
      </trkpt>
      <trkpt lat="45.92957" lon="2.76356">
        <ele>547.940452</ele>
        <time>2024-06-26T21:35:27.767Z</time>
      </trkpt>
      <trkpt lat="45.9294" lon="2.76375">
        <ele>546.856531</ele>
        <time>2024-06-26T21:35:29.822Z</time>
      </trkpt>
      <trkpt lat="45.92891" lon="2.76403">
        <ele>544.103707</ele>
        <time>2024-06-26T21:35:34.752Z</time>
      </trkpt>
      <trkpt lat="45.92882" lon="2.76412">
        <ele>543.522817</ele>
        <time>2024-06-26T21:35:35.768Z</time>
      </trkpt>
      <trkpt lat="45.92876" lon="2.76426">
        <ele>542.945766</ele>
        <time>2024-06-26T21:35:36.765Z</time>
      </trkpt>
      <trkpt lat="45.92873" lon="2.76442">
        <ele>542.33239</ele>
        <time>2024-06-26T21:35:37.833Z</time>
      </trkpt>
      <trkpt lat="45.92874" lon="2.76466">
        <ele>541.460767</ele>
        <time>2024-06-26T21:35:39.357Z</time>
      </trkpt>
      <trkpt lat="45.92886" lon="2.76534">
        <ele>538.45488</ele>
        <time>2024-06-26T21:35:43.773Z</time>
      </trkpt>
      <trkpt lat="45.92891" lon="2.76596">
        <ele>535.236304</ele>
        <time>2024-06-26T21:35:47.644Z</time>
      </trkpt>
      <trkpt lat="45.9289" lon="2.76627">
        <ele>533.638327</ele>
        <time>2024-06-26T21:35:49.570Z</time>
      </trkpt>
      <trkpt lat="45.92883" lon="2.7667">
        <ele>531.365415</ele>
        <time>2024-06-26T21:35:52.285Z</time>
      </trkpt>
      <trkpt lat="45.9288" lon="2.76728">
        <ele>528.313041</ele>
        <time>2024-06-26T21:35:55.909Z</time>
      </trkpt>
      <trkpt lat="45.92876" lon="2.76746">
        <ele>527.352388</ele>
        <time>2024-06-26T21:35:57.040Z</time>
      </trkpt>
      <trkpt lat="45.92871" lon="2.76763">
        <ele>526.406162</ele>
        <time>2024-06-26T21:35:58.175Z</time>
      </trkpt>
      <trkpt lat="45.92852" lon="2.76792">
        <ele>524.403204</ele>
        <time>2024-06-26T21:36:00.585Z</time>
      </trkpt>
      <trkpt lat="45.92824" lon="2.76824">
        <ele>521.792426</ele>
        <time>2024-06-26T21:36:03.770Z</time>
      </trkpt>
      <trkpt lat="45.92812" lon="2.76836">
        <ele>520.739587</ele>
        <time>2024-06-26T21:36:05.087Z</time>
      </trkpt>
      <trkpt lat="45.92797" lon="2.7686">
        <ele>519.07549</ele>
        <time>2024-06-26T21:36:07.102Z</time>
      </trkpt>
      <trkpt lat="45.92792" lon="2.76862">
        <ele>518.697248</ele>
        <time>2024-06-26T21:36:07.568Z</time>
      </trkpt>
      <trkpt lat="45.92784" lon="2.76867">
        <ele>518.083128</ele>
        <time>2024-06-26T21:36:08.366Z</time>
      </trkpt>
      <trkpt lat="45.92781" lon="2.76879">
        <ele>517.415122</ele>
        <time>2024-06-26T21:36:09.188Z</time>
      </trkpt>
      <trkpt lat="45.92784" lon="2.7689">
        <ele>516.857541</ele>
        <time>2024-06-26T21:36:09.863Z</time>
      </trkpt>
      <trkpt lat="45.92787" lon="2.76893">
        <ele>516.574496</ele>
        <time>2024-06-26T21:36:10.203Z</time>
      </trkpt>
      <trkpt lat="45.92798" lon="2.76913">
        <ele>515.267562</ele>
        <time>2024-06-26T21:36:11.852Z</time>
      </trkpt>
      <trkpt lat="45.928" lon="2.76932">
        <ele>514.32305</ele>
        <time>2024-06-26T21:36:13.006Z</time>
      </trkpt>
      <trkpt lat="45.92802" lon="2.76938">
        <ele>513.982704</ele>
        <time>2024-06-26T21:36:13.419Z</time>
      </trkpt>
      <trkpt lat="45.92822" lon="2.7717">
        <ele>506.662361</ele>
        <time>2024-06-26T21:36:28.798Z</time>
      </trkpt>
      <trkpt lat="45.92821" lon="2.77186">
        <ele>506.177355</ele>
        <time>2024-06-26T21:36:30.063Z</time>
      </trkpt>
      <trkpt lat="45.92817" lon="2.77195">
        <ele>505.842963</ele>
        <time>2024-06-26T21:36:31.030Z</time>
      </trkpt>
      <trkpt lat="45.9281" lon="2.77201">
        <ele>505.683425</ele>
        <time>2024-06-26T21:36:31.931Z</time>
      </trkpt>
      <trkpt lat="45.92769" lon="2.7721">
        <ele>505.722835</ele>
        <time>2024-06-26T21:36:37.337Z</time>
      </trkpt>
      <trkpt lat="45.9276" lon="2.77212">
        <ele>505.732044</ele>
        <time>2024-06-26T21:36:38.658Z</time>
      </trkpt>
      <trkpt lat="45.92737" lon="2.77224">
        <ele>505.755316</ele>
        <time>2024-06-26T21:36:42.882Z</time>
      </trkpt>
      <trkpt lat="45.92732" lon="2.77218">
        <ele>505.761234</ele>
        <time>2024-06-26T21:36:49.857Z</time>
      </trkpt>
      <trkpt lat="45.92727" lon="2.77219">
        <ele>505.766189</ele>
        <time>2024-06-26T21:36:55.894Z</time>
      </trkpt>
      <trkpt lat="45.92714" lon="2.77232">
        <ele>505.780761</ele>
        <time>2024-06-26T21:37:13.827Z</time>
      </trkpt>
      <trkpt lat="45.92711" lon="2.77241">
        <ele>505.787751</ele>
        <time>2024-06-26T21:37:22.194Z</time>
      </trkpt>
      <trkpt lat="45.92708" lon="2.77251">
        <ele>505.79492</ele>
        <time>2024-06-26T21:37:30.457Z</time>
      </trkpt>
      <trkpt lat="45.92707" lon="2.77262">
        <ele>505.802424</ele>
        <time>2024-06-26T21:37:38.954Z</time>
      </trkpt>
      <trkpt lat="45.92711" lon="2.77271">
        <ele>505.808789</ele>
        <time>2024-06-26T21:37:46.267Z</time>
      </trkpt>
      <trkpt lat="45.92718" lon="2.77273">
        <ele>505.815877</ele>
        <time>2024-06-26T21:37:54.897Z</time>
      </trkpt>
      <trkpt lat="45.9272" lon="2.77291">
        <ele>505.827897</ele>
        <time>2024-06-26T21:37:57.642Z</time>
      </trkpt>
      <trkpt lat="45.92724" lon="2.77312">
        <ele>505.842606</ele>
        <time>2024-06-26T21:37:59.927Z</time>
      </trkpt>
      <trkpt lat="45.92723" lon="2.77328">
        <ele>505.897032</ele>
        <time>2024-06-26T21:38:02.331Z</time>
      </trkpt>
      <trkpt lat="45.92713" lon="2.77384">
        <ele>506.655633</ele>
        <time>2024-06-26T21:38:11.084Z</time>
      </trkpt>
      <trkpt lat="45.9271" lon="2.77415">
        <ele>507.069665</ele>
        <time>2024-06-26T21:38:16.538Z</time>
      </trkpt>
      <trkpt lat="45.92713" lon="2.77441">
        <ele>507.407721</ele>
        <time>2024-06-26T21:38:22.311Z</time>
      </trkpt>
      <trkpt lat="45.9272" lon="2.77469">
        <ele>507.804488</ele>
        <time>2024-06-26T21:38:27.975Z</time>
      </trkpt>
      <trkpt lat="45.92752" lon="2.77542">
        <ele>508.937094</ele>
        <time>2024-06-26T21:38:42.180Z</time>
      </trkpt>
      <trkpt lat="45.92753" lon="2.77565">
        <ele>509.24094</ele>
        <time>2024-06-26T21:38:44.947Z</time>
      </trkpt>
      <trkpt lat="45.92745" lon="2.77588">
        <ele>509.245156</ele>
        <time>2024-06-26T21:38:47.537Z</time>
      </trkpt>
      <trkpt lat="45.92731" lon="2.77602">
        <ele>509.240247</ele>
        <time>2024-06-26T21:38:49.920Z</time>
      </trkpt>
      <trkpt lat="45.92715" lon="2.77604">
        <ele>509.235597</ele>
        <time>2024-06-26T21:38:52.166Z</time>
      </trkpt>
      <trkpt lat="45.92705" lon="2.77601">
        <ele>509.232831</ele>
        <time>2024-06-26T21:38:53.328Z</time>
      </trkpt>
      <trkpt lat="45.92694" lon="2.77592">
        <ele>509.229313</ele>
        <time>2024-06-26T21:38:55.199Z</time>
      </trkpt>
      <trkpt lat="45.92637" lon="2.775">
        <ele>509.204902</ele>
        <time>2024-06-26T21:39:07.594Z</time>
      </trkpt>
      <trkpt lat="45.92629" lon="2.7749">
        <ele>509.201983</ele>
        <time>2024-06-26T21:39:08.865Z</time>
      </trkpt>
      <trkpt lat="45.92619" lon="2.77485">
        <ele>509.208229</ele>
        <time>2024-06-26T21:39:10.187Z</time>
      </trkpt>
      <trkpt lat="45.92602" lon="2.77488">
        <ele>509.419195</ele>
        <time>2024-06-26T21:39:12.167Z</time>
      </trkpt>
      <trkpt lat="45.92589" lon="2.775">
        <ele>509.607769</ele>
        <time>2024-06-26T21:39:14.174Z</time>
      </trkpt>
      <trkpt lat="45.92475" lon="2.77601">
        <ele>511.240704</ele>
        <time>2024-06-26T21:39:41.062Z</time>
      </trkpt>
      <trkpt lat="45.9246" lon="2.77626">
        <ele>511.833715</ele>
        <time>2024-06-26T21:39:47.560Z</time>
      </trkpt>
      <trkpt lat="45.92456" lon="2.77642">
        <ele>512.33178</ele>
        <time>2024-06-26T21:39:50.779Z</time>
      </trkpt>
      <trkpt lat="45.92455" lon="2.77657">
        <ele>512.799736</ele>
        <time>2024-06-26T21:39:53.806Z</time>
      </trkpt>
      <trkpt lat="45.92467" lon="2.77735">
        <ele>515.167944</ele>
        <time>2024-06-26T21:40:11.038Z</time>
      </trkpt>
      <trkpt lat="45.92465" lon="2.77784">
        <ele>516.631116</ele>
        <time>2024-06-26T21:40:22.629Z</time>
      </trkpt>
      <trkpt lat="45.92457" lon="2.77806">
        <ele>517.365651</ele>
        <time>2024-06-26T21:40:28.594Z</time>
      </trkpt>
      <trkpt lat="45.92431" lon="2.77861">
        <ele>519.451631</ele>
        <time>2024-06-26T21:40:45.948Z</time>
      </trkpt>
      <trkpt lat="45.92364" lon="2.78037">
        <ele>527.423263</ele>
        <time>2024-06-26T21:41:37.870Z</time>
      </trkpt>
      <trkpt lat="45.92355" lon="2.78067">
        <ele>528.724443</ele>
        <time>2024-06-26T21:41:47.000Z</time>
      </trkpt>
      <trkpt lat="45.92351" lon="2.78095">
        <ele>529.852951</ele>
        <time>2024-06-26T21:41:54.984Z</time>
      </trkpt>
      <trkpt lat="45.92353" lon="2.78156">
        <ele>532.280466</ele>
        <time>2024-06-26T21:42:11.706Z</time>
      </trkpt>
      <trkpt lat="45.92361" lon="2.78201">
        <ele>534.113644</ele>
        <time>2024-06-26T21:42:23.960Z</time>
      </trkpt>
      <trkpt lat="45.92361" lon="2.78318">
        <ele>538.745113</ele>
        <time>2024-06-26T21:42:53.513Z</time>
      </trkpt>
      <trkpt lat="45.92363" lon="2.78343">
        <ele>539.763936</ele>
        <time>2024-06-26T21:42:59.555Z</time>
      </trkpt>
      <trkpt lat="45.92366" lon="2.78365">
        <ele>540.779805</ele>
        <time>2024-06-26T21:43:05.456Z</time>
      </trkpt>
      <trkpt lat="45.92388" lon="2.78461">
        <ele>545.271808</ele>
        <time>2024-06-26T21:43:32.428Z</time>
      </trkpt>
      <trkpt lat="45.92397" lon="2.78491">
        <ele>546.718989</ele>
        <time>2024-06-26T21:43:42.010Z</time>
      </trkpt>
      <trkpt lat="45.92421" lon="2.78552">
        <ele>549.781527</ele>
        <time>2024-06-26T21:44:02.808Z</time>
      </trkpt>
      <trkpt lat="45.92439" lon="2.78574">
        <ele>551.35332</ele>
        <time>2024-06-26T21:44:13.157Z</time>
      </trkpt>
      <trkpt lat="45.92473" lon="2.78597">
        <ele>553.979333</ele>
        <time>2024-06-26T21:44:29.734Z</time>
      </trkpt>
      <trkpt lat="45.92484" lon="2.78609">
        <ele>554.997184</ele>
        <time>2024-06-26T21:44:35.942Z</time>
      </trkpt>
      <trkpt lat="45.92493" lon="2.7863">
        <ele>556.226425</ele>
        <time>2024-06-26T21:44:43.478Z</time>
      </trkpt>
      <trkpt lat="45.92503" lon="2.78668">
        <ele>558.203825</ele>
        <time>2024-06-26T21:44:55.201Z</time>
      </trkpt>
      <trkpt lat="45.92519" lon="2.78749">
        <ele>562.375385</ele>
        <time>2024-06-26T21:45:19.618Z</time>
      </trkpt>
      <trkpt lat="45.92525" lon="2.78793">
        <ele>564.563497</ele>
        <time>2024-06-26T21:45:33.609Z</time>
      </trkpt>
      <trkpt lat="45.92516" lon="2.7891">
        <ele>570.30766</ele>
        <time>2024-06-26T21:46:10.900Z</time>
      </trkpt>
      <trkpt lat="45.92513" lon="2.78925">
        <ele>571.066169</ele>
        <time>2024-06-26T21:46:15.910Z</time>
      </trkpt>
      <trkpt lat="45.92495" lon="2.78963">
        <ele>573.274484</ele>
        <time>2024-06-26T21:46:29.638Z</time>
      </trkpt>
      <trkpt lat="45.92482" lon="2.7901">
        <ele>575.742997</ele>
        <time>2024-06-26T21:46:43.925Z</time>
      </trkpt>
      <trkpt lat="45.92476" lon="2.79023">
        <ele>576.541216</ele>
        <time>2024-06-26T21:46:48.286Z</time>
      </trkpt>
      <trkpt lat="45.92462" lon="2.79039">
        <ele>577.649924</ele>
        <time>2024-06-26T21:46:54.640Z</time>
      </trkpt>
      <trkpt lat="45.92435" lon="2.79053">
        <ele>579.41729</ele>
        <time>2024-06-26T21:47:05.001Z</time>
      </trkpt>
      <trkpt lat="45.92415" lon="2.7907">
        <ele>580.792392</ele>
        <time>2024-06-26T21:47:13.472Z</time>
      </trkpt>
      <trkpt lat="45.92363" lon="2.79127">
        <ele>584.817155</ele>
        <time>2024-06-26T21:47:40.330Z</time>
      </trkpt>
      <trkpt lat="45.92318" lon="2.79158">
        <ele>588.009283</ele>
        <time>2024-06-26T21:48:00.038Z</time>
      </trkpt>
      <trkpt lat="45.92312" lon="2.79167">
        <ele>588.848726</ele>
        <time>2024-06-26T21:48:03.687Z</time>
      </trkpt>
      <trkpt lat="45.92308" lon="2.79178">
        <ele>589.591793</ele>
        <time>2024-06-26T21:48:06.810Z</time>
      </trkpt>
      <trkpt lat="45.92308" lon="2.792">
        <ele>590.92245</ele>
        <time>2024-06-26T21:48:12.550Z</time>
      </trkpt>
      <trkpt lat="45.92317" lon="2.79221">
        <ele>592.44667</ele>
        <time>2024-06-26T21:48:19.183Z</time>
      </trkpt>
      <trkpt lat="45.9237" lon="2.79274">
        <ele>598.205641</ele>
        <time>2024-06-26T21:48:50.354Z</time>
      </trkpt>
      <trkpt lat="45.92382" lon="2.7929">
        <ele>599.635351</ele>
        <time>2024-06-26T21:48:59.688Z</time>
      </trkpt>
      <trkpt lat="45.92384" lon="2.79314">
        <ele>601.149388</ele>
        <time>2024-06-26T21:49:10.676Z</time>
      </trkpt>
      <trkpt lat="45.9237" lon="2.79356">
        <ele>603.984517</ele>
        <time>2024-06-26T21:49:32.668Z</time>
      </trkpt>
      <trkpt lat="45.92367" lon="2.7938">
        <ele>605.376919</ele>
        <time>2024-06-26T21:49:43.934Z</time>
      </trkpt>
      <trkpt lat="45.92373" lon="2.79433">
        <ele>608.432406</ele>
        <time>2024-06-26T21:50:06.736Z</time>
      </trkpt>
      <trkpt lat="45.92382" lon="2.7946">
        <ele>610.187492</ele>
        <time>2024-06-26T21:50:18.207Z</time>
      </trkpt>
      <trkpt lat="45.9242" lon="2.79514">
        <ele>614.572315</ele>
        <time>2024-06-26T21:50:41.305Z</time>
      </trkpt>
      <trkpt lat="45.92423" lon="2.79525">
        <ele>615.23806</ele>
        <time>2024-06-26T21:50:44.266Z</time>
      </trkpt>
      <trkpt lat="45.92421" lon="2.79546">
        <ele>616.431961</ele>
        <time>2024-06-26T21:50:49.121Z</time>
      </trkpt>
      <trkpt lat="45.92415" lon="2.79554">
        <ele>617.092898</ele>
        <time>2024-06-26T21:50:51.818Z</time>
      </trkpt>
      <trkpt lat="45.92407" lon="2.79559">
        <ele>617.791167</ele>
        <time>2024-06-26T21:50:54.715Z</time>
      </trkpt>
      <trkpt lat="45.92399" lon="2.79559">
        <ele>618.296444</ele>
        <time>2024-06-26T21:50:57.244Z</time>
      </trkpt>
      <trkpt lat="45.92382" lon="2.7955">
        <ele>618.644125</ele>
        <time>2024-06-26T21:51:02.567Z</time>
      </trkpt>
      <trkpt lat="45.92366" lon="2.79548">
        <ele>618.959146</ele>
        <time>2024-06-26T21:51:07.073Z</time>
      </trkpt>
      <trkpt lat="45.92339" lon="2.79552">
        <ele>619.473734</ele>
        <time>2024-06-26T21:51:13.239Z</time>
      </trkpt>
      <trkpt lat="45.92283" lon="2.79563">
        <ele>620.550995</ele>
        <time>2024-06-26T21:51:21.321Z</time>
      </trkpt>
      <trkpt lat="45.92269" lon="2.79571">
        <ele>620.840299</ele>
        <time>2024-06-26T21:51:23.263Z</time>
      </trkpt>
      <trkpt lat="45.92204" lon="2.7966">
        <ele>624.725831</ele>
        <time>2024-06-26T21:51:43.606Z</time>
      </trkpt>
      <trkpt lat="45.92191" lon="2.79686">
        <ele>626.194564</ele>
        <time>2024-06-26T21:51:51.607Z</time>
      </trkpt>
      <trkpt lat="45.92179" lon="2.79742">
        <ele>628.920373</ele>
        <time>2024-06-26T21:52:09.374Z</time>
      </trkpt>
      <trkpt lat="45.92172" lon="2.79791">
        <ele>631.232007</ele>
        <time>2024-06-26T21:52:27.064Z</time>
      </trkpt>
      <trkpt lat="45.92171" lon="2.79819">
        <ele>632.557125</ele>
        <time>2024-06-26T21:52:38.140Z</time>
      </trkpt>
      <trkpt lat="45.92174" lon="2.79835">
        <ele>633.34493</ele>
        <time>2024-06-26T21:52:44.878Z</time>
      </trkpt>
      <trkpt lat="45.92221" lon="2.80023">
        <ele>648.05375</ele>
        <time>2024-06-26T21:54:09.873Z</time>
      </trkpt>
      <trkpt lat="45.92233" lon="2.80045">
        <ele>650.131212</ele>
        <time>2024-06-26T21:54:20.458Z</time>
      </trkpt>
      <trkpt lat="45.92281" lon="2.80094">
        <ele>655.691824</ele>
        <time>2024-06-26T21:54:51.243Z</time>
      </trkpt>
      <trkpt lat="45.92293" lon="2.80111">
        <ele>657.106206</ele>
        <time>2024-06-26T21:54:59.845Z</time>
      </trkpt>
      <trkpt lat="45.923" lon="2.80131">
        <ele>658.360309</ele>
        <time>2024-06-26T21:55:07.419Z</time>
      </trkpt>
      <trkpt lat="45.92301" lon="2.80154">
        <ele>659.694014</ele>
        <time>2024-06-26T21:55:15.411Z</time>
      </trkpt>
      <trkpt lat="45.92297" lon="2.80211">
        <ele>662.998065</ele>
        <time>2024-06-26T21:55:34.547Z</time>
      </trkpt>
      <trkpt lat="45.92297" lon="2.80235">
        <ele>664.416589</ele>
        <time>2024-06-26T21:55:42.446Z</time>
      </trkpt>
      <trkpt lat="45.92303" lon="2.80269">
        <ele>666.444809</ele>
        <time>2024-06-26T21:55:53.190Z</time>
      </trkpt>
      <trkpt lat="45.92342" lon="2.80372">
        <ele>672.168526</ele>
        <time>2024-06-26T21:56:26.859Z</time>
      </trkpt>
      <trkpt lat="45.92356" lon="2.80392">
        <ele>673.460228</ele>
        <time>2024-06-26T21:56:34.721Z</time>
      </trkpt>
      <trkpt lat="45.92381" lon="2.80415">
        <ele>675.393175</ele>
        <time>2024-06-26T21:56:46.979Z</time>
      </trkpt>
      <trkpt lat="45.9248" lon="2.80502">
        <ele>682.646134</ele>
        <time>2024-06-26T21:57:34.590Z</time>
      </trkpt>
      <trkpt lat="45.92559" lon="2.80572">
        <ele>687.921919</ele>
        <time>2024-06-26T21:58:09.006Z</time>
      </trkpt>
      <trkpt lat="45.9257" lon="2.80592">
        <ele>688.947502</ele>
        <time>2024-06-26T21:58:15.765Z</time>
      </trkpt>
      <trkpt lat="45.92575" lon="2.80608">
        <ele>689.653092</ele>
        <time>2024-06-26T21:58:20.295Z</time>
      </trkpt>
      <trkpt lat="45.92576" lon="2.80645">
        <ele>690.670357</ele>
        <time>2024-06-26T21:58:29.221Z</time>
      </trkpt>
      <trkpt lat="45.92567" lon="2.80723">
        <ele>692.40722</ele>
        <time>2024-06-26T21:58:46.439Z</time>
      </trkpt>
      <trkpt lat="45.9256" lon="2.80784">
        <ele>693.758154</ele>
        <time>2024-06-26T21:58:57.727Z</time>
      </trkpt>
      <trkpt lat="45.9256" lon="2.80804">
        <ele>694.191815</ele>
        <time>2024-06-26T21:59:01.126Z</time>
      </trkpt>
      <trkpt lat="45.92575" lon="2.80804">
        <ele>694.658691</ele>
        <time>2024-06-26T21:59:04.457Z</time>
      </trkpt>
      <trkpt lat="45.92584" lon="2.80799">
        <ele>694.954682</ele>
        <time>2024-06-26T21:59:06.564Z</time>
      </trkpt>
      <trkpt lat="45.92603" lon="2.80791">
        <ele>695.582319</ele>
        <time>2024-06-26T21:59:10.998Z</time>
      </trkpt>
      <trkpt lat="45.92641" lon="2.80789">
        <ele>695.916331</ele>
        <time>2024-06-26T21:59:18.787Z</time>
      </trkpt>
      <trkpt lat="45.92658" lon="2.80783">
        <ele>695.999834</ele>
        <time>2024-06-26T21:59:22.129Z</time>
      </trkpt>
      <trkpt lat="45.92731" lon="2.80721">
        <ele>696.398807</ele>
        <time>2024-06-26T21:59:35.089Z</time>
      </trkpt>
      <trkpt lat="45.92755" lon="2.807">
        <ele>696.529102</ele>
        <time>2024-06-26T21:59:39.008Z</time>
      </trkpt>
      <trkpt lat="45.92799" lon="2.80661">
        <ele>696.68767</ele>
        <time>2024-06-26T21:59:46.573Z</time>
      </trkpt>
      <trkpt lat="45.92847" lon="2.80631">
        <ele>696.804841</ele>
        <time>2024-06-26T21:59:54.077Z</time>
      </trkpt>
      <trkpt lat="45.92928" lon="2.80583">
        <ele>696.998952</ele>
        <time>2024-06-26T22:00:08.141Z</time>
      </trkpt>
      <trkpt lat="45.92949" lon="2.80573">
        <ele>697.246178</ele>
        <time>2024-06-26T22:00:12.114Z</time>
      </trkpt>
      <trkpt lat="45.93052" lon="2.80556">
        <ele>698.674495</ele>
        <time>2024-06-26T22:00:32.735Z</time>
      </trkpt>
      <trkpt lat="45.93103" lon="2.80549">
        <ele>699.386351</ele>
        <time>2024-06-26T22:00:44.247Z</time>
      </trkpt>
      <trkpt lat="45.93209" lon="2.80514">
        <ele>701.175638</ele>
        <time>2024-06-26T22:01:09.394Z</time>
      </trkpt>
      <trkpt lat="45.93234" lon="2.80509">
        <ele>701.603111</ele>
        <time>2024-06-26T22:01:14.831Z</time>
      </trkpt>
      <trkpt lat="45.93318" lon="2.80494">
        <ele>702.79505</ele>
        <time>2024-06-26T22:01:31.246Z</time>
      </trkpt>
      <trkpt lat="45.93346" lon="2.80486">
        <ele>703.071314</ele>
        <time>2024-06-26T22:01:36.605Z</time>
      </trkpt>
      <trkpt lat="45.93525" lon="2.80401">
        <ele>704.782536</ele>
        <time>2024-06-26T22:02:10.991Z</time>
      </trkpt>
      <trkpt lat="45.93553" lon="2.80392">
        <ele>705.012176</ele>
        <time>2024-06-26T22:02:16.252Z</time>
      </trkpt>
      <trkpt lat="45.93591" lon="2.80386">
        <ele>705.326025</ele>
        <time>2024-06-26T22:02:23.353Z</time>
      </trkpt>
      <trkpt lat="45.93673" lon="2.80383">
        <ele>705.719877</ele>
        <time>2024-06-26T22:02:37.796Z</time>
      </trkpt>
      <trkpt lat="45.93705" lon="2.8038">
        <ele>705.739095</ele>
        <time>2024-06-26T22:02:43.059Z</time>
      </trkpt>
      <trkpt lat="45.93726" lon="2.80375">
        <ele>705.752046</ele>
        <time>2024-06-26T22:02:46.459Z</time>
      </trkpt>
      <trkpt lat="45.93777" lon="2.80348">
        <ele>705.784716</ele>
        <time>2024-06-26T22:02:54.431Z</time>
      </trkpt>
      <trkpt lat="45.93846" lon="2.80303">
        <ele>705.452027</ele>
        <time>2024-06-26T22:03:04.107Z</time>
      </trkpt>
      <trkpt lat="45.93883" lon="2.80279">
        <ele>705.09817</ele>
        <time>2024-06-26T22:03:08.989Z</time>
      </trkpt>
      <trkpt lat="45.94021" lon="2.8019">
        <ele>703.908783</ele>
        <time>2024-06-26T22:03:27.626Z</time>
      </trkpt>
      <trkpt lat="45.94039" lon="2.80181">
        <ele>703.793624</ele>
        <time>2024-06-26T22:03:30.001Z</time>
      </trkpt>
      <trkpt lat="45.9405" lon="2.80179">
        <ele>703.721769</ele>
        <time>2024-06-26T22:03:31.473Z</time>
      </trkpt>
      <trkpt lat="45.94085" lon="2.80183">
        <ele>703.503146</ele>
        <time>2024-06-26T22:03:36.137Z</time>
      </trkpt>
      <trkpt lat="45.94312" lon="2.80246">
        <ele>702.167435</ele>
        <time>2024-06-26T22:04:07.813Z</time>
      </trkpt>
      <trkpt lat="45.94372" lon="2.80259">
        <ele>700.940171</ele>
        <time>2024-06-26T22:04:14.633Z</time>
      </trkpt>
      <trkpt lat="45.94496" lon="2.80277">
        <ele>698.007592</ele>
        <time>2024-06-26T22:04:27.779Z</time>
      </trkpt>
      <trkpt lat="45.94634" lon="2.80296">
        <ele>692.652837</ele>
        <time>2024-06-26T22:04:41.514Z</time>
      </trkpt>
      <trkpt lat="45.9465" lon="2.80296">
        <ele>692.037195</ele>
        <time>2024-06-26T22:04:43.042Z</time>
      </trkpt>
      <trkpt lat="45.94664" lon="2.80292">
        <ele>691.472004</ele>
        <time>2024-06-26T22:04:44.421Z</time>
      </trkpt>
      <trkpt lat="45.94681" lon="2.80278">
        <ele>690.633956</ele>
        <time>2024-06-26T22:04:46.292Z</time>
      </trkpt>
      <trkpt lat="45.94772" lon="2.8017">
        <ele>683.509473</ele>
        <time>2024-06-26T22:04:57.118Z</time>
      </trkpt>
      <trkpt lat="45.94859" lon="2.80043">
        <ele>676.113955</ele>
        <time>2024-06-26T22:05:08.277Z</time>
      </trkpt>
      <trkpt lat="45.94947" lon="2.79937">
        <ele>669.453232</ele>
        <time>2024-06-26T22:05:18.973Z</time>
      </trkpt>
      <trkpt lat="45.9497" lon="2.79919">
        <ele>668.589253</ele>
        <time>2024-06-26T22:05:21.477Z</time>
      </trkpt>
      <trkpt lat="45.95018" lon="2.79896">
        <ele>666.881419</ele>
        <time>2024-06-26T22:05:26.631Z</time>
      </trkpt>
      <trkpt lat="45.95217" lon="2.79819">
        <ele>660.189072</ele>
        <time>2024-06-26T22:05:48.050Z</time>
      </trkpt>
      <trkpt lat="45.95245" lon="2.79822">
        <ele>659.325456</ele>
        <time>2024-06-26T22:05:50.756Z</time>
      </trkpt>
      <trkpt lat="45.95266" lon="2.79839">
        <ele>658.554113</ele>
        <time>2024-06-26T22:05:53.161Z</time>
      </trkpt>
      <trkpt lat="45.95284" lon="2.7987">
        <ele>657.669002</ele>
        <time>2024-06-26T22:05:55.887Z</time>
      </trkpt>
      <trkpt lat="45.95328" lon="2.79964">
        <ele>654.992239</ele>
        <time>2024-06-26T22:06:03.770Z</time>
      </trkpt>
      <trkpt lat="45.95342" lon="2.79986">
        <ele>654.292526</ele>
        <time>2024-06-26T22:06:05.824Z</time>
      </trkpt>
      <trkpt lat="45.95355" lon="2.79996">
        <ele>653.791235</ele>
        <time>2024-06-26T22:06:07.327Z</time>
      </trkpt>
      <trkpt lat="45.95405" lon="2.80015">
        <ele>652.058916</ele>
        <time>2024-06-26T22:06:12.561Z</time>
      </trkpt>
      <trkpt lat="45.95421" lon="2.80032">
        <ele>651.259032</ele>
        <time>2024-06-26T22:06:14.691Z</time>
      </trkpt>
      <trkpt lat="45.95464" lon="2.80081">
        <ele>648.783878</ele>
        <time>2024-06-26T22:06:20.249Z</time>
      </trkpt>
      <trkpt lat="45.95471" lon="2.80097">
        <ele>648.180627</ele>
        <time>2024-06-26T22:06:21.585Z</time>
      </trkpt>
      <trkpt lat="45.95473" lon="2.80116">
        <ele>647.575645</ele>
        <time>2024-06-26T22:06:22.881Z</time>
      </trkpt>
      <trkpt lat="45.95472" lon="2.80135">
        <ele>646.95978</ele>
        <time>2024-06-26T22:06:24.195Z</time>
      </trkpt>
      <trkpt lat="45.95466" lon="2.80154">
        <ele>646.294021</ele>
        <time>2024-06-26T22:06:25.592Z</time>
      </trkpt>
      <trkpt lat="45.95458" lon="2.80168">
        <ele>645.736425</ele>
        <time>2024-06-26T22:06:26.736Z</time>
      </trkpt>
      <trkpt lat="45.95393" lon="2.80248">
        <ele>640.805474</ele>
        <time>2024-06-26T22:06:34.509Z</time>
      </trkpt>
      <trkpt lat="45.95377" lon="2.80281">
        <ele>638.763838</ele>
        <time>2024-06-26T22:06:36.959Z</time>
      </trkpt>
      <trkpt lat="45.95367" lon="2.8031">
        <ele>637.113045</ele>
        <time>2024-06-26T22:06:38.922Z</time>
      </trkpt>
      <trkpt lat="45.95354" lon="2.80364">
        <ele>634.185369</ele>
        <time>2024-06-26T22:06:42.406Z</time>
      </trkpt>
      <trkpt lat="45.95353" lon="2.80405">
        <ele>632.088264</ele>
        <time>2024-06-26T22:06:44.930Z</time>
      </trkpt>
      <trkpt lat="45.95361" lon="2.80508">
        <ele>628.296993</ele>
        <time>2024-06-26T22:06:51.535Z</time>
      </trkpt>
      <trkpt lat="45.95369" lon="2.80546">
        <ele>627.157344</ele>
        <time>2024-06-26T22:06:54.210Z</time>
      </trkpt>
      <trkpt lat="45.9538" lon="2.80572">
        <ele>626.288905</ele>
        <time>2024-06-26T22:06:56.318Z</time>
      </trkpt>
      <trkpt lat="45.95402" lon="2.80597">
        <ele>625.109374</ele>
        <time>2024-06-26T22:06:59.318Z</time>
      </trkpt>
      <trkpt lat="45.95477" lon="2.80645">
        <ele>622.087482</ele>
        <time>2024-06-26T22:07:07.751Z</time>
      </trkpt>
      <trkpt lat="45.955" lon="2.80653">
        <ele>621.418201</ele>
        <time>2024-06-26T22:07:10.199Z</time>
      </trkpt>
      <trkpt lat="45.95538" lon="2.80657">
        <ele>620.376682</ele>
        <time>2024-06-26T22:07:14.001Z</time>
      </trkpt>
      <trkpt lat="45.95558" lon="2.80668">
        <ele>619.783017</ele>
        <time>2024-06-26T22:07:16.253Z</time>
      </trkpt>
      <trkpt lat="45.95573" lon="2.80686">
        <ele>619.249102</ele>
        <time>2024-06-26T22:07:18.340Z</time>
      </trkpt>
      <trkpt lat="45.95589" lon="2.80729">
        <ele>618.310368</ele>
        <time>2024-06-26T22:07:22.196Z</time>
      </trkpt>
      <trkpt lat="45.956" lon="2.80746">
        <ele>617.878232</ele>
        <time>2024-06-26T22:07:24.043Z</time>
      </trkpt>
      <trkpt lat="45.95619" lon="2.8076">
        <ele>617.366464</ele>
        <time>2024-06-26T22:07:26.418Z</time>
      </trkpt>
      <trkpt lat="45.95644" lon="2.80773">
        <ele>616.739003</ele>
        <time>2024-06-26T22:07:28.993Z</time>
      </trkpt>
      <trkpt lat="45.95654" lon="2.80776">
        <ele>616.501066</ele>
        <time>2024-06-26T22:07:29.933Z</time>
      </trkpt>
      <trkpt lat="45.95671" lon="2.80776">
        <ele>616.106875</ele>
        <time>2024-06-26T22:07:31.520Z</time>
      </trkpt>
      <trkpt lat="45.95731" lon="2.80742">
        <ele>614.578544</ele>
        <time>2024-06-26T22:07:38.026Z</time>
      </trkpt>
      <trkpt lat="45.95742" lon="2.8074">
        <ele>614.31451</ele>
        <time>2024-06-26T22:07:39.483Z</time>
      </trkpt>
      <trkpt lat="45.95753" lon="2.80744">
        <ele>614.047313</ele>
        <time>2024-06-26T22:07:41.054Z</time>
      </trkpt>
      <trkpt lat="45.95772" lon="2.80767">
        <ele>613.443482</ele>
        <time>2024-06-26T22:07:45.445Z</time>
      </trkpt>
      <trkpt lat="45.95782" lon="2.80781">
        <ele>613.067033</ele>
        <time>2024-06-26T22:07:48.222Z</time>
      </trkpt>
      <trkpt lat="45.95797" lon="2.8079">
        <ele>612.655863</ele>
        <time>2024-06-26T22:07:51.201Z</time>
      </trkpt>
      <trkpt lat="45.95807" lon="2.80792">
        <ele>612.372996</ele>
        <time>2024-06-26T22:07:53.531Z</time>
      </trkpt>
      <trkpt lat="45.95845" lon="2.80789">
        <ele>611.355239</ele>
        <time>2024-06-26T22:07:58.812Z</time>
      </trkpt>
      <trkpt lat="45.95865" lon="2.80782">
        <ele>610.808032</ele>
        <time>2024-06-26T22:08:00.908Z</time>
      </trkpt>
      <trkpt lat="45.95891" lon="2.80769">
        <ele>610.086299</ele>
        <time>2024-06-26T22:08:03.473Z</time>
      </trkpt>
      <trkpt lat="45.95921" lon="2.80746">
        <ele>609.178865</ele>
        <time>2024-06-26T22:08:06.528Z</time>
      </trkpt>
      <trkpt lat="45.95944" lon="2.80719">
        <ele>608.038689</ele>
        <time>2024-06-26T22:08:09.320Z</time>
      </trkpt>
      <trkpt lat="45.95957" lon="2.8071">
        <ele>607.384448</ele>
        <time>2024-06-26T22:08:10.637Z</time>
      </trkpt>
      <trkpt lat="45.95974" lon="2.80703">
        <ele>606.546748</ele>
        <time>2024-06-26T22:08:12.360Z</time>
      </trkpt>
      <trkpt lat="45.95996" lon="2.80705">
        <ele>605.526198</ele>
        <time>2024-06-26T22:08:14.482Z</time>
      </trkpt>
      <trkpt lat="45.96016" lon="2.80717">
        <ele>604.523081</ele>
        <time>2024-06-26T22:08:16.616Z</time>
      </trkpt>
      <trkpt lat="45.96052" lon="2.80732">
        <ele>602.743401</ele>
        <time>2024-06-26T22:08:20.374Z</time>
      </trkpt>
      <trkpt lat="45.96075" lon="2.80734">
        <ele>601.675573</ele>
        <time>2024-06-26T22:08:22.589Z</time>
      </trkpt>
      <trkpt lat="45.96089" lon="2.8073">
        <ele>601.016712</ele>
        <time>2024-06-26T22:08:23.933Z</time>
      </trkpt>
      <trkpt lat="45.96098" lon="2.8072">
        <ele>600.489608</ele>
        <time>2024-06-26T22:08:24.994Z</time>
      </trkpt>
      <trkpt lat="45.96103" lon="2.8071">
        <ele>600.105221</ele>
        <time>2024-06-26T22:08:25.773Z</time>
      </trkpt>
      <trkpt lat="45.96105" lon="2.80698">
        <ele>599.697173</ele>
        <time>2024-06-26T22:08:26.607Z</time>
      </trkpt>
      <trkpt lat="45.96105" lon="2.80683">
        <ele>599.227984</ele>
        <time>2024-06-26T22:08:27.572Z</time>
      </trkpt>
      <trkpt lat="45.96095" lon="2.80639">
        <ele>597.775768</ele>
        <time>2024-06-26T22:08:30.524Z</time>
      </trkpt>
      <trkpt lat="45.96095" lon="2.80627">
        <ele>597.394789</ele>
        <time>2024-06-26T22:08:31.309Z</time>
      </trkpt>
      <trkpt lat="45.96102" lon="2.80607">
        <ele>596.68659</ele>
        <time>2024-06-26T22:08:32.763Z</time>
      </trkpt>
      <trkpt lat="45.96141" lon="2.80556">
        <ele>594.31354</ele>
        <time>2024-06-26T22:08:37.939Z</time>
      </trkpt>
      <trkpt lat="45.96199" lon="2.80506">
        <ele>590.726289</ele>
        <time>2024-06-26T22:08:44.785Z</time>
      </trkpt>
      <trkpt lat="45.96219" lon="2.80504">
        <ele>589.305588</ele>
        <time>2024-06-26T22:08:46.739Z</time>
      </trkpt>
      <trkpt lat="45.96251" lon="2.8051">
        <ele>587.146192</ele>
        <time>2024-06-26T22:08:49.584Z</time>
      </trkpt>
      <trkpt lat="45.96263" lon="2.80504">
        <ele>586.248989</ele>
        <time>2024-06-26T22:08:50.744Z</time>
      </trkpt>
      <trkpt lat="45.96273" lon="2.80483">
        <ele>585.04136</ele>
        <time>2024-06-26T22:08:52.291Z</time>
      </trkpt>
      <trkpt lat="45.96275" lon="2.80469">
        <ele>584.355107</ele>
        <time>2024-06-26T22:08:53.155Z</time>
      </trkpt>
      <trkpt lat="45.96276" lon="2.80428">
        <ele>582.427396</ele>
        <time>2024-06-26T22:08:55.593Z</time>
      </trkpt>
      <trkpt lat="45.96281" lon="2.804">
        <ele>581.031831</ele>
        <time>2024-06-26T22:08:57.377Z</time>
      </trkpt>
      <trkpt lat="45.96285" lon="2.8039">
        <ele>580.445192</ele>
        <time>2024-06-26T22:08:58.130Z</time>
      </trkpt>
      <trkpt lat="45.96292" lon="2.80382">
        <ele>579.868368</ele>
        <time>2024-06-26T22:08:58.868Z</time>
      </trkpt>
      <trkpt lat="45.96302" lon="2.80377">
        <ele>579.081065</ele>
        <time>2024-06-26T22:08:59.818Z</time>
      </trkpt>
      <trkpt lat="45.96321" lon="2.80377">
        <ele>577.675776</ele>
        <time>2024-06-26T22:09:01.546Z</time>
      </trkpt>
      <trkpt lat="45.96366" lon="2.80395">
        <ele>574.247605</ele>
        <time>2024-06-26T22:09:05.845Z</time>
      </trkpt>
      <trkpt lat="45.96389" lon="2.80394">
        <ele>572.518533</ele>
        <time>2024-06-26T22:09:07.992Z</time>
      </trkpt>
      <trkpt lat="45.96418" lon="2.80383">
        <ele>570.329467</ele>
        <time>2024-06-26T22:09:10.658Z</time>
      </trkpt>
      <trkpt lat="45.96437" lon="2.80371">
        <ele>568.801608</ele>
        <time>2024-06-26T22:09:12.481Z</time>
      </trkpt>
      <trkpt lat="45.96482" lon="2.80321">
        <ele>564.275296</ele>
        <time>2024-06-26T22:09:17.440Z</time>
      </trkpt>
      <trkpt lat="45.96497" lon="2.80316">
        <ele>562.971548</ele>
        <time>2024-06-26T22:09:18.798Z</time>
      </trkpt>
      <trkpt lat="45.96508" lon="2.80316">
        <ele>562.033013</ele>
        <time>2024-06-26T22:09:19.786Z</time>
      </trkpt>
      <trkpt lat="45.96545" lon="2.8033">
        <ele>558.774428</ele>
        <time>2024-06-26T22:09:23.252Z</time>
      </trkpt>
      <trkpt lat="45.96593" lon="2.80323">
        <ele>554.66081</ele>
        <time>2024-06-26T22:09:27.506Z</time>
      </trkpt>
      <trkpt lat="45.96633" lon="2.80336">
        <ele>551.140612</ele>
        <time>2024-06-26T22:09:31.010Z</time>
      </trkpt>
      <trkpt lat="45.9669" lon="2.80325">
        <ele>545.724404</ele>
        <time>2024-06-26T22:09:35.952Z</time>
      </trkpt>
      <trkpt lat="45.96697" lon="2.80327">
        <ele>545.080745</ele>
        <time>2024-06-26T22:09:36.544Z</time>
      </trkpt>
      <trkpt lat="45.96711" lon="2.80336">
        <ele>543.626891</ele>
        <time>2024-06-26T22:09:37.902Z</time>
      </trkpt>
      <trkpt lat="45.96725" lon="2.80355">
        <ele>541.886617</ele>
        <time>2024-06-26T22:09:39.510Z</time>
      </trkpt>
      <trkpt lat="45.96739" lon="2.80373">
        <ele>540.111607</ele>
        <time>2024-06-26T22:09:41.189Z</time>
      </trkpt>
      <trkpt lat="45.96788" lon="2.80394">
        <ele>535.369022</ele>
        <time>2024-06-26T22:09:45.654Z</time>
      </trkpt>
      <trkpt lat="45.96823" lon="2.80422">
        <ele>532.157445</ele>
        <time>2024-06-26T22:09:49.226Z</time>
      </trkpt>
      <trkpt lat="45.96834" lon="2.80422">
        <ele>531.385731</ele>
        <time>2024-06-26T22:09:50.125Z</time>
      </trkpt>
      <trkpt lat="45.96852" lon="2.80415">
        <ele>529.967802</ele>
        <time>2024-06-26T22:09:51.744Z</time>
      </trkpt>
      <trkpt lat="45.96871" lon="2.80413">
        <ele>528.527035</ele>
        <time>2024-06-26T22:09:53.405Z</time>
      </trkpt>
      <trkpt lat="45.96951" lon="2.80445">
        <ele>522.349267</ele>
        <time>2024-06-26T22:10:00.722Z</time>
      </trkpt>
      <trkpt lat="45.9697" lon="2.80456">
        <ele>521.169706</ele>
        <time>2024-06-26T22:10:02.630Z</time>
      </trkpt>
      <trkpt lat="45.97036" lon="2.80518">
        <ele>522.19843</ele>
        <time>2024-06-26T22:10:12.102Z</time>
      </trkpt>
      <trkpt lat="45.97049" lon="2.80527">
        <ele>522.388175</ele>
        <time>2024-06-26T22:10:15.465Z</time>
      </trkpt>
      <trkpt lat="45.97061" lon="2.80527">
        <ele>522.543394</ele>
        <time>2024-06-26T22:10:18.177Z</time>
      </trkpt>
      <trkpt lat="45.97066" lon="2.80524">
        <ele>522.626149</ele>
        <time>2024-06-26T22:10:19.941Z</time>
      </trkpt>
      <trkpt lat="45.97073" lon="2.80514">
        <ele>522.746744</ele>
        <time>2024-06-26T22:10:22.928Z</time>
      </trkpt>
      <trkpt lat="45.97083" lon="2.80475">
        <ele>523.121408</ele>
        <time>2024-06-26T22:10:31.770Z</time>
      </trkpt>
      <trkpt lat="45.97084" lon="2.8045">
        <ele>523.350163</ele>
        <time>2024-06-26T22:10:38.530Z</time>
      </trkpt>
      <trkpt lat="45.97068" lon="2.80373">
        <ele>525.567415</ele>
        <time>2024-06-26T22:11:04.394Z</time>
      </trkpt>
      <trkpt lat="45.97067" lon="2.80347">
        <ele>526.38066</ele>
        <time>2024-06-26T22:11:13.932Z</time>
      </trkpt>
      <trkpt lat="45.97069" lon="2.80296">
        <ele>527.956399</ele>
        <time>2024-06-26T22:11:31.892Z</time>
      </trkpt>
      <trkpt lat="45.97043" lon="2.80205">
        <ele>531.020532</ele>
        <time>2024-06-26T22:11:51.480Z</time>
      </trkpt>
      <trkpt lat="45.97041" lon="2.80163">
        <ele>530.090719</ele>
        <time>2024-06-26T22:11:54.529Z</time>
      </trkpt>
      <trkpt lat="45.97051" lon="2.80073">
        <ele>525.364788</ele>
        <time>2024-06-26T22:12:00.036Z</time>
      </trkpt>
      <trkpt lat="45.97059" lon="2.80035">
        <ele>523.241493</ele>
        <time>2024-06-26T22:12:02.451Z</time>
      </trkpt>
      <trkpt lat="45.97084" lon="2.79972">
        <ele>519.470522</ele>
        <time>2024-06-26T22:12:06.771Z</time>
      </trkpt>
      <trkpt lat="45.97119" lon="2.79898">
        <ele>515.307348</ele>
        <time>2024-06-26T22:12:12.169Z</time>
      </trkpt>
      <trkpt lat="45.97123" lon="2.7989">
        <ele>514.857356</ele>
        <time>2024-06-26T22:12:12.803Z</time>
      </trkpt>
      <trkpt lat="45.97128" lon="2.7989">
        <ele>514.545816</ele>
        <time>2024-06-26T22:12:13.242Z</time>
      </trkpt>
      <trkpt lat="45.97128" lon="2.79901">
        <ele>514.059138</ele>
        <time>2024-06-26T22:12:13.928Z</time>
      </trkpt>
      <trkpt lat="45.9709" lon="2.79982">
        <ele>509.748454</ele>
        <time>2024-06-26T22:12:20.116Z</time>
      </trkpt>
      <trkpt lat="45.97081" lon="2.80011">
        <ele>508.311636</ele>
        <time>2024-06-26T22:12:22.278Z</time>
      </trkpt>
      <trkpt lat="45.97076" lon="2.80036">
        <ele>507.188981</ele>
        <time>2024-06-26T22:12:24.019Z</time>
      </trkpt>
      <trkpt lat="45.97075" lon="2.80072">
        <ele>505.710661</ele>
        <time>2024-06-26T22:12:26.564Z</time>
      </trkpt>
      <trkpt lat="45.97074" lon="2.80102">
        <ele>504.532404</ele>
        <time>2024-06-26T22:12:28.872Z</time>
      </trkpt>
      <trkpt lat="45.9708" lon="2.80168">
        <ele>501.891848</ele>
        <time>2024-06-26T22:12:33.581Z</time>
      </trkpt>
      <trkpt lat="45.97086" lon="2.80201">
        <ele>500.565891</ele>
        <time>2024-06-26T22:12:35.801Z</time>
      </trkpt>
      <trkpt lat="45.97123" lon="2.803">
        <ele>495.935062</ele>
        <time>2024-06-26T22:12:42.742Z</time>
      </trkpt>
      <trkpt lat="45.97138" lon="2.80399">
        <ele>488.871916</ele>
        <time>2024-06-26T22:12:48.749Z</time>
      </trkpt>
      <trkpt lat="45.97168" lon="2.80507">
        <ele>480.66271</ele>
        <time>2024-06-26T22:12:55.681Z</time>
      </trkpt>
      <trkpt lat="45.9718" lon="2.80541">
        <ele>478.1159</ele>
        <time>2024-06-26T22:12:57.906Z</time>
      </trkpt>
      <trkpt lat="45.97209" lon="2.80592">
        <ele>475.294496</ele>
        <time>2024-06-26T22:13:01.928Z</time>
      </trkpt>
      <trkpt lat="45.97219" lon="2.80621">
        <ele>473.929045</ele>
        <time>2024-06-26T22:13:03.919Z</time>
      </trkpt>
      <trkpt lat="45.97224" lon="2.80648">
        <ele>472.74055</ele>
        <time>2024-06-26T22:13:05.654Z</time>
      </trkpt>
      <trkpt lat="45.97222" lon="2.80688">
        <ele>471.052163</ele>
        <time>2024-06-26T22:13:08.190Z</time>
      </trkpt>
      <trkpt lat="45.97213" lon="2.80749">
        <ele>468.406788</ele>
        <time>2024-06-26T22:13:12.434Z</time>
      </trkpt>
      <trkpt lat="45.97207" lon="2.80757">
        <ele>467.947732</ele>
        <time>2024-06-26T22:13:13.271Z</time>
      </trkpt>
      <trkpt lat="45.97191" lon="2.80763">
        <ele>467.356671</ele>
        <time>2024-06-26T22:13:15.346Z</time>
      </trkpt>
      <trkpt lat="45.97187" lon="2.80768">
        <ele>467.434077</ele>
        <time>2024-06-26T22:13:15.949Z</time>
      </trkpt>
      <trkpt lat="45.97184" lon="2.8079">
        <ele>467.665164</ele>
        <time>2024-06-26T22:13:18.147Z</time>
      </trkpt>
      <trkpt lat="45.9719" lon="2.80823">
        <ele>468.019047</ele>
        <time>2024-06-26T22:13:22.222Z</time>
      </trkpt>
      <trkpt lat="45.97206" lon="2.80879">
        <ele>468.655486</ele>
        <time>2024-06-26T22:13:31.277Z</time>
      </trkpt>
      <trkpt lat="45.972" lon="2.80926">
        <ele>469.155493</ele>
        <time>2024-06-26T22:13:40.002Z</time>
      </trkpt>
      <trkpt lat="45.97196" lon="2.80963">
        <ele>469.547702</ele>
        <time>2024-06-26T22:13:47.676Z</time>
      </trkpt>
      <trkpt lat="45.97195" lon="2.81004">
        <ele>469.980786</ele>
        <time>2024-06-26T22:13:55.541Z</time>
      </trkpt>
      <trkpt lat="45.9719" lon="2.81044">
        <ele>470.653893</ele>
        <time>2024-06-26T22:14:02.986Z</time>
      </trkpt>
      <trkpt lat="45.97194" lon="2.81127">
        <ele>472.041429</ele>
        <time>2024-06-26T22:14:19.815Z</time>
      </trkpt>
      <trkpt lat="45.97192" lon="2.81253">
        <ele>474.15857</ele>
        <time>2024-06-26T22:14:39.431Z</time>
      </trkpt>
      <trkpt lat="45.97188" lon="2.81343">
        <ele>473.642955</ele>
        <time>2024-06-26T22:14:50.533Z</time>
      </trkpt>
      <trkpt lat="45.97177" lon="2.81427">
        <ele>472.954063</ele>
        <time>2024-06-26T22:14:58.153Z</time>
      </trkpt>
      <trkpt lat="45.97179" lon="2.81474">
        <ele>472.572734</ele>
        <time>2024-06-26T22:15:01.683Z</time>
      </trkpt>
      <trkpt lat="45.97194" lon="2.81561">
        <ele>470.550957</ele>
        <time>2024-06-26T22:15:07.687Z</time>
      </trkpt>
      <trkpt lat="45.97206" lon="2.81587">
        <ele>469.361185</ele>
        <time>2024-06-26T22:15:09.746Z</time>
      </trkpt>
      <trkpt lat="45.97213" lon="2.81595">
        <ele>468.870605</ele>
        <time>2024-06-26T22:15:10.580Z</time>
      </trkpt>
      <trkpt lat="45.97236" lon="2.81607">
        <ele>467.555514</ele>
        <time>2024-06-26T22:15:12.837Z</time>
      </trkpt>
      <trkpt lat="45.97275" lon="2.81635">
        <ele>465.201835</ele>
        <time>2024-06-26T22:15:16.807Z</time>
      </trkpt>
      <trkpt lat="45.97303" lon="2.81643">
        <ele>463.662377</ele>
        <time>2024-06-26T22:15:19.407Z</time>
      </trkpt>
      <trkpt lat="45.97329" lon="2.81641">
        <ele>462.287161</ele>
        <time>2024-06-26T22:15:21.798Z</time>
      </trkpt>
      <trkpt lat="45.97418" lon="2.81595">
        <ele>457.995924</ele>
        <time>2024-06-26T22:15:30.632Z</time>
      </trkpt>
      <trkpt lat="45.97426" lon="2.81576">
        <ele>457.307337</ele>
        <time>2024-06-26T22:15:32.113Z</time>
      </trkpt>
      <trkpt lat="45.97431" lon="2.81545">
        <ele>456.324331</ele>
        <time>2024-06-26T22:15:34.240Z</time>
      </trkpt>
      <trkpt lat="45.97454" lon="2.815">
        <ele>454.5594</ele>
        <time>2024-06-26T22:15:38.229Z</time>
      </trkpt>
      <trkpt lat="45.97463" lon="2.81469">
        <ele>454.117046</ele>
        <time>2024-06-26T22:15:40.713Z</time>
      </trkpt>
      <trkpt lat="45.97481" lon="2.81441">
        <ele>453.788076</ele>
        <time>2024-06-26T22:15:43.533Z</time>
      </trkpt>
      <trkpt lat="45.97511" lon="2.81381">
        <ele>453.141117</ele>
        <time>2024-06-26T22:15:49.404Z</time>
      </trkpt>
      <trkpt lat="45.97532" lon="2.81346">
        <ele>452.743725</ele>
        <time>2024-06-26T22:15:53.423Z</time>
      </trkpt>
      <trkpt lat="45.97546" lon="2.81328">
        <ele>452.505121</ele>
        <time>2024-06-26T22:15:56.137Z</time>
      </trkpt>
      <trkpt lat="45.97577" lon="2.81304">
        <ele>452.125837</ele>
        <time>2024-06-26T22:16:01.699Z</time>
      </trkpt>
      <trkpt lat="45.97588" lon="2.81297">
        <ele>452.216115</ele>
        <time>2024-06-26T22:16:03.422Z</time>
      </trkpt>
      <trkpt lat="45.97615" lon="2.8129">
        <ele>452.438185</ele>
        <time>2024-06-26T22:16:07.865Z</time>
      </trkpt>
      <trkpt lat="45.97646" lon="2.81274">
        <ele>452.701735</ele>
        <time>2024-06-26T22:16:13.514Z</time>
      </trkpt>
      <trkpt lat="45.97686" lon="2.81286">
        <ele>453.024643</ele>
        <time>2024-06-26T22:16:20.811Z</time>
      </trkpt>
      <trkpt lat="45.9775" lon="2.81296">
        <ele>453.541212</ele>
        <time>2024-06-26T22:16:34.139Z</time>
      </trkpt>
      <trkpt lat="45.97809" lon="2.81314">
        <ele>453.990004</ele>
        <time>2024-06-26T22:16:46.410Z</time>
      </trkpt>
      <trkpt lat="45.97862" lon="2.81338">
        <ele>454.39854</ele>
        <time>2024-06-26T22:16:55.935Z</time>
      </trkpt>
      <trkpt lat="45.97878" lon="2.81346">
        <ele>454.525397</ele>
        <time>2024-06-26T22:16:58.675Z</time>
      </trkpt>
      <trkpt lat="45.9791" lon="2.81366">
        <ele>454.781956</ele>
        <time>2024-06-26T22:17:03.624Z</time>
      </trkpt>
      <trkpt lat="45.97937" lon="2.81377">
        <ele>454.849394</ele>
        <time>2024-06-26T22:17:07.983Z</time>
      </trkpt>
      <trkpt lat="45.98013" lon="2.81396">
        <ele>454.76374</ele>
        <time>2024-06-26T22:17:21.834Z</time>
      </trkpt>
      <trkpt lat="45.98051" lon="2.81409">
        <ele>454.721609</ele>
        <time>2024-06-26T22:17:27.902Z</time>
      </trkpt>
      <trkpt lat="45.98068" lon="2.8142">
        <ele>454.700194</ele>
        <time>2024-06-26T22:17:30.330Z</time>
      </trkpt>
      <trkpt lat="45.981" lon="2.81448">
        <ele>454.435927</ele>
        <time>2024-06-26T22:17:34.678Z</time>
      </trkpt>
      <trkpt lat="45.98114" lon="2.81456">
        <ele>454.053245</ele>
        <time>2024-06-26T22:17:36.410Z</time>
      </trkpt>
      <trkpt lat="45.98148" lon="2.81467">
        <ele>453.182185</ele>
        <time>2024-06-26T22:17:40.114Z</time>
      </trkpt>
      <trkpt lat="45.98191" lon="2.81463">
        <ele>452.104133</ele>
        <time>2024-06-26T22:17:44.670Z</time>
      </trkpt>
      <trkpt lat="45.98213" lon="2.8145">
        <ele>451.51098</ele>
        <time>2024-06-26T22:17:47.136Z</time>
      </trkpt>
      <trkpt lat="45.98272" lon="2.8139">
        <ele>449.762544</ele>
        <time>2024-06-26T22:17:54.451Z</time>
      </trkpt>
      <trkpt lat="45.98308" lon="2.81337">
        <ele>448.595505</ele>
        <time>2024-06-26T22:17:59.574Z</time>
      </trkpt>
      <trkpt lat="45.98328" lon="2.81317">
        <ele>448.048915</ele>
        <time>2024-06-26T22:18:02.020Z</time>
      </trkpt>
      <trkpt lat="45.98337" lon="2.81311">
        <ele>447.820432</ele>
        <time>2024-06-26T22:18:03.059Z</time>
      </trkpt>
      <trkpt lat="45.9834" lon="2.81309">
        <ele>447.731333</ele>
        <time>2024-06-26T22:18:03.467Z</time>
      </trkpt>
      <trkpt lat="45.98354" lon="2.81303">
        <ele>447.399049</ele>
        <time>2024-06-26T22:18:05.033Z</time>
      </trkpt>
      <trkpt lat="45.9847" lon="2.81269">
        <ele>446.473738</ele>
        <time>2024-06-26T22:18:20.717Z</time>
      </trkpt>
      <trkpt lat="45.98506" lon="2.8127">
        <ele>446.691741</ele>
        <time>2024-06-26T22:18:27.692Z</time>
      </trkpt>
      <trkpt lat="45.98537" lon="2.81278">
        <ele>446.880659</ele>
        <time>2024-06-26T22:18:33.867Z</time>
      </trkpt>
      <trkpt lat="45.98549" lon="2.81283">
        <ele>446.953297</ele>
        <time>2024-06-26T22:18:36.236Z</time>
      </trkpt>
      <trkpt lat="45.98564" lon="2.81293">
        <ele>447.054281</ele>
        <time>2024-06-26T22:18:39.692Z</time>
      </trkpt>
      <trkpt lat="45.98602" lon="2.81343">
        <ele>447.212485</ele>
        <time>2024-06-26T22:18:49.991Z</time>
      </trkpt>
      <trkpt lat="45.98633" lon="2.81419">
        <ele>447.266339</ele>
        <time>2024-06-26T22:19:01.878Z</time>
      </trkpt>
      <trkpt lat="45.98635" lon="2.81429">
        <ele>447.273125</ele>
        <time>2024-06-26T22:19:03.208Z</time>
      </trkpt>
      <trkpt lat="45.98634" lon="2.81452">
        <ele>447.28686</ele>
        <time>2024-06-26T22:19:05.697Z</time>
      </trkpt>
      <trkpt lat="45.98626" lon="2.81475">
        <ele>447.302886</ele>
        <time>2024-06-26T22:19:07.913Z</time>
      </trkpt>
      <trkpt lat="45.98617" lon="2.8149">
        <ele>447.314353</ele>
        <time>2024-06-26T22:19:09.937Z</time>
      </trkpt>
      <trkpt lat="45.98561" lon="2.81571">
        <ele>446.02416</ele>
        <time>2024-06-26T22:19:18.749Z</time>
      </trkpt>
      <trkpt lat="45.98538" lon="2.81593">
        <ele>445.191567</ele>
        <time>2024-06-26T22:19:21.686Z</time>
      </trkpt>
      <trkpt lat="45.98528" lon="2.81615">
        <ele>444.640071</ele>
        <time>2024-06-26T22:19:23.490Z</time>
      </trkpt>
      <trkpt lat="45.98509" lon="2.81683">
        <ele>443.124258</ele>
        <time>2024-06-26T22:19:28.637Z</time>
      </trkpt>
      <trkpt lat="45.98499" lon="2.81711">
        <ele>442.49101</ele>
        <time>2024-06-26T22:19:30.688Z</time>
      </trkpt>
      <trkpt lat="45.98491" lon="2.81721">
        <ele>442.178819</ele>
        <time>2024-06-26T22:19:31.766Z</time>
      </trkpt>
      <trkpt lat="45.98447" lon="2.81765">
        <ele>440.763395</ele>
        <time>2024-06-26T22:19:36.978Z</time>
      </trkpt>
      <trkpt lat="45.98407" lon="2.81832">
        <ele>439.160428</ele>
        <time>2024-06-26T22:19:43.424Z</time>
      </trkpt>
      <trkpt lat="45.984" lon="2.81868">
        <ele>438.473405</ele>
        <time>2024-06-26T22:19:46.299Z</time>
      </trkpt>
      <trkpt lat="45.98395" lon="2.81969">
        <ele>436.814739</ele>
        <time>2024-06-26T22:19:54.329Z</time>
      </trkpt>
      <trkpt lat="45.98396" lon="2.81995">
        <ele>436.465343</ele>
        <time>2024-06-26T22:19:56.394Z</time>
      </trkpt>
      <trkpt lat="45.984" lon="2.82026">
        <ele>436.044237</ele>
        <time>2024-06-26T22:19:58.902Z</time>
      </trkpt>
      <trkpt lat="45.98466" lon="2.82276">
        <ele>432.773157</ele>
        <time>2024-06-26T22:20:19.176Z</time>
      </trkpt>
      <trkpt lat="45.98498" lon="2.82352">
        <ele>431.828432</ele>
        <time>2024-06-26T22:20:25.993Z</time>
      </trkpt>
      <trkpt lat="45.98554" lon="2.82463">
        <ele>432.021781</ele>
        <time>2024-06-26T22:20:38.523Z</time>
      </trkpt>
      <trkpt lat="45.98582" lon="2.82515">
        <ele>432.869671</ele>
        <time>2024-06-26T22:20:47.761Z</time>
      </trkpt>
      <trkpt lat="45.98603" lon="2.82545">
        <ele>433.42059</ele>
        <time>2024-06-26T22:20:54.735Z</time>
      </trkpt>
      <trkpt lat="45.98613" lon="2.82551">
        <ele>433.621638</ele>
        <time>2024-06-26T22:20:57.618Z</time>
      </trkpt>
      <trkpt lat="45.98632" lon="2.82555">
        <ele>433.986763</ele>
        <time>2024-06-26T22:21:03.193Z</time>
      </trkpt>
      <trkpt lat="45.98654" lon="2.8255">
        <ele>434.402128</ele>
        <time>2024-06-26T22:21:10.096Z</time>
      </trkpt>
      <trkpt lat="45.98666" lon="2.82543">
        <ele>434.99604</ele>
        <time>2024-06-26T22:21:14.201Z</time>
      </trkpt>
      <trkpt lat="45.98671" lon="2.82539">
        <ele>435.349134</ele>
        <time>2024-06-26T22:21:16.188Z</time>
      </trkpt>
      <trkpt lat="45.98691" lon="2.82505">
        <ele>437.200896</ele>
        <time>2024-06-26T22:21:27.824Z</time>
      </trkpt>
      <trkpt lat="45.98699" lon="2.82489">
        <ele>438.026763</ele>
        <time>2024-06-26T22:21:33.223Z</time>
      </trkpt>
      <trkpt lat="45.98709" lon="2.82458">
        <ele>439.428466</ele>
        <time>2024-06-26T22:21:42.770Z</time>
      </trkpt>
      <trkpt lat="45.98712" lon="2.82421">
        <ele>440.964682</ele>
        <time>2024-06-26T22:21:53.543Z</time>
      </trkpt>
      <trkpt lat="45.98707" lon="2.82384">
        <ele>442.520966</ele>
        <time>2024-06-26T22:22:04.501Z</time>
      </trkpt>
      <trkpt lat="45.98702" lon="2.82363">
        <ele>443.470816</ele>
        <time>2024-06-26T22:22:11.030Z</time>
      </trkpt>
      <trkpt lat="45.98687" lon="2.82324">
        <ele>445.311959</ele>
        <time>2024-06-26T22:22:23.823Z</time>
      </trkpt>
      <trkpt lat="45.98679" lon="2.82309">
        <ele>446.119102</ele>
        <time>2024-06-26T22:22:29.225Z</time>
      </trkpt>
      <trkpt lat="45.9864" lon="2.82256">
        <ele>449.357893</ele>
        <time>2024-06-26T22:22:50.484Z</time>
      </trkpt>
      <trkpt lat="45.98629" lon="2.82236">
        <ele>450.437461</ele>
        <time>2024-06-26T22:22:57.624Z</time>
      </trkpt>
      <trkpt lat="45.98564" lon="2.82072">
        <ele>458.53582</ele>
        <time>2024-06-26T22:23:47.844Z</time>
      </trkpt>
      <trkpt lat="45.98559" lon="2.82038">
        <ele>460.090316</ele>
        <time>2024-06-26T22:23:55.538Z</time>
      </trkpt>
      <trkpt lat="45.98553" lon="2.81911">
        <ele>465.797779</ele>
        <time>2024-06-26T22:24:32.842Z</time>
      </trkpt>
      <trkpt lat="45.98556" lon="2.81871">
        <ele>467.575803</ele>
        <time>2024-06-26T22:24:45.319Z</time>
      </trkpt>
      <trkpt lat="45.9856" lon="2.81851">
        <ele>468.666595</ele>
        <time>2024-06-26T22:24:51.765Z</time>
      </trkpt>
      <trkpt lat="45.98565" lon="2.8183">
        <ele>469.795814</ele>
        <time>2024-06-26T22:24:58.396Z</time>
      </trkpt>
      <trkpt lat="45.98574" lon="2.81808">
        <ele>471.098718</ele>
        <time>2024-06-26T22:25:06.233Z</time>
      </trkpt>
      <trkpt lat="45.98584" lon="2.81797">
        <ele>472.060069</ele>
        <time>2024-06-26T22:25:11.791Z</time>
      </trkpt>
      <trkpt lat="45.98599" lon="2.81792">
        <ele>473.147752</ele>
        <time>2024-06-26T22:25:18.438Z</time>
      </trkpt>
      <trkpt lat="45.98606" lon="2.81793">
        <ele>473.683118</ele>
        <time>2024-06-26T22:25:21.415Z</time>
      </trkpt>
      <trkpt lat="45.98613" lon="2.81794">
        <ele>474.248435</ele>
        <time>2024-06-26T22:25:24.515Z</time>
      </trkpt>
      <trkpt lat="45.98627" lon="2.81802">
        <ele>475.342273</ele>
        <time>2024-06-26T22:25:30.991Z</time>
      </trkpt>
      <trkpt lat="45.98638" lon="2.8182">
        <ele>476.560177</ele>
        <time>2024-06-26T22:25:38.200Z</time>
      </trkpt>
      <trkpt lat="45.98645" lon="2.81845">
        <ele>477.982689</ele>
        <time>2024-06-26T22:25:46.561Z</time>
      </trkpt>
      <trkpt lat="45.9865" lon="2.8187">
        <ele>479.291426</ele>
        <time>2024-06-26T22:25:54.580Z</time>
      </trkpt>
      <trkpt lat="45.98673" lon="2.81994">
        <ele>486.014759</ele>
        <time>2024-06-26T22:26:37.491Z</time>
      </trkpt>
      <trkpt lat="45.98683" lon="2.82037">
        <ele>488.413743</ele>
        <time>2024-06-26T22:26:50.358Z</time>
      </trkpt>
      <trkpt lat="45.98703" lon="2.82085">
        <ele>491.394281</ele>
        <time>2024-06-26T22:27:06.053Z</time>
      </trkpt>
      <trkpt lat="45.98737" lon="2.8215">
        <ele>496.243718</ele>
        <time>2024-06-26T22:27:32.818Z</time>
      </trkpt>
      <trkpt lat="45.98752" lon="2.82176">
        <ele>498.861267</ele>
        <time>2024-06-26T22:27:43.655Z</time>
      </trkpt>
      <trkpt lat="45.98768" lon="2.82193">
        <ele>501.090386</ele>
        <time>2024-06-26T22:27:53.937Z</time>
      </trkpt>
      <trkpt lat="45.98856" lon="2.82233">
        <ele>511.567816</ele>
        <time>2024-06-26T22:28:50.899Z</time>
      </trkpt>
      <trkpt lat="45.9888" lon="2.82252">
        <ele>514.732819</ele>
        <time>2024-06-26T22:29:11.095Z</time>
      </trkpt>
      <trkpt lat="45.98896" lon="2.82271">
        <ele>517.205671</ele>
        <time>2024-06-26T22:29:26.854Z</time>
      </trkpt>
      <trkpt lat="45.98908" lon="2.82276">
        <ele>518.790692</ele>
        <time>2024-06-26T22:29:37.288Z</time>
      </trkpt>
      <trkpt lat="45.98925" lon="2.8227">
        <ele>521.047876</ele>
        <time>2024-06-26T22:29:51.580Z</time>
      </trkpt>
      <trkpt lat="45.9895" lon="2.82228">
        <ele>525.846348</ele>
        <time>2024-06-26T22:30:20.841Z</time>
      </trkpt>
      <trkpt lat="45.98972" lon="2.82198">
        <ele>529.558821</ele>
        <time>2024-06-26T22:30:41.232Z</time>
      </trkpt>
      <trkpt lat="45.9902" lon="2.82159">
        <ele>536.513974</ele>
        <time>2024-06-26T22:31:12.174Z</time>
      </trkpt>
      <trkpt lat="45.99043" lon="2.82125">
        <ele>538.118692</ele>
        <time>2024-06-26T22:31:26.734Z</time>
      </trkpt>
      <trkpt lat="45.99054" lon="2.82121">
        <ele>538.40182</ele>
        <time>2024-06-26T22:31:31.252Z</time>
      </trkpt>
      <trkpt lat="45.9906" lon="2.82122">
        <ele>538.545451</ele>
        <time>2024-06-26T22:31:33.408Z</time>
      </trkpt>
      <trkpt lat="45.9907" lon="2.82131">
        <ele>538.835318</ele>
        <time>2024-06-26T22:31:37.700Z</time>
      </trkpt>
      <trkpt lat="45.99077" lon="2.82146">
        <ele>539.146385</ele>
        <time>2024-06-26T22:31:42.060Z</time>
      </trkpt>
      <trkpt lat="45.99079" lon="2.82166">
        <ele>539.49631</ele>
        <time>2024-06-26T22:31:46.237Z</time>
      </trkpt>
      <trkpt lat="45.99063" lon="2.82247">
        <ele>540.922219</ele>
        <time>2024-06-26T22:31:56.646Z</time>
      </trkpt>
      <trkpt lat="45.99061" lon="2.82274">
        <ele>541.385393</ele>
        <time>2024-06-26T22:31:58.654Z</time>
      </trkpt>
      <trkpt lat="45.99069" lon="2.82313">
        <ele>541.953044</ele>
        <time>2024-06-26T22:32:01.496Z</time>
      </trkpt>
      <trkpt lat="45.99091" lon="2.82371">
        <ele>542.095368</ele>
        <time>2024-06-26T22:32:06.062Z</time>
      </trkpt>
      <trkpt lat="45.99095" lon="2.82404">
        <ele>542.169292</ele>
        <time>2024-06-26T22:32:08.657Z</time>
      </trkpt>
      <trkpt lat="45.99093" lon="2.82427">
        <ele>542.221104</ele>
        <time>2024-06-26T22:32:10.872Z</time>
      </trkpt>
      <trkpt lat="45.9907" lon="2.82507">
        <ele>542.408297</ele>
        <time>2024-06-26T22:32:24.387Z</time>
      </trkpt>
      <trkpt lat="45.99065" lon="2.82564">
        <ele>543.164728</ele>
        <time>2024-06-26T22:32:36.350Z</time>
      </trkpt>
      <trkpt lat="45.99066" lon="2.8263">
        <ele>545.89976</ele>
        <time>2024-06-26T22:32:51.265Z</time>
      </trkpt>
      <trkpt lat="45.99055" lon="2.82667">
        <ele>547.551498</ele>
        <time>2024-06-26T22:33:00.993Z</time>
      </trkpt>
      <trkpt lat="45.99052" lon="2.82686">
        <ele>548.367</ele>
        <time>2024-06-26T22:33:06.459Z</time>
      </trkpt>
      <trkpt lat="45.99054" lon="2.82701">
        <ele>548.998832</ele>
        <time>2024-06-26T22:33:10.711Z</time>
      </trkpt>
      <trkpt lat="45.99057" lon="2.82706">
        <ele>549.27653</ele>
        <time>2024-06-26T22:33:12.541Z</time>
      </trkpt>
      <trkpt lat="45.99062" lon="2.8271">
        <ele>549.599195</ele>
        <time>2024-06-26T22:33:14.756Z</time>
      </trkpt>
      <trkpt lat="45.99073" lon="2.8271">
        <ele>550.231432</ele>
        <time>2024-06-26T22:33:19.492Z</time>
      </trkpt>
      <trkpt lat="45.99081" lon="2.82703">
        <ele>550.820707</ele>
        <time>2024-06-26T22:33:23.935Z</time>
      </trkpt>
      <trkpt lat="45.99087" lon="2.82688">
        <ele>551.5171</ele>
        <time>2024-06-26T22:33:29.170Z</time>
      </trkpt>
      <trkpt lat="45.99089" lon="2.82613">
        <ele>555.090229</ele>
        <time>2024-06-26T22:33:54.693Z</time>
      </trkpt>
      <trkpt lat="45.99098" lon="2.82556">
        <ele>558.384675</ele>
        <time>2024-06-26T22:34:14.771Z</time>
      </trkpt>
      <trkpt lat="45.99103" lon="2.82537">
        <ele>559.497767</ele>
        <time>2024-06-26T22:34:21.293Z</time>
      </trkpt>
      <trkpt lat="45.9911" lon="2.82518">
        <ele>560.687504</ele>
        <time>2024-06-26T22:34:28.215Z</time>
      </trkpt>
      <trkpt lat="45.99125" lon="2.8249">
        <ele>562.693048</ele>
        <time>2024-06-26T22:34:39.504Z</time>
      </trkpt>
      <trkpt lat="45.99148" lon="2.82459">
        <ele>565.270085</ele>
        <time>2024-06-26T22:34:53.857Z</time>
      </trkpt>
      <trkpt lat="45.99155" lon="2.82438">
        <ele>566.558284</ele>
        <time>2024-06-26T22:35:00.955Z</time>
      </trkpt>
      <trkpt lat="45.99158" lon="2.824">
        <ele>568.896422</ele>
        <time>2024-06-26T22:35:13.076Z</time>
      </trkpt>
      <trkpt lat="45.99153" lon="2.8228">
        <ele>577.125207</ele>
        <time>2024-06-26T22:35:55.212Z</time>
      </trkpt>
      <trkpt lat="45.99161" lon="2.82236">
        <ele>580.255286</ele>
        <time>2024-06-26T22:36:13.088Z</time>
      </trkpt>
      <trkpt lat="45.99206" lon="2.8212">
        <ele>590.187948</ele>
        <time>2024-06-26T22:37:10.270Z</time>
      </trkpt>
      <trkpt lat="45.9921" lon="2.8209">
        <ele>592.68086</ele>
        <time>2024-06-26T22:37:24.133Z</time>
      </trkpt>
      <trkpt lat="45.99212" lon="2.8205">
        <ele>596.007231</ele>
        <time>2024-06-26T22:37:43.368Z</time>
      </trkpt>
      <trkpt lat="45.99218" lon="2.82027">
        <ele>598.050213</ele>
        <time>2024-06-26T22:37:54.495Z</time>
      </trkpt>
      <trkpt lat="45.9923" lon="2.82011">
        <ele>600.019366</ele>
        <time>2024-06-26T22:38:05.574Z</time>
      </trkpt>
      <trkpt lat="45.99277" lon="2.81968">
        <ele>606.612758</ele>
        <time>2024-06-26T22:38:38.530Z</time>
      </trkpt>
      <trkpt lat="45.99285" lon="2.81952">
        <ele>607.795538</ele>
        <time>2024-06-26T22:38:46.509Z</time>
      </trkpt>
      <trkpt lat="45.99285" lon="2.81932">
        <ele>608.984392</ele>
        <time>2024-06-26T22:38:54.159Z</time>
      </trkpt>
      <trkpt lat="45.99283" lon="2.81921">
        <ele>609.676464</ele>
        <time>2024-06-26T22:38:58.564Z</time>
      </trkpt>
      <trkpt lat="45.99273" lon="2.81903">
        <ele>611.025497</ele>
        <time>2024-06-26T22:39:07.691Z</time>
      </trkpt>
      <trkpt lat="45.99234" lon="2.81881">
        <ele>614.59564</ele>
        <time>2024-06-26T22:39:28.899Z</time>
      </trkpt>
      <trkpt lat="45.99223" lon="2.81868">
        <ele>615.783142</ele>
        <time>2024-06-26T22:39:35.355Z</time>
      </trkpt>
      <trkpt lat="45.9921" lon="2.81843">
        <ele>617.639149</ele>
        <time>2024-06-26T22:39:45.395Z</time>
      </trkpt>
      <trkpt lat="45.99205" lon="2.81812">
        <ele>619.528612</ele>
        <time>2024-06-26T22:39:54.883Z</time>
      </trkpt>
      <trkpt lat="45.99211" lon="2.81723">
        <ele>624.178624</ele>
        <time>2024-06-26T22:40:19.330Z</time>
      </trkpt>
      <trkpt lat="45.99221" lon="2.81625">
        <ele>628.704366</ele>
        <time>2024-06-26T22:40:47.031Z</time>
      </trkpt>
      <trkpt lat="45.99242" lon="2.81558">
        <ele>632.092398</ele>
        <time>2024-06-26T22:41:08.863Z</time>
      </trkpt>
      <trkpt lat="45.99247" lon="2.81547">
        <ele>632.691875</ele>
        <time>2024-06-26T22:41:12.660Z</time>
      </trkpt>
      <trkpt lat="45.99259" lon="2.81533">
        <ele>633.687012</ele>
        <time>2024-06-26T22:41:19.043Z</time>
      </trkpt>
      <trkpt lat="45.99295" lon="2.81507">
        <ele>636.607958</ele>
        <time>2024-06-26T22:41:35.680Z</time>
      </trkpt>
      <trkpt lat="45.99311" lon="2.81492">
        <ele>637.978777</ele>
        <time>2024-06-26T22:41:43.811Z</time>
      </trkpt>
      <trkpt lat="45.99321" lon="2.81473">
        <ele>639.199361</ele>
        <time>2024-06-26T22:41:51.203Z</time>
      </trkpt>
      <trkpt lat="45.99328" lon="2.8144">
        <ele>640.910645</ele>
        <time>2024-06-26T22:42:01.742Z</time>
      </trkpt>
      <trkpt lat="45.9933" lon="2.81321">
        <ele>646.850381</ele>
        <time>2024-06-26T22:42:38.777Z</time>
      </trkpt>
      <trkpt lat="45.99336" lon="2.81265">
        <ele>649.270004</ele>
        <time>2024-06-26T22:42:56.277Z</time>
      </trkpt>
      <trkpt lat="45.99339" lon="2.81199">
        <ele>652.095796</ele>
        <time>2024-06-26T22:43:16.552Z</time>
      </trkpt>
      <trkpt lat="45.9935" lon="2.81115">
        <ele>655.760834</ele>
        <time>2024-06-26T22:43:40.671Z</time>
      </trkpt>
      <trkpt lat="45.9936" lon="2.81087">
        <ele>657.079359</ele>
        <time>2024-06-26T22:43:48.381Z</time>
      </trkpt>
      <trkpt lat="45.99395" lon="2.81003">
        <ele>657.740792</ele>
        <time>2024-06-26T22:44:06.541Z</time>
      </trkpt>
      <trkpt lat="45.99429" lon="2.80975">
        <ele>657.600136</ele>
        <time>2024-06-26T22:44:13.330Z</time>
      </trkpt>
      <trkpt lat="45.99589" lon="2.80806">
        <ele>653.188183</ele>
        <time>2024-06-26T22:44:33.173Z</time>
      </trkpt>
      <trkpt lat="45.99626" lon="2.80774">
        <ele>651.609286</ele>
        <time>2024-06-26T22:44:37.320Z</time>
      </trkpt>
      <trkpt lat="45.99646" lon="2.80761">
        <ele>650.819498</ele>
        <time>2024-06-26T22:44:39.429Z</time>
      </trkpt>
      <trkpt lat="45.9967" lon="2.80749">
        <ele>650.145014</ele>
        <time>2024-06-26T22:44:41.975Z</time>
      </trkpt>
      <trkpt lat="45.99697" lon="2.80742">
        <ele>649.461153</ele>
        <time>2024-06-26T22:44:44.739Z</time>
      </trkpt>
      <trkpt lat="45.9981" lon="2.80735">
        <ele>646.64959</ele>
        <time>2024-06-26T22:44:56.692Z</time>
      </trkpt>
      <trkpt lat="45.99843" lon="2.80736">
        <ele>646.473833</ele>
        <time>2024-06-26T22:45:00.822Z</time>
      </trkpt>
      <trkpt lat="45.99844" lon="2.80736">
        <ele>646.501348</ele>
        <time>2024-06-26T22:45:01.123Z</time>
      </trkpt>
      <trkpt lat="45.99871" lon="2.80744">
        <ele>646.914083</ele>
        <time>2024-06-26T22:45:05.051Z</time>
      </trkpt>
      <trkpt lat="45.99886" lon="2.80751">
        <ele>647.159866</ele>
        <time>2024-06-26T22:45:08.026Z</time>
      </trkpt>
      <trkpt lat="45.99921" lon="2.80775">
        <ele>647.74884</ele>
        <time>2024-06-26T22:45:15.711Z</time>
      </trkpt>
      <trkpt lat="45.99963" lon="2.80813">
        <ele>648.504399</ele>
        <time>2024-06-26T22:45:27.359Z</time>
      </trkpt>
      <trkpt lat="46.00032" lon="2.80873">
        <ele>651.313973</ele>
        <time>2024-06-26T22:45:53.597Z</time>
      </trkpt>
      <trkpt lat="46.00051" lon="2.80893">
        <ele>652.401148</ele>
        <time>2024-06-26T22:46:01.859Z</time>
      </trkpt>
      <trkpt lat="46.00078" lon="2.80912">
        <ele>653.794705</ele>
        <time>2024-06-26T22:46:12.367Z</time>
      </trkpt>
      <trkpt lat="46.00101" lon="2.80916">
        <ele>654.849538</ele>
        <time>2024-06-26T22:46:20.487Z</time>
      </trkpt>
      <trkpt lat="46.00158" lon="2.80912">
        <ele>657.454141</ele>
        <time>2024-06-26T22:46:40.489Z</time>
      </trkpt>
      <trkpt lat="46.00171" lon="2.80917">
        <ele>657.938069</ele>
        <time>2024-06-26T22:46:44.956Z</time>
      </trkpt>
      <trkpt lat="46.00186" lon="2.80927">
        <ele>658.520869</ele>
        <time>2024-06-26T22:46:50.374Z</time>
      </trkpt>
      <trkpt lat="46.00198" lon="2.8094">
        <ele>659.046703</ele>
        <time>2024-06-26T22:46:55.063Z</time>
      </trkpt>
      <trkpt lat="46.00308" lon="2.81083">
        <ele>663.772971</ele>
        <time>2024-06-26T22:47:35.807Z</time>
      </trkpt>
      <trkpt lat="46.00318" lon="2.81108">
        <ele>663.931837</ele>
        <time>2024-06-26T22:47:40.659Z</time>
      </trkpt>
      <trkpt lat="46.00322" lon="2.81127">
        <ele>664.036166</ele>
        <time>2024-06-26T22:47:43.452Z</time>
      </trkpt>
      <trkpt lat="46.00323" lon="2.81182">
        <ele>664.336322</ele>
        <time>2024-06-26T22:47:51.016Z</time>
      </trkpt>
      <trkpt lat="46.00314" lon="2.81302">
        <ele>664.990198</ele>
        <time>2024-06-26T22:48:03.483Z</time>
      </trkpt>
      <trkpt lat="46.00316" lon="2.81334">
        <ele>664.631437</ele>
        <time>2024-06-26T22:48:06.152Z</time>
      </trkpt>
      <trkpt lat="46.00317" lon="2.8134">
        <ele>664.507135</ele>
        <time>2024-06-26T22:48:06.642Z</time>
      </trkpt>
      <trkpt lat="46.00321" lon="2.81359">
        <ele>664.109565</ele>
        <time>2024-06-26T22:48:08.202Z</time>
      </trkpt>
      <trkpt lat="46.00327" lon="2.81371">
        <ele>663.826131</ele>
        <time>2024-06-26T22:48:09.297Z</time>
      </trkpt>
      <trkpt lat="46.00353" lon="2.81398">
        <ele>662.920185</ele>
        <time>2024-06-26T22:48:12.699Z</time>
      </trkpt>
      <trkpt lat="46.00373" lon="2.81409">
        <ele>662.320422</ele>
        <time>2024-06-26T22:48:14.898Z</time>
      </trkpt>
      <trkpt lat="46.00384" lon="2.8141">
        <ele>662.019265</ele>
        <time>2024-06-26T22:48:15.984Z</time>
      </trkpt>
      <trkpt lat="46.00404" lon="2.81407">
        <ele>661.460471</ele>
        <time>2024-06-26T22:48:17.978Z</time>
      </trkpt>
      <trkpt lat="46.00471" lon="2.81385">
        <ele>659.300097</ele>
        <time>2024-06-26T22:48:24.702Z</time>
      </trkpt>
      <trkpt lat="46.00499" lon="2.81367">
        <ele>658.079277</ele>
        <time>2024-06-26T22:48:27.596Z</time>
      </trkpt>
      <trkpt lat="46.00547" lon="2.81314">
        <ele>655.581625</ele>
        <time>2024-06-26T22:48:33.527Z</time>
      </trkpt>
      <trkpt lat="46.00565" lon="2.81304">
        <ele>654.790284</ele>
        <time>2024-06-26T22:48:35.437Z</time>
      </trkpt>
      <trkpt lat="46.00581" lon="2.81301">
        <ele>654.167586</ele>
        <time>2024-06-26T22:48:36.900Z</time>
      </trkpt>
      <trkpt lat="46.00629" lon="2.81291">
        <ele>652.122995</ele>
        <time>2024-06-26T22:48:41.773Z</time>
      </trkpt>
      <trkpt lat="46.00734" lon="2.81269">
        <ele>647.536727</ele>
        <time>2024-06-26T22:48:51.938Z</time>
      </trkpt>
      <trkpt lat="46.0076" lon="2.81254">
        <ele>646.335026</ele>
        <time>2024-06-26T22:48:54.594Z</time>
      </trkpt>
      <trkpt lat="46.00782" lon="2.81237">
        <ele>645.237593</ele>
        <time>2024-06-26T22:48:56.995Z</time>
      </trkpt>
      <trkpt lat="46.00794" lon="2.81231">
        <ele>644.703461</ele>
        <time>2024-06-26T22:48:58.254Z</time>
      </trkpt>
      <trkpt lat="46.00816" lon="2.81229">
        <ele>643.875798</ele>
        <time>2024-06-26T22:49:00.317Z</time>
      </trkpt>
      <trkpt lat="46.00884" lon="2.81266">
        <ele>641.120239</ele>
        <time>2024-06-26T22:49:07.405Z</time>
      </trkpt>
      <trkpt lat="46.00986" lon="2.81314">
        <ele>637.691216</ele>
        <time>2024-06-26T22:49:18.108Z</time>
      </trkpt>
      <trkpt lat="46.01015" lon="2.81322">
        <ele>637.323029</ele>
        <time>2024-06-26T22:49:21.227Z</time>
      </trkpt>
      <trkpt lat="46.01127" lon="2.81331">
        <ele>635.926675</ele>
        <time>2024-06-26T22:49:35.601Z</time>
      </trkpt>
      <trkpt lat="46.01177" lon="2.81336">
        <ele>636.572725</ele>
        <time>2024-06-26T22:49:44.996Z</time>
      </trkpt>
      <trkpt lat="46.01208" lon="2.81339">
        <ele>637.237028</ele>
        <time>2024-06-26T22:49:51.903Z</time>
      </trkpt>
      <trkpt lat="46.01235" lon="2.81334">
        <ele>637.79658</ele>
        <time>2024-06-26T22:49:58.253Z</time>
      </trkpt>
      <trkpt lat="46.01253" lon="2.81323">
        <ele>638.211367</ele>
        <time>2024-06-26T22:50:03.127Z</time>
      </trkpt>
      <trkpt lat="46.01281" lon="2.81298">
        <ele>638.902138</ele>
        <time>2024-06-26T22:50:11.520Z</time>
      </trkpt>
      <trkpt lat="46.01299" lon="2.8129">
        <ele>639.301355</ele>
        <time>2024-06-26T22:50:16.754Z</time>
      </trkpt>
      <trkpt lat="46.01389" lon="2.81262">
        <ele>642.284091</ele>
        <time>2024-06-26T22:50:43.714Z</time>
      </trkpt>
      <trkpt lat="46.01414" lon="2.81261">
        <ele>643.149194</ele>
        <time>2024-06-26T22:50:50.996Z</time>
      </trkpt>
      <trkpt lat="46.01463" lon="2.8127">
        <ele>644.857197</ele>
        <time>2024-06-26T22:51:05.024Z</time>
      </trkpt>
      <trkpt lat="46.01534" lon="2.81303">
        <ele>647.606466</ele>
        <time>2024-06-26T22:51:26.307Z</time>
      </trkpt>
      <trkpt lat="46.01573" lon="2.81328">
        <ele>649.24293</ele>
        <time>2024-06-26T22:51:39.176Z</time>
      </trkpt>
      <trkpt lat="46.01614" lon="2.81364">
        <ele>651.090514</ele>
        <time>2024-06-26T22:51:54.113Z</time>
      </trkpt>
      <trkpt lat="46.01691" lon="2.8144">
        <ele>654.73997</ele>
        <time>2024-06-26T22:52:23.042Z</time>
      </trkpt>
      <trkpt lat="46.01773" lon="2.81489">
        <ele>658.256784</ele>
        <time>2024-06-26T22:52:50.434Z</time>
      </trkpt>
      <trkpt lat="46.01822" lon="2.81534">
        <ele>660.485434</ele>
        <time>2024-06-26T22:53:08.368Z</time>
      </trkpt>
      <trkpt lat="46.01854" lon="2.81549">
        <ele>661.695512</ele>
        <time>2024-06-26T22:53:18.413Z</time>
      </trkpt>
      <trkpt lat="46.01926" lon="2.81574">
        <ele>664.293264</ele>
        <time>2024-06-26T22:53:39.585Z</time>
      </trkpt>
      <trkpt lat="46.02052" lon="2.81635">
        <ele>669.070904</ele>
        <time>2024-06-26T22:54:16.220Z</time>
      </trkpt>
      <trkpt lat="46.02116" lon="2.81649">
        <ele>671.455673</ele>
        <time>2024-06-26T22:54:34.477Z</time>
      </trkpt>
      <trkpt lat="46.02236" lon="2.81703">
        <ele>678.250171</ele>
        <time>2024-06-26T22:55:18.650Z</time>
      </trkpt>
      <trkpt lat="46.02254" lon="2.81714">
        <ele>679.433905</ele>
        <time>2024-06-26T22:55:26.882Z</time>
      </trkpt>
      <trkpt lat="46.0226" lon="2.81722">
        <ele>679.921962</ele>
        <time>2024-06-26T22:55:30.168Z</time>
      </trkpt>
      <trkpt lat="46.02267" lon="2.81742">
        <ele>680.852304</ele>
        <time>2024-06-26T22:55:37.070Z</time>
      </trkpt>
      <trkpt lat="46.02276" lon="2.8184">
        <ele>685.216557</ele>
        <time>2024-06-26T22:56:07.957Z</time>
      </trkpt>
      <trkpt lat="46.02282" lon="2.81865">
        <ele>686.489179</ele>
        <time>2024-06-26T22:56:16.093Z</time>
      </trkpt>
      <trkpt lat="46.02295" lon="2.81889">
        <ele>687.940835</ele>
        <time>2024-06-26T22:56:25.442Z</time>
      </trkpt>
      <trkpt lat="46.02328" lon="2.81934">
        <ele>691.047899</ele>
        <time>2024-06-26T22:56:44.595Z</time>
      </trkpt>
      <trkpt lat="46.02348" lon="2.81952">
        <ele>692.701375</ele>
        <time>2024-06-26T22:56:54.900Z</time>
      </trkpt>
      <trkpt lat="46.02363" lon="2.81958">
        <ele>693.759652</ele>
        <time>2024-06-26T22:57:01.097Z</time>
      </trkpt>
      <trkpt lat="46.0237" lon="2.8196">
        <ele>694.24556</ele>
        <time>2024-06-26T22:57:03.872Z</time>
      </trkpt>
      <trkpt lat="46.02391" lon="2.81954">
        <ele>695.698201</ele>
        <time>2024-06-26T22:57:12.478Z</time>
      </trkpt>
      <trkpt lat="46.02391" lon="2.82061">
        <ele>699.72805</ele>
        <time>2024-06-26T22:57:40.811Z</time>
      </trkpt>
      <trkpt lat="46.02402" lon="2.82142">
        <ele>702.792564</ele>
        <time>2024-06-26T22:58:01.994Z</time>
      </trkpt>
      <trkpt lat="46.02411" lon="2.82191">
        <ele>704.714651</ele>
        <time>2024-06-26T22:58:14.037Z</time>
      </trkpt>
      <trkpt lat="46.02426" lon="2.82244">
        <ele>706.301153</ele>
        <time>2024-06-26T22:58:26.444Z</time>
      </trkpt>
      <trkpt lat="46.02456" lon="2.82325">
        <ele>708.293998</ele>
        <time>2024-06-26T22:58:46.242Z</time>
      </trkpt>
      <trkpt lat="46.02493" lon="2.82407">
        <ele>710.388228</ele>
        <time>2024-06-26T22:59:04.232Z</time>
      </trkpt>
      <trkpt lat="46.02562" lon="2.82557">
        <ele>711.14274</ele>
        <time>2024-06-26T22:59:26.156Z</time>
      </trkpt>
      <trkpt lat="46.02579" lon="2.82583">
        <ele>711.13682</ele>
        <time>2024-06-26T22:59:29.299Z</time>
      </trkpt>
      <trkpt lat="46.02593" lon="2.82598">
        <ele>711.132611</ele>
        <time>2024-06-26T22:59:31.479Z</time>
      </trkpt>
      <trkpt lat="46.02621" lon="2.82613">
        <ele>711.125401</ele>
        <time>2024-06-26T22:59:35.024Z</time>
      </trkpt>
      <trkpt lat="46.02641" lon="2.82616">
        <ele>710.766961</ele>
        <time>2024-06-26T22:59:37.386Z</time>
      </trkpt>
      <trkpt lat="46.0266" lon="2.82613">
        <ele>710.264261</ele>
        <time>2024-06-26T22:59:39.515Z</time>
      </trkpt>
      <trkpt lat="46.02689" lon="2.82596">
        <ele>709.427559</ele>
        <time>2024-06-26T22:59:42.947Z</time>
      </trkpt>
      <trkpt lat="46.02755" lon="2.82543">
        <ele>707.409958</ele>
        <time>2024-06-26T22:59:50.779Z</time>
      </trkpt>
      <trkpt lat="46.02765" lon="2.82538">
        <ele>707.105799</ele>
        <time>2024-06-26T22:59:51.886Z</time>
      </trkpt>
      <trkpt lat="46.02784" lon="2.82542">
        <ele>706.603942</ele>
        <time>2024-06-26T22:59:53.773Z</time>
      </trkpt>
      <trkpt lat="46.02799" lon="2.82554">
        <ele>706.031502</ele>
        <time>2024-06-26T22:59:55.394Z</time>
      </trkpt>
      <trkpt lat="46.0283" lon="2.82582">
        <ele>704.197727</ele>
        <time>2024-06-26T22:59:58.951Z</time>
      </trkpt>
      <trkpt lat="46.02864" lon="2.82621">
        <ele>702.045277</ele>
        <time>2024-06-26T23:00:03.050Z</time>
      </trkpt>
      <trkpt lat="46.02889" lon="2.8267">
        <ele>699.93982</ele>
        <time>2024-06-26T23:00:07.009Z</time>
      </trkpt>
      <trkpt lat="46.02897" lon="2.82703">
        <ele>698.736633</ele>
        <time>2024-06-26T23:00:09.251Z</time>
      </trkpt>
      <trkpt lat="46.02902" lon="2.82731">
        <ele>697.715562</ele>
        <time>2024-06-26T23:00:11.142Z</time>
      </trkpt>
      <trkpt lat="46.02904" lon="2.82762">
        <ele>696.601376</ele>
        <time>2024-06-26T23:00:13.120Z</time>
      </trkpt>
      <trkpt lat="46.02898" lon="2.82821">
        <ele>694.419177</ele>
        <time>2024-06-26T23:00:16.927Z</time>
      </trkpt>
      <trkpt lat="46.02887" lon="2.82855">
        <ele>693.008579</ele>
        <time>2024-06-26T23:00:19.391Z</time>
      </trkpt>
      <trkpt lat="46.02872" lon="2.82884">
        <ele>691.705458</ele>
        <time>2024-06-26T23:00:21.689Z</time>
      </trkpt>
      <trkpt lat="46.02859" lon="2.82903">
        <ele>690.694769</ele>
        <time>2024-06-26T23:00:23.468Z</time>
      </trkpt>
      <trkpt lat="46.02838" lon="2.82924">
        <ele>689.342397</ele>
        <time>2024-06-26T23:00:25.864Z</time>
      </trkpt>
      <trkpt lat="46.02783" lon="2.82977">
        <ele>686.138151</ele>
        <time>2024-06-26T23:00:32.100Z</time>
      </trkpt>
      <trkpt lat="46.0276" lon="2.83011">
        <ele>684.673662</ele>
        <time>2024-06-26T23:00:35.203Z</time>
      </trkpt>
      <trkpt lat="46.02732" lon="2.83069">
        <ele>682.44509</ele>
        <time>2024-06-26T23:00:39.987Z</time>
      </trkpt>
      <trkpt lat="46.02687" lon="2.83162">
        <ele>678.937637</ele>
        <time>2024-06-26T23:00:47.631Z</time>
      </trkpt>
      <trkpt lat="46.02663" lon="2.83221">
        <ele>676.895829</ele>
        <time>2024-06-26T23:00:52.094Z</time>
      </trkpt>
      <trkpt lat="46.0264" lon="2.83299">
        <ele>674.32855</ele>
        <time>2024-06-26T23:00:57.708Z</time>
      </trkpt>
      <trkpt lat="46.02629" lon="2.83386">
        <ele>671.721072</ele>
        <time>2024-06-26T23:01:03.714Z</time>
      </trkpt>
      <trkpt lat="46.0263" lon="2.83463">
        <ele>670.120742</ele>
        <time>2024-06-26T23:01:09.048Z</time>
      </trkpt>
      <trkpt lat="46.02639" lon="2.8354">
        <ele>668.486777</ele>
        <time>2024-06-26T23:01:14.582Z</time>
      </trkpt>
      <trkpt lat="46.02653" lon="2.83602">
        <ele>667.137104</ele>
        <time>2024-06-26T23:01:19.311Z</time>
      </trkpt>
      <trkpt lat="46.02682" lon="2.8369">
        <ele>665.522624</ele>
        <time>2024-06-26T23:01:26.739Z</time>
      </trkpt>
      <trkpt lat="46.02724" lon="2.83832">
        <ele>663.286475</ele>
        <time>2024-06-26T23:01:38.555Z</time>
      </trkpt>
      <trkpt lat="46.02734" lon="2.83873">
        <ele>662.638306</ele>
        <time>2024-06-26T23:01:41.817Z</time>
      </trkpt>
      <trkpt lat="46.02745" lon="2.83934">
        <ele>661.5184</ele>
        <time>2024-06-26T23:01:46.485Z</time>
      </trkpt>
      <trkpt lat="46.02764" lon="2.84169">
        <ele>657.275599</ele>
        <time>2024-06-26T23:02:03.608Z</time>
      </trkpt>
      <trkpt lat="46.02763" lon="2.84214">
        <ele>656.423235</ele>
        <time>2024-06-26T23:02:06.879Z</time>
      </trkpt>
      <trkpt lat="46.0276" lon="2.84254">
        <ele>655.657695</ele>
        <time>2024-06-26T23:02:09.802Z</time>
      </trkpt>
      <trkpt lat="46.02708" lon="2.8455">
        <ele>650.477294</ele>
        <time>2024-06-26T23:02:31.998Z</time>
      </trkpt>
      <trkpt lat="46.02692" lon="2.8464">
        <ele>649.125469</ele>
        <time>2024-06-26T23:02:39.270Z</time>
      </trkpt>
      <trkpt lat="46.02686" lon="2.84662">
        <ele>648.972259</ele>
        <time>2024-06-26T23:02:41.228Z</time>
      </trkpt>
      <trkpt lat="46.02676" lon="2.84688">
        <ele>648.783227</ele>
        <time>2024-06-26T23:02:43.668Z</time>
      </trkpt>
      <trkpt lat="46.02583" lon="2.84846">
        <ele>647.388984</ele>
        <time>2024-06-26T23:03:02.193Z</time>
      </trkpt>
      <trkpt lat="46.02575" lon="2.8487">
        <ele>647.097804</ele>
        <time>2024-06-26T23:03:04.557Z</time>
      </trkpt>
      <trkpt lat="46.02567" lon="2.84898">
        <ele>646.776543</ele>
        <time>2024-06-26T23:03:07.091Z</time>
      </trkpt>
      <trkpt lat="46.02562" lon="2.8493">
        <ele>646.423228</ele>
        <time>2024-06-26T23:03:09.802Z</time>
      </trkpt>
      <trkpt lat="46.02557" lon="2.84995">
        <ele>645.719511</ele>
        <time>2024-06-26T23:03:14.935Z</time>
      </trkpt>
      <trkpt lat="46.02548" lon="2.85088">
        <ele>644.685791</ele>
        <time>2024-06-26T23:03:22.023Z</time>
      </trkpt>
      <trkpt lat="46.02543" lon="2.85114">
        <ele>644.177784</ele>
        <time>2024-06-26T23:03:24.042Z</time>
      </trkpt>
      <trkpt lat="46.02521" lon="2.8516">
        <ele>643.135096</ele>
        <time>2024-06-26T23:03:28.173Z</time>
      </trkpt>
      <trkpt lat="46.02486" lon="2.85211">
        <ele>641.802802</ele>
        <time>2024-06-26T23:03:33.418Z</time>
      </trkpt>
      <trkpt lat="46.02476" lon="2.85237">
        <ele>641.231558</ele>
        <time>2024-06-26T23:03:35.630Z</time>
      </trkpt>
      <trkpt lat="46.02472" lon="2.85264">
        <ele>640.714747</ele>
        <time>2024-06-26T23:03:37.614Z</time>
      </trkpt>
      <trkpt lat="46.02471" lon="2.85287">
        <ele>640.285586</ele>
        <time>2024-06-26T23:03:39.228Z</time>
      </trkpt>
      <trkpt lat="46.02473" lon="2.85317">
        <ele>639.594127</ele>
        <time>2024-06-26T23:03:41.318Z</time>
      </trkpt>
      <trkpt lat="46.02483" lon="2.85382">
        <ele>637.317593</ele>
        <time>2024-06-26T23:03:45.863Z</time>
      </trkpt>
      <trkpt lat="46.02483" lon="2.85407">
        <ele>636.45284</ele>
        <time>2024-06-26T23:03:47.548Z</time>
      </trkpt>
      <trkpt lat="46.02483" lon="2.85431">
        <ele>635.65568</ele>
        <time>2024-06-26T23:03:49.085Z</time>
      </trkpt>
      <trkpt lat="46.02475" lon="2.85479">
        <ele>633.955055</ele>
        <time>2024-06-26T23:03:52.323Z</time>
      </trkpt>
      <trkpt lat="46.02466" lon="2.85511">
        <ele>632.797425</ele>
        <time>2024-06-26T23:03:54.485Z</time>
      </trkpt>
      <trkpt lat="46.02449" lon="2.85552">
        <ele>631.141368</ele>
        <time>2024-06-26T23:03:57.562Z</time>
      </trkpt>
      <trkpt lat="46.02394" lon="2.85629">
        <ele>626.51756</ele>
        <time>2024-06-26T23:04:04.488Z</time>
      </trkpt>
      <trkpt lat="46.02378" lon="2.85656">
        <ele>624.985898</ele>
        <time>2024-06-26T23:04:06.765Z</time>
      </trkpt>
      <trkpt lat="46.02365" lon="2.85687">
        <ele>623.424931</ele>
        <time>2024-06-26T23:04:09.101Z</time>
      </trkpt>
      <trkpt lat="46.02353" lon="2.85726">
        <ele>621.611589</ele>
        <time>2024-06-26T23:04:11.807Z</time>
      </trkpt>
      <trkpt lat="46.02345" lon="2.8576">
        <ele>620.121425</ele>
        <time>2024-06-26T23:04:14.046Z</time>
      </trkpt>
      <trkpt lat="46.02341" lon="2.85793">
        <ele>618.971618</ele>
        <time>2024-06-26T23:04:16.232Z</time>
      </trkpt>
      <trkpt lat="46.02338" lon="2.85887">
        <ele>615.843454</ele>
        <time>2024-06-26T23:04:22.393Z</time>
      </trkpt>
      <trkpt lat="46.02331" lon="2.8592">
        <ele>614.669695</ele>
        <time>2024-06-26T23:04:24.755Z</time>
      </trkpt>
      <trkpt lat="46.02322" lon="2.85945">
        <ele>613.729864</ele>
        <time>2024-06-26T23:04:26.651Z</time>
      </trkpt>
      <trkpt lat="46.0231" lon="2.8597">
        <ele>612.749248</ele>
        <time>2024-06-26T23:04:28.612Z</time>
      </trkpt>
      <trkpt lat="46.02294" lon="2.8599">
        <ele>611.721575</ele>
        <time>2024-06-26T23:04:30.663Z</time>
      </trkpt>
      <trkpt lat="46.02216" lon="2.86067">
        <ele>608.757699</ele>
        <time>2024-06-26T23:04:39.712Z</time>
      </trkpt>
      <trkpt lat="46.02173" lon="2.86115">
        <ele>607.093915</ele>
        <time>2024-06-26T23:04:45.421Z</time>
      </trkpt>
      <trkpt lat="46.02122" lon="2.86185">
        <ele>605.82135</ele>
        <time>2024-06-26T23:04:54.704Z</time>
      </trkpt>
      <trkpt lat="46.02085" lon="2.86231">
        <ele>605.600007</ele>
        <time>2024-06-26T23:05:02.164Z</time>
      </trkpt>
      <trkpt lat="46.02029" lon="2.86285">
        <ele>605.297101</ele>
        <time>2024-06-26T23:05:11.800Z</time>
      </trkpt>
      <trkpt lat="46.02014" lon="2.8632">
        <ele>605.167295</ele>
        <time>2024-06-26T23:05:15.588Z</time>
      </trkpt>
      <trkpt lat="46.02008" lon="2.86356">
        <ele>604.378905</ele>
        <time>2024-06-26T23:05:18.844Z</time>
      </trkpt>
      <trkpt lat="46.02008" lon="2.8641">
        <ele>603.113138</ele>
        <time>2024-06-26T23:05:23.083Z</time>
      </trkpt>
      <trkpt lat="46.02013" lon="2.86468">
        <ele>601.741067</ele>
        <time>2024-06-26T23:05:27.223Z</time>
      </trkpt>
      <trkpt lat="46.02024" lon="2.86552">
        <ele>599.742953</ele>
        <time>2024-06-26T23:05:32.823Z</time>
      </trkpt>
      <trkpt lat="46.02029" lon="2.86692">
        <ele>594.197694</ele>
        <time>2024-06-26T23:05:41.745Z</time>
      </trkpt>
      <trkpt lat="46.02021" lon="2.86725">
        <ele>592.675658</ele>
        <time>2024-06-26T23:05:43.954Z</time>
      </trkpt>
      <trkpt lat="46.0201" lon="2.86748">
        <ele>591.485693</ele>
        <time>2024-06-26T23:05:45.672Z</time>
      </trkpt>
      <trkpt lat="46.01985" lon="2.86785">
        <ele>589.19007</ele>
        <time>2024-06-26T23:05:48.960Z</time>
      </trkpt>
      <trkpt lat="46.01974" lon="2.86807">
        <ele>587.990143</ele>
        <time>2024-06-26T23:05:50.680Z</time>
      </trkpt>
      <trkpt lat="46.01967" lon="2.86836">
        <ele>586.536343</ele>
        <time>2024-06-26T23:05:52.581Z</time>
      </trkpt>
      <trkpt lat="46.01967" lon="2.86868">
        <ele>584.995925</ele>
        <time>2024-06-26T23:05:54.571Z</time>
      </trkpt>
      <trkpt lat="46.01979" lon="2.86961">
        <ele>580.371576</ele>
        <time>2024-06-26T23:06:00.559Z</time>
      </trkpt>
      <trkpt lat="46.0198" lon="2.86992">
        <ele>578.840376</ele>
        <time>2024-06-26T23:06:02.508Z</time>
      </trkpt>
      <trkpt lat="46.01967" lon="2.87076">
        <ele>574.585974</ele>
        <time>2024-06-26T23:06:07.805Z</time>
      </trkpt>
      <trkpt lat="46.01973" lon="2.87128">
        <ele>571.793138</ele>
        <time>2024-06-26T23:06:10.980Z</time>
      </trkpt>
      <trkpt lat="46.01982" lon="2.8716">
        <ele>569.90247</ele>
        <time>2024-06-26T23:06:13.160Z</time>
      </trkpt>
      <trkpt lat="46.02034" lon="2.87301">
        <ele>561.335327</ele>
        <time>2024-06-26T23:06:23.055Z</time>
      </trkpt>
      <trkpt lat="46.02055" lon="2.87372">
        <ele>556.317128</ele>
        <time>2024-06-26T23:06:27.692Z</time>
      </trkpt>
      <trkpt lat="46.02066" lon="2.87396">
        <ele>554.448959</ele>
        <time>2024-06-26T23:06:29.385Z</time>
      </trkpt>
      <trkpt lat="46.0208" lon="2.87414">
        <ele>552.709396</ele>
        <time>2024-06-26T23:06:30.974Z</time>
      </trkpt>
      <trkpt lat="46.02106" lon="2.87439">
        <ele>549.767624</ele>
        <time>2024-06-26T23:06:33.658Z</time>
      </trkpt>
      <trkpt lat="46.02199" lon="2.87512">
        <ele>541.111061</ele>
        <time>2024-06-26T23:06:42.991Z</time>
      </trkpt>
      <trkpt lat="46.02234" lon="2.87541">
        <ele>538.46118</ele>
        <time>2024-06-26T23:06:46.580Z</time>
      </trkpt>
      <trkpt lat="46.02255" lon="2.87565">
        <ele>536.687182</ele>
        <time>2024-06-26T23:06:49.054Z</time>
      </trkpt>
      <trkpt lat="46.02277" lon="2.87596">
        <ele>534.642585</ele>
        <time>2024-06-26T23:06:51.957Z</time>
      </trkpt>
      <trkpt lat="46.0229" lon="2.87623">
        <ele>533.139402</ele>
        <time>2024-06-26T23:06:54.108Z</time>
      </trkpt>
      <trkpt lat="46.02298" lon="2.87647">
        <ele>532.031614</ele>
        <time>2024-06-26T23:06:55.794Z</time>
      </trkpt>
      <trkpt lat="46.02303" lon="2.87673">
        <ele>531.021978</ele>
        <time>2024-06-26T23:06:57.642Z</time>
      </trkpt>
      <trkpt lat="46.02315" lon="2.87773">
        <ele>527.309101</ele>
        <time>2024-06-26T23:07:04.310Z</time>
      </trkpt>
      <trkpt lat="46.02348" lon="2.87895">
        <ele>522.470377</ele>
        <time>2024-06-26T23:07:12.864Z</time>
      </trkpt>
      <trkpt lat="46.0235" lon="2.87925">
        <ele>521.222281</ele>
        <time>2024-06-26T23:07:14.734Z</time>
      </trkpt>
      <trkpt lat="46.02345" lon="2.8795">
        <ele>520.182511</ele>
        <time>2024-06-26T23:07:16.296Z</time>
      </trkpt>
      <trkpt lat="46.02326" lon="2.8799">
        <ele>518.201286</ele>
        <time>2024-06-26T23:07:19.322Z</time>
      </trkpt>
      <trkpt lat="46.0232" lon="2.88014">
        <ele>517.162249</ele>
        <time>2024-06-26T23:07:20.928Z</time>
      </trkpt>
      <trkpt lat="46.02319" lon="2.88034">
        <ele>516.348104</ele>
        <time>2024-06-26T23:07:22.208Z</time>
      </trkpt>
      <trkpt lat="46.02322" lon="2.8805">
        <ele>515.678763</ele>
        <time>2024-06-26T23:07:23.277Z</time>
      </trkpt>
      <trkpt lat="46.02325" lon="2.88063">
        <ele>515.100541</ele>
        <time>2024-06-26T23:07:24.205Z</time>
      </trkpt>
      <trkpt lat="46.02353" lon="2.88125">
        <ele>512.095396</ele>
        <time>2024-06-26T23:07:29.120Z</time>
      </trkpt>
      <trkpt lat="46.02361" lon="2.88146">
        <ele>511.089177</ele>
        <time>2024-06-26T23:07:30.818Z</time>
      </trkpt>
      <trkpt lat="46.02366" lon="2.88169">
        <ele>510.129895</ele>
        <time>2024-06-26T23:07:32.410Z</time>
      </trkpt>
      <trkpt lat="46.02362" lon="2.88228">
        <ele>507.739701</ele>
        <time>2024-06-26T23:07:36.110Z</time>
      </trkpt>
      <trkpt lat="46.02363" lon="2.88256">
        <ele>506.624687</ele>
        <time>2024-06-26T23:07:37.829Z</time>
      </trkpt>
      <trkpt lat="46.02368" lon="2.88278">
        <ele>505.669939</ele>
        <time>2024-06-26T23:07:39.313Z</time>
      </trkpt>
      <trkpt lat="46.02406" lon="2.88342">
        <ele>502.27933</ele>
        <time>2024-06-26T23:07:44.720Z</time>
      </trkpt>
      <trkpt lat="46.02414" lon="2.88362">
        <ele>501.194946</ele>
        <time>2024-06-26T23:07:46.245Z</time>
      </trkpt>
      <trkpt lat="46.02421" lon="2.88389">
        <ele>499.78119</ele>
        <time>2024-06-26T23:07:48.046Z</time>
      </trkpt>
      <trkpt lat="46.02427" lon="2.88431">
        <ele>497.687757</ele>
        <time>2024-06-26T23:07:50.678Z</time>
      </trkpt>
      <trkpt lat="46.0243" lon="2.88483">
        <ele>495.095532</ele>
        <time>2024-06-26T23:07:53.909Z</time>
      </trkpt>
      <trkpt lat="46.02427" lon="2.88537">
        <ele>492.433145</ele>
        <time>2024-06-26T23:07:57.241Z</time>
      </trkpt>
      <trkpt lat="46.02427" lon="2.88572">
        <ele>490.68486</ele>
        <time>2024-06-26T23:07:59.433Z</time>
      </trkpt>
      <trkpt lat="46.02431" lon="2.88609">
        <ele>488.821126</ele>
        <time>2024-06-26T23:08:01.771Z</time>
      </trkpt>
      <trkpt lat="46.02476" lon="2.88931">
        <ele>471.527511</ele>
        <time>2024-06-26T23:08:22.103Z</time>
      </trkpt>
      <trkpt lat="46.02478" lon="2.88958">
        <ele>470.061546</ele>
        <time>2024-06-26T23:08:23.725Z</time>
      </trkpt>
      <trkpt lat="46.02477" lon="2.88981">
        <ele>468.738846</ele>
        <time>2024-06-26T23:08:25.191Z</time>
      </trkpt>
      <trkpt lat="46.02471" lon="2.89005">
        <ele>467.377084</ele>
        <time>2024-06-26T23:08:26.702Z</time>
      </trkpt>
      <trkpt lat="46.02461" lon="2.89028">
        <ele>465.828683</ele>
        <time>2024-06-26T23:08:28.413Z</time>
      </trkpt>
      <trkpt lat="46.02422" lon="2.89084">
        <ele>461.438127</ele>
        <time>2024-06-26T23:08:33.230Z</time>
      </trkpt>
      <trkpt lat="46.02372" lon="2.89145">
        <ele>455.623685</ele>
        <time>2024-06-26T23:08:38.940Z</time>
      </trkpt>
      <trkpt lat="46.02356" lon="2.89183">
        <ele>452.860385</ele>
        <time>2024-06-26T23:08:41.641Z</time>
      </trkpt>
      <trkpt lat="46.02346" lon="2.89222">
        <ele>450.290424</ele>
        <time>2024-06-26T23:08:44.150Z</time>
      </trkpt>
      <trkpt lat="46.02338" lon="2.89244">
        <ele>448.78028</ele>
        <time>2024-06-26T23:08:45.624Z</time>
      </trkpt>
      <trkpt lat="46.02328" lon="2.89257">
        <ele>447.598898</ele>
        <time>2024-06-26T23:08:46.783Z</time>
      </trkpt>
      <trkpt lat="46.02323" lon="2.89263">
        <ele>447.030174</ele>
        <time>2024-06-26T23:08:47.350Z</time>
      </trkpt>
      <trkpt lat="46.02315" lon="2.8927">
        <ele>446.126185</ele>
        <time>2024-06-26T23:08:48.238Z</time>
      </trkpt>
      <trkpt lat="46.02298" lon="2.89278">
        <ele>444.744646</ele>
        <time>2024-06-26T23:08:49.775Z</time>
      </trkpt>
      <trkpt lat="46.02237" lon="2.893">
        <ele>440.503401</ele>
        <time>2024-06-26T23:08:55.319Z</time>
      </trkpt>
      <trkpt lat="46.02214" lon="2.89303">
        <ele>438.950746</ele>
        <time>2024-06-26T23:08:57.393Z</time>
      </trkpt>
      <trkpt lat="46.02187" lon="2.89303">
        <ele>437.122732</ele>
        <time>2024-06-26T23:08:59.850Z</time>
      </trkpt>
      <trkpt lat="46.02153" lon="2.89295">
        <ele>434.796411</ele>
        <time>2024-06-26T23:09:03.032Z</time>
      </trkpt>
      <trkpt lat="46.02075" lon="2.8926">
        <ele>430.363902</ele>
        <time>2024-06-26T23:09:10.752Z</time>
      </trkpt>
      <trkpt lat="46.0204" lon="2.89247">
        <ele>428.580553</ele>
        <time>2024-06-26T23:09:14.305Z</time>
      </trkpt>
      <trkpt lat="46.01897" lon="2.89209">
        <ele>421.740271</ele>
        <time>2024-06-26T23:09:28.034Z</time>
      </trkpt>
      <trkpt lat="46.01846" lon="2.89188">
        <ele>419.332168</ele>
        <time>2024-06-26T23:09:33.202Z</time>
      </trkpt>
      <trkpt lat="46.01845" lon="2.892">
        <ele>418.94991</ele>
        <time>2024-06-26T23:09:33.969Z</time>
      </trkpt>
      <trkpt lat="46.01847" lon="2.89207">
        <ele>418.725592</ele>
        <time>2024-06-26T23:09:34.440Z</time>
      </trkpt>
      <trkpt lat="46.01852" lon="2.89211">
        <ele>418.43854</ele>
        <time>2024-06-26T23:09:35.064Z</time>
      </trkpt>
      <trkpt lat="46.01897" lon="2.89227">
        <ele>416.386632</ele>
        <time>2024-06-26T23:09:39.436Z</time>
      </trkpt>
      <trkpt lat="46.0196" lon="2.89262">
        <ele>413.734203</ele>
        <time>2024-06-26T23:09:45.981Z</time>
      </trkpt>
      <trkpt lat="46.01967" lon="2.89266">
        <ele>413.42993</ele>
        <time>2024-06-26T23:09:46.767Z</time>
      </trkpt>
      <trkpt lat="46.01989" lon="2.89279">
        <ele>412.507819</ele>
        <time>2024-06-26T23:09:49.064Z</time>
      </trkpt>
      <trkpt lat="46.02038" lon="2.89325">
        <ele>410.227768</ele>
        <time>2024-06-26T23:09:55.002Z</time>
      </trkpt>
      <trkpt lat="46.02055" lon="2.89336">
        <ele>409.478416</ele>
        <time>2024-06-26T23:09:56.910Z</time>
      </trkpt>
      <trkpt lat="46.02253" lon="2.89409">
        <ele>400.828878</ele>
        <time>2024-06-26T23:10:16.599Z</time>
      </trkpt>
      <trkpt lat="46.02287" lon="2.89428">
        <ele>399.434932</ele>
        <time>2024-06-26T23:10:20.078Z</time>
      </trkpt>
      <trkpt lat="46.02353" lon="2.89482">
        <ele>396.495014</ele>
        <time>2024-06-26T23:10:27.412Z</time>
      </trkpt>
      <trkpt lat="46.02389" lon="2.89515">
        <ele>394.856434</ele>
        <time>2024-06-26T23:10:31.686Z</time>
      </trkpt>
      <trkpt lat="46.02453" lon="2.89592">
        <ele>393.587245</ele>
        <time>2024-06-26T23:10:40.697Z</time>
      </trkpt>
      <trkpt lat="46.02475" lon="2.89602">
        <ele>393.28104</ele>
        <time>2024-06-26T23:10:43.623Z</time>
      </trkpt>
      <trkpt lat="46.02493" lon="2.89606">
        <ele>393.034339</ele>
        <time>2024-06-26T23:10:45.821Z</time>
      </trkpt>
      <trkpt lat="46.02537" lon="2.89615">
        <ele>392.440104</ele>
        <time>2024-06-26T23:10:52.044Z</time>
      </trkpt>
      <trkpt lat="46.02543" lon="2.89616">
        <ele>392.359235</ele>
        <time>2024-06-26T23:10:52.900Z</time>
      </trkpt>
      <trkpt lat="46.0255" lon="2.89622">
        <ele>392.256017</ele>
        <time>2024-06-26T23:10:53.858Z</time>
      </trkpt>
      <trkpt lat="46.02559" lon="2.89635">
        <ele>392.234201</ele>
        <time>2024-06-26T23:10:55.510Z</time>
      </trkpt>
      <trkpt lat="46.02608" lon="2.89708">
        <ele>392.310477</ele>
        <time>2024-06-26T23:11:07.289Z</time>
      </trkpt>
      <trkpt lat="46.02638" lon="2.89751">
        <ele>392.356572</ele>
        <time>2024-06-26T23:11:15.117Z</time>
      </trkpt>
      <trkpt lat="46.02675" lon="2.89799">
        <ele>392.410514</ele>
        <time>2024-06-26T23:11:21.867Z</time>
      </trkpt>
      <trkpt lat="46.02741" lon="2.89884">
        <ele>392.025428</ele>
        <time>2024-06-26T23:11:33.681Z</time>
      </trkpt>
      <trkpt lat="46.02749" lon="2.89895">
        <ele>391.971721</ele>
        <time>2024-06-26T23:11:35.077Z</time>
      </trkpt>
      <trkpt lat="46.02773" lon="2.89926">
        <ele>391.820466</ele>
        <time>2024-06-26T23:11:39.273Z</time>
      </trkpt>
      <trkpt lat="46.02803" lon="2.89957">
        <ele>391.642953</ele>
        <time>2024-06-26T23:11:44.854Z</time>
      </trkpt>
      <trkpt lat="46.02835" lon="2.89982">
        <ele>391.424572</ele>
        <time>2024-06-26T23:11:49.964Z</time>
      </trkpt>
      <trkpt lat="46.02885" lon="2.90008">
        <ele>391.050537</ele>
        <time>2024-06-26T23:11:56.040Z</time>
      </trkpt>
      <trkpt lat="46.02925" lon="2.90021">
        <ele>390.765868</ele>
        <time>2024-06-26T23:12:00.584Z</time>
      </trkpt>
      <trkpt lat="46.02951" lon="2.90043">
        <ele>390.549013</ele>
        <time>2024-06-26T23:12:04.207Z</time>
      </trkpt>
      <trkpt lat="46.02966" lon="2.90062">
        <ele>390.406786</ele>
        <time>2024-06-26T23:12:06.867Z</time>
      </trkpt>
      <trkpt lat="46.02984" lon="2.90104">
        <ele>390.449686</ele>
        <time>2024-06-26T23:12:13.842Z</time>
      </trkpt>
      <trkpt lat="46.03017" lon="2.90188">
        <ele>391.072039</ele>
        <time>2024-06-26T23:12:27.351Z</time>
      </trkpt>
      <trkpt lat="46.03038" lon="2.90225">
        <ele>391.384721</ele>
        <time>2024-06-26T23:12:32.716Z</time>
      </trkpt>
      <trkpt lat="46.03052" lon="2.90248">
        <ele>391.582147</ele>
        <time>2024-06-26T23:12:36.067Z</time>
      </trkpt>
      <trkpt lat="46.03063" lon="2.90286">
        <ele>391.846103</ele>
        <time>2024-06-26T23:12:40.893Z</time>
      </trkpt>
      <trkpt lat="46.03067" lon="2.90325">
        <ele>392.192954</ele>
        <time>2024-06-26T23:12:46.987Z</time>
      </trkpt>
      <trkpt lat="46.03066" lon="2.90346">
        <ele>392.417177</ele>
        <time>2024-06-26T23:12:50.323Z</time>
      </trkpt>
      <trkpt lat="46.03042" lon="2.90439">
        <ele>393.486551</ele>
        <time>2024-06-26T23:13:07.823Z</time>
      </trkpt>
      <trkpt lat="46.03034" lon="2.90471">
        <ele>393.851652</ele>
        <time>2024-06-26T23:13:13.692Z</time>
      </trkpt>
      <trkpt lat="46.03034" lon="2.90488">
        <ele>394.032559</ele>
        <time>2024-06-26T23:13:15.866Z</time>
      </trkpt>
      <trkpt lat="46.03036" lon="2.905">
        <ele>394.167665</ele>
        <time>2024-06-26T23:13:17.483Z</time>
      </trkpt>
      <trkpt lat="46.03041" lon="2.90511">
        <ele>394.313418</ele>
        <time>2024-06-26T23:13:19.084Z</time>
      </trkpt>
      <trkpt lat="46.03052" lon="2.9052">
        <ele>394.50502</ele>
        <time>2024-06-26T23:13:20.996Z</time>
      </trkpt>
      <trkpt lat="46.03194" lon="2.90585">
        <ele>394.298682</ele>
        <time>2024-06-26T23:13:42.927Z</time>
      </trkpt>
      <trkpt lat="46.03255" lon="2.90622">
        <ele>393.754343</ele>
        <time>2024-06-26T23:13:50.891Z</time>
      </trkpt>
      <trkpt lat="46.03281" lon="2.90632">
        <ele>393.203736</ele>
        <time>2024-06-26T23:13:53.954Z</time>
      </trkpt>
      <trkpt lat="46.03309" lon="2.90635">
        <ele>392.645633</ele>
        <time>2024-06-26T23:13:56.853Z</time>
      </trkpt>
      <trkpt lat="46.03318" lon="2.90634">
        <ele>392.45719</ele>
        <time>2024-06-26T23:13:57.783Z</time>
      </trkpt>
      <trkpt lat="46.03348" lon="2.90622">
        <ele>391.842327</ele>
        <time>2024-06-26T23:14:01.018Z</time>
      </trkpt>
      <trkpt lat="46.03433" lon="2.90581">
        <ele>390.517594</ele>
        <time>2024-06-26T23:14:10.730Z</time>
      </trkpt>
      <trkpt lat="46.03463" lon="2.90554">
        <ele>390.488494</ele>
        <time>2024-06-26T23:14:15.270Z</time>
      </trkpt>
      <trkpt lat="46.03476" lon="2.90538">
        <ele>390.474155</ele>
        <time>2024-06-26T23:14:18.419Z</time>
      </trkpt>
      <trkpt lat="46.03506" lon="2.90503">
        <ele>390.44234</ele>
        <time>2024-06-26T23:14:23.998Z</time>
      </trkpt>
      <trkpt lat="46.03529" lon="2.90467">
        <ele>390.414495</ele>
        <time>2024-06-26T23:14:29.765Z</time>
      </trkpt>
      <trkpt lat="46.03589" lon="2.90359">
        <ele>390.94442</ele>
        <time>2024-06-26T23:14:49.358Z</time>
      </trkpt>
      <trkpt lat="46.03616" lon="2.90327">
        <ele>391.234528</ele>
        <time>2024-06-26T23:14:56.310Z</time>
      </trkpt>
      <trkpt lat="46.03671" lon="2.90275">
        <ele>391.789571</ele>
        <time>2024-06-26T23:15:08.291Z</time>
      </trkpt>
      <trkpt lat="46.03702" lon="2.90246">
        <ele>391.570998</ele>
        <time>2024-06-26T23:15:13.537Z</time>
      </trkpt>
      <trkpt lat="46.03747" lon="2.90218">
        <ele>390.898957</ele>
        <time>2024-06-26T23:15:19.580Z</time>
      </trkpt>
      <trkpt lat="46.03774" lon="2.90207">
        <ele>390.512948</ele>
        <time>2024-06-26T23:15:22.757Z</time>
      </trkpt>
      <trkpt lat="46.03798" lon="2.90202">
        <ele>390.184932</ele>
        <time>2024-06-26T23:15:25.409Z</time>
      </trkpt>
      <trkpt lat="46.03839" lon="2.90202">
        <ele>389.626899</ele>
        <time>2024-06-26T23:15:29.859Z</time>
      </trkpt>
      <trkpt lat="46.03915" lon="2.90205">
        <ele>388.154747</ele>
        <time>2024-06-26T23:15:37.900Z</time>
      </trkpt>
      <trkpt lat="46.03939" lon="2.9021">
        <ele>387.632757</ele>
        <time>2024-06-26T23:15:40.565Z</time>
      </trkpt>
      <trkpt lat="46.04144" lon="2.90268">
        <ele>383.796318</ele>
        <time>2024-06-26T23:16:03.759Z</time>
      </trkpt>
      <trkpt lat="46.04262" lon="2.90297">
        <ele>383.055842</ele>
        <time>2024-06-26T23:16:17.705Z</time>
      </trkpt>
      <trkpt lat="46.04276" lon="2.90306">
        <ele>383.143595</ele>
        <time>2024-06-26T23:16:19.853Z</time>
      </trkpt>
      <trkpt lat="46.0428" lon="2.90312">
        <ele>383.176804</ele>
        <time>2024-06-26T23:16:20.516Z</time>
      </trkpt>
      <trkpt lat="46.04281" lon="2.90327">
        <ele>383.237686</ele>
        <time>2024-06-26T23:16:22.024Z</time>
      </trkpt>
      <trkpt lat="46.04277" lon="2.90344">
        <ele>383.312401</ele>
        <time>2024-06-26T23:16:25.132Z</time>
      </trkpt>
      <trkpt lat="46.04258" lon="2.90419">
        <ele>383.635322</ele>
        <time>2024-06-26T23:16:35.955Z</time>
      </trkpt>
      <trkpt lat="46.04255" lon="2.9043">
        <ele>383.685576</ele>
        <time>2024-06-26T23:16:39.145Z</time>
      </trkpt>
      <trkpt lat="46.04305" lon="2.90471">
        <ele>384.978139</ele>
        <time>2024-06-26T23:16:53.787Z</time>
      </trkpt>
      <trkpt lat="46.04367" lon="2.90533">
        <ele>387.1814</ele>
        <time>2024-06-26T23:17:16.381Z</time>
      </trkpt>
      <trkpt lat="46.04408" lon="2.90564">
        <ele>388.521378</ele>
        <time>2024-06-26T23:17:29.999Z</time>
      </trkpt>
      <trkpt lat="46.0442" lon="2.90585">
        <ele>389.019224</ele>
        <time>2024-06-26T23:17:34.234Z</time>
      </trkpt>
      <trkpt lat="46.04435" lon="2.90619">
        <ele>388.839875</ele>
        <time>2024-06-26T23:17:39.427Z</time>
      </trkpt>
      <trkpt lat="46.04463" lon="2.90662">
        <ele>388.575746</ele>
        <time>2024-06-26T23:17:45.470Z</time>
      </trkpt>
      <trkpt lat="46.04504" lon="2.90708">
        <ele>388.234917</ele>
        <time>2024-06-26T23:17:51.794Z</time>
      </trkpt>
      <trkpt lat="46.04562" lon="2.90765">
        <ele>387.48996</ele>
        <time>2024-06-26T23:17:59.323Z</time>
      </trkpt>
      <trkpt lat="46.0469" lon="2.90835">
        <ele>383.465753</ele>
        <time>2024-06-26T23:18:13.192Z</time>
      </trkpt>
      <trkpt lat="46.04802" lon="2.90907">
        <ele>380.951122</ele>
        <time>2024-06-26T23:18:25.816Z</time>
      </trkpt>
      <trkpt lat="46.04839" lon="2.90926">
        <ele>380.263114</ele>
        <time>2024-06-26T23:18:30.495Z</time>
      </trkpt>
      <trkpt lat="46.04874" lon="2.90935">
        <ele>379.632369</ele>
        <time>2024-06-26T23:18:35.358Z</time>
      </trkpt>
      <trkpt lat="46.04894" lon="2.90946">
        <ele>379.410927</ele>
        <time>2024-06-26T23:18:38.693Z</time>
      </trkpt>
      <trkpt lat="46.04973" lon="2.91035">
        <ele>379.379122</ele>
        <time>2024-06-26T23:18:54.432Z</time>
      </trkpt>
      <trkpt lat="46.05019" lon="2.91107">
        <ele>379.357766</ele>
        <time>2024-06-26T23:19:05.027Z</time>
      </trkpt>
      <trkpt lat="46.05064" lon="2.91184">
        <ele>378.953879</ele>
        <time>2024-06-26T23:19:13.651Z</time>
      </trkpt>
      <trkpt lat="46.05146" lon="2.91289">
        <ele>378.295889</ele>
        <time>2024-06-26T23:19:26.699Z</time>
      </trkpt>
      <trkpt lat="46.05188" lon="2.91346">
        <ele>379.578566</ele>
        <time>2024-06-26T23:19:38.577Z</time>
      </trkpt>
      <trkpt lat="46.0522" lon="2.91398">
        <ele>380.741265</ele>
        <time>2024-06-26T23:19:50.792Z</time>
      </trkpt>
      <trkpt lat="46.05288" lon="2.91551">
        <ele>383.812428</ele>
        <time>2024-06-26T23:20:28.133Z</time>
      </trkpt>
      <trkpt lat="46.05303" lon="2.91574">
        <ele>384.360052</ele>
        <time>2024-06-26T23:20:34.923Z</time>
      </trkpt>
      <trkpt lat="46.0532" lon="2.91599">
        <ele>384.962115</ele>
        <time>2024-06-26T23:20:42.052Z</time>
      </trkpt>
      <trkpt lat="46.05365" lon="2.91702">
        <ele>387.051898</ele>
        <time>2024-06-26T23:21:00.770Z</time>
      </trkpt>
      <trkpt lat="46.05378" lon="2.91724">
        <ele>386.743412</ele>
        <time>2024-06-26T23:21:03.363Z</time>
      </trkpt>
      <trkpt lat="46.0539" lon="2.91741">
        <ele>386.474409</ele>
        <time>2024-06-26T23:21:05.281Z</time>
      </trkpt>
      <trkpt lat="46.05412" lon="2.91765">
        <ele>386.02764</ele>
        <time>2024-06-26T23:21:08.584Z</time>
      </trkpt>
      <trkpt lat="46.0544" lon="2.91777">
        <ele>385.561379</ele>
        <time>2024-06-26T23:21:12.423Z</time>
      </trkpt>
      <trkpt lat="46.05529" lon="2.91784">
        <ele>384.050239</ele>
        <time>2024-06-26T23:21:21.860Z</time>
      </trkpt>
      <trkpt lat="46.05601" lon="2.91768">
        <ele>381.511263</ele>
        <time>2024-06-26T23:21:28.751Z</time>
      </trkpt>
      <trkpt lat="46.05642" lon="2.9175">
        <ele>380.009891</ele>
        <time>2024-06-26T23:21:32.887Z</time>
      </trkpt>
      <trkpt lat="46.05742" lon="2.917">
        <ele>377.273788</ele>
        <time>2024-06-26T23:21:44.074Z</time>
      </trkpt>
      <trkpt lat="46.05776" lon="2.91677">
        <ele>376.785587</ele>
        <time>2024-06-26T23:21:48.480Z</time>
      </trkpt>
      <trkpt lat="46.05812" lon="2.91659">
        <ele>376.30127</ele>
        <time>2024-06-26T23:21:52.975Z</time>
      </trkpt>
      <trkpt lat="46.05935" lon="2.91634">
        <ele>375.376383</ele>
        <time>2024-06-26T23:22:10.301Z</time>
      </trkpt>
      <trkpt lat="46.05966" lon="2.91631">
        <ele>375.297226</ele>
        <time>2024-06-26T23:22:15.134Z</time>
      </trkpt>
      <trkpt lat="46.06067" lon="2.9165">
        <ele>375.10821</ele>
        <time>2024-06-26T23:22:28.815Z</time>
      </trkpt>
      <trkpt lat="46.06142" lon="2.91668">
        <ele>375.194415</ele>
        <time>2024-06-26T23:22:39.559Z</time>
      </trkpt>
      <trkpt lat="46.06165" lon="2.91676">
        <ele>375.221866</ele>
        <time>2024-06-26T23:22:43.579Z</time>
      </trkpt>
      <trkpt lat="46.06203" lon="2.91704">
        <ele>375.270294</ele>
        <time>2024-06-26T23:22:51.433Z</time>
      </trkpt>
      <trkpt lat="46.0625" lon="2.91751">
        <ele>375.761604</ele>
        <time>2024-06-26T23:23:00.640Z</time>
      </trkpt>
      <trkpt lat="46.06272" lon="2.91773">
        <ele>376.098855</ele>
        <time>2024-06-26T23:23:04.138Z</time>
      </trkpt>
      <trkpt lat="46.06285" lon="2.91791">
        <ele>376.331338</ele>
        <time>2024-06-26T23:23:07.650Z</time>
      </trkpt>
      <trkpt lat="46.06301" lon="2.91827">
        <ele>376.711974</ele>
        <time>2024-06-26T23:23:14.026Z</time>
      </trkpt>
      <trkpt lat="46.06332" lon="2.9189">
        <ele>377.394305</ele>
        <time>2024-06-26T23:23:25.799Z</time>
      </trkpt>
      <trkpt lat="46.06338" lon="2.91898">
        <ele>377.494105</ele>
        <time>2024-06-26T23:23:27.880Z</time>
      </trkpt>
      <trkpt lat="46.06342" lon="2.91904">
        <ele>377.565913</ele>
        <time>2024-06-26T23:23:29.644Z</time>
      </trkpt>
      <trkpt lat="46.06346" lon="2.91909">
        <ele>377.716985</ele>
        <time>2024-06-26T23:23:31.013Z</time>
      </trkpt>
      <trkpt lat="46.06349" lon="2.91913">
        <ele>377.847353</ele>
        <time>2024-06-26T23:23:31.719Z</time>
      </trkpt>
      <trkpt lat="46.06359" lon="2.91929">
        <ele>378.349034</ele>
        <time>2024-06-26T23:23:34.786Z</time>
      </trkpt>
      <trkpt lat="46.06383" lon="2.91972">
        <ele>379.629257</ele>
        <time>2024-06-26T23:23:45.348Z</time>
      </trkpt>
      <trkpt lat="46.0642" lon="2.92155">
        <ele>384.267334</ele>
        <time>2024-06-26T23:24:24.250Z</time>
      </trkpt>
      <trkpt lat="46.06453" lon="2.9225">
        <ele>387.917946</ele>
        <time>2024-06-26T23:24:49.148Z</time>
      </trkpt>
      <trkpt lat="46.06479" lon="2.92302">
        <ele>390.124543</ele>
        <time>2024-06-26T23:25:04.859Z</time>
      </trkpt>
      <trkpt lat="46.06551" lon="2.92376">
        <ele>394.644982</ele>
        <time>2024-06-26T23:25:38.381Z</time>
      </trkpt>
      <trkpt lat="46.06673" lon="2.92445">
        <ele>401.733684</ele>
        <time>2024-06-26T23:26:26.854Z</time>
      </trkpt>
      <trkpt lat="46.06702" lon="2.92458">
        <ele>402.887376</ele>
        <time>2024-06-26T23:26:37.058Z</time>
      </trkpt>
      <trkpt lat="46.06733" lon="2.92464">
        <ele>403.900844</ele>
        <time>2024-06-26T23:26:47.371Z</time>
      </trkpt>
      <trkpt lat="46.06779" lon="2.92466">
        <ele>405.353637</ele>
        <time>2024-06-26T23:27:00.612Z</time>
      </trkpt>
      <trkpt lat="46.06833" lon="2.92459">
        <ele>407.068132</ele>
        <time>2024-06-26T23:27:13.852Z</time>
      </trkpt>
      <trkpt lat="46.06848" lon="2.92465">
        <ele>407.571246</ele>
        <time>2024-06-26T23:27:17.212Z</time>
      </trkpt>
      <trkpt lat="46.06863" lon="2.92478">
        <ele>408.036499</ele>
        <time>2024-06-26T23:27:20.352Z</time>
      </trkpt>
      <trkpt lat="46.06877" lon="2.92476">
        <ele>408.287336</ele>
        <time>2024-06-26T23:27:22.957Z</time>
      </trkpt>
      <trkpt lat="46.06941" lon="2.92409">
        <ele>409.699758</ele>
        <time>2024-06-26T23:27:37.702Z</time>
      </trkpt>
      <trkpt lat="46.06949" lon="2.92397">
        <ele>409.912658</ele>
        <time>2024-06-26T23:27:40.071Z</time>
      </trkpt>
      <trkpt lat="46.06954" lon="2.92381">
        <ele>410.122211</ele>
        <time>2024-06-26T23:27:42.711Z</time>
      </trkpt>
      <trkpt lat="46.06963" lon="2.92317">
        <ele>410.935927</ele>
        <time>2024-06-26T23:27:54.001Z</time>
      </trkpt>
      <trkpt lat="46.06977" lon="2.92248">
        <ele>412.67954</ele>
        <time>2024-06-26T23:28:08.069Z</time>
      </trkpt>
      <trkpt lat="46.06983" lon="2.9216">
        <ele>415.095896</ele>
        <time>2024-06-26T23:28:27.758Z</time>
      </trkpt>
      <trkpt lat="46.06984" lon="2.92143">
        <ele>415.554083</ele>
        <time>2024-06-26T23:28:32.063Z</time>
      </trkpt>
      <trkpt lat="46.06972" lon="2.92054">
        <ele>418.025865</ele>
        <time>2024-06-26T23:28:52.214Z</time>
      </trkpt>
      <trkpt lat="46.06973" lon="2.92028">
        <ele>418.753006</ele>
        <time>2024-06-26T23:28:57.857Z</time>
      </trkpt>
      <trkpt lat="46.06988" lon="2.91913">
        <ele>421.948373</ele>
        <time>2024-06-26T23:29:20.961Z</time>
      </trkpt>
      <trkpt lat="46.0699" lon="2.91894">
        <ele>422.465315</ele>
        <time>2024-06-26T23:29:24.198Z</time>
      </trkpt>
      <trkpt lat="46.07003" lon="2.91856">
        <ele>423.619342</ele>
        <time>2024-06-26T23:29:33.468Z</time>
      </trkpt>
      <trkpt lat="46.07019" lon="2.91819">
        <ele>424.827895</ele>
        <time>2024-06-26T23:29:43.832Z</time>
      </trkpt>
      <trkpt lat="46.0705" lon="2.91767">
        <ele>427.446515</ele>
        <time>2024-06-26T23:29:59.726Z</time>
      </trkpt>
      <trkpt lat="46.07074" lon="2.91744">
        <ele>429.134109</ele>
        <time>2024-06-26T23:30:09.365Z</time>
      </trkpt>
      <trkpt lat="46.07102" lon="2.91726">
        <ele>430.95091</ele>
        <time>2024-06-26T23:30:19.283Z</time>
      </trkpt>
      <trkpt lat="46.07164" lon="2.91713">
        <ele>434.723137</ele>
        <time>2024-06-26T23:30:45.577Z</time>
      </trkpt>
      <trkpt lat="46.07184" lon="2.91703">
        <ele>435.973572</ele>
        <time>2024-06-26T23:30:55.408Z</time>
      </trkpt>
      <trkpt lat="46.07215" lon="2.91678">
        <ele>439.647803</ele>
        <time>2024-06-26T23:31:13.402Z</time>
      </trkpt>
      <trkpt lat="46.07235" lon="2.91667">
        <ele>441.856956</ele>
        <time>2024-06-26T23:31:24.738Z</time>
      </trkpt>
      <trkpt lat="46.07257" lon="2.9166">
        <ele>444.083059</ele>
        <time>2024-06-26T23:31:36.668Z</time>
      </trkpt>
      <trkpt lat="46.07347" lon="2.91666">
        <ele>453.3697</ele>
        <time>2024-06-26T23:32:30.935Z</time>
      </trkpt>
      <trkpt lat="46.07363" lon="2.91681">
        <ele>455.380665</ele>
        <time>2024-06-26T23:32:42.978Z</time>
      </trkpt>
      <trkpt lat="46.07375" lon="2.91777">
        <ele>462.172859</ele>
        <time>2024-06-26T23:33:25.599Z</time>
      </trkpt>
      <trkpt lat="46.07395" lon="2.91861">
        <ele>468.39895</ele>
        <time>2024-06-26T23:34:01.130Z</time>
      </trkpt>
      <trkpt lat="46.07403" lon="2.91986">
        <ele>472.696572</ele>
        <time>2024-06-26T23:34:38.565Z</time>
      </trkpt>
      <trkpt lat="46.07407" lon="2.92004">
        <ele>472.716827</ele>
        <time>2024-06-26T23:34:42.460Z</time>
      </trkpt>
      <trkpt lat="46.07415" lon="2.92017">
        <ele>472.734239</ele>
        <time>2024-06-26T23:34:45.566Z</time>
      </trkpt>
      <trkpt lat="46.07426" lon="2.92022">
        <ele>472.752174</ele>
        <time>2024-06-26T23:34:47.926Z</time>
      </trkpt>
      <trkpt lat="46.07437" lon="2.9202">
        <ele>472.768438</ele>
        <time>2024-06-26T23:34:49.440Z</time>
      </trkpt>
      <trkpt lat="46.07448" lon="2.92014">
        <ele>472.787393</ele>
        <time>2024-06-26T23:34:51.080Z</time>
      </trkpt>
      <trkpt lat="46.07455" lon="2.92005">
        <ele>472.8016</ele>
        <time>2024-06-26T23:34:52.098Z</time>
      </trkpt>
      <trkpt lat="46.07484" lon="2.91882">
        <ele>470.8112</ele>
        <time>2024-06-26T23:35:00.504Z</time>
      </trkpt>
      <trkpt lat="46.07486" lon="2.91858">
        <ele>469.352538</ele>
        <time>2024-06-26T23:35:01.961Z</time>
      </trkpt>
      <trkpt lat="46.07475" lon="2.91804">
        <ele>465.921905</ele>
        <time>2024-06-26T23:35:05.337Z</time>
      </trkpt>
      <trkpt lat="46.07477" lon="2.91777">
        <ele>464.270617</ele>
        <time>2024-06-26T23:35:06.957Z</time>
      </trkpt>
      <trkpt lat="46.07504" lon="2.91705">
        <ele>459.328124</ele>
        <time>2024-06-26T23:35:11.806Z</time>
      </trkpt>
      <trkpt lat="46.07508" lon="2.91615">
        <ele>455.053794</ele>
        <time>2024-06-26T23:35:17.294Z</time>
      </trkpt>
      <trkpt lat="46.07513" lon="2.91588">
        <ele>453.994197</ele>
        <time>2024-06-26T23:35:19.021Z</time>
      </trkpt>
      <trkpt lat="46.0753" lon="2.91539">
        <ele>451.873053</ele>
        <time>2024-06-26T23:35:22.528Z</time>
      </trkpt>
      <trkpt lat="46.07539" lon="2.91527">
        <ele>451.207534</ele>
        <time>2024-06-26T23:35:23.649Z</time>
      </trkpt>
      <trkpt lat="46.07549" lon="2.91521">
        <ele>450.624475</ele>
        <time>2024-06-26T23:35:24.659Z</time>
      </trkpt>
      <trkpt lat="46.07595" lon="2.91519">
        <ele>448.074964</ele>
        <time>2024-06-26T23:35:29.184Z</time>
      </trkpt>
      <trkpt lat="46.07631" lon="2.91513">
        <ele>447.936828</ele>
        <time>2024-06-26T23:35:33.363Z</time>
      </trkpt>
      <trkpt lat="46.07645" lon="2.91507">
        <ele>448.421324</ele>
        <time>2024-06-26T23:35:35.798Z</time>
      </trkpt>
      <trkpt lat="46.07679" lon="2.91484">
        <ele>449.683182</ele>
        <time>2024-06-26T23:35:45.522Z</time>
      </trkpt>
      <trkpt lat="46.07702" lon="2.91474">
        <ele>450.454937</ele>
        <time>2024-06-26T23:35:53.971Z</time>
      </trkpt>
      <trkpt lat="46.07725" lon="2.91468">
        <ele>451.213667</ele>
        <time>2024-06-26T23:36:03.587Z</time>
      </trkpt>
      <trkpt lat="46.07748" lon="2.91469">
        <ele>451.977376</ele>
        <time>2024-06-26T23:36:14.198Z</time>
      </trkpt>
      <trkpt lat="46.07785" lon="2.91477">
        <ele>453.182978</ele>
        <time>2024-06-26T23:36:29.586Z</time>
      </trkpt>
      <trkpt lat="46.07811" lon="2.91488">
        <ele>453.284592</ele>
        <time>2024-06-26T23:36:37.695Z</time>
      </trkpt>
      <trkpt lat="46.0782" lon="2.91499">
        <ele>453.327275</ele>
        <time>2024-06-26T23:36:39.828Z</time>
      </trkpt>
      <trkpt lat="46.07825" lon="2.91511">
        <ele>453.362311</ele>
        <time>2024-06-26T23:36:42.448Z</time>
      </trkpt>
      <trkpt lat="46.07826" lon="2.9153">
        <ele>453.410518</ele>
        <time>2024-06-26T23:36:44.843Z</time>
      </trkpt>
      <trkpt lat="46.07824" lon="2.91613">
        <ele>453.622542</ele>
        <time>2024-06-26T23:36:52.300Z</time>
      </trkpt>
      <trkpt lat="46.07829" lon="2.91632">
        <ele>453.67429</ele>
        <time>2024-06-26T23:36:53.936Z</time>
      </trkpt>
      <trkpt lat="46.0784" lon="2.91644">
        <ele>453.72535</ele>
        <time>2024-06-26T23:36:55.388Z</time>
      </trkpt>
      <trkpt lat="46.07857" lon="2.91647">
        <ele>453.789742</ele>
        <time>2024-06-26T23:36:57.543Z</time>
      </trkpt>
      <trkpt lat="46.07876" lon="2.91637">
        <ele>453.546573</ele>
        <time>2024-06-26T23:36:59.660Z</time>
      </trkpt>
      <trkpt lat="46.0793" lon="2.91589">
        <ele>450.540468</ele>
        <time>2024-06-26T23:37:05.906Z</time>
      </trkpt>
      <trkpt lat="46.07952" lon="2.91578">
        <ele>449.394927</ele>
        <time>2024-06-26T23:37:08.076Z</time>
      </trkpt>
      <trkpt lat="46.07965" lon="2.91576">
        <ele>448.816751</ele>
        <time>2024-06-26T23:37:09.134Z</time>
      </trkpt>
      <trkpt lat="46.0798" lon="2.91576">
        <ele>448.08436</ele>
        <time>2024-06-26T23:37:10.479Z</time>
      </trkpt>
      <trkpt lat="46.08014" lon="2.91583">
        <ele>446.443807</ele>
        <time>2024-06-26T23:37:13.625Z</time>
      </trkpt>
      <trkpt lat="46.08043" lon="2.91594">
        <ele>445.20693</ele>
        <time>2024-06-26T23:37:16.530Z</time>
      </trkpt>
      <trkpt lat="46.08075" lon="2.91611">
        <ele>444.713882</ele>
        <time>2024-06-26T23:37:20.065Z</time>
      </trkpt>
      <trkpt lat="46.08116" lon="2.91638">
        <ele>444.053312</ele>
        <time>2024-06-26T23:37:25.834Z</time>
      </trkpt>
      <trkpt lat="46.08158" lon="2.91683">
        <ele>443.291713</ele>
        <time>2024-06-26T23:37:33.473Z</time>
      </trkpt>
      <trkpt lat="46.08192" lon="2.91729">
        <ele>442.616813</ele>
        <time>2024-06-26T23:37:39.759Z</time>
      </trkpt>
      <trkpt lat="46.08326" lon="2.91943">
        <ele>439.128634</ele>
        <time>2024-06-26T23:38:03.910Z</time>
      </trkpt>
      <trkpt lat="46.08352" lon="2.91966">
        <ele>437.472647</ele>
        <time>2024-06-26T23:38:06.914Z</time>
      </trkpt>
      <trkpt lat="46.08468" lon="2.92049">
        <ele>430.490533</ele>
        <time>2024-06-26T23:38:18.503Z</time>
      </trkpt>
      <trkpt lat="46.08499" lon="2.92062">
        <ele>429.358428</ele>
        <time>2024-06-26T23:38:21.391Z</time>
      </trkpt>
      <trkpt lat="46.08522" lon="2.92078">
        <ele>428.484622</ele>
        <time>2024-06-26T23:38:23.698Z</time>
      </trkpt>
      <trkpt lat="46.08565" lon="2.92115">
        <ele>426.716071</ele>
        <time>2024-06-26T23:38:28.774Z</time>
      </trkpt>
      <trkpt lat="46.08593" lon="2.92144">
        <ele>425.513521</ele>
        <time>2024-06-26T23:38:32.670Z</time>
      </trkpt>
      <trkpt lat="46.08615" lon="2.92182">
        <ele>424.326669</ele>
        <time>2024-06-26T23:38:36.894Z</time>
      </trkpt>
      <trkpt lat="46.08641" lon="2.9229">
        <ele>424.560837</ele>
        <time>2024-06-26T23:38:51.763Z</time>
      </trkpt>
      <trkpt lat="46.08647" lon="2.92309">
        <ele>424.602433</ele>
        <time>2024-06-26T23:38:55.376Z</time>
      </trkpt>
      <trkpt lat="46.08665" lon="2.92344">
        <ele>424.69108</ele>
        <time>2024-06-26T23:39:02.534Z</time>
      </trkpt>
      <trkpt lat="46.08668" lon="2.92351">
        <ele>424.708908</ele>
        <time>2024-06-26T23:39:04.059Z</time>
      </trkpt>
      <trkpt lat="46.08691" lon="2.92395">
        <ele>424.821952</ele>
        <time>2024-06-26T23:39:11.762Z</time>
      </trkpt>
      <trkpt lat="46.08752" lon="2.92583">
        <ele>418.066475</ele>
        <time>2024-06-26T23:39:25.756Z</time>
      </trkpt>
      <trkpt lat="46.08768" lon="2.92625">
        <ele>416.358103</ele>
        <time>2024-06-26T23:39:28.659Z</time>
      </trkpt>
      <trkpt lat="46.0879" lon="2.92671">
        <ele>413.242963</ele>
        <time>2024-06-26T23:39:32.014Z</time>
      </trkpt>
      <trkpt lat="46.088" lon="2.92683">
        <ele>411.955511</ele>
        <time>2024-06-26T23:39:33.156Z</time>
      </trkpt>
      <trkpt lat="46.08812" lon="2.92692">
        <ele>410.643385</ele>
        <time>2024-06-26T23:39:34.322Z</time>
      </trkpt>
      <trkpt lat="46.08838" lon="2.92704">
        <ele>408.005166</ele>
        <time>2024-06-26T23:39:36.648Z</time>
      </trkpt>
      <trkpt lat="46.08893" lon="2.92715">
        <ele>402.692079</ele>
        <time>2024-06-26T23:39:41.327Z</time>
      </trkpt>
      <trkpt lat="46.09006" lon="2.92706">
        <ele>393.609826</ele>
        <time>2024-06-26T23:39:51.182Z</time>
      </trkpt>
      <trkpt lat="46.09033" lon="2.92699">
        <ele>391.712279</ele>
        <time>2024-06-26T23:39:53.665Z</time>
      </trkpt>
      <trkpt lat="46.09108" lon="2.92674">
        <ele>386.481105</ele>
        <time>2024-06-26T23:40:00.735Z</time>
      </trkpt>
      <trkpt lat="46.09129" lon="2.92661">
        <ele>385.725724</ele>
        <time>2024-06-26T23:40:03.013Z</time>
      </trkpt>
      <trkpt lat="46.09137" lon="2.92654">
        <ele>385.631866</ele>
        <time>2024-06-26T23:40:03.950Z</time>
      </trkpt>
      <trkpt lat="46.09181" lon="2.92617">
        <ele>385.109317</ele>
        <time>2024-06-26T23:40:09.588Z</time>
      </trkpt>
      <trkpt lat="46.09244" lon="2.92582">
        <ele>384.429612</ele>
        <time>2024-06-26T23:40:20.442Z</time>
      </trkpt>
      <trkpt lat="46.09303" lon="2.92527">
        <ele>384.588702</ele>
        <time>2024-06-26T23:40:33.234Z</time>
      </trkpt>
      <trkpt lat="46.09322" lon="2.92517">
        <ele>384.924276</ele>
        <time>2024-06-26T23:40:37.398Z</time>
      </trkpt>
      <trkpt lat="46.09324" lon="2.92517">
        <ele>384.951467</ele>
        <time>2024-06-26T23:40:37.751Z</time>
      </trkpt>
      <trkpt lat="46.09329" lon="2.92518">
        <ele>385.032191</ele>
        <time>2024-06-26T23:40:38.973Z</time>
      </trkpt>
      <trkpt lat="46.09333" lon="2.9252">
        <ele>385.104342</ele>
        <time>2024-06-26T23:40:40.088Z</time>
      </trkpt>
      <trkpt lat="46.09337" lon="2.92523">
        <ele>385.181147</ele>
        <time>2024-06-26T23:40:41.173Z</time>
      </trkpt>
      <trkpt lat="46.09339" lon="2.92525">
        <ele>385.218906</ele>
        <time>2024-06-26T23:40:41.685Z</time>
      </trkpt>
      <trkpt lat="46.09346" lon="2.92543">
        <ele>385.454599</ele>
        <time>2024-06-26T23:40:45.025Z</time>
      </trkpt>
      <trkpt lat="46.09348" lon="2.92565">
        <ele>385.707398</ele>
        <time>2024-06-26T23:40:48.597Z</time>
      </trkpt>
      <trkpt lat="46.09354" lon="2.92704">
        <ele>387.048412</ele>
        <time>2024-06-26T23:41:10.902Z</time>
      </trkpt>
      <trkpt lat="46.09352" lon="2.92722">
        <ele>387.060532</ele>
        <time>2024-06-26T23:41:13.937Z</time>
      </trkpt>
      <trkpt lat="46.0935" lon="2.9273">
        <ele>387.066436</ele>
        <time>2024-06-26T23:41:15.320Z</time>
      </trkpt>
      <trkpt lat="46.09337" lon="2.92747">
        <ele>387.082855</ele>
        <time>2024-06-26T23:41:18.741Z</time>
      </trkpt>
      <trkpt lat="46.09279" lon="2.92782">
        <ele>387.142597</ele>
        <time>2024-06-26T23:41:27.453Z</time>
      </trkpt>
      <trkpt lat="46.09164" lon="2.92867">
        <ele>385.03371</ele>
        <time>2024-06-26T23:41:42.987Z</time>
      </trkpt>
      <trkpt lat="46.09129" lon="2.92902">
        <ele>383.616624</ele>
        <time>2024-06-26T23:41:47.308Z</time>
      </trkpt>
      <trkpt lat="46.09115" lon="2.92926">
        <ele>382.899395</ele>
        <time>2024-06-26T23:41:49.414Z</time>
      </trkpt>
      <trkpt lat="46.09116" lon="2.92954">
        <ele>382.266566</ele>
        <time>2024-06-26T23:41:51.233Z</time>
      </trkpt>
      <trkpt lat="46.09125" lon="2.92969">
        <ele>381.818448</ele>
        <time>2024-06-26T23:41:52.487Z</time>
      </trkpt>
      <trkpt lat="46.09131" lon="2.92975">
        <ele>381.558894</ele>
        <time>2024-06-26T23:41:53.219Z</time>
      </trkpt>
      <trkpt lat="46.09142" lon="2.92977">
        <ele>381.196316</ele>
        <time>2024-06-26T23:41:54.176Z</time>
      </trkpt>
      <trkpt lat="46.09182" lon="2.92959">
        <ele>378.761981</ele>
        <time>2024-06-26T23:41:57.996Z</time>
      </trkpt>
      <trkpt lat="46.09342" lon="2.9291">
        <ele>370.506993</ele>
        <time>2024-06-26T23:42:12.933Z</time>
      </trkpt>
      <trkpt lat="46.09373" lon="2.92907">
        <ele>370.061663</ele>
        <time>2024-06-26T23:42:16.818Z</time>
      </trkpt>
      <trkpt lat="46.09386" lon="2.92911">
        <ele>369.868303</ele>
        <time>2024-06-26T23:42:19.098Z</time>
      </trkpt>
      <trkpt lat="46.09396" lon="2.92922">
        <ele>369.687977</ele>
        <time>2024-06-26T23:42:21.027Z</time>
      </trkpt>
      <trkpt lat="46.09401" lon="2.92937">
        <ele>369.519042</ele>
        <time>2024-06-26T23:42:22.372Z</time>
      </trkpt>
      <trkpt lat="46.09411" lon="2.92986">
        <ele>369.005351</ele>
        <time>2024-06-26T23:42:27.544Z</time>
      </trkpt>
      <trkpt lat="46.09432" lon="2.93065">
        <ele>368.206251</ele>
        <time>2024-06-26T23:42:36.719Z</time>
      </trkpt>
      <trkpt lat="46.09447" lon="2.93098">
        <ele>367.955426</ele>
        <time>2024-06-26T23:42:40.417Z</time>
      </trkpt>
      <trkpt lat="46.09467" lon="2.93129">
        <ele>367.691503</ele>
        <time>2024-06-26T23:42:44.194Z</time>
      </trkpt>
      <trkpt lat="46.09512" lon="2.93168">
        <ele>367.217989</ele>
        <time>2024-06-26T23:42:52.552Z</time>
      </trkpt>
      <trkpt lat="46.09605" lon="2.93205">
        <ele>365.847986</ele>
        <time>2024-06-26T23:43:02.781Z</time>
      </trkpt>
      <trkpt lat="46.09689" lon="2.93261">
        <ele>363.696424</ele>
        <time>2024-06-26T23:43:12.336Z</time>
      </trkpt>
      <trkpt lat="46.09729" lon="2.93274">
        <ele>362.746596</ele>
        <time>2024-06-26T23:43:16.871Z</time>
      </trkpt>
      <trkpt lat="46.09827" lon="2.93289">
        <ele>361.076277</ele>
        <time>2024-06-26T23:43:28.963Z</time>
      </trkpt>
      <trkpt lat="46.09847" lon="2.9329">
        <ele>360.741874</ele>
        <time>2024-06-26T23:43:31.555Z</time>
      </trkpt>
      <trkpt lat="46.09927" lon="2.93267">
        <ele>359.451336</ele>
        <time>2024-06-26T23:43:40.269Z</time>
      </trkpt>
      <trkpt lat="46.09983" lon="2.93233">
        <ele>358.679341</ele>
        <time>2024-06-26T23:43:46.683Z</time>
      </trkpt>
      <trkpt lat="46.1" lon="2.93222">
        <ele>358.433066</ele>
        <time>2024-06-26T23:43:48.690Z</time>
      </trkpt>
      <trkpt lat="46.10062" lon="2.93156">
        <ele>357.445013</ele>
        <time>2024-06-26T23:43:58.524Z</time>
      </trkpt>
      <trkpt lat="46.10104" lon="2.93115">
        <ele>358.38805</ele>
        <time>2024-06-26T23:44:07.171Z</time>
      </trkpt>
      <trkpt lat="46.10103" lon="2.93114">
        <ele>358.444585</ele>
        <time>2024-06-26T23:44:07.367Z</time>
      </trkpt>
      <trkpt lat="46.10083" lon="2.93072">
        <ele>359.54933</ele>
        <time>2024-06-26T23:44:14.979Z</time>
      </trkpt>
      <trkpt lat="46.10028" lon="2.92938">
        <ele>362.914504</ele>
        <time>2024-06-26T23:44:51.546Z</time>
      </trkpt>
      <trkpt lat="46.10021" lon="2.92908">
        <ele>363.416059</ele>
        <time>2024-06-26T23:45:00.199Z</time>
      </trkpt>
      <trkpt lat="46.10019" lon="2.92883">
        <ele>363.800626</ele>
        <time>2024-06-26T23:45:06.818Z</time>
      </trkpt>
      <trkpt lat="46.10025" lon="2.92797">
        <ele>365.133354</ele>
        <time>2024-06-26T23:45:23.083Z</time>
      </trkpt>
      <trkpt lat="46.1003" lon="2.92779">
        <ele>365.422042</ele>
        <time>2024-06-26T23:45:26.255Z</time>
      </trkpt>
      <trkpt lat="46.10042" lon="2.9267">
        <ele>366.63187</ele>
        <time>2024-06-26T23:45:37.995Z</time>
      </trkpt>
      <trkpt lat="46.10052" lon="2.92676">
        <ele>366.331395</ele>
        <time>2024-06-26T23:45:39.149Z</time>
      </trkpt>
      <trkpt lat="46.10063" lon="2.92682">
        <ele>366.013046</ele>
        <time>2024-06-26T23:45:40.382Z</time>
      </trkpt>
      <trkpt lat="46.1007" lon="2.92693">
        <ele>365.732226</ele>
        <time>2024-06-26T23:45:41.522Z</time>
      </trkpt>
      <trkpt lat="46.10073" lon="2.92707">
        <ele>365.449421</ele>
        <time>2024-06-26T23:45:42.538Z</time>
      </trkpt>
      <trkpt lat="46.10072" lon="2.92747">
        <ele>364.696678</ele>
        <time>2024-06-26T23:45:45.280Z</time>
      </trkpt>
      <trkpt lat="46.1007" lon="2.92849">
        <ele>362.786665</ele>
        <time>2024-06-26T23:45:52.205Z</time>
      </trkpt>
      <trkpt lat="46.10074" lon="2.92867">
        <ele>362.413462</ele>
        <time>2024-06-26T23:45:53.549Z</time>
      </trkpt>
      <trkpt lat="46.10082" lon="2.92883">
        <ele>362.045597</ele>
        <time>2024-06-26T23:45:54.932Z</time>
      </trkpt>
      <trkpt lat="46.10091" lon="2.92894">
        <ele>361.910632</ele>
        <time>2024-06-26T23:45:56.241Z</time>
      </trkpt>
      <trkpt lat="46.10103" lon="2.929">
        <ele>361.784559</ele>
        <time>2024-06-26T23:45:57.625Z</time>
      </trkpt>
      <trkpt lat="46.10129" lon="2.92902">
        <ele>361.520396</ele>
        <time>2024-06-26T23:46:00.696Z</time>
      </trkpt>
      <trkpt lat="46.102" lon="2.92907">
        <ele>360.795427</ele>
        <time>2024-06-26T23:46:09.701Z</time>
      </trkpt>
      <trkpt lat="46.10264" lon="2.92909">
        <ele>360.135393</ele>
        <time>2024-06-26T23:46:19.176Z</time>
      </trkpt>
      <trkpt lat="46.1029" lon="2.92915">
        <ele>359.88429</ele>
        <time>2024-06-26T23:46:23.036Z</time>
      </trkpt>
      <trkpt lat="46.10342" lon="2.92936">
        <ele>359.358725</ele>
        <time>2024-06-26T23:46:30.374Z</time>
      </trkpt>
      <trkpt lat="46.10404" lon="2.92975">
        <ele>358.711331</ele>
        <time>2024-06-26T23:46:38.263Z</time>
      </trkpt>
      <trkpt lat="46.10588" lon="2.93137">
        <ele>354.857085</ele>
        <time>2024-06-26T23:47:01.683Z</time>
      </trkpt>
      <trkpt lat="46.10632" lon="2.93195">
        <ele>354.400314</ele>
        <time>2024-06-26T23:47:08.798Z</time>
      </trkpt>
      <trkpt lat="46.10663" lon="2.93256">
        <ele>353.995251</ele>
        <time>2024-06-26T23:47:15.729Z</time>
      </trkpt>
      <trkpt lat="46.10671" lon="2.93275">
        <ele>353.881867</ele>
        <time>2024-06-26T23:47:17.745Z</time>
      </trkpt>
      <trkpt lat="46.10677" lon="2.93313">
        <ele>353.673201</ele>
        <time>2024-06-26T23:47:21.674Z</time>
      </trkpt>
      <trkpt lat="46.1068" lon="2.93383">
        <ele>353.646371</ele>
        <time>2024-06-26T23:47:29.182Z</time>
      </trkpt>
      <trkpt lat="46.10675" lon="2.9342">
        <ele>353.729685</ele>
        <time>2024-06-26T23:47:33.192Z</time>
      </trkpt>
      <trkpt lat="46.1067" lon="2.93438">
        <ele>353.775462</ele>
        <time>2024-06-26T23:47:35.394Z</time>
      </trkpt>
      <trkpt lat="46.10614" lon="2.93539">
        <ele>354.065978</ele>
        <time>2024-06-26T23:47:49.358Z</time>
      </trkpt>
      <trkpt lat="46.10603" lon="2.93554">
        <ele>354.115799</ele>
        <time>2024-06-26T23:47:51.896Z</time>
      </trkpt>
      <trkpt lat="46.10582" lon="2.93576">
        <ele>354.594674</ele>
        <time>2024-06-26T23:47:56.818Z</time>
      </trkpt>
      <trkpt lat="46.10567" lon="2.93597">
        <ele>355.027222</ele>
        <time>2024-06-26T23:48:01.127Z</time>
      </trkpt>
      <trkpt lat="46.10554" lon="2.93632">
        <ele>355.583044</ele>
        <time>2024-06-26T23:48:07.010Z</time>
      </trkpt>
      <trkpt lat="46.10532" lon="2.93718">
        <ele>356.899582</ele>
        <time>2024-06-26T23:48:23.006Z</time>
      </trkpt>
      <trkpt lat="46.1053" lon="2.93737">
        <ele>357.183459</ele>
        <time>2024-06-26T23:48:26.447Z</time>
      </trkpt>
      <trkpt lat="46.10531" lon="2.93757">
        <ele>357.463787</ele>
        <time>2024-06-26T23:48:30.048Z</time>
      </trkpt>
      <trkpt lat="46.10545" lon="2.93795">
        <ele>358.058864</ele>
        <time>2024-06-26T23:48:38.036Z</time>
      </trkpt>
      <trkpt lat="46.10557" lon="2.93815">
        <ele>358.381735</ele>
        <time>2024-06-26T23:48:42.865Z</time>
      </trkpt>
      <trkpt lat="46.1061" lon="2.93867">
        <ele>359.522471</ele>
        <time>2024-06-26T23:48:59.729Z</time>
      </trkpt>
      <trkpt lat="46.10704" lon="2.93976">
        <ele>360.543955</ele>
        <time>2024-06-26T23:49:21.770Z</time>
      </trkpt>
      <trkpt lat="46.1072" lon="2.93995">
        <ele>360.244794</ele>
        <time>2024-06-26T23:49:24.161Z</time>
      </trkpt>
      <trkpt lat="46.10746" lon="2.94038">
        <ele>359.665412</ele>
        <time>2024-06-26T23:49:28.443Z</time>
      </trkpt>
      <trkpt lat="46.10802" lon="2.94111">
        <ele>358.550389</ele>
        <time>2024-06-26T23:49:36.560Z</time>
      </trkpt>
      <trkpt lat="46.10818" lon="2.94152">
        <ele>358.021618</ele>
        <time>2024-06-26T23:49:40.038Z</time>
      </trkpt>
      <trkpt lat="46.10822" lon="2.94179">
        <ele>357.70475</ele>
        <time>2024-06-26T23:49:42.044Z</time>
      </trkpt>
      <trkpt lat="46.10823" lon="2.94234">
        <ele>357.06228</ele>
        <time>2024-06-26T23:49:46.154Z</time>
      </trkpt>
      <trkpt lat="46.10843" lon="2.94327">
        <ele>355.923797</ele>
        <time>2024-06-26T23:49:53.783Z</time>
      </trkpt>
      <trkpt lat="46.10864" lon="2.94381">
        <ele>355.397533</ele>
        <time>2024-06-26T23:49:59.098Z</time>
      </trkpt>
      <trkpt lat="46.10895" lon="2.94446">
        <ele>355.476945</ele>
        <time>2024-06-26T23:50:06.695Z</time>
      </trkpt>
      <trkpt lat="46.10962" lon="2.94689">
        <ele>355.577968</ele>
        <time>2024-06-26T23:50:38.443Z</time>
      </trkpt>
      <trkpt lat="46.11003" lon="2.94801">
        <ele>355.49057</ele>
        <time>2024-06-26T23:50:50.651Z</time>
      </trkpt>
      <trkpt lat="46.11043" lon="2.94908">
        <ele>354.378861</ele>
        <time>2024-06-26T23:51:00.664Z</time>
      </trkpt>
      <trkpt lat="46.11049" lon="2.94935">
        <ele>354.014</ele>
        <time>2024-06-26T23:51:02.912Z</time>
      </trkpt>
      <trkpt lat="46.11057" lon="2.95001">
        <ele>353.160198</ele>
        <time>2024-06-26T23:51:07.846Z</time>
      </trkpt>
      <trkpt lat="46.11072" lon="2.95069">
        <ele>352.246882</ele>
        <time>2024-06-26T23:51:13.042Z</time>
      </trkpt>
      <trkpt lat="46.11091" lon="2.95183">
        <ele>350.697442</ele>
        <time>2024-06-26T23:51:22.104Z</time>
      </trkpt>
      <trkpt lat="46.11095" lon="2.95214">
        <ele>350.279823</ele>
        <time>2024-06-26T23:51:24.595Z</time>
      </trkpt>
      <trkpt lat="46.111" lon="2.95353">
        <ele>348.385693</ele>
        <time>2024-06-26T23:51:35.284Z</time>
      </trkpt>
      <trkpt lat="46.11095" lon="2.95409">
        <ele>347.524409</ele>
        <time>2024-06-26T23:51:39.516Z</time>
      </trkpt>
      <trkpt lat="46.11096" lon="2.95455">
        <ele>346.826911</ele>
        <time>2024-06-26T23:51:42.928Z</time>
      </trkpt>
      <trkpt lat="46.11098" lon="2.95478">
        <ele>346.470899</ele>
        <time>2024-06-26T23:51:44.669Z</time>
      </trkpt>
      <trkpt lat="46.11108" lon="2.9552">
        <ele>345.800427</ele>
        <time>2024-06-26T23:51:47.924Z</time>
      </trkpt>
      <trkpt lat="46.11119" lon="2.95551">
        <ele>345.254276</ele>
        <time>2024-06-26T23:51:50.555Z</time>
      </trkpt>
      <trkpt lat="46.11154" lon="2.95626">
        <ele>344.481223</ele>
        <time>2024-06-26T23:51:57.248Z</time>
      </trkpt>
      <trkpt lat="46.11181" lon="2.95663">
        <ele>344.218679</ele>
        <time>2024-06-26T23:52:01.568Z</time>
      </trkpt>
      <trkpt lat="46.11225" lon="2.95704">
        <ele>343.8584</ele>
        <time>2024-06-26T23:52:08.538Z</time>
      </trkpt>
      <trkpt lat="46.11298" lon="2.95744">
        <ele>343.866487</ele>
        <time>2024-06-26T23:52:22.513Z</time>
      </trkpt>
      <trkpt lat="46.1133" lon="2.95756">
        <ele>344.316265</ele>
        <time>2024-06-26T23:52:29.257Z</time>
      </trkpt>
      <trkpt lat="46.11364" lon="2.95762">
        <ele>344.783814</ele>
        <time>2024-06-26T23:52:36.512Z</time>
      </trkpt>
      <trkpt lat="46.11472" lon="2.95771">
        <ele>346.275405</ele>
        <time>2024-06-26T23:52:59.643Z</time>
      </trkpt>
      <trkpt lat="46.11602" lon="2.9579">
        <ele>348.148692</ele>
        <time>2024-06-26T23:53:27.274Z</time>
      </trkpt>
      <trkpt lat="46.11748" lon="2.95791">
        <ele>348.964291</ele>
        <time>2024-06-26T23:53:53.580Z</time>
      </trkpt>
      <trkpt lat="46.11773" lon="2.95797">
        <ele>349.053834</ele>
        <time>2024-06-26T23:53:57.140Z</time>
      </trkpt>
      <trkpt lat="46.11801" lon="2.95819">
        <ele>349.171235</ele>
        <time>2024-06-26T23:54:01.315Z</time>
      </trkpt>
      <trkpt lat="46.11925" lon="2.95956">
        <ele>348.05293</ele>
        <time>2024-06-26T23:54:20.754Z</time>
      </trkpt>
      <trkpt lat="46.11972" lon="2.96002">
        <ele>347.736535</ele>
        <time>2024-06-26T23:54:28.196Z</time>
      </trkpt>
      <trkpt lat="46.12028" lon="2.96073">
        <ele>347.443641</ele>
        <time>2024-06-26T23:54:38.127Z</time>
      </trkpt>
      <trkpt lat="46.12045" lon="2.961">
        <ele>347.34101</ele>
        <time>2024-06-26T23:54:41.731Z</time>
      </trkpt>
      <trkpt lat="46.12079" lon="2.96169">
        <ele>347.103424</ele>
        <time>2024-06-26T23:54:50.372Z</time>
      </trkpt>
      <trkpt lat="46.12123" lon="2.96216">
        <ele>346.859372</ele>
        <time>2024-06-26T23:54:57.750Z</time>
      </trkpt>
      <trkpt lat="46.12151" lon="2.96257">
        <ele>346.684878</ele>
        <time>2024-06-26T23:55:02.668Z</time>
      </trkpt>
      <trkpt lat="46.1218" lon="2.96307">
        <ele>346.485363</ele>
        <time>2024-06-26T23:55:08.608Z</time>
      </trkpt>
      <trkpt lat="46.12207" lon="2.96365">
        <ele>346.250324</ele>
        <time>2024-06-26T23:55:15.361Z</time>
      </trkpt>
      <trkpt lat="46.12214" lon="2.96407">
        <ele>346.086525</ele>
        <time>2024-06-26T23:55:19.532Z</time>
      </trkpt>
      <trkpt lat="46.12213" lon="2.96748">
        <ele>344.517654</ele>
        <time>2024-06-26T23:55:50.152Z</time>
      </trkpt>
      <trkpt lat="46.12206" lon="2.96803">
        <ele>344.20409</ele>
        <time>2024-06-26T23:55:54.663Z</time>
      </trkpt>
      <trkpt lat="46.12198" lon="2.96828">
        <ele>344.04703</ele>
        <time>2024-06-26T23:55:56.942Z</time>
      </trkpt>
      <trkpt lat="46.12169" lon="2.9689">
        <ele>344.08472</ele>
        <time>2024-06-26T23:56:03.331Z</time>
      </trkpt>
      <trkpt lat="46.1216" lon="2.96926">
        <ele>344.232585</ele>
        <time>2024-06-26T23:56:06.943Z</time>
      </trkpt>
      <trkpt lat="46.12159" lon="2.96947">
        <ele>344.312431</ele>
        <time>2024-06-26T23:56:08.971Z</time>
      </trkpt>
      <trkpt lat="46.12159" lon="2.96968">
        <ele>344.395055</ele>
        <time>2024-06-26T23:56:11.100Z</time>
      </trkpt>
      <trkpt lat="46.12172" lon="2.97048">
        <ele>344.713704</ele>
        <time>2024-06-26T23:56:21.745Z</time>
      </trkpt>
      <trkpt lat="46.12181" lon="2.97074">
        <ele>344.824352</ele>
        <time>2024-06-26T23:56:26.135Z</time>
      </trkpt>
      <trkpt lat="46.12202" lon="2.97109">
        <ele>345.547303</ele>
        <time>2024-06-26T23:56:34.214Z</time>
      </trkpt>
      <trkpt lat="46.12212" lon="2.97123">
        <ele>346.022608</ele>
        <time>2024-06-26T23:56:38.109Z</time>
      </trkpt>
      <trkpt lat="46.12215" lon="2.97127">
        <ele>346.164671</ele>
        <time>2024-06-26T23:56:39.156Z</time>
      </trkpt>
      <trkpt lat="46.12223" lon="2.97146">
        <ele>346.713546</ele>
        <time>2024-06-26T23:56:43.535Z</time>
      </trkpt>
      <trkpt lat="46.12224" lon="2.97217">
        <ele>348.423026</ele>
        <time>2024-06-26T23:56:58.742Z</time>
      </trkpt>
      <trkpt lat="46.12236" lon="2.97254">
        <ele>349.416408</ele>
        <time>2024-06-26T23:57:07.673Z</time>
      </trkpt>
      <trkpt lat="46.12325" lon="2.97357">
        <ele>353.245501</ele>
        <time>2024-06-26T23:57:41.805Z</time>
      </trkpt>
      <trkpt lat="46.12357" lon="2.97406">
        <ele>354.767205</ele>
        <time>2024-06-26T23:57:54.676Z</time>
      </trkpt>
      <trkpt lat="46.12371" lon="2.97437">
        <ele>355.597604</ele>
        <time>2024-06-26T23:58:01.642Z</time>
      </trkpt>
      <trkpt lat="46.12412" lon="2.97493">
        <ele>357.228493</ele>
        <time>2024-06-26T23:58:16.893Z</time>
      </trkpt>
      <trkpt lat="46.12421" lon="2.97502">
        <ele>357.388653</ele>
        <time>2024-06-26T23:58:19.487Z</time>
      </trkpt>
      <trkpt lat="46.12447" lon="2.97518">
        <ele>357.799659</ele>
        <time>2024-06-26T23:58:26.004Z</time>
      </trkpt>
      <trkpt lat="46.12498" lon="2.97533">
        <ele>358.559161</ele>
        <time>2024-06-26T23:58:36.711Z</time>
      </trkpt>
      <trkpt lat="46.12512" lon="2.97544">
        <ele>358.78003</ele>
        <time>2024-06-26T23:58:39.802Z</time>
      </trkpt>
      <trkpt lat="46.12533" lon="2.9758">
        <ele>359.257964</ele>
        <time>2024-06-26T23:58:46.291Z</time>
      </trkpt>
      <trkpt lat="46.12537" lon="2.97593">
        <ele>359.405642</ele>
        <time>2024-06-26T23:58:48.292Z</time>
      </trkpt>
      <trkpt lat="46.12542" lon="2.97638">
        <ele>359.421047</ele>
        <time>2024-06-26T23:58:53.722Z</time>
      </trkpt>
      <trkpt lat="46.12553" lon="2.97671">
        <ele>358.935311</ele>
        <time>2024-06-26T23:58:57.232Z</time>
      </trkpt>
      <trkpt lat="46.12558" lon="2.97721">
        <ele>358.285474</ele>
        <time>2024-06-26T23:59:01.181Z</time>
      </trkpt>
      <trkpt lat="46.12551" lon="2.97783">
        <ele>357.474257</ele>
        <time>2024-06-26T23:59:05.718Z</time>
      </trkpt>
      <trkpt lat="46.12551" lon="2.97795">
        <ele>357.325755</ele>
        <time>2024-06-26T23:59:06.544Z</time>
      </trkpt>
      <trkpt lat="46.12555" lon="2.97815">
        <ele>357.053751</ele>
        <time>2024-06-26T23:59:08.056Z</time>
      </trkpt>
      <trkpt lat="46.12555" lon="2.97822">
        <ele>356.959441</ele>
        <time>2024-06-26T23:59:08.575Z</time>
      </trkpt>
      <trkpt lat="46.12545" lon="2.97854">
        <ele>356.504356</ele>
        <time>2024-06-26T23:59:11.052Z</time>
      </trkpt>
      <trkpt lat="46.12531" lon="2.97884">
        <ele>355.828427</ele>
        <time>2024-06-26T23:59:13.610Z</time>
      </trkpt>
      <trkpt lat="46.12523" lon="2.97894">
        <ele>355.479894</ele>
        <time>2024-06-26T23:59:14.707Z</time>
      </trkpt>
      <trkpt lat="46.12506" lon="2.97902">
        <ele>354.915043</ele>
        <time>2024-06-26T23:59:16.453Z</time>
      </trkpt>
      <trkpt lat="46.125" lon="2.97905">
        <ele>354.71224</ele>
        <time>2024-06-26T23:59:17.084Z</time>
      </trkpt>
      <trkpt lat="46.12492" lon="2.9791">
        <ele>354.432425</ele>
        <time>2024-06-26T23:59:17.955Z</time>
      </trkpt>
      <trkpt lat="46.12483" lon="2.97937">
        <ele>353.756577</ele>
        <time>2024-06-26T23:59:20.020Z</time>
      </trkpt>
      <trkpt lat="46.12482" lon="2.97959">
        <ele>353.263586</ele>
        <time>2024-06-26T23:59:21.544Z</time>
      </trkpt>
      <trkpt lat="46.12486" lon="2.97997">
        <ele>352.399348</ele>
        <time>2024-06-26T23:59:24.212Z</time>
      </trkpt>
      <trkpt lat="46.12485" lon="2.98015">
        <ele>351.981286</ele>
        <time>2024-06-26T23:59:25.433Z</time>
      </trkpt>
      <trkpt lat="46.1248" lon="2.98033">
        <ele>351.550063</ele>
        <time>2024-06-26T23:59:26.738Z</time>
      </trkpt>
      <trkpt lat="46.12466" lon="2.98064">
        <ele>350.730264</ele>
        <time>2024-06-26T23:59:29.313Z</time>
      </trkpt>
      <trkpt lat="46.12465" lon="2.98075">
        <ele>350.48787</ele>
        <time>2024-06-26T23:59:30.099Z</time>
      </trkpt>
      <trkpt lat="46.12467" lon="2.98089">
        <ele>350.347543</ele>
        <time>2024-06-26T23:59:31.218Z</time>
      </trkpt>
      <trkpt lat="46.12483" lon="2.98147">
        <ele>349.779792</ele>
        <time>2024-06-26T23:59:36.022Z</time>
      </trkpt>
      <trkpt lat="46.12494" lon="2.98169">
        <ele>349.529695</ele>
        <time>2024-06-26T23:59:38.461Z</time>
      </trkpt>
      <trkpt lat="46.125" lon="2.98185">
        <ele>349.362927</ele>
        <time>2024-06-26T23:59:40.310Z</time>
      </trkpt>
      <trkpt lat="46.12499" lon="2.98193">
        <ele>349.287294</ele>
        <time>2024-06-26T23:59:41.045Z</time>
      </trkpt>
      <trkpt lat="46.12497" lon="2.98198">
        <ele>349.234068</ele>
        <time>2024-06-26T23:59:41.574Z</time>
      </trkpt>
      <trkpt lat="46.12483" lon="2.98214">
        <ele>348.98878</ele>
        <time>2024-06-26T23:59:43.725Z</time>
      </trkpt>
      <trkpt lat="46.1247" lon="2.98237">
        <ele>348.719373</ele>
        <time>2024-06-26T23:59:46.359Z</time>
      </trkpt>
      <trkpt lat="46.12467" lon="2.9825">
        <ele>348.589828</ele>
        <time>2024-06-26T23:59:47.473Z</time>
      </trkpt>
      <trkpt lat="46.12467" lon="2.98274">
        <ele>348.373734</ele>
        <time>2024-06-26T23:59:49.461Z</time>
      </trkpt>
      <trkpt lat="46.12469" lon="2.98289">
        <ele>348.232807</ele>
        <time>2024-06-26T23:59:50.719Z</time>
      </trkpt>
      <trkpt lat="46.12475" lon="2.98302">
        <ele>348.097245</ele>
        <time>2024-06-26T23:59:51.940Z</time>
      </trkpt>
      <trkpt lat="46.12478" lon="2.98309">
        <ele>348.063458</ele>
        <time>2024-06-26T23:59:52.648Z</time>
      </trkpt>
      <trkpt lat="46.12515" lon="2.98358">
        <ele>347.771301</ele>
        <time>2024-06-27T00:00:00.098Z</time>
      </trkpt>
      <trkpt lat="46.12521" lon="2.98367">
        <ele>347.720777</ele>
        <time>2024-06-27T00:00:01.173Z</time>
      </trkpt>
      <trkpt lat="46.12528" lon="2.98381">
        <ele>347.653535</ele>
        <time>2024-06-27T00:00:02.590Z</time>
      </trkpt>
      <trkpt lat="46.12542" lon="2.98425">
        <ele>347.46026</ele>
        <time>2024-06-27T00:00:08.506Z</time>
      </trkpt>
      <trkpt lat="46.12547" lon="2.98474">
        <ele>347.258899</ele>
        <time>2024-06-27T00:00:13.994Z</time>
      </trkpt>
      <trkpt lat="46.12548" lon="2.98492">
        <ele>347.184085</ele>
        <time>2024-06-27T00:00:15.994Z</time>
      </trkpt>
      <trkpt lat="46.12552" lon="2.98579">
        <ele>346.168977</ele>
        <time>2024-06-27T00:00:22.383Z</time>
      </trkpt>
      <trkpt lat="46.12555" lon="2.98598">
        <ele>345.874597</ele>
        <time>2024-06-27T00:00:23.692Z</time>
      </trkpt>
      <trkpt lat="46.12565" lon="2.98625">
        <ele>345.37982</ele>
        <time>2024-06-27T00:00:25.916Z</time>
      </trkpt>
      <trkpt lat="46.12568" lon="2.98641">
        <ele>345.11233</ele>
        <time>2024-06-27T00:00:27.182Z</time>
      </trkpt>
      <trkpt lat="46.12568" lon="2.98658">
        <ele>344.844449</ele>
        <time>2024-06-27T00:00:28.507Z</time>
      </trkpt>
      <trkpt lat="46.12558" lon="2.98716">
        <ele>343.897636</ele>
        <time>2024-06-27T00:00:33.042Z</time>
      </trkpt>
      <trkpt lat="46.12549" lon="2.98747">
        <ele>343.366868</ele>
        <time>2024-06-27T00:00:35.543Z</time>
      </trkpt>
      <trkpt lat="46.12535" lon="2.9878">
        <ele>342.731589</ele>
        <time>2024-06-27T00:00:38.279Z</time>
      </trkpt>
      <trkpt lat="46.12516" lon="2.98841">
        <ele>341.573348</ele>
        <time>2024-06-27T00:00:42.996Z</time>
      </trkpt>
      <trkpt lat="46.12489" lon="2.9908">
        <ele>337.364093</ele>
        <time>2024-06-27T00:01:00.962Z</time>
      </trkpt>
      <trkpt lat="46.12481" lon="2.99152">
        <ele>336.142191</ele>
        <time>2024-06-27T00:01:06.254Z</time>
      </trkpt>
      <trkpt lat="46.12476" lon="2.99173">
        <ele>335.760288</ele>
        <time>2024-06-27T00:01:07.861Z</time>
      </trkpt>
      <trkpt lat="46.12437" lon="2.99272">
        <ele>333.961286</ele>
        <time>2024-06-27T00:01:16.241Z</time>
      </trkpt>
      <trkpt lat="46.12404" lon="2.99375">
        <ele>333.206384</ele>
        <time>2024-06-27T00:01:24.791Z</time>
      </trkpt>
      <trkpt lat="46.12329" lon="2.99529">
        <ele>332.80711</ele>
        <time>2024-06-27T00:01:44.258Z</time>
      </trkpt>
      <trkpt lat="46.1221" lon="2.99795">
        <ele>336.926118</ele>
        <time>2024-06-27T00:02:32.422Z</time>
      </trkpt>
      <trkpt lat="46.12217" lon="2.99796">
        <ele>337.141851</ele>
        <time>2024-06-27T00:02:34.243Z</time>
      </trkpt>
      <trkpt lat="46.12241" lon="2.99752">
        <ele>338.247451</ele>
        <time>2024-06-27T00:02:44.155Z</time>
      </trkpt>
      <trkpt lat="46.12333" lon="2.99629">
        <ele>345.188181</ele>
        <time>2024-06-27T00:03:24.388Z</time>
      </trkpt>
      <trkpt lat="46.12381" lon="2.99548">
        <ele>351.007438</ele>
        <time>2024-06-27T00:04:04.363Z</time>
      </trkpt>
      <trkpt lat="46.12392" lon="2.99536">
        <ele>352.040734</ele>
        <time>2024-06-27T00:04:12.013Z</time>
      </trkpt>
      <trkpt lat="46.12404" lon="2.99527">
        <ele>353.109929</ele>
        <time>2024-06-27T00:04:19.716Z</time>
      </trkpt>
      <trkpt lat="46.1246" lon="2.99511">
        <ele>358.751926</ele>
        <time>2024-06-27T00:04:52.505Z</time>
      </trkpt>
      <trkpt lat="46.12478" lon="2.995">
        <ele>360.682268</ele>
        <time>2024-06-27T00:05:03.353Z</time>
      </trkpt>
      <trkpt lat="46.12486" lon="2.99487">
        <ele>361.959928</ele>
        <time>2024-06-27T00:05:10.349Z</time>
      </trkpt>
      <trkpt lat="46.12525" lon="2.99394">
        <ele>369.607505</ele>
        <time>2024-06-27T00:05:53.020Z</time>
      </trkpt>
      <trkpt lat="46.12535" lon="2.99369">
        <ele>371.689205</ele>
        <time>2024-06-27T00:06:04.638Z</time>
      </trkpt>
      <trkpt lat="46.12547" lon="2.99342">
        <ele>373.66544</ele>
        <time>2024-06-27T00:06:16.149Z</time>
      </trkpt>
      <trkpt lat="46.12584" lon="2.99286">
        <ele>377.9911</ele>
        <time>2024-06-27T00:06:42.499Z</time>
      </trkpt>
      <trkpt lat="46.12587" lon="2.99265">
        <ele>379.222531</ele>
        <time>2024-06-27T00:06:48.034Z</time>
      </trkpt>
      <trkpt lat="46.12588" lon="2.99218">
        <ele>381.922032</ele>
        <time>2024-06-27T00:06:59.024Z</time>
      </trkpt>
      <trkpt lat="46.12593" lon="2.99193">
        <ele>383.38982</ele>
        <time>2024-06-27T00:07:06.860Z</time>
      </trkpt>
      <trkpt lat="46.12595" lon="2.99185">
        <ele>383.868391</ele>
        <time>2024-06-27T00:07:09.477Z</time>
      </trkpt>
      <trkpt lat="46.12634" lon="2.99119">
        <ele>389.591455</ele>
        <time>2024-06-27T00:07:40.485Z</time>
      </trkpt>
      <trkpt lat="46.12636" lon="2.99108">
        <ele>390.534926</ele>
        <time>2024-06-27T00:07:45.257Z</time>
      </trkpt>
      <trkpt lat="46.12633" lon="2.99097">
        <ele>391.479876</ele>
        <time>2024-06-27T00:07:49.966Z</time>
      </trkpt>
      <trkpt lat="46.12628" lon="2.99093">
        <ele>392.176729</ele>
        <time>2024-06-27T00:07:53.920Z</time>
      </trkpt>
      <trkpt lat="46.12608" lon="2.99089">
        <ele>394.666982</ele>
        <time>2024-06-27T00:08:06.956Z</time>
      </trkpt>
      <trkpt lat="46.12602" lon="2.99078">
        <ele>395.80174</ele>
        <time>2024-06-27T00:08:13.115Z</time>
      </trkpt>
      <trkpt lat="46.12603" lon="2.99064">
        <ele>396.964063</ele>
        <time>2024-06-27T00:08:19.375Z</time>
      </trkpt>
      <trkpt lat="46.12606" lon="2.99059">
        <ele>397.493805</ele>
        <time>2024-06-27T00:08:22.157Z</time>
      </trkpt>
      <trkpt lat="46.12609" lon="2.99056">
        <ele>397.991583</ele>
        <time>2024-06-27T00:08:25.005Z</time>
      </trkpt>
      <trkpt lat="46.12632" lon="2.99054">
        <ele>400.736283</ele>
        <time>2024-06-27T00:08:40.687Z</time>
      </trkpt>
      <trkpt lat="46.12637" lon="2.99051">
        <ele>401.393303</ele>
        <time>2024-06-27T00:08:44.240Z</time>
      </trkpt>
      <trkpt lat="46.12644" lon="2.9904">
        <ele>402.599905</ele>
        <time>2024-06-27T00:08:51.167Z</time>
      </trkpt>
      <trkpt lat="46.12655" lon="2.99028">
        <ele>404.286104</ele>
        <time>2024-06-27T00:09:00.463Z</time>
      </trkpt>
      <trkpt lat="46.12722" lon="2.98991">
        <ele>413.226084</ele>
        <time>2024-06-27T00:09:47.796Z</time>
      </trkpt>
      <trkpt lat="46.12739" lon="2.98987">
        <ele>415.411962</ele>
        <time>2024-06-27T00:10:00.517Z</time>
      </trkpt>
      <trkpt lat="46.12763" lon="2.98988">
        <ele>418.455887</ele>
        <time>2024-06-27T00:10:19.588Z</time>
      </trkpt>
      <trkpt lat="46.12764" lon="2.98988">
        <ele>418.596779</ele>
        <time>2024-06-27T00:10:20.450Z</time>
      </trkpt>
      <trkpt lat="46.12782" lon="2.9899">
        <ele>420.981019</ele>
        <time>2024-06-27T00:10:34.080Z</time>
      </trkpt>
      <trkpt lat="46.12907" lon="2.99002">
        <ele>435.981633</ele>
        <time>2024-06-27T00:11:49.460Z</time>
      </trkpt>
      <trkpt lat="46.12998" lon="2.98988">
        <ele>445.369237</ele>
        <time>2024-06-27T00:12:39.489Z</time>
      </trkpt>
      <trkpt lat="46.13108" lon="2.9896">
        <ele>455.782912</ele>
        <time>2024-06-27T00:13:40.294Z</time>
      </trkpt>
      <trkpt lat="46.13146" lon="2.98947">
        <ele>459.153052</ele>
        <time>2024-06-27T00:13:59.421Z</time>
      </trkpt>
      <trkpt lat="46.13168" lon="2.98936">
        <ele>461.127649</ele>
        <time>2024-06-27T00:14:11.188Z</time>
      </trkpt>
      <trkpt lat="46.13199" lon="2.98908">
        <ele>464.337096</ele>
        <time>2024-06-27T00:14:28.961Z</time>
      </trkpt>
      <trkpt lat="46.13207" lon="2.98904">
        <ele>465.088538</ele>
        <time>2024-06-27T00:14:32.498Z</time>
      </trkpt>
      <trkpt lat="46.13218" lon="2.98906">
        <ele>465.905896</ele>
        <time>2024-06-27T00:14:37.338Z</time>
      </trkpt>
      <trkpt lat="46.13273" lon="2.98944">
        <ele>469.024302</ele>
        <time>2024-06-27T00:14:59.897Z</time>
      </trkpt>
      <trkpt lat="46.13299" lon="2.98954">
        <ele>470.410746</ele>
        <time>2024-06-27T00:15:08.776Z</time>
      </trkpt>
      <trkpt lat="46.13312" lon="2.9897">
        <ele>471.321596</ele>
        <time>2024-06-27T00:15:13.914Z</time>
      </trkpt>
      <trkpt lat="46.13315" lon="2.98984">
        <ele>471.833883</ele>
        <time>2024-06-27T00:15:16.884Z</time>
      </trkpt>
      <trkpt lat="46.13315" lon="2.98998">
        <ele>472.321894</ele>
        <time>2024-06-27T00:15:19.637Z</time>
      </trkpt>
      <trkpt lat="46.13259" lon="2.99111">
        <ele>478.212441</ele>
        <time>2024-06-27T00:15:51.765Z</time>
      </trkpt>
      <trkpt lat="46.13241" lon="2.99191">
        <ele>482.435757</ele>
        <time>2024-06-27T00:16:15.578Z</time>
      </trkpt>
      <trkpt lat="46.13239" lon="2.99207">
        <ele>483.254444</ele>
        <time>2024-06-27T00:16:20.468Z</time>
      </trkpt>
      <trkpt lat="46.1324" lon="2.99225">
        <ele>484.202705</ele>
        <time>2024-06-27T00:16:26.630Z</time>
      </trkpt>
      <trkpt lat="46.13247" lon="2.99245">
        <ele>485.310671</ele>
        <time>2024-06-27T00:16:33.950Z</time>
      </trkpt>
      <trkpt lat="46.13303" lon="2.99357">
        <ele>494.439618</ele>
        <time>2024-06-27T00:17:28.467Z</time>
      </trkpt>
      <trkpt lat="46.13333" lon="2.99399">
        <ele>499.108891</ele>
        <time>2024-06-27T00:17:55.551Z</time>
      </trkpt>
      <trkpt lat="46.13344" lon="2.99416">
        <ele>500.884906</ele>
        <time>2024-06-27T00:18:05.612Z</time>
      </trkpt>
      <trkpt lat="46.13351" lon="2.99425">
        <ele>501.888581</ele>
        <time>2024-06-27T00:18:11.209Z</time>
      </trkpt>
      <trkpt lat="46.13363" lon="2.9947">
        <ele>505.615604</ele>
        <time>2024-06-27T00:18:31.728Z</time>
      </trkpt>
      <trkpt lat="46.13377" lon="2.99505">
        <ele>508.529936</ele>
        <time>2024-06-27T00:18:48.146Z</time>
      </trkpt>
      <trkpt lat="46.13402" lon="2.99536">
        <ele>511.149134</ele>
        <time>2024-06-27T00:19:06.482Z</time>
      </trkpt>
      <trkpt lat="46.13411" lon="2.99555">
        <ele>512.438241</ele>
        <time>2024-06-27T00:19:15.058Z</time>
      </trkpt>
      <trkpt lat="46.13417" lon="2.99571">
        <ele>513.448784</ele>
        <time>2024-06-27T00:19:21.831Z</time>
      </trkpt>
      <trkpt lat="46.13464" lon="2.9978">
        <ele>523.916559</ele>
        <time>2024-06-27T00:20:24.923Z</time>
      </trkpt>
      <trkpt lat="46.13482" lon="2.99861">
        <ele>526.179331</ele>
        <time>2024-06-27T00:20:42.176Z</time>
      </trkpt>
      <trkpt lat="46.13492" lon="2.99877">
        <ele>526.744515</ele>
        <time>2024-06-27T00:20:46.112Z</time>
      </trkpt>
      <trkpt lat="46.13596" lon="2.99681">
        <ele>531.441444</ele>
        <time>2024-06-27T00:21:26.482Z</time>
      </trkpt>
      <trkpt lat="46.13679" lon="2.99552">
        <ele>533.556636</ele>
        <time>2024-06-27T00:21:54.038Z</time>
      </trkpt>
      <trkpt lat="46.13709" lon="2.99487">
        <ele>534.217603</ele>
        <time>2024-06-27T00:22:04.911Z</time>
      </trkpt>
      <trkpt lat="46.13738" lon="2.99399">
        <ele>535.035252</ele>
        <time>2024-06-27T00:22:16.954Z</time>
      </trkpt>
      <trkpt lat="46.13762" lon="2.99285">
        <ele>535.541694</ele>
        <time>2024-06-27T00:22:30.402Z</time>
      </trkpt>
      <trkpt lat="46.13781" lon="2.99235">
        <ele>535.745223</ele>
        <time>2024-06-27T00:22:36.837Z</time>
      </trkpt>
      <trkpt lat="46.13851" lon="2.99084">
        <ele>536.716187</ele>
        <time>2024-06-27T00:22:58.992Z</time>
      </trkpt>
      <trkpt lat="46.13868" lon="2.99035">
        <ele>537.132126</ele>
        <time>2024-06-27T00:23:05.855Z</time>
      </trkpt>
      <trkpt lat="46.139" lon="2.98906">
        <ele>538.357475</ele>
        <time>2024-06-27T00:23:24.710Z</time>
      </trkpt>
      <trkpt lat="46.13919" lon="2.98868">
        <ele>539.342194</ele>
        <time>2024-06-27T00:23:31.749Z</time>
      </trkpt>
      <trkpt lat="46.1412" lon="2.98526">
        <ele>550.105099</ele>
        <time>2024-06-27T00:25:02.872Z</time>
      </trkpt>
      <trkpt lat="46.14144" lon="2.98477">
        <ele>552.121744</ele>
        <time>2024-06-27T00:25:17.031Z</time>
      </trkpt>
      <trkpt lat="46.14151" lon="2.98451">
        <ele>553.079721</ele>
        <time>2024-06-27T00:25:23.579Z</time>
      </trkpt>
      <trkpt lat="46.14191" lon="2.98184">
        <ele>562.93996</ele>
        <time>2024-06-27T00:26:31.784Z</time>
      </trkpt>
      <trkpt lat="46.14199" lon="2.98131">
        <ele>565.048248</ele>
        <time>2024-06-27T00:26:46.039Z</time>
      </trkpt>
      <trkpt lat="46.14249" lon="2.97794">
        <ele>578.275056</ele>
        <time>2024-06-27T00:28:16.391Z</time>
      </trkpt>
      <trkpt lat="46.14251" lon="2.97781">
        <ele>578.758354</ele>
        <time>2024-06-27T00:28:19.502Z</time>
      </trkpt>
      <trkpt lat="46.14277" lon="2.97606">
        <ele>583.469572</ele>
        <time>2024-06-27T00:28:59.777Z</time>
      </trkpt>
      <trkpt lat="46.14329" lon="2.97252">
        <ele>588.616945</ele>
        <time>2024-06-27T00:29:57.380Z</time>
      </trkpt>
      <trkpt lat="46.14334" lon="2.97227">
        <ele>588.23685</ele>
        <time>2024-06-27T00:29:59.477Z</time>
      </trkpt>
      <trkpt lat="46.14341" lon="2.97204">
        <ele>587.854653</ele>
        <time>2024-06-27T00:30:01.558Z</time>
      </trkpt>
      <trkpt lat="46.14462" lon="2.96986">
        <ele>584.766427</ele>
        <time>2024-06-27T00:30:21.133Z</time>
      </trkpt>
      <trkpt lat="46.14508" lon="2.96902">
        <ele>584.675839</ele>
        <time>2024-06-27T00:30:31.503Z</time>
      </trkpt>
      <trkpt lat="46.14576" lon="2.96889">
        <ele>585.44903</ele>
        <time>2024-06-27T00:30:49.098Z</time>
      </trkpt>
      <trkpt lat="46.14591" lon="2.9689">
        <ele>586.158694</ele>
        <time>2024-06-27T00:30:53.801Z</time>
      </trkpt>
      <trkpt lat="46.14606" lon="2.96898">
        <ele>586.931867</ele>
        <time>2024-06-27T00:30:58.955Z</time>
      </trkpt>
      <trkpt lat="46.14623" lon="2.96915">
        <ele>587.933939</ele>
        <time>2024-06-27T00:31:06.198Z</time>
      </trkpt>
      <trkpt lat="46.14658" lon="2.96975">
        <ele>590.580622</ele>
        <time>2024-06-27T00:31:27.401Z</time>
      </trkpt>
      <trkpt lat="46.14663" lon="2.97033">
        <ele>592.545489</ele>
        <time>2024-06-27T00:31:42.960Z</time>
      </trkpt>
      <trkpt lat="46.1467" lon="2.97044">
        <ele>593.047811</ele>
        <time>2024-06-27T00:31:46.769Z</time>
      </trkpt>
      <trkpt lat="46.14678" lon="2.97053">
        <ele>593.532866</ele>
        <time>2024-06-27T00:31:50.685Z</time>
      </trkpt>
      <trkpt lat="46.14756" lon="2.97086">
        <ele>596.759928</ele>
        <time>2024-06-27T00:32:17.361Z</time>
      </trkpt>
      <trkpt lat="46.14818" lon="2.97117">
        <ele>599.379496</ele>
        <time>2024-06-27T00:32:36.322Z</time>
      </trkpt>
      <trkpt lat="46.14833" lon="2.97121">
        <ele>599.999565</ele>
        <time>2024-06-27T00:32:40.531Z</time>
      </trkpt>
      <trkpt lat="46.14845" lon="2.97119">
        <ele>600.473736</ele>
        <time>2024-06-27T00:32:43.710Z</time>
      </trkpt>
      <trkpt lat="46.14859" lon="2.97112">
        <ele>600.842651</ele>
        <time>2024-06-27T00:32:47.529Z</time>
      </trkpt>
      <trkpt lat="46.14961" lon="2.97032">
        <ele>603.627189</ele>
        <time>2024-06-27T00:33:15.653Z</time>
      </trkpt>
      <trkpt lat="46.14978" lon="2.97024">
        <ele>604.053834</ele>
        <time>2024-06-27T00:33:19.762Z</time>
      </trkpt>
      <trkpt lat="46.15071" lon="2.97009">
        <ele>606.081759</ele>
        <time>2024-06-27T00:33:41.270Z</time>
      </trkpt>
      <trkpt lat="46.15126" lon="2.9699">
        <ele>607.249681</ele>
        <time>2024-06-27T00:33:53.710Z</time>
      </trkpt>
      <trkpt lat="46.15182" lon="2.96973">
        <ele>608.415844</ele>
        <time>2024-06-27T00:34:06.623Z</time>
      </trkpt>
      <trkpt lat="46.15207" lon="2.96974">
        <ele>609.24854</ele>
        <time>2024-06-27T00:34:12.852Z</time>
      </trkpt>
      <trkpt lat="46.15276" lon="2.96985">
        <ele>611.734684</ele>
        <time>2024-06-27T00:34:31.836Z</time>
      </trkpt>
      <trkpt lat="46.153" lon="2.96984">
        <ele>612.603822</ele>
        <time>2024-06-27T00:34:39.149Z</time>
      </trkpt>
      <trkpt lat="46.1539" lon="2.96965">
        <ele>616.124844</ele>
        <time>2024-06-27T00:35:08.837Z</time>
      </trkpt>
      <trkpt lat="46.15413" lon="2.96958">
        <ele>617.249876</ele>
        <time>2024-06-27T00:35:17.010Z</time>
      </trkpt>
      <trkpt lat="46.1543" lon="2.96949">
        <ele>618.12001</ele>
        <time>2024-06-27T00:35:23.414Z</time>
      </trkpt>
      <trkpt lat="46.15488" lon="2.96904">
        <ele>621.258333</ele>
        <time>2024-06-27T00:35:46.598Z</time>
      </trkpt>
      <trkpt lat="46.15512" lon="2.96885">
        <ele>622.577599</ele>
        <time>2024-06-27T00:35:56.073Z</time>
      </trkpt>
      <trkpt lat="46.15573" lon="2.96813">
        <ele>625.169358</ele>
        <time>2024-06-27T00:36:21.571Z</time>
      </trkpt>
      <trkpt lat="46.15588" lon="2.96791">
        <ele>625.747659</ele>
        <time>2024-06-27T00:36:27.399Z</time>
      </trkpt>
      <trkpt lat="46.15632" lon="2.96715">
        <ele>627.64984</ele>
        <time>2024-06-27T00:36:43.372Z</time>
      </trkpt>
      <trkpt lat="46.1565" lon="2.96691">
        <ele>628.318479</ele>
        <time>2024-06-27T00:36:48.148Z</time>
      </trkpt>
      <trkpt lat="46.15669" lon="2.96678">
        <ele>628.713364</ele>
        <time>2024-06-27T00:36:52.022Z</time>
      </trkpt>
      <trkpt lat="46.15688" lon="2.96671">
        <ele>628.967528</ele>
        <time>2024-06-27T00:36:55.462Z</time>
      </trkpt>
      <trkpt lat="46.15707" lon="2.9667">
        <ele>629.213967</ele>
        <time>2024-06-27T00:36:58.480Z</time>
      </trkpt>
      <trkpt lat="46.15723" lon="2.96678">
        <ele>629.442518</ele>
        <time>2024-06-27T00:37:01.580Z</time>
      </trkpt>
      <trkpt lat="46.15755" lon="2.96704">
        <ele>629.91338</ele>
        <time>2024-06-27T00:37:08.243Z</time>
      </trkpt>
      <trkpt lat="46.15811" lon="2.96762">
        <ele>630.815205</ele>
        <time>2024-06-27T00:37:22.687Z</time>
      </trkpt>
      <trkpt lat="46.15834" lon="2.96779">
        <ele>631.684071</ele>
        <time>2024-06-27T00:37:28.701Z</time>
      </trkpt>
      <trkpt lat="46.15848" lon="2.9678">
        <ele>632.249811</ele>
        <time>2024-06-27T00:37:32.432Z</time>
      </trkpt>
      <trkpt lat="46.15854" lon="2.9678">
        <ele>632.48616</ele>
        <time>2024-06-27T00:37:34.021Z</time>
      </trkpt>
      <trkpt lat="46.15867" lon="2.96774">
        <ele>632.985889</ele>
        <time>2024-06-27T00:37:37.524Z</time>
      </trkpt>
      <trkpt lat="46.15897" lon="2.96755">
        <ele>634.281928</ele>
        <time>2024-06-27T00:37:47.475Z</time>
      </trkpt>
      <trkpt lat="46.15929" lon="2.9673">
        <ele>635.681746</ele>
        <time>2024-06-27T00:37:59.295Z</time>
      </trkpt>
      <trkpt lat="46.16002" lon="2.96648">
        <ele>639.372629</ele>
        <time>2024-06-27T00:38:32.657Z</time>
      </trkpt>
      <trkpt lat="46.16016" lon="2.96636">
        <ele>640.047811</ele>
        <time>2024-06-27T00:38:38.344Z</time>
      </trkpt>
      <trkpt lat="46.16045" lon="2.96623">
        <ele>641.271467</ele>
        <time>2024-06-27T00:38:48.190Z</time>
      </trkpt>
      <trkpt lat="46.16073" lon="2.96611">
        <ele>642.501877</ele>
        <time>2024-06-27T00:38:57.581Z</time>
      </trkpt>
      <trkpt lat="46.16099" lon="2.96606">
        <ele>643.602703</ele>
        <time>2024-06-27T00:39:05.599Z</time>
      </trkpt>
      <trkpt lat="46.16319" lon="2.96606">
        <ele>650.267888</ele>
        <time>2024-06-27T00:40:02.080Z</time>
      </trkpt>
      <trkpt lat="46.16327" lon="2.96606">
        <ele>650.534822</ele>
        <time>2024-06-27T00:40:04.224Z</time>
      </trkpt>
      <trkpt lat="46.16375" lon="2.96628">
        <ele>652.166888</ele>
        <time>2024-06-27T00:40:17.442Z</time>
      </trkpt>
      <trkpt lat="46.16453" lon="2.96677">
        <ele>655.003914</ele>
        <time>2024-06-27T00:40:41.873Z</time>
      </trkpt>
      <trkpt lat="46.16509" lon="2.9671">
        <ele>657.088112</ele>
        <time>2024-06-27T00:40:59.914Z</time>
      </trkpt>
      <trkpt lat="46.16629" lon="2.96779">
        <ele>661.946137</ele>
        <time>2024-06-27T00:41:37.677Z</time>
      </trkpt>
      <trkpt lat="46.16741" lon="2.9686">
        <ele>667.573232</ele>
        <time>2024-06-27T00:42:16.667Z</time>
      </trkpt>
      <trkpt lat="46.1676" lon="2.96865">
        <ele>668.510124</ele>
        <time>2024-06-27T00:42:23.443Z</time>
      </trkpt>
      <trkpt lat="46.16781" lon="2.96862">
        <ele>669.510871</ele>
        <time>2024-06-27T00:42:30.685Z</time>
      </trkpt>
      <trkpt lat="46.16812" lon="2.96854">
        <ele>670.977576</ele>
        <time>2024-06-27T00:42:41.813Z</time>
      </trkpt>
      <trkpt lat="46.17023" lon="2.96786">
        <ele>684.836447</ele>
        <time>2024-06-27T00:44:11.680Z</time>
      </trkpt>
      <trkpt lat="46.17205" lon="2.96729">
        <ele>696.345592</ele>
        <time>2024-06-27T00:45:27.732Z</time>
      </trkpt>
      <trkpt lat="46.17226" lon="2.96729">
        <ele>697.365263</ele>
        <time>2024-06-27T00:45:35.458Z</time>
      </trkpt>
      <trkpt lat="46.17274" lon="2.96661">
        <ele>700.642329</ele>
        <time>2024-06-27T00:45:57.952Z</time>
      </trkpt>
      <trkpt lat="46.17304" lon="2.9663">
        <ele>702.40328</ele>
        <time>2024-06-27T00:46:09.383Z</time>
      </trkpt>
      <trkpt lat="46.17346" lon="2.96599">
        <ele>704.301373</ele>
        <time>2024-06-27T00:46:23.197Z</time>
      </trkpt>
      <trkpt lat="46.17688" lon="2.96355">
        <ele>714.359197</ele>
        <time>2024-06-27T00:48:08.419Z</time>
      </trkpt>
      <trkpt lat="46.17714" lon="2.96331">
        <ele>713.906848</ele>
        <time>2024-06-27T00:48:12.737Z</time>
      </trkpt>
      <trkpt lat="46.17726" lon="2.96314">
        <ele>713.662482</ele>
        <time>2024-06-27T00:48:14.816Z</time>
      </trkpt>
      <trkpt lat="46.17998" lon="2.9582">
        <ele>695.97053</ele>
        <time>2024-06-27T00:48:56.453Z</time>
      </trkpt>
      <trkpt lat="46.18016" lon="2.95792">
        <ele>694.597405</ele>
        <time>2024-06-27T00:48:58.950Z</time>
      </trkpt>
      <trkpt lat="46.18051" lon="2.9575">
        <ele>692.157001</ele>
        <time>2024-06-27T00:49:03.222Z</time>
      </trkpt>
      <trkpt lat="46.18116" lon="2.95681">
        <ele>687.837053</ele>
        <time>2024-06-27T00:49:10.791Z</time>
      </trkpt>
      <trkpt lat="46.18261" lon="2.95527">
        <ele>676.677497</ele>
        <time>2024-06-27T00:49:27.286Z</time>
      </trkpt>
      <trkpt lat="46.18306" lon="2.95475">
        <ele>672.817502</ele>
        <time>2024-06-27T00:49:32.380Z</time>
      </trkpt>
      <trkpt lat="46.18319" lon="2.95456">
        <ele>671.40893</ele>
        <time>2024-06-27T00:49:34.074Z</time>
      </trkpt>
      <trkpt lat="46.18329" lon="2.95435">
        <ele>670.123154</ele>
        <time>2024-06-27T00:49:35.620Z</time>
      </trkpt>
      <trkpt lat="46.18435" lon="2.95173">
        <ele>654.993382</ele>
        <time>2024-06-27T00:49:54.345Z</time>
      </trkpt>
      <trkpt lat="46.18449" lon="2.95124">
        <ele>652.455697</ele>
        <time>2024-06-27T00:49:57.657Z</time>
      </trkpt>
      <trkpt lat="46.18452" lon="2.95094">
        <ele>651.004571</ele>
        <time>2024-06-27T00:49:59.558Z</time>
      </trkpt>
      <trkpt lat="46.18478" lon="2.94519">
        <ele>627.668542</ele>
        <time>2024-06-27T00:50:36.230Z</time>
      </trkpt>
      <trkpt lat="46.18475" lon="2.94491">
        <ele>626.862842</ele>
        <time>2024-06-27T00:50:38.217Z</time>
      </trkpt>
      <trkpt lat="46.18468" lon="2.94469">
        <ele>626.167216</ele>
        <time>2024-06-27T00:50:40.014Z</time>
      </trkpt>
      <trkpt lat="46.18431" lon="2.94418">
        <ele>624.095733</ele>
        <time>2024-06-27T00:50:45.147Z</time>
      </trkpt>
      <trkpt lat="46.18389" lon="2.94359">
        <ele>621.69317</ele>
        <time>2024-06-27T00:50:50.969Z</time>
      </trkpt>
      <trkpt lat="46.18382" lon="2.94337">
        <ele>621.01677</ele>
        <time>2024-06-27T00:50:52.555Z</time>
      </trkpt>
      <trkpt lat="46.1838" lon="2.94311">
        <ele>620.095115</ele>
        <time>2024-06-27T00:50:54.349Z</time>
      </trkpt>
      <trkpt lat="46.18383" lon="2.94283">
        <ele>618.805656</ele>
        <time>2024-06-27T00:50:56.231Z</time>
      </trkpt>
      <trkpt lat="46.18449" lon="2.93985">
        <ele>604.747091</ele>
        <time>2024-06-27T00:51:15.643Z</time>
      </trkpt>
      <trkpt lat="46.1845" lon="2.93952">
        <ele>603.229764</ele>
        <time>2024-06-27T00:51:17.760Z</time>
      </trkpt>
      <trkpt lat="46.18446" lon="2.93931">
        <ele>602.261747</ele>
        <time>2024-06-27T00:51:19.096Z</time>
      </trkpt>
      <trkpt lat="46.18359" lon="2.93791">
        <ele>594.294823</ele>
        <time>2024-06-27T00:51:31.008Z</time>
      </trkpt>
      <trkpt lat="46.18297" lon="2.93692">
        <ele>589.300243</ele>
        <time>2024-06-27T00:51:39.657Z</time>
      </trkpt>
      <trkpt lat="46.18265" lon="2.93641">
        <ele>586.998772</ele>
        <time>2024-06-27T00:51:44.227Z</time>
      </trkpt>
      <trkpt lat="46.18247" lon="2.93614">
        <ele>586.174428</ele>
        <time>2024-06-27T00:51:46.654Z</time>
      </trkpt>
      <trkpt lat="46.18208" lon="2.93551">
        <ele>584.284959</ele>
        <time>2024-06-27T00:51:52.402Z</time>
      </trkpt>
      <trkpt lat="46.18196" lon="2.93528">
        <ele>583.649671</ele>
        <time>2024-06-27T00:51:54.462Z</time>
      </trkpt>
      <trkpt lat="46.18192" lon="2.93509">
        <ele>583.220648</ele>
        <time>2024-06-27T00:51:55.937Z</time>
      </trkpt>
      <trkpt lat="46.1819" lon="2.9349">
        <ele>582.799314</ele>
        <time>2024-06-27T00:51:57.404Z</time>
      </trkpt>
      <trkpt lat="46.18197" lon="2.93456">
        <ele>582.009382</ele>
        <time>2024-06-27T00:52:00.139Z</time>
      </trkpt>
      <trkpt lat="46.18211" lon="2.93397">
        <ele>581.091203</ele>
        <time>2024-06-27T00:52:05.265Z</time>
      </trkpt>
      <trkpt lat="46.18213" lon="2.93354">
        <ele>580.577448</ele>
        <time>2024-06-27T00:52:08.729Z</time>
      </trkpt>
      <trkpt lat="46.18213" lon="2.93288">
        <ele>579.801766</ele>
        <time>2024-06-27T00:52:13.893Z</time>
      </trkpt>
      <trkpt lat="46.1822" lon="2.93259">
        <ele>579.433037</ele>
        <time>2024-06-27T00:52:16.167Z</time>
      </trkpt>
      <trkpt lat="46.18235" lon="2.93242">
        <ele>579.114249</ele>
        <time>2024-06-27T00:52:18.250Z</time>
      </trkpt>
      <trkpt lat="46.1825" lon="2.93238">
        <ele>578.844709</ele>
        <time>2024-06-27T00:52:19.949Z</time>
      </trkpt>
      <trkpt lat="46.1829" lon="2.93236">
        <ele>578.168153</ele>
        <time>2024-06-27T00:52:24.478Z</time>
      </trkpt>
      <trkpt lat="46.18324" lon="2.93221">
        <ele>577.558994</ele>
        <time>2024-06-27T00:52:28.617Z</time>
      </trkpt>
      <trkpt lat="46.18391" lon="2.93183">
        <ele>576.323375</ele>
        <time>2024-06-27T00:52:36.858Z</time>
      </trkpt>
      <trkpt lat="46.18412" lon="2.93168">
        <ele>575.929002</ele>
        <time>2024-06-27T00:52:39.465Z</time>
      </trkpt>
      <trkpt lat="46.18425" lon="2.93153">
        <ele>575.648351</ele>
        <time>2024-06-27T00:52:41.270Z</time>
      </trkpt>
      <trkpt lat="46.18439" lon="2.93126">
        <ele>575.150533</ele>
        <time>2024-06-27T00:52:43.931Z</time>
      </trkpt>
      <trkpt lat="46.18463" lon="2.9305">
        <ele>573.763156</ele>
        <time>2024-06-27T00:52:50.200Z</time>
      </trkpt>
      <trkpt lat="46.18465" lon="2.93045">
        <ele>573.657999</ele>
        <time>2024-06-27T00:52:50.680Z</time>
      </trkpt>
      <trkpt lat="46.18468" lon="2.93035">
        <ele>573.462598</ele>
        <time>2024-06-27T00:52:51.585Z</time>
      </trkpt>
      <trkpt lat="46.18465" lon="2.93019">
        <ele>573.186487</ele>
        <time>2024-06-27T00:52:52.779Z</time>
      </trkpt>
      <trkpt lat="46.18463" lon="2.92991">
        <ele>572.715459</ele>
        <time>2024-06-27T00:52:54.850Z</time>
      </trkpt>
      <trkpt lat="46.18464" lon="2.92957">
        <ele>572.143811</ele>
        <time>2024-06-27T00:52:57.313Z</time>
      </trkpt>
      <trkpt lat="46.18493" lon="2.9282">
        <ele>569.198181</ele>
        <time>2024-06-27T00:53:07.372Z</time>
      </trkpt>
      <trkpt lat="46.18502" lon="2.92767">
        <ele>567.919176</ele>
        <time>2024-06-27T00:53:11.141Z</time>
      </trkpt>
      <trkpt lat="46.18501" lon="2.92733">
        <ele>567.122972</ele>
        <time>2024-06-27T00:53:13.493Z</time>
      </trkpt>
      <trkpt lat="46.18483" lon="2.92597">
        <ele>563.96795</ele>
        <time>2024-06-27T00:53:23.073Z</time>
      </trkpt>
      <trkpt lat="46.18482" lon="2.92568">
        <ele>563.348893</ele>
        <time>2024-06-27T00:53:25.063Z</time>
      </trkpt>
      <trkpt lat="46.18508" lon="2.92439">
        <ele>560.468423</ele>
        <time>2024-06-27T00:53:34.520Z</time>
      </trkpt>
      <trkpt lat="46.18511" lon="2.92422">
        <ele>560.098769</ele>
        <time>2024-06-27T00:53:35.752Z</time>
      </trkpt>
      <trkpt lat="46.18514" lon="2.92382">
        <ele>559.305975</ele>
        <time>2024-06-27T00:53:38.648Z</time>
      </trkpt>
      <trkpt lat="46.18525" lon="2.91972">
        <ele>553.230564</ele>
        <time>2024-06-27T00:54:09.843Z</time>
      </trkpt>
      <trkpt lat="46.18522" lon="2.91921">
        <ele>552.493126</ele>
        <time>2024-06-27T00:54:13.645Z</time>
      </trkpt>
      <trkpt lat="46.1851" lon="2.91857">
        <ele>551.419515</ele>
        <time>2024-06-27T00:54:18.595Z</time>
      </trkpt>
      <trkpt lat="46.18503" lon="2.91824">
        <ele>550.715176</ele>
        <time>2024-06-27T00:54:21.150Z</time>
      </trkpt>
      <trkpt lat="46.18501" lon="2.91804">
        <ele>550.295133</ele>
        <time>2024-06-27T00:54:22.690Z</time>
      </trkpt>
      <trkpt lat="46.185" lon="2.91733">
        <ele>548.861576</ele>
        <time>2024-06-27T00:54:27.812Z</time>
      </trkpt>
      <trkpt lat="46.18512" lon="2.9161">
        <ele>546.259122</ele>
        <time>2024-06-27T00:54:36.431Z</time>
      </trkpt>
      <trkpt lat="46.18513" lon="2.91574">
        <ele>545.237044</ele>
        <time>2024-06-27T00:54:38.873Z</time>
      </trkpt>
      <trkpt lat="46.18512" lon="2.91434">
        <ele>541.263875</ele>
        <time>2024-06-27T00:54:48.334Z</time>
      </trkpt>
      <trkpt lat="46.18508" lon="2.91155">
        <ele>532.605421</ele>
        <time>2024-06-27T00:55:06.834Z</time>
      </trkpt>
      <trkpt lat="46.18505" lon="2.91126">
        <ele>531.665031</ele>
        <time>2024-06-27T00:55:08.771Z</time>
      </trkpt>
      <trkpt lat="46.18495" lon="2.91068">
        <ele>529.477176</ele>
        <time>2024-06-27T00:55:12.677Z</time>
      </trkpt>
      <trkpt lat="46.18481" lon="2.91008">
        <ele>526.939408</ele>
        <time>2024-06-27T00:55:16.762Z</time>
      </trkpt>
      <trkpt lat="46.18479" lon="2.90981">
        <ele>525.879232</ele>
        <time>2024-06-27T00:55:18.454Z</time>
      </trkpt>
      <trkpt lat="46.18483" lon="2.90964">
        <ele>525.141355</ele>
        <time>2024-06-27T00:55:19.626Z</time>
      </trkpt>
      <trkpt lat="46.18496" lon="2.9095">
        <ele>524.224368</ele>
        <time>2024-06-27T00:55:21.078Z</time>
      </trkpt>
      <trkpt lat="46.18557" lon="2.90921">
        <ele>520.501425</ele>
        <time>2024-06-27T00:55:26.922Z</time>
      </trkpt>
      <trkpt lat="46.18575" lon="2.90915">
        <ele>519.2254</ele>
        <time>2024-06-27T00:55:28.618Z</time>
      </trkpt>
      <trkpt lat="46.1861" lon="2.90913">
        <ele>516.846321</ele>
        <time>2024-06-27T00:55:31.731Z</time>
      </trkpt>
      <trkpt lat="46.18628" lon="2.90908">
        <ele>515.561669</ele>
        <time>2024-06-27T00:55:33.405Z</time>
      </trkpt>
      <trkpt lat="46.18666" lon="2.90886">
        <ele>512.738743</ele>
        <time>2024-06-27T00:55:37.077Z</time>
      </trkpt>
      <trkpt lat="46.18682" lon="2.90862">
        <ele>511.113084</ele>
        <time>2024-06-27T00:55:39.183Z</time>
      </trkpt>
      <trkpt lat="46.18706" lon="2.90809">
        <ele>508.090511</ele>
        <time>2024-06-27T00:55:43.104Z</time>
      </trkpt>
      <trkpt lat="46.1871" lon="2.90794">
        <ele>507.432869</ele>
        <time>2024-06-27T00:55:44.071Z</time>
      </trkpt>
      <trkpt lat="46.18709" lon="2.90775">
        <ele>506.66952</ele>
        <time>2024-06-27T00:55:45.214Z</time>
      </trkpt>
      <trkpt lat="46.18705" lon="2.90757">
        <ele>505.882796</ele>
        <time>2024-06-27T00:55:46.411Z</time>
      </trkpt>
      <trkpt lat="46.18698" lon="2.90738">
        <ele>504.958662</ele>
        <time>2024-06-27T00:55:47.821Z</time>
      </trkpt>
      <trkpt lat="46.18648" lon="2.90637">
        <ele>499.790695</ele>
        <time>2024-06-27T00:55:55.777Z</time>
      </trkpt>
      <trkpt lat="46.18627" lon="2.90606">
        <ele>497.986487</ele>
        <time>2024-06-27T00:55:58.549Z</time>
      </trkpt>
      <trkpt lat="46.18595" lon="2.90576">
        <ele>495.78794</ele>
        <time>2024-06-27T00:56:02.103Z</time>
      </trkpt>
      <trkpt lat="46.18585" lon="2.90564">
        <ele>495.098</ele>
        <time>2024-06-27T00:56:03.253Z</time>
      </trkpt>
      <trkpt lat="46.18575" lon="2.90547">
        <ele>494.243535</ele>
        <time>2024-06-27T00:56:04.676Z</time>
      </trkpt>
      <trkpt lat="46.18523" lon="2.9043">
        <ele>488.924682</ele>
        <time>2024-06-27T00:56:13.574Z</time>
      </trkpt>
      <trkpt lat="46.18484" lon="2.90361">
        <ele>486.451984</ele>
        <time>2024-06-27T00:56:19.373Z</time>
      </trkpt>
      <trkpt lat="46.18475" lon="2.9034">
        <ele>486.032289</ele>
        <time>2024-06-27T00:56:20.994Z</time>
      </trkpt>
      <trkpt lat="46.18464" lon="2.90279">
        <ele>484.941093</ele>
        <time>2024-06-27T00:56:25.329Z</time>
      </trkpt>
      <trkpt lat="46.18461" lon="2.90256">
        <ele>484.534284</ele>
        <time>2024-06-27T00:56:27.046Z</time>
      </trkpt>
      <trkpt lat="46.18451" lon="2.90198">
        <ele>483.486556</ele>
        <time>2024-06-27T00:56:31.893Z</time>
      </trkpt>
      <trkpt lat="46.18447" lon="2.90176">
        <ele>483.099849</ele>
        <time>2024-06-27T00:56:33.938Z</time>
      </trkpt>
      <trkpt lat="46.18443" lon="2.90158">
        <ele>482.769158</ele>
        <time>2024-06-27T00:56:35.970Z</time>
      </trkpt>
      <trkpt lat="46.18425" lon="2.90128">
        <ele>483.466314</ele>
        <time>2024-06-27T00:56:41.348Z</time>
      </trkpt>
      <trkpt lat="46.1851" lon="2.9012">
        <ele>485.851033</ele>
        <time>2024-06-27T00:57:04.810Z</time>
      </trkpt>
      <trkpt lat="46.18525" lon="2.90112">
        <ele>486.309353</ele>
        <time>2024-06-27T00:57:09.883Z</time>
      </trkpt>
      <trkpt lat="46.18579" lon="2.90062">
        <ele>488.198111</ele>
        <time>2024-06-27T00:57:29.429Z</time>
      </trkpt>
      <trkpt lat="46.18618" lon="2.90031">
        <ele>489.748349</ele>
        <time>2024-06-27T00:57:42.491Z</time>
      </trkpt>
      <trkpt lat="46.18632" lon="2.90022">
        <ele>490.280175</ele>
        <time>2024-06-27T00:57:46.862Z</time>
      </trkpt>
      <trkpt lat="46.18643" lon="2.9002">
        <ele>490.638159</ele>
        <time>2024-06-27T00:57:49.940Z</time>
      </trkpt>
      <trkpt lat="46.18655" lon="2.90023">
        <ele>491.070518</ele>
        <time>2024-06-27T00:57:53.596Z</time>
      </trkpt>
      <trkpt lat="46.18703" lon="2.90043">
        <ele>492.808797</ele>
        <time>2024-06-27T00:58:07.879Z</time>
      </trkpt>
      <trkpt lat="46.18717" lon="2.90053">
        <ele>493.370187</ele>
        <time>2024-06-27T00:58:12.342Z</time>
      </trkpt>
      <trkpt lat="46.18731" lon="2.9007">
        <ele>493.97732</ele>
        <time>2024-06-27T00:58:17.015Z</time>
      </trkpt>
      <trkpt lat="46.18758" lon="2.90117">
        <ele>495.317251</ele>
        <time>2024-06-27T00:58:28.402Z</time>
      </trkpt>
      <trkpt lat="46.18768" lon="2.90126">
        <ele>495.70009</ele>
        <time>2024-06-27T00:58:31.680Z</time>
      </trkpt>
      <trkpt lat="46.188" lon="2.90141">
        <ele>496.731432</ele>
        <time>2024-06-27T00:58:40.851Z</time>
      </trkpt>
      <trkpt lat="46.18832" lon="2.90152">
        <ele>497.765112</ele>
        <time>2024-06-27T00:58:50.394Z</time>
      </trkpt>
      <trkpt lat="46.18848" lon="2.90154">
        <ele>498.254538</ele>
        <time>2024-06-27T00:58:54.802Z</time>
      </trkpt>
      <trkpt lat="46.1887" lon="2.90151">
        <ele>498.95076</ele>
        <time>2024-06-27T00:59:01.167Z</time>
      </trkpt>
      <trkpt lat="46.18893" lon="2.90134">
        <ele>499.699707</ele>
        <time>2024-06-27T00:59:08.316Z</time>
      </trkpt>
      <trkpt lat="46.18904" lon="2.9012">
        <ele>499.789187</ele>
        <time>2024-06-27T00:59:12.112Z</time>
      </trkpt>
      <trkpt lat="46.18916" lon="2.90093">
        <ele>499.926712</ele>
        <time>2024-06-27T00:59:17.629Z</time>
      </trkpt>
      <trkpt lat="46.18936" lon="2.90032">
        <ele>500.214315</ele>
        <time>2024-06-27T00:59:27.714Z</time>
      </trkpt>
      <trkpt lat="46.18949" lon="2.89991">
        <ele>500.403219</ele>
        <time>2024-06-27T00:59:33.099Z</time>
      </trkpt>
      <trkpt lat="46.18953" lon="2.8997">
        <ele>500.497382</ele>
        <time>2024-06-27T00:59:35.463Z</time>
      </trkpt>
      <trkpt lat="46.18971" lon="2.89924">
        <ele>500.721292</ele>
        <time>2024-06-27T00:59:41.966Z</time>
      </trkpt>
      <trkpt lat="46.19012" lon="2.89779">
        <ele>496.243872</ele>
        <time>2024-06-27T00:59:57.600Z</time>
      </trkpt>
      <trkpt lat="46.19041" lon="2.89722">
        <ele>493.974463</ele>
        <time>2024-06-27T01:00:04.044Z</time>
      </trkpt>
      <trkpt lat="46.19054" lon="2.89689">
        <ele>492.758637</ele>
        <time>2024-06-27T01:00:07.425Z</time>
      </trkpt>
      <trkpt lat="46.19058" lon="2.89668">
        <ele>491.706068</ele>
        <time>2024-06-27T01:00:09.346Z</time>
      </trkpt>
      <trkpt lat="46.19062" lon="2.89628">
        <ele>489.27053</ele>
        <time>2024-06-27T01:00:12.841Z</time>
      </trkpt>
      <trkpt lat="46.19069" lon="2.89511">
        <ele>482.052696</ele>
        <time>2024-06-27T01:00:22.960Z</time>
      </trkpt>
      <trkpt lat="46.19082" lon="2.89444">
        <ele>477.799383</ele>
        <time>2024-06-27T01:00:28.858Z</time>
      </trkpt>
      <trkpt lat="46.19092" lon="2.89429">
        <ele>476.561364</ele>
        <time>2024-06-27T01:00:30.570Z</time>
      </trkpt>
      <trkpt lat="46.19158" lon="2.89373">
        <ele>469.498034</ele>
        <time>2024-06-27T01:00:39.927Z</time>
      </trkpt>
      <trkpt lat="46.19168" lon="2.89359">
        <ele>468.197788</ele>
        <time>2024-06-27T01:00:41.646Z</time>
      </trkpt>
      <trkpt lat="46.19182" lon="2.89298">
        <ele>464.12677</ele>
        <time>2024-06-27T01:00:47.074Z</time>
      </trkpt>
      <trkpt lat="46.19208" lon="2.89215">
        <ele>459.135047</ele>
        <time>2024-06-27T01:00:55.021Z</time>
      </trkpt>
      <trkpt lat="46.19212" lon="2.89197">
        <ele>458.553679</ele>
        <time>2024-06-27T01:00:56.641Z</time>
      </trkpt>
      <trkpt lat="46.1921" lon="2.89174">
        <ele>457.831486</ele>
        <time>2024-06-27T01:00:58.677Z</time>
      </trkpt>
      <trkpt lat="46.19205" lon="2.89156">
        <ele>457.219023</ele>
        <time>2024-06-27T01:01:00.437Z</time>
      </trkpt>
      <trkpt lat="46.19195" lon="2.89135">
        <ele>456.423507</ele>
        <time>2024-06-27T01:01:02.727Z</time>
      </trkpt>
      <trkpt lat="46.1918" lon="2.89113">
        <ele>455.441366</ele>
        <time>2024-06-27T01:01:05.654Z</time>
      </trkpt>
      <trkpt lat="46.19174" lon="2.89098">
        <ele>454.892687</ele>
        <time>2024-06-27T01:01:07.328Z</time>
      </trkpt>
      <trkpt lat="46.19189" lon="2.89091">
        <ele>454.162483</ele>
        <time>2024-06-27T01:01:08.965Z</time>
      </trkpt>
      <trkpt lat="46.19203" lon="2.89077">
        <ele>453.393767</ele>
        <time>2024-06-27T01:01:10.710Z</time>
      </trkpt>
      <trkpt lat="46.19212" lon="2.89061">
        <ele>452.740135</ele>
        <time>2024-06-27T01:01:12.359Z</time>
      </trkpt>
      <trkpt lat="46.19215" lon="2.89051">
        <ele>452.39617</ele>
        <time>2024-06-27T01:01:13.230Z</time>
      </trkpt>
      <trkpt lat="46.19219" lon="2.89025">
        <ele>451.933838</ele>
        <time>2024-06-27T01:01:15.440Z</time>
      </trkpt>
      <trkpt lat="46.19232" lon="2.88938">
        <ele>453.601902</ele>
        <time>2024-06-27T01:01:27.066Z</time>
      </trkpt>
      <trkpt lat="46.19187" lon="2.88898">
        <ele>455.007799</ele>
        <time>2024-06-27T01:01:41.354Z</time>
      </trkpt>
      <trkpt lat="46.19158" lon="2.88867">
        <ele>455.987928</ele>
        <time>2024-06-27T01:01:53.281Z</time>
      </trkpt>
      <trkpt lat="46.19145" lon="2.88847">
        <ele>456.510136</ele>
        <time>2024-06-27T01:02:00.382Z</time>
      </trkpt>
      <trkpt lat="46.19133" lon="2.88826">
        <ele>457.517469</ele>
        <time>2024-06-27T01:02:07.516Z</time>
      </trkpt>
      <trkpt lat="46.19097" lon="2.88734">
        <ele>462.190557</ele>
        <time>2024-06-27T01:02:37.396Z</time>
      </trkpt>
      <trkpt lat="46.19089" lon="2.88701">
        <ele>463.739032</ele>
        <time>2024-06-27T01:02:47.465Z</time>
      </trkpt>
      <trkpt lat="46.19086" lon="2.88668">
        <ele>465.239389</ele>
        <time>2024-06-27T01:02:57.179Z</time>
      </trkpt>
      <trkpt lat="46.19097" lon="2.8855">
        <ele>470.664127</ele>
        <time>2024-06-27T01:03:31.366Z</time>
      </trkpt>
      <trkpt lat="46.19097" lon="2.88521">
        <ele>472.039212</ele>
        <time>2024-06-27T01:03:39.792Z</time>
      </trkpt>
      <trkpt lat="46.1909" lon="2.885">
        <ele>473.140249</ele>
        <time>2024-06-27T01:03:46.651Z</time>
      </trkpt>
      <trkpt lat="46.19081" lon="2.88488">
        <ele>474.016868</ele>
        <time>2024-06-27T01:03:52.073Z</time>
      </trkpt>
      <trkpt lat="46.19046" lon="2.88462">
        <ele>476.733732</ele>
        <time>2024-06-27T01:04:08.929Z</time>
      </trkpt>
      <trkpt lat="46.19039" lon="2.88447">
        <ele>477.543322</ele>
        <time>2024-06-27T01:04:13.919Z</time>
      </trkpt>
      <trkpt lat="46.19031" lon="2.88399">
        <ele>479.913895</ele>
        <time>2024-06-27T01:04:28.778Z</time>
      </trkpt>
      <trkpt lat="46.19022" lon="2.88231">
        <ele>488.257864</ele>
        <time>2024-06-27T01:05:18.884Z</time>
      </trkpt>
      <trkpt lat="46.19025" lon="2.88182">
        <ele>490.671769</ele>
        <time>2024-06-27T01:05:33.488Z</time>
      </trkpt>
      <trkpt lat="46.19032" lon="2.88152">
        <ele>492.251134</ele>
        <time>2024-06-27T01:05:43.279Z</time>
      </trkpt>
      <trkpt lat="46.19057" lon="2.88033">
        <ele>498.737549</ele>
        <time>2024-06-27T01:06:22.317Z</time>
      </trkpt>
      <trkpt lat="46.19064" lon="2.8801">
        <ele>500.026788</ele>
        <time>2024-06-27T01:06:30.145Z</time>
      </trkpt>
      <trkpt lat="46.19093" lon="2.87943">
        <ele>504.19107</ele>
        <time>2024-06-27T01:06:55.138Z</time>
      </trkpt>
      <trkpt lat="46.19099" lon="2.87912">
        <ele>505.876042</ele>
        <time>2024-06-27T01:07:05.417Z</time>
      </trkpt>
      <trkpt lat="46.19104" lon="2.87897">
        <ele>506.753079</ele>
        <time>2024-06-27T01:07:10.561Z</time>
      </trkpt>
      <trkpt lat="46.1911" lon="2.87888">
        <ele>507.372279</ele>
        <time>2024-06-27T01:07:14.843Z</time>
      </trkpt>
      <trkpt lat="46.19122" lon="2.87881">
        <ele>508.096453</ele>
        <time>2024-06-27T01:07:20.307Z</time>
      </trkpt>
      <trkpt lat="46.19168" lon="2.87871">
        <ele>510.94715</ele>
        <time>2024-06-27T01:07:41.048Z</time>
      </trkpt>
      <trkpt lat="46.19207" lon="2.87871">
        <ele>513.300038</ele>
        <time>2024-06-27T01:07:56.943Z</time>
      </trkpt>
      <trkpt lat="46.19224" lon="2.87857">
        <ele>514.477024</ele>
        <time>2024-06-27T01:08:04.412Z</time>
      </trkpt>
      <trkpt lat="46.19229" lon="2.87844">
        <ele>515.077613</ele>
        <time>2024-06-27T01:08:07.988Z</time>
      </trkpt>
      <trkpt lat="46.19236" lon="2.87782">
        <ele>517.718585</ele>
        <time>2024-06-27T01:08:22.679Z</time>
      </trkpt>
      <trkpt lat="46.19243" lon="2.8775">
        <ele>518.328851</ele>
        <time>2024-06-27T01:08:29.766Z</time>
      </trkpt>
      <trkpt lat="46.19246" lon="2.8774">
        <ele>518.493353</ele>
        <time>2024-06-27T01:08:31.901Z</time>
      </trkpt>
      <trkpt lat="46.19254" lon="2.87731">
        <ele>518.705048</ele>
        <time>2024-06-27T01:08:34.634Z</time>
      </trkpt>
      <trkpt lat="46.19281" lon="2.87711">
        <ele>519.357887</ele>
        <time>2024-06-27T01:08:42.481Z</time>
      </trkpt>
      <trkpt lat="46.19369" lon="2.87664">
        <ele>521.385617</ele>
        <time>2024-06-27T01:09:01.740Z</time>
      </trkpt>
      <trkpt lat="46.19378" lon="2.87653">
        <ele>521.627396</ele>
        <time>2024-06-27T01:09:03.717Z</time>
      </trkpt>
      <trkpt lat="46.19386" lon="2.87635">
        <ele>521.830004</ele>
        <time>2024-06-27T01:09:06.327Z</time>
      </trkpt>
      <trkpt lat="46.1943" lon="2.87527">
        <ele>522.504065</ele>
        <time>2024-06-27T01:09:21.194Z</time>
      </trkpt>
      <trkpt lat="46.19439" lon="2.87508">
        <ele>522.626309</ele>
        <time>2024-06-27T01:09:23.892Z</time>
      </trkpt>
      <trkpt lat="46.19468" lon="2.87464">
        <ele>522.955328</ele>
        <time>2024-06-27T01:09:31.153Z</time>
      </trkpt>
      <trkpt lat="46.19498" lon="2.87435">
        <ele>523.386996</ele>
        <time>2024-06-27T01:09:37.622Z</time>
      </trkpt>
      <trkpt lat="46.19526" lon="2.87413">
        <ele>524.097657</ele>
        <time>2024-06-27T01:09:43.970Z</time>
      </trkpt>
      <trkpt lat="46.19537" lon="2.87401">
        <ele>524.399956</ele>
        <time>2024-06-27T01:09:46.949Z</time>
      </trkpt>
      <trkpt lat="46.196" lon="2.87303">
        <ele>526.473853</ele>
        <time>2024-06-27T01:10:10.388Z</time>
      </trkpt>
      <trkpt lat="46.1962" lon="2.87274">
        <ele>527.12727</ele>
        <time>2024-06-27T01:10:18.449Z</time>
      </trkpt>
      <trkpt lat="46.19686" lon="2.87212">
        <ele>529.119704</ele>
        <time>2024-06-27T01:10:39.893Z</time>
      </trkpt>
      <trkpt lat="46.19704" lon="2.87184">
        <ele>529.796886</ele>
        <time>2024-06-27T01:10:47.235Z</time>
      </trkpt>
      <trkpt lat="46.19715" lon="2.87197">
        <ele>530.151483</ele>
        <time>2024-06-27T01:10:51.558Z</time>
      </trkpt>
      <trkpt lat="46.19704" lon="2.87184">
        <ele>530.506079</ele>
        <time>2024-06-27T01:10:56.062Z</time>
      </trkpt>
      <trkpt lat="46.19712" lon="2.87164">
        <ele>530.917969</ele>
        <time>2024-06-27T01:11:00.431Z</time>
      </trkpt>
      <trkpt lat="46.19719" lon="2.87135">
        <ele>531.46027</ele>
        <time>2024-06-27T01:11:05.723Z</time>
      </trkpt>
      <trkpt lat="46.19805" lon="2.86606">
        <ele>531.957489</ele>
        <time>2024-06-27T01:12:03.342Z</time>
      </trkpt>
      <trkpt lat="46.19875" lon="2.86315">
        <ele>526.37193</ele>
        <time>2024-06-27T01:12:25.196Z</time>
      </trkpt>
      <trkpt lat="46.19912" lon="2.86201">
        <ele>523.99355</ele>
        <time>2024-06-27T01:12:33.940Z</time>
      </trkpt>
      <trkpt lat="46.19923" lon="2.86128">
        <ele>522.577303</ele>
        <time>2024-06-27T01:12:39.482Z</time>
      </trkpt>
      <trkpt lat="46.19942" lon="2.86022">
        <ele>522.901546</ele>
        <time>2024-06-27T01:12:48.768Z</time>
      </trkpt>
      <trkpt lat="46.19951" lon="2.85984">
        <ele>523.078457</ele>
        <time>2024-06-27T01:12:53.370Z</time>
      </trkpt>
      <trkpt lat="46.1996" lon="2.8596">
        <ele>523.197344</ele>
        <time>2024-06-27T01:12:56.985Z</time>
      </trkpt>
      <trkpt lat="46.19977" lon="2.85936">
        <ele>523.345808</ele>
        <time>2024-06-27T01:13:01.702Z</time>
      </trkpt>
      <trkpt lat="46.1999" lon="2.85908">
        <ele>523.491332</ele>
        <time>2024-06-27T01:13:07.182Z</time>
      </trkpt>
      <trkpt lat="46.20085" lon="2.85667">
        <ele>531.148845</ele>
        <time>2024-06-27T01:14:07.997Z</time>
      </trkpt>
      <trkpt lat="46.20095" lon="2.85635">
        <ele>532.764763</ele>
        <time>2024-06-27T01:14:17.704Z</time>
      </trkpt>
      <trkpt lat="46.20099" lon="2.85607">
        <ele>534.106584</ele>
        <time>2024-06-27T01:14:25.563Z</time>
      </trkpt>
      <trkpt lat="46.20103" lon="2.85562">
        <ele>536.272826</ele>
        <time>2024-06-27T01:14:38.620Z</time>
      </trkpt>
      <trkpt lat="46.20102" lon="2.85529">
        <ele>537.844932</ele>
        <time>2024-06-27T01:14:48.419Z</time>
      </trkpt>
      <trkpt lat="46.20105" lon="2.85506">
        <ele>538.959502</ele>
        <time>2024-06-27T01:14:55.413Z</time>
      </trkpt>
      <trkpt lat="46.20112" lon="2.85489">
        <ele>539.870639</ele>
        <time>2024-06-27T01:15:01.161Z</time>
      </trkpt>
      <trkpt lat="46.20122" lon="2.85476">
        <ele>540.808338</ele>
        <time>2024-06-27T01:15:07.163Z</time>
      </trkpt>
      <trkpt lat="46.20136" lon="2.85465">
        <ele>541.893019</ele>
        <time>2024-06-27T01:15:14.342Z</time>
      </trkpt>
      <trkpt lat="46.20228" lon="2.85446">
        <ele>549.027757</ele>
        <time>2024-06-27T01:15:59.265Z</time>
      </trkpt>
      <trkpt lat="46.20241" lon="2.85441">
        <ele>550.105386</ele>
        <time>2024-06-27T01:16:05.745Z</time>
      </trkpt>
      <trkpt lat="46.2025" lon="2.85434">
        <ele>550.948125</ele>
        <time>2024-06-27T01:16:10.831Z</time>
      </trkpt>
      <trkpt lat="46.20267" lon="2.85414">
        <ele>552.647985</ele>
        <time>2024-06-27T01:16:21.010Z</time>
      </trkpt>
      <trkpt lat="46.20277" lon="2.85394">
        <ele>554.014675</ele>
        <time>2024-06-27T01:16:29.277Z</time>
      </trkpt>
      <trkpt lat="46.20283" lon="2.85374">
        <ele>555.239844</ele>
        <time>2024-06-27T01:16:36.645Z</time>
      </trkpt>
      <trkpt lat="46.20285" lon="2.8535">
        <ele>556.560178</ele>
        <time>2024-06-27T01:16:44.453Z</time>
      </trkpt>
      <trkpt lat="46.20283" lon="2.85328">
        <ele>557.802789</ele>
        <time>2024-06-27T01:16:51.486Z</time>
      </trkpt>
      <trkpt lat="46.20253" lon="2.85172">
        <ele>564.634071</ele>
        <time>2024-06-27T01:17:37.909Z</time>
      </trkpt>
      <trkpt lat="46.20244" lon="2.85157">
        <ele>565.439497</ele>
        <time>2024-06-27T01:17:42.913Z</time>
      </trkpt>
      <trkpt lat="46.20251" lon="2.85109">
        <ele>567.466769</ele>
        <time>2024-06-27T01:17:54.717Z</time>
      </trkpt>
      <trkpt lat="46.20283" lon="2.85">
        <ele>571.096849</ele>
        <time>2024-06-27T01:18:20.743Z</time>
      </trkpt>
      <trkpt lat="46.20291" lon="2.84928">
        <ele>573.037195</ele>
        <time>2024-06-27T01:18:36.560Z</time>
      </trkpt>
      <trkpt lat="46.20298" lon="2.84896">
        <ele>573.913901</ele>
        <time>2024-06-27T01:18:43.258Z</time>
      </trkpt>
      <trkpt lat="46.20304" lon="2.84885">
        <ele>574.286372</ele>
        <time>2024-06-27T01:18:46.323Z</time>
      </trkpt>
      <trkpt lat="46.20314" lon="2.84875">
        <ele>574.764228</ele>
        <time>2024-06-27T01:18:49.992Z</time>
      </trkpt>
      <trkpt lat="46.20356" lon="2.84854">
        <ele>575.468903</ele>
        <time>2024-06-27T01:19:01.606Z</time>
      </trkpt>
      <trkpt lat="46.20363" lon="2.84846">
        <ele>575.364856</ele>
        <time>2024-06-27T01:19:03.939Z</time>
      </trkpt>
      <trkpt lat="46.20371" lon="2.84828">
        <ele>575.197099</ele>
        <time>2024-06-27T01:19:07.479Z</time>
      </trkpt>
      <trkpt lat="46.20372" lon="2.8478">
        <ele>574.822067</ele>
        <time>2024-06-27T01:19:13.428Z</time>
      </trkpt>
      <trkpt lat="46.20374" lon="2.84764">
        <ele>574.694277</ele>
        <time>2024-06-27T01:19:14.837Z</time>
      </trkpt>
      <trkpt lat="46.2038" lon="2.84743">
        <ele>574.516886</ele>
        <time>2024-06-27T01:19:16.833Z</time>
      </trkpt>
      <trkpt lat="46.20356" lon="2.84725">
        <ele>574.20982</ele>
        <time>2024-06-27T01:19:21.007Z</time>
      </trkpt>
      <trkpt lat="46.20342" lon="2.84709">
        <ele>574.007045</ele>
        <time>2024-06-27T01:19:23.683Z</time>
      </trkpt>
      <trkpt lat="46.20314" lon="2.84683">
        <ele>573.475063</ele>
        <time>2024-06-27T01:19:28.230Z</time>
      </trkpt>
      <trkpt lat="46.20251" lon="2.84637">
        <ele>567.59341</ele>
        <time>2024-06-27T01:19:37.186Z</time>
      </trkpt>
      <trkpt lat="46.20216" lon="2.846">
        <ele>564.046701</ele>
        <time>2024-06-27T01:19:42.420Z</time>
      </trkpt>
      <trkpt lat="46.20197" lon="2.84573">
        <ele>561.760106</ele>
        <time>2024-06-27T01:19:45.758Z</time>
      </trkpt>
      <trkpt lat="46.2016" lon="2.84507">
        <ele>557.178038</ele>
        <time>2024-06-27T01:19:52.900Z</time>
      </trkpt>
      <trkpt lat="46.20107" lon="2.84382">
        <ele>550.081277</ele>
        <time>2024-06-27T01:20:05.644Z</time>
      </trkpt>
      <trkpt lat="46.20095" lon="2.8436">
        <ele>548.745828</ele>
        <time>2024-06-27T01:20:08.202Z</time>
      </trkpt>
      <trkpt lat="46.20066" lon="2.84322">
        <ele>546.074503</ele>
        <time>2024-06-27T01:20:13.721Z</time>
      </trkpt>
      <trkpt lat="46.20057" lon="2.84316">
        <ele>545.919298</ele>
        <time>2024-06-27T01:20:15.146Z</time>
      </trkpt>
      <trkpt lat="46.20047" lon="2.84313">
        <ele>545.764222</ele>
        <time>2024-06-27T01:20:16.591Z</time>
      </trkpt>
      <trkpt lat="46.20014" lon="2.84316">
        <ele>545.240218</ele>
        <time>2024-06-27T01:20:21.712Z</time>
      </trkpt>
      <trkpt lat="46.20006" lon="2.84317">
        <ele>545.106456</ele>
        <time>2024-06-27T01:20:23.073Z</time>
      </trkpt>
      <trkpt lat="46.19988" lon="2.84309">
        <ele>544.803702</ele>
        <time>2024-06-27T01:20:26.268Z</time>
      </trkpt>
      <trkpt lat="46.19927" lon="2.84231">
        <ele>543.510147</ele>
        <time>2024-06-27T01:20:40.928Z</time>
      </trkpt>
      <trkpt lat="46.19908" lon="2.84211">
        <ele>543.257396</ele>
        <time>2024-06-27T01:20:45.251Z</time>
      </trkpt>
      <trkpt lat="46.1987" lon="2.84184">
        <ele>543.341321</ele>
        <time>2024-06-27T01:20:53.588Z</time>
      </trkpt>
      <trkpt lat="46.19837" lon="2.84149">
        <ele>543.422154</ele>
        <time>2024-06-27T01:21:02.459Z</time>
      </trkpt>
      <trkpt lat="46.19805" lon="2.84112">
        <ele>543.502047</ele>
        <time>2024-06-27T01:21:11.475Z</time>
      </trkpt>
      <trkpt lat="46.1978" lon="2.84082">
        <ele>543.565424</ele>
        <time>2024-06-27T01:21:18.479Z</time>
      </trkpt>
      <trkpt lat="46.19759" lon="2.84056">
        <ele>543.667741</ele>
        <time>2024-06-27T01:21:24.500Z</time>
      </trkpt>
      <trkpt lat="46.19745" lon="2.84032">
        <ele>543.809553</ele>
        <time>2024-06-27T01:21:29.473Z</time>
      </trkpt>
      <trkpt lat="46.19713" lon="2.83964">
        <ele>544.17545</ele>
        <time>2024-06-27T01:21:42.414Z</time>
      </trkpt>
      <trkpt lat="46.19635" lon="2.83863">
        <ele>544.636112</ele>
        <time>2024-06-27T01:22:07.302Z</time>
      </trkpt>
      <trkpt lat="46.19605" lon="2.83816">
        <ele>544.280662</ele>
        <time>2024-06-27T01:22:16.499Z</time>
      </trkpt>
      <trkpt lat="46.19594" lon="2.83794">
        <ele>544.129257</ele>
        <time>2024-06-27T01:22:20.061Z</time>
      </trkpt>
      <trkpt lat="46.19559" lon="2.83711">
        <ele>543.593177</ele>
        <time>2024-06-27T01:22:31.884Z</time>
      </trkpt>
      <trkpt lat="46.19501" lon="2.83494">
        <ele>539.149256</ele>
        <time>2024-06-27T01:22:56.014Z</time>
      </trkpt>
      <trkpt lat="46.19458" lon="2.83336">
        <ele>534.628291</ele>
        <time>2024-06-27T01:23:12.036Z</time>
      </trkpt>
      <trkpt lat="46.1945" lon="2.83319">
        <ele>534.03519</ele>
        <time>2024-06-27T01:23:13.892Z</time>
      </trkpt>
      <trkpt lat="46.19425" lon="2.83277">
        <ele>532.38315</ele>
        <time>2024-06-27T01:23:19.105Z</time>
      </trkpt>
      <trkpt lat="46.19379" lon="2.83234">
        <ele>530.06536</ele>
        <time>2024-06-27T01:23:26.720Z</time>
      </trkpt>
      <trkpt lat="46.19368" lon="2.83218">
        <ele>529.72782</ele>
        <time>2024-06-27T01:23:29.076Z</time>
      </trkpt>
      <trkpt lat="46.19361" lon="2.83205">
        <ele>529.82519</ele>
        <time>2024-06-27T01:23:30.816Z</time>
      </trkpt>
      <trkpt lat="46.19356" lon="2.83173">
        <ele>530.019007</ele>
        <time>2024-06-27T01:23:34.440Z</time>
      </trkpt>
      <trkpt lat="46.19348" lon="2.83095">
        <ele>530.481128</ele>
        <time>2024-06-27T01:23:44.567Z</time>
      </trkpt>
      <trkpt lat="46.19334" lon="2.83005">
        <ele>531.023551</ele>
        <time>2024-06-27T01:24:04.329Z</time>
      </trkpt>
      <trkpt lat="46.19327" lon="2.82936">
        <ele>532.856918</ele>
        <time>2024-06-27T01:24:23.767Z</time>
      </trkpt>
      <trkpt lat="46.19321" lon="2.82901">
        <ele>534.338975</ele>
        <time>2024-06-27T01:24:34.696Z</time>
      </trkpt>
      <trkpt lat="46.19316" lon="2.82886">
        <ele>535.0113</ele>
        <time>2024-06-27T01:24:39.622Z</time>
      </trkpt>
      <trkpt lat="46.19308" lon="2.82873">
        <ele>535.724658</ele>
        <time>2024-06-27T01:24:45.340Z</time>
      </trkpt>
      <trkpt lat="46.19278" lon="2.82835">
        <ele>538.127838</ele>
        <time>2024-06-27T01:25:03.861Z</time>
      </trkpt>
      <trkpt lat="46.19268" lon="2.82823">
        <ele>538.920771</ele>
        <time>2024-06-27T01:25:09.884Z</time>
      </trkpt>
      <trkpt lat="46.19247" lon="2.82789">
        <ele>540.804405</ele>
        <time>2024-06-27T01:25:24.696Z</time>
      </trkpt>
      <trkpt lat="46.19193" lon="2.82692">
        <ele>545.903437</ele>
        <time>2024-06-27T01:26:05.447Z</time>
      </trkpt>
      <trkpt lat="46.19184" lon="2.82679">
        <ele>546.678758</ele>
        <time>2024-06-27T01:26:11.446Z</time>
      </trkpt>
      <trkpt lat="46.19165" lon="2.82663">
        <ele>547.945232</ele>
        <time>2024-06-27T01:26:21.125Z</time>
      </trkpt>
      <trkpt lat="46.19113" lon="2.82633">
        <ele>551.275798</ele>
        <time>2024-06-27T01:26:44.678Z</time>
      </trkpt>
      <trkpt lat="46.19051" lon="2.82612">
        <ele>554.106837</ele>
        <time>2024-06-27T01:27:09.438Z</time>
      </trkpt>
      <trkpt lat="46.19031" lon="2.82602">
        <ele>554.908073</ele>
        <time>2024-06-27T01:27:17.523Z</time>
      </trkpt>
      <trkpt lat="46.18871" lon="2.82506">
        <ele>560.30051</ele>
        <time>2024-06-27T01:28:14.333Z</time>
      </trkpt>
      <trkpt lat="46.18835" lon="2.82475">
        <ele>561.10753</ele>
        <time>2024-06-27T01:28:25.952Z</time>
      </trkpt>
      <trkpt lat="46.18774" lon="2.82407">
        <ele>562.611022</ele>
        <time>2024-06-27T01:28:46.136Z</time>
      </trkpt>
      <trkpt lat="46.18716" lon="2.82339">
        <ele>561.632694</ele>
        <time>2024-06-27T01:29:01.498Z</time>
      </trkpt>
      <trkpt lat="46.18696" lon="2.82311">
        <ele>561.204225</ele>
        <time>2024-06-27T01:29:06.164Z</time>
      </trkpt>
      <trkpt lat="46.18647" lon="2.8224">
        <ele>560.141013</ele>
        <time>2024-06-27T01:29:16.498Z</time>
      </trkpt>
      <trkpt lat="46.18638" lon="2.82222">
        <ele>559.820836</ele>
        <time>2024-06-27T01:29:18.692Z</time>
      </trkpt>
      <trkpt lat="46.18616" lon="2.82154">
        <ele>557.566267</ele>
        <time>2024-06-27T01:29:25.864Z</time>
      </trkpt>
      <trkpt lat="46.18595" lon="2.82047">
        <ele>554.195614</ele>
        <time>2024-06-27T01:29:36.378Z</time>
      </trkpt>
      <trkpt lat="46.18579" lon="2.81985">
        <ele>552.192012</ele>
        <time>2024-06-27T01:29:42.591Z</time>
      </trkpt>
      <trkpt lat="46.18572" lon="2.81962">
        <ele>551.757991</ele>
        <time>2024-06-27T01:29:44.948Z</time>
      </trkpt>
      <trkpt lat="46.18555" lon="2.81924">
        <ele>551.044367</ele>
        <time>2024-06-27T01:29:49.375Z</time>
      </trkpt>
      <trkpt lat="46.1853" lon="2.81889">
        <ele>550.27359</ele>
        <time>2024-06-27T01:29:54.338Z</time>
      </trkpt>
      <trkpt lat="46.18444" lon="2.81791">
        <ele>548.452624</ele>
        <time>2024-06-27T01:30:12.935Z</time>
      </trkpt>
      <trkpt lat="46.18426" lon="2.81779">
        <ele>549.192975</ele>
        <time>2024-06-27T01:30:17.776Z</time>
      </trkpt>
      <trkpt lat="46.18397" lon="2.81771">
        <ele>550.297078</ele>
        <time>2024-06-27T01:30:26.326Z</time>
      </trkpt>
      <trkpt lat="46.18356" lon="2.81764">
        <ele>551.81566</ele>
        <time>2024-06-27T01:30:40.056Z</time>
      </trkpt>
      <trkpt lat="46.18324" lon="2.81742">
        <ele>553.129604</ele>
        <time>2024-06-27T01:30:53.971Z</time>
      </trkpt>
      <trkpt lat="46.18177" lon="2.81642">
        <ele>563.786704</ele>
        <time>2024-06-27T01:32:15.972Z</time>
      </trkpt>
      <trkpt lat="46.18134" lon="2.81615">
        <ele>567.312164</ele>
        <time>2024-06-27T01:32:40.682Z</time>
      </trkpt>
      <trkpt lat="46.18084" lon="2.81591">
        <ele>570.936091</ele>
        <time>2024-06-27T01:33:07.876Z</time>
      </trkpt>
      <trkpt lat="46.18072" lon="2.81582">
        <ele>571.792732</ele>
        <time>2024-06-27T01:33:14.376Z</time>
      </trkpt>
      <trkpt lat="46.18031" lon="2.81533">
        <ele>575.287634</ele>
        <time>2024-06-27T01:33:39.771Z</time>
      </trkpt>
      <trkpt lat="46.17984" lon="2.81486">
        <ele>579.080453</ele>
        <time>2024-06-27T01:34:05.277Z</time>
      </trkpt>
      <trkpt lat="46.17926" lon="2.81441">
        <ele>581.942475</ele>
        <time>2024-06-27T01:34:31.531Z</time>
      </trkpt>
      <trkpt lat="46.17914" lon="2.81429">
        <ele>582.451014</ele>
        <time>2024-06-27T01:34:36.801Z</time>
      </trkpt>
      <trkpt lat="46.17881" lon="2.81371">
        <ele>584.3088</ele>
        <time>2024-06-27T01:34:54.749Z</time>
      </trkpt>
      <trkpt lat="46.17824" lon="2.81269">
        <ele>587.557042</ele>
        <time>2024-06-27T01:35:21.172Z</time>
      </trkpt>
      <trkpt lat="46.17806" lon="2.81251">
        <ele>588.37415</ele>
        <time>2024-06-27T01:35:27.502Z</time>
      </trkpt>
      <trkpt lat="46.17817" lon="2.81226">
        <ele>589.100724</ele>
        <time>2024-06-27T01:35:32.833Z</time>
      </trkpt>
      <trkpt lat="46.17838" lon="2.8116">
        <ele>590.930266</ele>
        <time>2024-06-27T01:35:48.207Z</time>
      </trkpt>
      <trkpt lat="46.1785" lon="2.81143">
        <ele>591.568461</ele>
        <time>2024-06-27T01:35:54.639Z</time>
      </trkpt>
      <trkpt lat="46.17888" lon="2.81112">
        <ele>593.171278</ele>
        <time>2024-06-27T01:36:14.387Z</time>
      </trkpt>
      <trkpt lat="46.17918" lon="2.81076">
        <ele>596.678716</ele>
        <time>2024-06-27T01:36:32.662Z</time>
      </trkpt>
      <trkpt lat="46.17923" lon="2.8107">
        <ele>597.25181</ele>
        <time>2024-06-27T01:36:35.592Z</time>
      </trkpt>
      <trkpt lat="46.17956" lon="2.81038">
        <ele>600.826563</ele>
        <time>2024-06-27T01:36:57.309Z</time>
      </trkpt>
      <trkpt lat="46.17967" lon="2.80993">
        <ele>603.848259</ele>
        <time>2024-06-27T01:37:17.351Z</time>
      </trkpt>
      <trkpt lat="46.17978" lon="2.80956">
        <ele>606.384025</ele>
        <time>2024-06-27T01:37:35.743Z</time>
      </trkpt>
      <trkpt lat="46.17984" lon="2.80956">
        <ele>606.953913</ele>
        <time>2024-06-27T01:37:39.431Z</time>
      </trkpt>
      <trkpt lat="46.18" lon="2.80971">
        <ele>608.659683</ele>
        <time>2024-06-27T01:37:51.962Z</time>
      </trkpt>
      <trkpt lat="46.18014" lon="2.80969">
        <ele>609.819515</ele>
        <time>2024-06-27T01:38:01.108Z</time>
      </trkpt>
      <trkpt lat="46.18011" lon="2.80947">
        <ele>610.989011</ele>
        <time>2024-06-27T01:38:11.400Z</time>
      </trkpt>
      <trkpt lat="46.18012" lon="2.80924">
        <ele>612.15426</ele>
        <time>2024-06-27T01:38:22.062Z</time>
      </trkpt>
      <trkpt lat="46.18016" lon="2.80897">
        <ele>613.553148</ele>
        <time>2024-06-27T01:38:33.479Z</time>
      </trkpt>
      <trkpt lat="46.18028" lon="2.80879">
        <ele>614.855059</ele>
        <time>2024-06-27T01:38:44.379Z</time>
      </trkpt>
      <trkpt lat="46.18044" lon="2.80857">
        <ele>616.486765</ele>
        <time>2024-06-27T01:38:56.192Z</time>
      </trkpt>
      <trkpt lat="46.18047" lon="2.80846">
        <ele>617.093466</ele>
        <time>2024-06-27T01:39:00.699Z</time>
      </trkpt>
      <trkpt lat="46.18054" lon="2.80819">
        <ele>618.582504</ele>
        <time>2024-06-27T01:39:10.071Z</time>
      </trkpt>
      <trkpt lat="46.18057" lon="2.80807">
        <ele>619.196487</ele>
        <time>2024-06-27T01:39:13.440Z</time>
      </trkpt>
      <trkpt lat="46.1807" lon="2.80757">
        <ele>621.94535</ele>
        <time>2024-06-27T01:39:27.437Z</time>
      </trkpt>
      <trkpt lat="46.18085" lon="2.80716">
        <ele>621.892042</ele>
        <time>2024-06-27T01:39:36.814Z</time>
      </trkpt>
      <trkpt lat="46.18092" lon="2.80701">
        <ele>621.440978</ele>
        <time>2024-06-27T01:39:39.507Z</time>
      </trkpt>
      <trkpt lat="46.181" lon="2.80692">
        <ele>621.06191</ele>
        <time>2024-06-27T01:39:41.390Z</time>
      </trkpt>
      <trkpt lat="46.18109" lon="2.80687">
        <ele>620.724323</ele>
        <time>2024-06-27T01:39:43.393Z</time>
      </trkpt>
      <trkpt lat="46.18142" lon="2.80676">
        <ele>619.541576</ele>
        <time>2024-06-27T01:39:48.274Z</time>
      </trkpt>
      <trkpt lat="46.18145" lon="2.80674">
        <ele>619.413155</ele>
        <time>2024-06-27T01:39:48.789Z</time>
      </trkpt>
      <trkpt lat="46.18144" lon="2.80645">
        <ele>618.678628</ele>
        <time>2024-06-27T01:39:51.503Z</time>
      </trkpt>
      <trkpt lat="46.1814" lon="2.80638">
        <ele>618.464958</ele>
        <time>2024-06-27T01:39:52.282Z</time>
      </trkpt>
      <trkpt lat="46.18144" lon="2.80634">
        <ele>618.273793</ele>
        <time>2024-06-27T01:39:52.799Z</time>
      </trkpt>
      <trkpt lat="46.1817" lon="2.80594">
        <ele>616.919732</ele>
        <time>2024-06-27T01:39:56.177Z</time>
      </trkpt>
      <trkpt lat="46.18199" lon="2.80563">
        <ele>614.716752</ele>
        <time>2024-06-27T01:39:59.280Z</time>
      </trkpt>
      <trkpt lat="46.18199" lon="2.80524">
        <ele>612.272633</ele>
        <time>2024-06-27T01:40:02.624Z</time>
      </trkpt>
      <trkpt lat="46.18209" lon="2.80509">
        <ele>611.014712</ele>
        <time>2024-06-27T01:40:04.365Z</time>
      </trkpt>
      <trkpt lat="46.18217" lon="2.80489">
        <ele>609.601708</ele>
        <time>2024-06-27T01:40:06.274Z</time>
      </trkpt>
      <trkpt lat="46.18224" lon="2.8039">
        <ele>603.42761</ele>
        <time>2024-06-27T01:40:14.698Z</time>
      </trkpt>
      <trkpt lat="46.18236" lon="2.80347">
        <ele>600.583788</ele>
        <time>2024-06-27T01:40:18.636Z</time>
      </trkpt>
      <trkpt lat="46.18295" lon="2.80238">
        <ele>595.507441</ele>
        <time>2024-06-27T01:40:31.142Z</time>
      </trkpt>
      <trkpt lat="46.18299" lon="2.8022">
        <ele>594.837583</ele>
        <time>2024-06-27T01:40:32.941Z</time>
      </trkpt>
      <trkpt lat="46.18295" lon="2.80181">
        <ele>593.452116</ele>
        <time>2024-06-27T01:40:36.823Z</time>
      </trkpt>
      <trkpt lat="46.18289" lon="2.80164">
        <ele>592.810057</ele>
        <time>2024-06-27T01:40:38.667Z</time>
      </trkpt>
      <trkpt lat="46.18286" lon="2.80143">
        <ele>592.033409</ele>
        <time>2024-06-27T01:40:40.962Z</time>
      </trkpt>
      <trkpt lat="46.18285" lon="2.80073">
        <ele>590.573308</ele>
        <time>2024-06-27T01:40:48.371Z</time>
      </trkpt>
      <trkpt lat="46.18287" lon="2.80018">
        <ele>589.963276</ele>
        <time>2024-06-27T01:40:52.661Z</time>
      </trkpt>
      <trkpt lat="46.18267" lon="2.79817">
        <ele>587.878839</ele>
        <time>2024-06-27T01:41:09.325Z</time>
      </trkpt>
      <trkpt lat="46.18264" lon="2.79702">
        <ele>587.073706</ele>
        <time>2024-06-27T01:41:19.260Z</time>
      </trkpt>
      <trkpt lat="46.18257" lon="2.79642">
        <ele>586.650918</ele>
        <time>2024-06-27T01:41:24.430Z</time>
      </trkpt>
      <trkpt lat="46.18248" lon="2.79591">
        <ele>586.289573</ele>
        <time>2024-06-27T01:41:28.881Z</time>
      </trkpt>
      <trkpt lat="46.1814" lon="2.79228">
        <ele>583.947757</ele>
        <time>2024-06-27T01:42:02.729Z</time>
      </trkpt>
      <trkpt lat="46.18136" lon="2.79208">
        <ele>583.838497</ele>
        <time>2024-06-27T01:42:04.572Z</time>
      </trkpt>
      <trkpt lat="46.18129" lon="2.791">
        <ele>583.28808</ele>
        <time>2024-06-27T01:42:14.509Z</time>
      </trkpt>
      <trkpt lat="46.18129" lon="2.79061">
        <ele>583.161401</ele>
        <time>2024-06-27T01:42:18.055Z</time>
      </trkpt>
      <trkpt lat="46.18146" lon="2.78983">
        <ele>582.89664</ele>
        <time>2024-06-27T01:42:25.416Z</time>
      </trkpt>
      <trkpt lat="46.18153" lon="2.78897">
        <ele>582.618082</ele>
        <time>2024-06-27T01:42:33.446Z</time>
      </trkpt>
      <trkpt lat="46.18152" lon="2.78876">
        <ele>582.550474</ele>
        <time>2024-06-27T01:42:35.447Z</time>
      </trkpt>
      <trkpt lat="46.18146" lon="2.78854">
        <ele>582.46472</ele>
        <time>2024-06-27T01:42:37.826Z</time>
      </trkpt>
      <trkpt lat="46.18133" lon="2.78828">
        <ele>582.325288</ele>
        <time>2024-06-27T01:42:40.874Z</time>
      </trkpt>
      <trkpt lat="46.18117" lon="2.78796">
        <ele>582.14458</ele>
        <time>2024-06-27T01:42:44.898Z</time>
      </trkpt>
      <trkpt lat="46.18086" lon="2.78711">
        <ele>581.707082</ele>
        <time>2024-06-27T01:42:54.156Z</time>
      </trkpt>
      <trkpt lat="46.18051" lon="2.78588">
        <ele>580.675444</ele>
        <time>2024-06-27T01:43:05.036Z</time>
      </trkpt>
      <trkpt lat="46.1803" lon="2.78542">
        <ele>579.926103</ele>
        <time>2024-06-27T01:43:09.131Z</time>
      </trkpt>
      <trkpt lat="46.18022" lon="2.78515">
        <ele>579.51986</ele>
        <time>2024-06-27T01:43:11.311Z</time>
      </trkpt>
      <trkpt lat="46.17987" lon="2.78369">
        <ele>577.468502</ele>
        <time>2024-06-27T01:43:22.846Z</time>
      </trkpt>
      <trkpt lat="46.17983" lon="2.78343">
        <ele>577.176936</ele>
        <time>2024-06-27T01:43:24.858Z</time>
      </trkpt>
      <trkpt lat="46.17983" lon="2.78283">
        <ele>576.521381</ele>
        <time>2024-06-27T01:43:29.485Z</time>
      </trkpt>
      <trkpt lat="46.17981" lon="2.78265">
        <ele>576.327921</ele>
        <time>2024-06-27T01:43:30.921Z</time>
      </trkpt>
      <trkpt lat="46.17978" lon="2.78244">
        <ele>576.092541</ele>
        <time>2024-06-27T01:43:32.646Z</time>
      </trkpt>
      <trkpt lat="46.17935" lon="2.78099">
        <ele>574.554535</ele>
        <time>2024-06-27T01:43:45.689Z</time>
      </trkpt>
      <trkpt lat="46.17932" lon="2.78076">
        <ele>574.386221</ele>
        <time>2024-06-27T01:43:47.573Z</time>
      </trkpt>
      <trkpt lat="46.17929" lon="2.77997">
        <ele>573.823453</ele>
        <time>2024-06-27T01:43:54.227Z</time>
      </trkpt>
      <trkpt lat="46.17914" lon="2.77908">
        <ele>573.161536</ele>
        <time>2024-06-27T01:44:02.118Z</time>
      </trkpt>
      <trkpt lat="46.17914" lon="2.77882">
        <ele>573.026055</ele>
        <time>2024-06-27T01:44:04.312Z</time>
      </trkpt>
      <trkpt lat="46.17916" lon="2.77871">
        <ele>573.003042</ele>
        <time>2024-06-27T01:44:05.309Z</time>
      </trkpt>
      <trkpt lat="46.17927" lon="2.77846">
        <ele>572.943056</ele>
        <time>2024-06-27T01:44:07.858Z</time>
      </trkpt>
      <trkpt lat="46.17941" lon="2.77826">
        <ele>572.884859</ele>
        <time>2024-06-27T01:44:10.358Z</time>
      </trkpt>
      <trkpt lat="46.17958" lon="2.77809">
        <ele>572.821559</ele>
        <time>2024-06-27T01:44:13.169Z</time>
      </trkpt>
      <trkpt lat="46.17968" lon="2.77792">
        <ele>572.776841</ele>
        <time>2024-06-27T01:44:15.306Z</time>
      </trkpt>
      <trkpt lat="46.17973" lon="2.77769">
        <ele>572.728077</ele>
        <time>2024-06-27T01:44:17.621Z</time>
      </trkpt>
      <trkpt lat="46.17974" lon="2.77744">
        <ele>572.675214</ele>
        <time>2024-06-27T01:44:20.372Z</time>
      </trkpt>
      <trkpt lat="46.17973" lon="2.77707">
        <ele>572.600031</ele>
        <time>2024-06-27T01:44:24.318Z</time>
      </trkpt>
      <trkpt lat="46.17966" lon="2.77672">
        <ele>572.526279</ele>
        <time>2024-06-27T01:44:28.649Z</time>
      </trkpt>
      <trkpt lat="46.17933" lon="2.77591">
        <ele>571.866115</ele>
        <time>2024-06-27T01:44:38.371Z</time>
      </trkpt>
      <trkpt lat="46.17913" lon="2.77546">
        <ele>571.471084</ele>
        <time>2024-06-27T01:44:43.046Z</time>
      </trkpt>
      <trkpt lat="46.17836" lon="2.77442">
        <ele>569.846757</ele>
        <time>2024-06-27T01:44:54.710Z</time>
      </trkpt>
      <trkpt lat="46.17822" lon="2.77426">
        <ele>569.267348</ele>
        <time>2024-06-27T01:44:56.569Z</time>
      </trkpt>
      <trkpt lat="46.17772" lon="2.77386">
        <ele>567.454242</ele>
        <time>2024-06-27T01:45:02.286Z</time>
      </trkpt>
      <trkpt lat="46.17743" lon="2.77333">
        <ele>565.960607</ele>
        <time>2024-06-27T01:45:06.917Z</time>
      </trkpt>
      <trkpt lat="46.17722" lon="2.77304">
        <ele>565.028603</ele>
        <time>2024-06-27T01:45:09.782Z</time>
      </trkpt>
      <trkpt lat="46.17699" lon="2.77279">
        <ele>563.93091</ele>
        <time>2024-06-27T01:45:12.609Z</time>
      </trkpt>
      <trkpt lat="46.17646" lon="2.77235">
        <ele>561.540919</ele>
        <time>2024-06-27T01:45:18.541Z</time>
      </trkpt>
      <trkpt lat="46.17626" lon="2.77214">
        <ele>560.542888</ele>
        <time>2024-06-27T01:45:21.007Z</time>
      </trkpt>
      <trkpt lat="46.17609" lon="2.77198">
        <ele>559.738371</ele>
        <time>2024-06-27T01:45:22.984Z</time>
      </trkpt>
      <trkpt lat="46.17546" lon="2.77096">
        <ele>556.351786</ele>
        <time>2024-06-27T01:45:32.178Z</time>
      </trkpt>
      <trkpt lat="46.1753" lon="2.77054">
        <ele>555.286515</ele>
        <time>2024-06-27T01:45:35.466Z</time>
      </trkpt>
      <trkpt lat="46.17515" lon="2.77001">
        <ele>553.998719</ele>
        <time>2024-06-27T01:45:39.473Z</time>
      </trkpt>
      <trkpt lat="46.17479" lon="2.76809">
        <ele>551.078124</ele>
        <time>2024-06-27T01:45:54.116Z</time>
      </trkpt>
      <trkpt lat="46.17476" lon="2.76768">
        <ele>550.735464</ele>
        <time>2024-06-27T01:45:57.519Z</time>
      </trkpt>
      <trkpt lat="46.17463" lon="2.7656">
        <ele>550.34285</ele>
        <time>2024-06-27T01:46:18.999Z</time>
      </trkpt>
      <trkpt lat="46.17461" lon="2.76475">
        <ele>550.792573</ele>
        <time>2024-06-27T01:46:31.009Z</time>
      </trkpt>
      <trkpt lat="46.17467" lon="2.76303">
        <ele>551.33265</ele>
        <time>2024-06-27T01:46:54.365Z</time>
      </trkpt>
      <trkpt lat="46.17479" lon="2.76218">
        <ele>551.453545</ele>
        <time>2024-06-27T01:47:03.702Z</time>
      </trkpt>
      <trkpt lat="46.17476" lon="2.76152">
        <ele>551.546362</ele>
        <time>2024-06-27T01:47:09.713Z</time>
      </trkpt>
      <trkpt lat="46.1747" lon="2.76052">
        <ele>550.177777</ele>
        <time>2024-06-27T01:47:17.822Z</time>
      </trkpt>
      <trkpt lat="46.17478" lon="2.75962">
        <ele>548.767901</ele>
        <time>2024-06-27T01:47:24.545Z</time>
      </trkpt>
      <trkpt lat="46.17454" lon="2.75795">
        <ele>545.399528</ele>
        <time>2024-06-27T01:47:36.421Z</time>
      </trkpt>
      <trkpt lat="46.17451" lon="2.75721">
        <ele>543.645283</ele>
        <time>2024-06-27T01:47:41.536Z</time>
      </trkpt>
      <trkpt lat="46.17446" lon="2.75678">
        <ele>542.607432</ele>
        <time>2024-06-27T01:47:44.567Z</time>
      </trkpt>
      <trkpt lat="46.17436" lon="2.75638">
        <ele>541.619405</ele>
        <time>2024-06-27T01:47:47.474Z</time>
      </trkpt>
      <trkpt lat="46.17423" lon="2.75574">
        <ele>540.221876</ele>
        <time>2024-06-27T01:47:52.140Z</time>
      </trkpt>
      <trkpt lat="46.17423" lon="2.75547">
        <ele>539.671779</ele>
        <time>2024-06-27T01:47:54.022Z</time>
      </trkpt>
      <trkpt lat="46.17457" lon="2.75338">
        <ele>535.361845</ele>
        <time>2024-06-27T01:48:09.487Z</time>
      </trkpt>
      <trkpt lat="46.17461" lon="2.75316">
        <ele>534.940783</ele>
        <time>2024-06-27T01:48:11.196Z</time>
      </trkpt>
      <trkpt lat="46.17462" lon="2.75286">
        <ele>534.385848</ele>
        <time>2024-06-27T01:48:13.375Z</time>
      </trkpt>
      <trkpt lat="46.17454" lon="2.75221">
        <ele>533.157568</ele>
        <time>2024-06-27T01:48:18.192Z</time>
      </trkpt>
      <trkpt lat="46.17453" lon="2.75195">
        <ele>532.670356</ele>
        <time>2024-06-27T01:48:20.024Z</time>
      </trkpt>
      <trkpt lat="46.17457" lon="2.75174">
        <ele>532.255152</ele>
        <time>2024-06-27T01:48:21.664Z</time>
      </trkpt>
      <trkpt lat="46.17481" lon="2.75127">
        <ele>531.178541</ele>
        <time>2024-06-27T01:48:25.827Z</time>
      </trkpt>
      <trkpt lat="46.17486" lon="2.75106">
        <ele>530.774507</ele>
        <time>2024-06-27T01:48:27.355Z</time>
      </trkpt>
      <trkpt lat="46.17486" lon="2.75091">
        <ele>530.491283</ele>
        <time>2024-06-27T01:48:28.469Z</time>
      </trkpt>
      <trkpt lat="46.17482" lon="2.75068">
        <ele>530.057963</ele>
        <time>2024-06-27T01:48:30.159Z</time>
      </trkpt>
      <trkpt lat="46.1746" lon="2.75028">
        <ele>529.099299</ele>
        <time>2024-06-27T01:48:33.874Z</time>
      </trkpt>
      <trkpt lat="46.17451" lon="2.75008">
        <ele>528.665075</ele>
        <time>2024-06-27T01:48:35.556Z</time>
      </trkpt>
      <trkpt lat="46.17431" lon="2.7491">
        <ele>526.76138</ele>
        <time>2024-06-27T01:48:43.057Z</time>
      </trkpt>
      <trkpt lat="46.17429" lon="2.74882">
        <ele>526.311519</ele>
        <time>2024-06-27T01:48:45.057Z</time>
      </trkpt>
      <trkpt lat="46.17433" lon="2.74799">
        <ele>525.134262</ele>
        <time>2024-06-27T01:48:51.259Z</time>
      </trkpt>
      <trkpt lat="46.17438" lon="2.74619">
        <ele>522.709437</ele>
        <time>2024-06-27T01:49:05.089Z</time>
      </trkpt>
      <trkpt lat="46.1744" lon="2.74578">
        <ele>522.400476</ele>
        <time>2024-06-27T01:49:08.424Z</time>
      </trkpt>
      <trkpt lat="46.17435" lon="2.74551">
        <ele>522.193304</ele>
        <time>2024-06-27T01:49:10.698Z</time>
      </trkpt>
      <trkpt lat="46.17416" lon="2.74494">
        <ele>521.72465</ele>
        <time>2024-06-27T01:49:16.022Z</time>
      </trkpt>
      <trkpt lat="46.174" lon="2.74429">
        <ele>521.206231</ele>
        <time>2024-06-27T01:49:22.183Z</time>
      </trkpt>
      <trkpt lat="46.17352" lon="2.74209">
        <ele>519.740368</ele>
        <time>2024-06-27T01:49:42.666Z</time>
      </trkpt>
      <trkpt lat="46.17333" lon="2.74165">
        <ele>519.413608</ele>
        <time>2024-06-27T01:49:47.094Z</time>
      </trkpt>
      <trkpt lat="46.1729" lon="2.74105">
        <ele>518.454884</ele>
        <time>2024-06-27T01:49:53.859Z</time>
      </trkpt>
      <trkpt lat="46.17279" lon="2.74077">
        <ele>518.039661</ele>
        <time>2024-06-27T01:49:56.380Z</time>
      </trkpt>
      <trkpt lat="46.17258" lon="2.73994">
        <ele>516.920374</ele>
        <time>2024-06-27T01:50:03.132Z</time>
      </trkpt>
      <trkpt lat="46.17258" lon="2.73856">
        <ele>515.057156</ele>
        <time>2024-06-27T01:50:13.518Z</time>
      </trkpt>
      <trkpt lat="46.17257" lon="2.73843">
        <ele>514.876182</ele>
        <time>2024-06-27T01:50:14.474Z</time>
      </trkpt>
      <trkpt lat="46.17254" lon="2.73814">
        <ele>514.445402</ele>
        <time>2024-06-27T01:50:16.730Z</time>
      </trkpt>
      <trkpt lat="46.17218" lon="2.7369">
        <ele>512.51074</ele>
        <time>2024-06-27T01:50:26.901Z</time>
      </trkpt>
      <trkpt lat="46.1717" lon="2.73565">
        <ele>510.619155</ele>
        <time>2024-06-27T01:50:37.716Z</time>
      </trkpt>
      <trkpt lat="46.17163" lon="2.73545">
        <ele>510.328415</ele>
        <time>2024-06-27T01:50:39.395Z</time>
      </trkpt>
      <trkpt lat="46.17138" lon="2.73377">
        <ele>508.327868</ele>
        <time>2024-06-27T01:50:52.755Z</time>
      </trkpt>
      <trkpt lat="46.17143" lon="2.73273">
        <ele>507.390102</ele>
        <time>2024-06-27T01:51:01.256Z</time>
      </trkpt>
      <trkpt lat="46.17136" lon="2.73245">
        <ele>507.123516</ele>
        <time>2024-06-27T01:51:03.729Z</time>
      </trkpt>
      <trkpt lat="46.17101" lon="2.73168">
        <ele>506.437348</ele>
        <time>2024-06-27T01:51:11.501Z</time>
      </trkpt>
      <trkpt lat="46.17069" lon="2.73077">
        <ele>506.07139</ele>
        <time>2024-06-27T01:51:20.677Z</time>
      </trkpt>
      <trkpt lat="46.17058" lon="2.73034">
        <ele>505.907856</ele>
        <time>2024-06-27T01:51:24.938Z</time>
      </trkpt>
      <trkpt lat="46.17056" lon="2.72975">
        <ele>505.69785</ele>
        <time>2024-06-27T01:51:30.646Z</time>
      </trkpt>
      <trkpt lat="46.17062" lon="2.72834">
        <ele>505.638927</ele>
        <time>2024-06-27T01:51:44.670Z</time>
      </trkpt>
      <trkpt lat="46.17064" lon="2.7277">
        <ele>505.658232</ele>
        <time>2024-06-27T01:51:51.604Z</time>
      </trkpt>
      <trkpt lat="46.1706" lon="2.72734">
        <ele>505.669077</ele>
        <time>2024-06-27T01:51:55.740Z</time>
      </trkpt>
      <trkpt lat="46.17055" lon="2.72707">
        <ele>505.677548</ele>
        <time>2024-06-27T01:51:59.003Z</time>
      </trkpt>
      <trkpt lat="46.17041" lon="2.72675">
        <ele>505.632566</ele>
        <time>2024-06-27T01:52:03.095Z</time>
      </trkpt>
      <trkpt lat="46.17013" lon="2.72626">
        <ele>505.492598</ele>
        <time>2024-06-27T01:52:09.631Z</time>
      </trkpt>
      <trkpt lat="46.16979" lon="2.72531">
        <ele>505.257247</ele>
        <time>2024-06-27T01:52:19.470Z</time>
      </trkpt>
      <trkpt lat="46.1685" lon="2.72321">
        <ele>504.11628</ele>
        <time>2024-06-27T01:52:44.494Z</time>
      </trkpt>
      <trkpt lat="46.16815" lon="2.7226">
        <ele>503.706322</ele>
        <time>2024-06-27T01:52:51.461Z</time>
      </trkpt>
      <trkpt lat="46.16806" lon="2.72236">
        <ele>503.546256</ele>
        <time>2024-06-27T01:52:53.793Z</time>
      </trkpt>
      <trkpt lat="46.16798" lon="2.72204">
        <ele>503.347515</ele>
        <time>2024-06-27T01:52:56.830Z</time>
      </trkpt>
      <trkpt lat="46.16752" lon="2.72134">
        <ele>502.779236</ele>
        <time>2024-06-27T01:53:05.518Z</time>
      </trkpt>
      <trkpt lat="46.16733" lon="2.72101">
        <ele>502.534648</ele>
        <time>2024-06-27T01:53:09.163Z</time>
      </trkpt>
      <trkpt lat="46.16687" lon="2.7197">
        <ele>500.999648</ele>
        <time>2024-06-27T01:53:21.080Z</time>
      </trkpt>
      <trkpt lat="46.16681" lon="2.71939">
        <ele>500.635641</ele>
        <time>2024-06-27T01:53:23.560Z</time>
      </trkpt>
      <trkpt lat="46.16681" lon="2.71888">
        <ele>500.058128</ele>
        <time>2024-06-27T01:53:27.467Z</time>
      </trkpt>
      <trkpt lat="46.1668" lon="2.71869">
        <ele>499.846518</ele>
        <time>2024-06-27T01:53:28.890Z</time>
      </trkpt>
      <trkpt lat="46.16672" lon="2.71848">
        <ele>499.571266</ele>
        <time>2024-06-27T01:53:30.718Z</time>
      </trkpt>
      <trkpt lat="46.16566" lon="2.71725">
        <ele>496.861355</ele>
        <time>2024-06-27T01:53:45.301Z</time>
      </trkpt>
      <trkpt lat="46.16446" lon="2.71624">
        <ele>496.072954</ele>
        <time>2024-06-27T01:54:01.262Z</time>
      </trkpt>
      <trkpt lat="46.16404" lon="2.71597">
        <ele>496.21652</ele>
        <time>2024-06-27T01:54:10.829Z</time>
      </trkpt>
      <trkpt lat="46.16333" lon="2.71564">
        <ele>497.24883</ele>
        <time>2024-06-27T01:54:29.221Z</time>
      </trkpt>
      <trkpt lat="46.16316" lon="2.71541">
        <ele>498.038171</ele>
        <time>2024-06-27T01:54:35.326Z</time>
      </trkpt>
      <trkpt lat="46.16308" lon="2.71522">
        <ele>498.535703</ele>
        <time>2024-06-27T01:54:39.921Z</time>
      </trkpt>
      <trkpt lat="46.163" lon="2.71481">
        <ele>499.514448</ele>
        <time>2024-06-27T01:54:48.229Z</time>
      </trkpt>
      <trkpt lat="46.16294" lon="2.71418">
        <ele>500.963372</ele>
        <time>2024-06-27T01:55:01.431Z</time>
      </trkpt>
      <trkpt lat="46.163" lon="2.71287">
        <ele>503.483631</ele>
        <time>2024-06-27T01:55:28.869Z</time>
      </trkpt>
      <trkpt lat="46.16296" lon="2.71255">
        <ele>504.012204</ele>
        <time>2024-06-27T01:55:34.766Z</time>
      </trkpt>
      <trkpt lat="46.16252" lon="2.71129">
        <ele>506.310282</ele>
        <time>2024-06-27T01:55:56.442Z</time>
      </trkpt>
      <trkpt lat="46.16226" lon="2.71084">
        <ele>506.409373</ele>
        <time>2024-06-27T01:56:03.746Z</time>
      </trkpt>
      <trkpt lat="46.16202" lon="2.71051">
        <ele>506.299459</ele>
        <time>2024-06-27T01:56:08.981Z</time>
      </trkpt>
      <trkpt lat="46.16187" lon="2.71029">
        <ele>506.226267</ele>
        <time>2024-06-27T01:56:12.080Z</time>
      </trkpt>
      <trkpt lat="46.1618" lon="2.71014">
        <ele>506.185929</ele>
        <time>2024-06-27T01:56:13.626Z</time>
      </trkpt>
      <trkpt lat="46.16175" lon="2.70996">
        <ele>506.140641</ele>
        <time>2024-06-27T01:56:15.298Z</time>
      </trkpt>
      <trkpt lat="46.16162" lon="2.70767">
        <ele>504.731066</ele>
        <time>2024-06-27T01:56:33.808Z</time>
      </trkpt>
      <trkpt lat="46.16156" lon="2.70716">
        <ele>504.271559</ele>
        <time>2024-06-27T01:56:38.041Z</time>
      </trkpt>
      <trkpt lat="46.16133" lon="2.70594">
        <ele>502.907117</ele>
        <time>2024-06-27T01:56:48.686Z</time>
      </trkpt>
      <trkpt lat="46.16126" lon="2.70567">
        <ele>502.518413</ele>
        <time>2024-06-27T01:56:51.063Z</time>
      </trkpt>
      <trkpt lat="46.16098" lon="2.70481">
        <ele>501.248712</ele>
        <time>2024-06-27T01:56:58.551Z</time>
      </trkpt>
      <trkpt lat="46.16088" lon="2.70425">
        <ele>500.460151</ele>
        <time>2024-06-27T01:57:02.807Z</time>
      </trkpt>
      <trkpt lat="46.16085" lon="2.7037">
        <ele>499.289212</ele>
        <time>2024-06-27T01:57:06.651Z</time>
      </trkpt>
      <trkpt lat="46.16086" lon="2.70349">
        <ele>498.677822</ele>
        <time>2024-06-27T01:57:08.108Z</time>
      </trkpt>
      <trkpt lat="46.16092" lon="2.7032">
        <ele>497.796951</ele>
        <time>2024-06-27T01:57:10.159Z</time>
      </trkpt>
      <trkpt lat="46.16104" lon="2.70279">
        <ele>496.515352</ele>
        <time>2024-06-27T01:57:13.087Z</time>
      </trkpt>
      <trkpt lat="46.16106" lon="2.70258">
        <ele>495.901914</ele>
        <time>2024-06-27T01:57:14.474Z</time>
      </trkpt>
      <trkpt lat="46.16105" lon="2.7024">
        <ele>495.387957</ele>
        <time>2024-06-27T01:57:15.624Z</time>
      </trkpt>
      <trkpt lat="46.16102" lon="2.70192">
        <ele>493.986192</ele>
        <time>2024-06-27T01:57:18.832Z</time>
      </trkpt>
      <trkpt lat="46.16106" lon="2.70139">
        <ele>492.479571</ele>
        <time>2024-06-27T01:57:22.362Z</time>
      </trkpt>
      <trkpt lat="46.16101" lon="2.70128">
        <ele>492.180556</ele>
        <time>2024-06-27T01:57:23.213Z</time>
      </trkpt>
      <trkpt lat="46.16095" lon="2.7012">
        <ele>491.918707</ele>
        <time>2024-06-27T01:57:24.011Z</time>
      </trkpt>
      <trkpt lat="46.16084" lon="2.70115">
        <ele>491.529618</ele>
        <time>2024-06-27T01:57:25.152Z</time>
      </trkpt>
      <trkpt lat="46.16065" lon="2.70118">
        <ele>490.889035</ele>
        <time>2024-06-27T01:57:27.021Z</time>
      </trkpt>
      <trkpt lat="46.16055" lon="2.70112">
        <ele>490.515824</ele>
        <time>2024-06-27T01:57:28.166Z</time>
      </trkpt>
      <trkpt lat="46.16048" lon="2.70103">
        <ele>490.20744</ele>
        <time>2024-06-27T01:57:29.084Z</time>
      </trkpt>
      <trkpt lat="46.16043" lon="2.70087">
        <ele>489.79228</ele>
        <time>2024-06-27T01:57:30.299Z</time>
      </trkpt>
      <trkpt lat="46.16052" lon="2.70079">
        <ele>489.454879</ele>
        <time>2024-06-27T01:57:31.358Z</time>
      </trkpt>
      <trkpt lat="46.16143" lon="2.69942">
        <ele>485.819024</ele>
        <time>2024-06-27T01:57:44.934Z</time>
      </trkpt>
      <trkpt lat="46.16174" lon="2.69911">
        <ele>485.178806</ele>
        <time>2024-06-27T01:57:49.363Z</time>
      </trkpt>
      <trkpt lat="46.16125" lon="2.69844">
        <ele>484.032292</ele>
        <time>2024-06-27T01:58:00.501Z</time>
      </trkpt>
      <trkpt lat="46.16114" lon="2.69824">
        <ele>483.742597</ele>
        <time>2024-06-27T01:58:03.701Z</time>
      </trkpt>
      <trkpt lat="46.16084" lon="2.6977">
        <ele>483.628544</ele>
        <time>2024-06-27T01:58:12.080Z</time>
      </trkpt>
      <trkpt lat="46.16067" lon="2.69731">
        <ele>483.693193</ele>
        <time>2024-06-27T01:58:18.881Z</time>
      </trkpt>
      <trkpt lat="46.16008" lon="2.69657">
        <ele>483.851196</ele>
        <time>2024-06-27T01:58:37.853Z</time>
      </trkpt>
      <trkpt lat="46.16001" lon="2.69642">
        <ele>483.877243</ele>
        <time>2024-06-27T01:58:40.942Z</time>
      </trkpt>
      <trkpt lat="46.15982" lon="2.69487">
        <ele>483.295355</ele>
        <time>2024-06-27T01:59:02.622Z</time>
      </trkpt>
      <trkpt lat="46.15969" lon="2.69422">
        <ele>482.966192</ele>
        <time>2024-06-27T01:59:10.738Z</time>
      </trkpt>
      <trkpt lat="46.15946" lon="2.69368">
        <ele>482.656408</ele>
        <time>2024-06-27T01:59:17.906Z</time>
      </trkpt>
      <trkpt lat="46.15931" lon="2.69345">
        <ele>482.276077</ele>
        <time>2024-06-27T01:59:21.347Z</time>
      </trkpt>
      <trkpt lat="46.15898" lon="2.69298">
        <ele>481.453384</ele>
        <time>2024-06-27T01:59:28.499Z</time>
      </trkpt>
      <trkpt lat="46.1589" lon="2.69277">
        <ele>481.147559</ele>
        <time>2024-06-27T01:59:31.113Z</time>
      </trkpt>
      <trkpt lat="46.15857" lon="2.69172">
        <ele>479.727229</ele>
        <time>2024-06-27T01:59:43.844Z</time>
      </trkpt>
      <trkpt lat="46.15805" lon="2.69054">
        <ele>478.715261</ele>
        <time>2024-06-27T02:00:00.709Z</time>
      </trkpt>
      <trkpt lat="46.15797" lon="2.69024">
        <ele>478.510314</ele>
        <time>2024-06-27T02:00:04.745Z</time>
      </trkpt>
      <trkpt lat="46.1579" lon="2.68882">
        <ele>477.772817</ele>
        <time>2024-06-27T02:00:22.261Z</time>
      </trkpt>
      <trkpt lat="46.15781" lon="2.68849">
        <ele>477.718932</ele>
        <time>2024-06-27T02:00:26.743Z</time>
      </trkpt>
      <trkpt lat="46.15727" lon="2.68709">
        <ele>477.476926</ele>
        <time>2024-06-27T02:00:48.949Z</time>
      </trkpt>
      <trkpt lat="46.15709" lon="2.68679">
        <ele>477.36638</ele>
        <time>2024-06-27T02:00:54.602Z</time>
      </trkpt>
      <trkpt lat="46.15682" lon="2.68641">
        <ele>476.925876</ele>
        <time>2024-06-27T02:01:02.475Z</time>
      </trkpt>
      <trkpt lat="46.1566" lon="2.68601">
        <ele>476.515362</ele>
        <time>2024-06-27T02:01:09.600Z</time>
      </trkpt>
      <trkpt lat="46.15602" lon="2.68447">
        <ele>474.508275</ele>
        <time>2024-06-27T02:01:29.134Z</time>
      </trkpt>
      <trkpt lat="46.15623" lon="2.6842">
        <ele>473.363492</ele>
        <time>2024-06-27T02:01:31.865Z</time>
      </trkpt>
      <trkpt lat="46.15644" lon="2.68388">
        <ele>472.074667</ele>
        <time>2024-06-27T02:01:34.844Z</time>
      </trkpt>
      <trkpt lat="46.15652" lon="2.68368">
        <ele>471.433567</ele>
        <time>2024-06-27T02:01:36.331Z</time>
      </trkpt>
      <trkpt lat="46.15653" lon="2.68343">
        <ele>470.727146</ele>
        <time>2024-06-27T02:01:37.954Z</time>
      </trkpt>
      <trkpt lat="46.15651" lon="2.68324">
        <ele>470.186613</ele>
        <time>2024-06-27T02:01:39.200Z</time>
      </trkpt>
      <trkpt lat="46.15644" lon="2.68302">
        <ele>469.486386</ele>
        <time>2024-06-27T02:01:40.812Z</time>
      </trkpt>
      <trkpt lat="46.1562" lon="2.68251">
        <ele>467.802235</ele>
        <time>2024-06-27T02:01:44.825Z</time>
      </trkpt>
      <trkpt lat="46.15613" lon="2.68229">
        <ele>467.306282</ele>
        <time>2024-06-27T02:01:46.436Z</time>
      </trkpt>
      <trkpt lat="46.15612" lon="2.68208">
        <ele>466.886923</ele>
        <time>2024-06-27T02:01:47.811Z</time>
      </trkpt>
      <trkpt lat="46.15615" lon="2.68197">
        <ele>466.646852</ele>
        <time>2024-06-27T02:01:48.591Z</time>
      </trkpt>
      <trkpt lat="46.15626" lon="2.68173">
        <ele>466.057355</ele>
        <time>2024-06-27T02:01:50.583Z</time>
      </trkpt>
      <trkpt lat="46.15631" lon="2.68163">
        <ele>465.811949</ele>
        <time>2024-06-27T02:01:51.415Z</time>
      </trkpt>
      <trkpt lat="46.15636" lon="2.6815">
        <ele>465.514582</ele>
        <time>2024-06-27T02:01:52.424Z</time>
      </trkpt>
      <trkpt lat="46.15644" lon="2.68079">
        <ele>464.051884</ele>
        <time>2024-06-27T02:01:57.718Z</time>
      </trkpt>
      <trkpt lat="46.15649" lon="2.68058">
        <ele>463.60268</ele>
        <time>2024-06-27T02:01:59.412Z</time>
      </trkpt>
      <trkpt lat="46.15685" lon="2.67966">
        <ele>462.610704</ele>
        <time>2024-06-27T02:02:08.379Z</time>
      </trkpt>
      <trkpt lat="46.15689" lon="2.67945">
        <ele>462.584966</ele>
        <time>2024-06-27T02:02:10.437Z</time>
      </trkpt>
      <trkpt lat="46.15687" lon="2.67899">
        <ele>462.531957</ele>
        <time>2024-06-27T02:02:14.898Z</time>
      </trkpt>
      <trkpt lat="46.15682" lon="2.67859">
        <ele>462.486135</ele>
        <time>2024-06-27T02:02:18.958Z</time>
      </trkpt>
      <trkpt lat="46.15677" lon="2.67846">
        <ele>462.469273</ele>
        <time>2024-06-27T02:02:20.533Z</time>
      </trkpt>
      <trkpt lat="46.15658" lon="2.67817">
        <ele>462.422436</ele>
        <time>2024-06-27T02:02:25.030Z</time>
      </trkpt>
      <trkpt lat="46.15651" lon="2.67779">
        <ele>462.428148</ele>
        <time>2024-06-27T02:02:29.738Z</time>
      </trkpt>
      <trkpt lat="46.15651" lon="2.67752">
        <ele>462.757593</ele>
        <time>2024-06-27T02:02:33.226Z</time>
      </trkpt>
      <trkpt lat="46.15655" lon="2.67733">
        <ele>463.009595</ele>
        <time>2024-06-27T02:02:35.825Z</time>
      </trkpt>
      <trkpt lat="46.15685" lon="2.67631">
        <ele>464.397182</ele>
        <time>2024-06-27T02:02:51.938Z</time>
      </trkpt>
      <trkpt lat="46.15697" lon="2.67591">
        <ele>464.935238</ele>
        <time>2024-06-27T02:02:59.126Z</time>
      </trkpt>
      <trkpt lat="46.15726" lon="2.67516">
        <ele>466.262295</ele>
        <time>2024-06-27T02:03:14.957Z</time>
      </trkpt>
      <trkpt lat="46.15797" lon="2.67229">
        <ele>472.081125</ele>
        <time>2024-06-27T02:04:12.492Z</time>
      </trkpt>
      <trkpt lat="46.15803" lon="2.67182">
        <ele>472.734108</ele>
        <time>2024-06-27T02:04:19.608Z</time>
      </trkpt>
      <trkpt lat="46.1581" lon="2.67104">
        <ele>473.821823</ele>
        <time>2024-06-27T02:04:31.089Z</time>
      </trkpt>
      <trkpt lat="46.15817" lon="2.67068">
        <ele>474.337456</ele>
        <time>2024-06-27T02:04:36.412Z</time>
      </trkpt>
      <trkpt lat="46.15861" lon="2.66991">
        <ele>474.908085</ele>
        <time>2024-06-27T02:04:50.148Z</time>
      </trkpt>
      <trkpt lat="46.15947" lon="2.66844">
        <ele>475.507504</ele>
        <time>2024-06-27T02:05:11.786Z</time>
      </trkpt>
      <trkpt lat="46.16012" lon="2.66714">
        <ele>474.693622</ele>
        <time>2024-06-27T02:05:25.773Z</time>
      </trkpt>
      <trkpt lat="46.16033" lon="2.66613">
        <ele>474.250161</ele>
        <time>2024-06-27T02:05:34.298Z</time>
      </trkpt>
      <trkpt lat="46.1604" lon="2.66471">
        <ele>474.204176</ele>
        <time>2024-06-27T02:05:47.883Z</time>
      </trkpt>
      <trkpt lat="46.16024" lon="2.6639">
        <ele>474.176745</ele>
        <time>2024-06-27T02:05:58.393Z</time>
      </trkpt>
      <trkpt lat="46.16019" lon="2.66342">
        <ele>474.100804</ele>
        <time>2024-06-27T02:06:04.619Z</time>
      </trkpt>
      <trkpt lat="46.16018" lon="2.66311">
        <ele>474.03502</ele>
        <time>2024-06-27T02:06:08.277Z</time>
      </trkpt>
      <trkpt lat="46.16023" lon="2.66244">
        <ele>473.894166</ele>
        <time>2024-06-27T02:06:15.570Z</time>
      </trkpt>
      <trkpt lat="46.16038" lon="2.66129">
        <ele>473.649307</ele>
        <time>2024-06-27T02:06:25.752Z</time>
      </trkpt>
      <trkpt lat="46.16049" lon="2.66072">
        <ele>473.089291</ele>
        <time>2024-06-27T02:06:30.258Z</time>
      </trkpt>
      <trkpt lat="46.1605" lon="2.66049">
        <ele>472.827181</ele>
        <time>2024-06-27T02:06:32.024Z</time>
      </trkpt>
      <trkpt lat="46.16035" lon="2.65885">
        <ele>470.974178</ele>
        <time>2024-06-27T02:06:44.656Z</time>
      </trkpt>
      <trkpt lat="46.16036" lon="2.6586">
        <ele>470.722544</ele>
        <time>2024-06-27T02:06:46.659Z</time>
      </trkpt>
      <trkpt lat="46.16042" lon="2.65827">
        <ele>470.673784</ele>
        <time>2024-06-27T02:06:49.554Z</time>
      </trkpt>
      <trkpt lat="46.16063" lon="2.65653">
        <ele>470.418137</ele>
        <time>2024-06-27T02:07:08.192Z</time>
      </trkpt>
      <trkpt lat="46.16074" lon="2.65613">
        <ele>470.356291</ele>
        <time>2024-06-27T02:07:13.184Z</time>
      </trkpt>
      <trkpt lat="46.16132" lon="2.65554">
        <ele>470.331877</ele>
        <time>2024-06-27T02:07:23.782Z</time>
      </trkpt>
      <trkpt lat="46.16215" lon="2.65426">
        <ele>470.329744</ele>
        <time>2024-06-27T02:07:41.159Z</time>
      </trkpt>
      <trkpt lat="46.16235" lon="2.65388">
        <ele>470.422699</ele>
        <time>2024-06-27T02:07:45.836Z</time>
      </trkpt>
      <trkpt lat="46.16286" lon="2.65275">
        <ele>470.685171</ele>
        <time>2024-06-27T02:08:00.490Z</time>
      </trkpt>
      <trkpt lat="46.16365" lon="2.65029">
        <ele>472.292291</ele>
        <time>2024-06-27T02:08:34.581Z</time>
      </trkpt>
      <trkpt lat="46.16379" lon="2.64926">
        <ele>473.807284</ele>
        <time>2024-06-27T02:08:49.645Z</time>
      </trkpt>
      <trkpt lat="46.16384" lon="2.64883">
        <ele>474.771772</ele>
        <time>2024-06-27T02:08:56.683Z</time>
      </trkpt>
      <trkpt lat="46.16475" lon="2.64611">
        <ele>482.470895</ele>
        <time>2024-06-27T02:10:01.835Z</time>
      </trkpt>
      <trkpt lat="46.16474" lon="2.6445">
        <ele>486.989254</ele>
        <time>2024-06-27T02:10:39.847Z</time>
      </trkpt>
      <trkpt lat="46.16476" lon="2.644">
        <ele>488.052956</ele>
        <time>2024-06-27T02:10:50.344Z</time>
      </trkpt>
      <trkpt lat="46.16488" lon="2.64345">
        <ele>489.288556</ele>
        <time>2024-06-27T02:11:01.720Z</time>
      </trkpt>
      <trkpt lat="46.16515" lon="2.6428">
        <ele>490.903437</ele>
        <time>2024-06-27T02:11:14.834Z</time>
      </trkpt>
      <trkpt lat="46.16581" lon="2.6415">
        <ele>492.036677</ele>
        <time>2024-06-27T02:11:35.749Z</time>
      </trkpt>
      <trkpt lat="46.16611" lon="2.64097">
        <ele>492.242713</ele>
        <time>2024-06-27T02:11:42.787Z</time>
      </trkpt>
      <trkpt lat="46.16623" lon="2.64093">
        <ele>492.297334</ele>
        <time>2024-06-27T02:11:44.615Z</time>
      </trkpt>
      <trkpt lat="46.16674" lon="2.63922">
        <ele>491.981212</ele>
        <time>2024-06-27T02:12:01.413Z</time>
      </trkpt>
      <trkpt lat="46.16675" lon="2.63919">
        <ele>491.973721</ele>
        <time>2024-06-27T02:12:01.613Z</time>
      </trkpt>
      <trkpt lat="46.16681" lon="2.63893">
        <ele>491.880389</ele>
        <time>2024-06-27T02:12:04.135Z</time>
      </trkpt>
      <trkpt lat="46.16684" lon="2.63859">
        <ele>491.770436</ele>
        <time>2024-06-27T02:12:07.032Z</time>
      </trkpt>
      <trkpt lat="46.16684" lon="2.63815">
        <ele>491.623025</ele>
        <time>2024-06-27T02:12:11.166Z</time>
      </trkpt>
      <trkpt lat="46.1669" lon="2.63723">
        <ele>491.938095</ele>
        <time>2024-06-27T02:12:20.822Z</time>
      </trkpt>
      <trkpt lat="46.16691" lon="2.63717">
        <ele>491.964734</ele>
        <time>2024-06-27T02:12:21.477Z</time>
      </trkpt>
      <trkpt lat="46.16701" lon="2.63586">
        <ele>492.545827</ele>
        <time>2024-06-27T02:12:37.694Z</time>
      </trkpt>
      <trkpt lat="46.16704" lon="2.63559">
        <ele>492.66801</ele>
        <time>2024-06-27T02:12:41.702Z</time>
      </trkpt>
      <trkpt lat="46.16706" lon="2.63547">
        <ele>492.724171</ele>
        <time>2024-06-27T02:12:43.574Z</time>
      </trkpt>
      <trkpt lat="46.16711" lon="2.63519">
        <ele>492.94829</ele>
        <time>2024-06-27T02:12:47.735Z</time>
      </trkpt>
      <trkpt lat="46.16723" lon="2.63469">
        <ele>493.35856</ele>
        <time>2024-06-27T02:12:55.578Z</time>
      </trkpt>
      <trkpt lat="46.16726" lon="2.63463">
        <ele>493.418446</ele>
        <time>2024-06-27T02:12:56.757Z</time>
      </trkpt>
      <trkpt lat="46.16726" lon="2.63456">
        <ele>493.478936</ele>
        <time>2024-06-27T02:12:57.923Z</time>
      </trkpt>
      <trkpt lat="46.16724" lon="2.63448">
        <ele>493.547711</ele>
        <time>2024-06-27T02:12:59.235Z</time>
      </trkpt>
      <trkpt lat="46.16715" lon="2.63444">
        <ele>493.648223</ele>
        <time>2024-06-27T02:13:01.056Z</time>
      </trkpt>
      <trkpt lat="46.16719" lon="2.6335">
        <ele>494.392771</ele>
        <time>2024-06-27T02:13:14.239Z</time>
      </trkpt>
      <trkpt lat="46.16724" lon="2.63238">
        <ele>494.202701</ele>
        <time>2024-06-27T02:13:26.786Z</time>
      </trkpt>
      <trkpt lat="46.16723" lon="2.63221">
        <ele>494.039512</ele>
        <time>2024-06-27T02:13:28.413Z</time>
      </trkpt>
      <trkpt lat="46.16727" lon="2.63176">
        <ele>493.6225</ele>
        <time>2024-06-27T02:13:32.263Z</time>
      </trkpt>
      <trkpt lat="46.16728" lon="2.6317">
        <ele>493.566808</ele>
        <time>2024-06-27T02:13:32.740Z</time>
      </trkpt>
      <trkpt lat="46.16749" lon="2.63095">
        <ele>492.820065</ele>
        <time>2024-06-27T02:13:38.833Z</time>
      </trkpt>
      <trkpt lat="46.16753" lon="2.63085">
        <ele>492.715389</ele>
        <time>2024-06-27T02:13:39.724Z</time>
      </trkpt>
      <trkpt lat="46.16793" lon="2.62963">
        <ele>489.881326</ele>
        <time>2024-06-27T02:13:49.188Z</time>
      </trkpt>
      <trkpt lat="46.16798" lon="2.62928">
        <ele>488.989048</ele>
        <time>2024-06-27T02:13:51.615Z</time>
      </trkpt>
      <trkpt lat="46.16802" lon="2.62927">
        <ele>488.814185</ele>
        <time>2024-06-27T02:13:52.084Z</time>
      </trkpt>
      <trkpt lat="46.16806" lon="2.62922">
        <ele>488.639226</ele>
        <time>2024-06-27T02:13:52.549Z</time>
      </trkpt>
      <trkpt lat="46.16806" lon="2.62912">
        <ele>488.380577</ele>
        <time>2024-06-27T02:13:53.237Z</time>
      </trkpt>
      <trkpt lat="46.16802" lon="2.62908">
        <ele>488.210716</ele>
        <time>2024-06-27T02:13:53.709Z</time>
      </trkpt>
      <trkpt lat="46.16795" lon="2.62908">
        <ele>487.959604</ele>
        <time>2024-06-27T02:13:54.396Z</time>
      </trkpt>
      <trkpt lat="46.16793" lon="2.62891">
        <ele>487.508616</ele>
        <time>2024-06-27T02:13:55.597Z</time>
      </trkpt>
      <trkpt lat="46.16796" lon="2.62644">
        <ele>480.853086</ele>
        <time>2024-06-27T02:14:12.290Z</time>
      </trkpt>
      <trkpt lat="46.16797" lon="2.62543">
        <ele>478.189367</ele>
        <time>2024-06-27T02:14:19.096Z</time>
      </trkpt>
      <trkpt lat="46.16794" lon="2.62488">
        <ele>476.957873</ele>
        <time>2024-06-27T02:14:22.870Z</time>
      </trkpt>
      <trkpt lat="46.1678" lon="2.62361">
        <ele>474.072712</ele>
        <time>2024-06-27T02:14:31.917Z</time>
      </trkpt>
      <trkpt lat="46.1678" lon="2.6233">
        <ele>473.382333</ele>
        <time>2024-06-27T02:14:34.141Z</time>
      </trkpt>
      <trkpt lat="46.16794" lon="2.62137">
        <ele>470.128596</ele>
        <time>2024-06-27T02:14:48.697Z</time>
      </trkpt>
      <trkpt lat="46.16851" lon="2.61592">
        <ele>461.47766</ele>
        <time>2024-06-27T02:15:29.675Z</time>
      </trkpt>
      <trkpt lat="46.16857" lon="2.6156">
        <ele>460.95288</ele>
        <time>2024-06-27T02:15:32.107Z</time>
      </trkpt>
      <trkpt lat="46.16869" lon="2.61518">
        <ele>460.325984</ele>
        <time>2024-06-27T02:15:35.449Z</time>
      </trkpt>
      <trkpt lat="46.1689" lon="2.61459">
        <ele>459.5252</ele>
        <time>2024-06-27T02:15:40.500Z</time>
      </trkpt>
      <trkpt lat="46.16899" lon="2.6144">
        <ele>459.246071</ele>
        <time>2024-06-27T02:15:42.247Z</time>
      </trkpt>
      <trkpt lat="46.16915" lon="2.61416">
        <ele>458.836833</ele>
        <time>2024-06-27T02:15:44.919Z</time>
      </trkpt>
      <trkpt lat="46.17" lon="2.61341">
        <ele>457.17999</ele>
        <time>2024-06-27T02:15:56.429Z</time>
      </trkpt>
      <trkpt lat="46.17018" lon="2.61318">
        <ele>456.829156</ele>
        <time>2024-06-27T02:15:59.510Z</time>
      </trkpt>
      <trkpt lat="46.17104" lon="2.61176">
        <ele>454.94009</ele>
        <time>2024-06-27T02:16:14.850Z</time>
      </trkpt>
      <trkpt lat="46.17129" lon="2.61121">
        <ele>453.680923</ele>
        <time>2024-06-27T02:16:19.698Z</time>
      </trkpt>
      <trkpt lat="46.17229" lon="2.60967">
        <ele>449.384417</ele>
        <time>2024-06-27T02:16:34.541Z</time>
      </trkpt>
      <trkpt lat="46.17257" lon="2.60908">
        <ele>447.571022</ele>
        <time>2024-06-27T02:16:39.543Z</time>
      </trkpt>
      <trkpt lat="46.17268" lon="2.60868">
        <ele>446.464812</ele>
        <time>2024-06-27T02:16:42.600Z</time>
      </trkpt>
      <trkpt lat="46.1727" lon="2.60825">
        <ele>445.359895</ele>
        <time>2024-06-27T02:16:45.600Z</time>
      </trkpt>
      <trkpt lat="46.1727" lon="2.60707">
        <ele>441.876535</ele>
        <time>2024-06-27T02:16:53.523Z</time>
      </trkpt>
      <trkpt lat="46.17274" lon="2.60676">
        <ele>440.560865</ele>
        <time>2024-06-27T02:16:55.539Z</time>
      </trkpt>
      <trkpt lat="46.17285" lon="2.60643">
        <ele>439.000216</ele>
        <time>2024-06-27T02:16:57.904Z</time>
      </trkpt>
      <trkpt lat="46.1732" lon="2.60554">
        <ele>434.675355</ele>
        <time>2024-06-27T02:17:04.343Z</time>
      </trkpt>
      <trkpt lat="46.17325" lon="2.60535">
        <ele>433.787229</ele>
        <time>2024-06-27T02:17:05.639Z</time>
      </trkpt>
      <trkpt lat="46.17333" lon="2.60509">
        <ele>432.583991</ele>
        <time>2024-06-27T02:17:07.391Z</time>
      </trkpt>
      <trkpt lat="46.17337" lon="2.60468">
        <ele>430.536305</ele>
        <time>2024-06-27T02:17:09.937Z</time>
      </trkpt>
      <trkpt lat="46.17337" lon="2.60376">
        <ele>425.695335</ele>
        <time>2024-06-27T02:17:15.516Z</time>
      </trkpt>
      <trkpt lat="46.17343" lon="2.6032">
        <ele>422.69064</ele>
        <time>2024-06-27T02:17:18.988Z</time>
      </trkpt>
      <trkpt lat="46.17355" lon="2.60275">
        <ele>420.147145</ele>
        <time>2024-06-27T02:17:21.967Z</time>
      </trkpt>
      <trkpt lat="46.17389" lon="2.6018">
        <ele>415.540833</ele>
        <time>2024-06-27T02:17:28.672Z</time>
      </trkpt>
      <trkpt lat="46.17409" lon="2.60148">
        <ele>413.83781</ele>
        <time>2024-06-27T02:17:31.506Z</time>
      </trkpt>
      <trkpt lat="46.17425" lon="2.60116">
        <ele>412.329572</ele>
        <time>2024-06-27T02:17:34.013Z</time>
      </trkpt>
      <trkpt lat="46.17444" lon="2.60059">
        <ele>409.839549</ele>
        <time>2024-06-27T02:17:38.140Z</time>
      </trkpt>
      <trkpt lat="46.1749" lon="2.59962">
        <ele>405.609635</ele>
        <time>2024-06-27T02:17:45.794Z</time>
      </trkpt>
      <trkpt lat="46.17531" lon="2.59851">
        <ele>401.165719</ele>
        <time>2024-06-27T02:17:54.249Z</time>
      </trkpt>
      <trkpt lat="46.17588" lon="2.59711">
        <ele>394.184466</ele>
        <time>2024-06-27T02:18:04.438Z</time>
      </trkpt>
      <trkpt lat="46.17604" lon="2.59663">
        <ele>391.649915</ele>
        <time>2024-06-27T02:18:07.756Z</time>
      </trkpt>
      <trkpt lat="46.17611" lon="2.59609">
        <ele>389.040005</ele>
        <time>2024-06-27T02:18:11.159Z</time>
      </trkpt>
      <trkpt lat="46.17612" lon="2.59487">
        <ele>383.39009</ele>
        <time>2024-06-27T02:18:18.689Z</time>
      </trkpt>
      <trkpt lat="46.17627" lon="2.59337">
        <ele>376.569435</ele>
        <time>2024-06-27T02:18:28.268Z</time>
      </trkpt>
      <trkpt lat="46.17626" lon="2.59284">
        <ele>374.187714</ele>
        <time>2024-06-27T02:18:31.716Z</time>
      </trkpt>
      <trkpt lat="46.1762" lon="2.59221">
        <ele>371.329799</ele>
        <time>2024-06-27T02:18:35.808Z</time>
      </trkpt>
      <trkpt lat="46.17624" lon="2.59097">
        <ele>365.747245</ele>
        <time>2024-06-27T02:18:43.538Z</time>
      </trkpt>
      <trkpt lat="46.17616" lon="2.59027">
        <ele>362.609099</ele>
        <time>2024-06-27T02:18:47.931Z</time>
      </trkpt>
      <trkpt lat="46.17618" lon="2.59003">
        <ele>361.54516</ele>
        <time>2024-06-27T02:18:49.422Z</time>
      </trkpt>
      <trkpt lat="46.17623" lon="2.58985">
        <ele>360.66348</ele>
        <time>2024-06-27T02:18:50.653Z</time>
      </trkpt>
      <trkpt lat="46.17632" lon="2.58961">
        <ele>359.453444</ele>
        <time>2024-06-27T02:18:52.341Z</time>
      </trkpt>
      <trkpt lat="46.17709" lon="2.58746">
        <ele>350.429742</ele>
        <time>2024-06-27T02:19:07.662Z</time>
      </trkpt>
      <trkpt lat="46.17715" lon="2.58718">
        <ele>349.823807</ele>
        <time>2024-06-27T02:19:09.806Z</time>
      </trkpt>
      <trkpt lat="46.17717" lon="2.5869">
        <ele>349.248581</ele>
        <time>2024-06-27T02:19:11.896Z</time>
      </trkpt>
      <trkpt lat="46.17714" lon="2.58657">
        <ele>348.547924</ele>
        <time>2024-06-27T02:19:14.502Z</time>
      </trkpt>
      <trkpt lat="46.17706" lon="2.58616">
        <ele>347.67914</ele>
        <time>2024-06-27T02:19:17.853Z</time>
      </trkpt>
      <trkpt lat="46.1764" lon="2.58372">
        <ele>344.790253</ele>
        <time>2024-06-27T02:19:39.927Z</time>
      </trkpt>
      <trkpt lat="46.17629" lon="2.58345">
        <ele>344.521987</ele>
        <time>2024-06-27T02:19:42.471Z</time>
      </trkpt>
      <trkpt lat="46.17609" lon="2.58312">
        <ele>344.041572</ele>
        <time>2024-06-27T02:19:45.952Z</time>
      </trkpt>
      <trkpt lat="46.17557" lon="2.58239">
        <ele>342.636188</ele>
        <time>2024-06-27T02:19:53.973Z</time>
      </trkpt>
      <trkpt lat="46.17518" lon="2.58181">
        <ele>341.544379</ele>
        <time>2024-06-27T02:19:59.997Z</time>
      </trkpt>
      <trkpt lat="46.17505" lon="2.58162">
        <ele>341.191135</ele>
        <time>2024-06-27T02:20:01.964Z</time>
      </trkpt>
      <trkpt lat="46.17485" lon="2.58124">
        <ele>340.58049</ele>
        <time>2024-06-27T02:20:05.627Z</time>
      </trkpt>
      <trkpt lat="46.17458" lon="2.58045">
        <ele>339.53847</ele>
        <time>2024-06-27T02:20:12.443Z</time>
      </trkpt>
      <trkpt lat="46.17453" lon="2.58013">
        <ele>339.15501</ele>
        <time>2024-06-27T02:20:14.976Z</time>
      </trkpt>
      <trkpt lat="46.17448" lon="2.57928">
        <ele>338.138458</ele>
        <time>2024-06-27T02:20:21.682Z</time>
      </trkpt>
      <trkpt lat="46.17448" lon="2.57784">
        <ele>337.008977</ele>
        <time>2024-06-27T02:20:33.337Z</time>
      </trkpt>
      <trkpt lat="46.17445" lon="2.57751">
        <ele>336.787093</ele>
        <time>2024-06-27T02:20:36.191Z</time>
      </trkpt>
      <trkpt lat="46.17432" lon="2.57685">
        <ele>336.321173</ele>
        <time>2024-06-27T02:20:42.231Z</time>
      </trkpt>
      <trkpt lat="46.17428" lon="2.57646">
        <ele>336.057507</ele>
        <time>2024-06-27T02:20:45.783Z</time>
      </trkpt>
      <trkpt lat="46.17429" lon="2.57595">
        <ele>335.912064</ele>
        <time>2024-06-27T02:20:50.648Z</time>
      </trkpt>
      <trkpt lat="46.17435" lon="2.57525">
        <ele>335.750039</ele>
        <time>2024-06-27T02:20:57.588Z</time>
      </trkpt>
      <trkpt lat="46.17442" lon="2.57484">
        <ele>335.651217</ele>
        <time>2024-06-27T02:21:01.799Z</time>
      </trkpt>
      <trkpt lat="46.17445" lon="2.5747">
        <ele>335.617937</ele>
        <time>2024-06-27T02:21:03.319Z</time>
      </trkpt>
      <trkpt lat="46.1746" lon="2.57418">
        <ele>335.487708</ele>
        <time>2024-06-27T02:21:08.815Z</time>
      </trkpt>
      <trkpt lat="46.17466" lon="2.57368">
        <ele>335.277649</ele>
        <time>2024-06-27T02:21:13.507Z</time>
      </trkpt>
      <trkpt lat="46.17466" lon="2.57336">
        <ele>335.062495</ele>
        <time>2024-06-27T02:21:16.226Z</time>
      </trkpt>
      <trkpt lat="46.17462" lon="2.57297">
        <ele>334.790282</ele>
        <time>2024-06-27T02:21:19.581Z</time>
      </trkpt>
      <trkpt lat="46.17432" lon="2.57149">
        <ele>333.729802</ele>
        <time>2024-06-27T02:21:32.369Z</time>
      </trkpt>
      <trkpt lat="46.17423" lon="2.57079">
        <ele>333.198692</ele>
        <time>2024-06-27T02:21:38.147Z</time>
      </trkpt>
      <trkpt lat="46.17411" lon="2.5685">
        <ele>331.525626</ele>
        <time>2024-06-27T02:21:57.440Z</time>
      </trkpt>
      <trkpt lat="46.17411" lon="2.56803">
        <ele>331.294406</ele>
        <time>2024-06-27T02:22:01.645Z</time>
      </trkpt>
      <trkpt lat="46.17416" lon="2.56767">
        <ele>331.111505</ele>
        <time>2024-06-27T02:22:04.947Z</time>
      </trkpt>
      <trkpt lat="46.17424" lon="2.56736">
        <ele>330.950894</ele>
        <time>2024-06-27T02:22:07.847Z</time>
      </trkpt>
      <trkpt lat="46.17436" lon="2.56707">
        <ele>330.784642</ele>
        <time>2024-06-27T02:22:10.860Z</time>
      </trkpt>
      <trkpt lat="46.17458" lon="2.56667">
        <ele>330.536422</ele>
        <time>2024-06-27T02:22:15.323Z</time>
      </trkpt>
      <trkpt lat="46.1755" lon="2.56519">
        <ele>329.896118</ele>
        <time>2024-06-27T02:22:33.366Z</time>
      </trkpt>
      <trkpt lat="46.17566" lon="2.56488">
        <ele>329.786617</ele>
        <time>2024-06-27T02:22:37.118Z</time>
      </trkpt>
      <trkpt lat="46.17578" lon="2.56456">
        <ele>329.681464</ele>
        <time>2024-06-27T02:22:40.777Z</time>
      </trkpt>
      <trkpt lat="46.17589" lon="2.56419">
        <ele>329.606316</ele>
        <time>2024-06-27T02:22:44.886Z</time>
      </trkpt>
      <trkpt lat="46.17606" lon="2.56323">
        <ele>329.490933</ele>
        <time>2024-06-27T02:22:54.958Z</time>
      </trkpt>
      <trkpt lat="46.17614" lon="2.56294">
        <ele>329.453942</ele>
        <time>2024-06-27T02:22:58.152Z</time>
      </trkpt>
      <trkpt lat="46.17626" lon="2.56265">
        <ele>329.414621</ele>
        <time>2024-06-27T02:23:01.587Z</time>
      </trkpt>
      <trkpt lat="46.17645" lon="2.56233">
        <ele>329.365835</ele>
        <time>2024-06-27T02:23:05.910Z</time>
      </trkpt>
      <trkpt lat="46.17772" lon="2.5608">
        <ele>328.098493</ele>
        <time>2024-06-27T02:23:27.008Z</time>
      </trkpt>
      <trkpt lat="46.17782" lon="2.5606">
        <ele>327.954354</ele>
        <time>2024-06-27T02:23:28.964Z</time>
      </trkpt>
      <trkpt lat="46.1779" lon="2.56034">
        <ele>327.785332</ele>
        <time>2024-06-27T02:23:31.226Z</time>
      </trkpt>
      <trkpt lat="46.1782" lon="2.55853">
        <ele>326.360593</ele>
        <time>2024-06-27T02:23:46.367Z</time>
      </trkpt>
      <trkpt lat="46.17849" lon="2.55727">
        <ele>325.53387</ele>
        <time>2024-06-27T02:23:57.935Z</time>
      </trkpt>
      <trkpt lat="46.17853" lon="2.557">
        <ele>325.408703</ele>
        <time>2024-06-27T02:24:00.447Z</time>
      </trkpt>
      <trkpt lat="46.17856" lon="2.55574">
        <ele>324.843921</ele>
        <time>2024-06-27T02:24:12.166Z</time>
      </trkpt>
      <trkpt lat="46.17854" lon="2.55515">
        <ele>324.553133</ele>
        <time>2024-06-27T02:24:17.658Z</time>
      </trkpt>
      <trkpt lat="46.178" lon="2.55095">
        <ele>321.50008</ele>
        <time>2024-06-27T02:24:53.579Z</time>
      </trkpt>
      <trkpt lat="46.17789" lon="2.55054">
        <ele>321.155561</ele>
        <time>2024-06-27T02:24:57.148Z</time>
      </trkpt>
      <trkpt lat="46.17782" lon="2.55043">
        <ele>321.039682</ele>
        <time>2024-06-27T02:24:58.411Z</time>
      </trkpt>
      <trkpt lat="46.17774" lon="2.55036">
        <ele>320.936255</ele>
        <time>2024-06-27T02:24:59.452Z</time>
      </trkpt>
      <trkpt lat="46.17765" lon="2.55034">
        <ele>320.820553</ele>
        <time>2024-06-27T02:25:00.528Z</time>
      </trkpt>
      <trkpt lat="46.17737" lon="2.55042">
        <ele>320.469152</ele>
        <time>2024-06-27T02:25:03.936Z</time>
      </trkpt>
      <trkpt lat="46.17715" lon="2.55049">
        <ele>320.186154</ele>
        <time>2024-06-27T02:25:06.554Z</time>
      </trkpt>
      <trkpt lat="46.17692" lon="2.55057">
        <ele>319.883746</ele>
        <time>2024-06-27T02:25:09.232Z</time>
      </trkpt>
      <trkpt lat="46.1767" lon="2.55063">
        <ele>319.604494</ele>
        <time>2024-06-27T02:25:11.870Z</time>
      </trkpt>
      <trkpt lat="46.17655" lon="2.55063">
        <ele>319.407784</ele>
        <time>2024-06-27T02:25:13.575Z</time>
      </trkpt>
      <trkpt lat="46.17639" lon="2.5506">
        <ele>319.205681</ele>
        <time>2024-06-27T02:25:15.526Z</time>
      </trkpt>
      <trkpt lat="46.1762" lon="2.55047">
        <ele>318.941644</ele>
        <time>2024-06-27T02:25:17.903Z</time>
      </trkpt>
      <trkpt lat="46.17607" lon="2.55027">
        <ele>318.695742</ele>
        <time>2024-06-27T02:25:20.553Z</time>
      </trkpt>
      <trkpt lat="46.17594" lon="2.54989">
        <ele>318.486824</ele>
        <time>2024-06-27T02:25:24.197Z</time>
      </trkpt>
      <trkpt lat="46.17571" lon="2.54791">
        <ele>317.687141</ele>
        <time>2024-06-27T02:25:41.769Z</time>
      </trkpt>
      <trkpt lat="46.17537" lon="2.54492">
        <ele>318.516702</ele>
        <time>2024-06-27T02:26:17.599Z</time>
      </trkpt>
      <trkpt lat="46.17536" lon="2.5443">
        <ele>318.795948</ele>
        <time>2024-06-27T02:26:25.863Z</time>
      </trkpt>
      <trkpt lat="46.17544" lon="2.5435">
        <ele>319.165948</ele>
        <time>2024-06-27T02:26:36.163Z</time>
      </trkpt>
      <trkpt lat="46.17566" lon="2.54246">
        <ele>319.591872</ele>
        <time>2024-06-27T02:26:48.774Z</time>
      </trkpt>
      <trkpt lat="46.17578" lon="2.54204">
        <ele>319.42802</ele>
        <time>2024-06-27T02:26:53.480Z</time>
      </trkpt>
      <trkpt lat="46.17589" lon="2.54173">
        <ele>319.30187</ele>
        <time>2024-06-27T02:26:56.747Z</time>
      </trkpt>
      <trkpt lat="46.17605" lon="2.5414">
        <ele>319.158292</ele>
        <time>2024-06-27T02:27:00.306Z</time>
      </trkpt>
      <trkpt lat="46.18078" lon="2.53262">
        <ele>313.290777</ele>
        <time>2024-06-27T02:28:35.980Z</time>
      </trkpt>
      <trkpt lat="46.18202" lon="2.53077">
        <ele>314.372318</ele>
        <time>2024-06-27T02:29:09.507Z</time>
      </trkpt>
      <trkpt lat="46.1822" lon="2.53044">
        <ele>314.635535</ele>
        <time>2024-06-27T02:29:15.021Z</time>
      </trkpt>
      <trkpt lat="46.18257" lon="2.5294">
        <ele>315.557169</ele>
        <time>2024-06-27T02:29:29.260Z</time>
      </trkpt>
      <trkpt lat="46.18275" lon="2.52905">
        <ele>315.918068</ele>
        <time>2024-06-27T02:29:34.633Z</time>
      </trkpt>
      <trkpt lat="46.18285" lon="2.52891">
        <ele>316.080334</ele>
        <time>2024-06-27T02:29:37.191Z</time>
      </trkpt>
      <trkpt lat="46.18335" lon="2.52844">
        <ele>316.78959</ele>
        <time>2024-06-27T02:29:49.256Z</time>
      </trkpt>
      <trkpt lat="46.18353" lon="2.52816">
        <ele>317.582061</ele>
        <time>2024-06-27T02:29:55.665Z</time>
      </trkpt>
      <trkpt lat="46.18359" lon="2.52799">
        <ele>318.046286</ele>
        <time>2024-06-27T02:29:58.935Z</time>
      </trkpt>
      <trkpt lat="46.1837" lon="2.52756">
        <ele>319.189651</ele>
        <time>2024-06-27T02:30:07.632Z</time>
      </trkpt>
      <trkpt lat="46.18373" lon="2.52708">
        <ele>320.389811</ele>
        <time>2024-06-27T02:30:17.867Z</time>
      </trkpt>
      <trkpt lat="46.18371" lon="2.5269">
        <ele>320.8279</ele>
        <time>2024-06-27T02:30:21.571Z</time>
      </trkpt>
      <trkpt lat="46.18358" lon="2.52621">
        <ele>322.608765</ele>
        <time>2024-06-27T02:30:37.671Z</time>
      </trkpt>
      <trkpt lat="46.1834" lon="2.52567">
        <ele>324.384317</ele>
        <time>2024-06-27T02:30:51.478Z</time>
      </trkpt>
      <trkpt lat="46.18328" lon="2.52515">
        <ele>326.258837</ele>
        <time>2024-06-27T02:31:04.064Z</time>
      </trkpt>
      <trkpt lat="46.18305" lon="2.5226">
        <ele>335.860798</ele>
        <time>2024-06-27T02:32:07.387Z</time>
      </trkpt>
      <trkpt lat="46.18294" lon="2.52221">
        <ele>337.673808</ele>
        <time>2024-06-27T02:32:18.703Z</time>
      </trkpt>
      <trkpt lat="46.18281" lon="2.52195">
        <ele>339.061329</ele>
        <time>2024-06-27T02:32:27.850Z</time>
      </trkpt>
      <trkpt lat="46.18264" lon="2.52168">
        <ele>340.634714</ele>
        <time>2024-06-27T02:32:39.148Z</time>
      </trkpt>
      <trkpt lat="46.18249" lon="2.52136">
        <ele>342.278661</ele>
        <time>2024-06-27T02:32:49.800Z</time>
      </trkpt>
      <trkpt lat="46.18238" lon="2.52081">
        <ele>344.6949</ele>
        <time>2024-06-27T02:33:06.944Z</time>
      </trkpt>
      <trkpt lat="46.18232" lon="2.52066">
        <ele>345.415076</ele>
        <time>2024-06-27T02:33:12.237Z</time>
      </trkpt>
      <trkpt lat="46.18208" lon="2.52034">
        <ele>347.362623</ele>
        <time>2024-06-27T02:33:27.528Z</time>
      </trkpt>
      <trkpt lat="46.18204" lon="2.5202">
        <ele>347.981946</ele>
        <time>2024-06-27T02:33:32.074Z</time>
      </trkpt>
      <trkpt lat="46.182" lon="2.52003">
        <ele>348.715504</ele>
        <time>2024-06-27T02:33:38.277Z</time>
      </trkpt>
      <trkpt lat="46.18198" lon="2.51925">
        <ele>351.908788</ele>
        <time>2024-06-27T02:34:01.392Z</time>
      </trkpt>
      <trkpt lat="46.18194" lon="2.51904">
        <ele>352.824221</ele>
        <time>2024-06-27T02:34:05.497Z</time>
      </trkpt>
      <trkpt lat="46.18187" lon="2.51886">
        <ele>353.669555</ele>
        <time>2024-06-27T02:34:09.408Z</time>
      </trkpt>
      <trkpt lat="46.18177" lon="2.51871">
        <ele>354.162124</ele>
        <time>2024-06-27T02:34:12.648Z</time>
      </trkpt>
      <trkpt lat="46.18123" lon="2.5182">
        <ele>354.166516</ele>
        <time>2024-06-27T02:34:23.295Z</time>
      </trkpt>
      <trkpt lat="46.18113" lon="2.51796">
        <ele>354.167842</ele>
        <time>2024-06-27T02:34:25.545Z</time>
      </trkpt>
      <trkpt lat="46.18113" lon="2.5178">
        <ele>354.168581</ele>
        <time>2024-06-27T02:34:27.044Z</time>
      </trkpt>
      <trkpt lat="46.18117" lon="2.51762">
        <ele>354.169466</ele>
        <time>2024-06-27T02:34:28.526Z</time>
      </trkpt>
      <trkpt lat="46.18131" lon="2.51749">
        <ele>354.170568</ele>
        <time>2024-06-27T02:34:30.228Z</time>
      </trkpt>
      <trkpt lat="46.18139" lon="2.51749">
        <ele>354.171132</ele>
        <time>2024-06-27T02:34:31.510Z</time>
      </trkpt>
      <trkpt lat="46.18156" lon="2.51759">
        <ele>354.172375</ele>
        <time>2024-06-27T02:34:33.555Z</time>
      </trkpt>
      <trkpt lat="46.18206" lon="2.51795">
        <ele>354.90637</ele>
        <time>2024-06-27T02:34:41.320Z</time>
      </trkpt>
      <trkpt lat="46.18242" lon="2.51805">
        <ele>355.742543</ele>
        <time>2024-06-27T02:34:46.421Z</time>
      </trkpt>
      <trkpt lat="46.1827" lon="2.51806">
        <ele>356.384484</ele>
        <time>2024-06-27T02:34:50.351Z</time>
      </trkpt>
      <trkpt lat="46.18289" lon="2.51789">
        <ele>356.871536</ele>
        <time>2024-06-27T02:34:56.053Z</time>
      </trkpt>
      <trkpt lat="46.18295" lon="2.51773">
        <ele>357.167791</ele>
        <time>2024-06-27T02:35:00.399Z</time>
      </trkpt>
      <trkpt lat="46.18308" lon="2.51694">
        <ele>358.955565</ele>
        <time>2024-06-27T02:35:21.461Z</time>
      </trkpt>
      <trkpt lat="46.18316" lon="2.51643">
        <ele>361.804288</ele>
        <time>2024-06-27T02:35:37.807Z</time>
      </trkpt>
      <trkpt lat="46.18328" lon="2.51604">
        <ele>364.173492</ele>
        <time>2024-06-27T02:35:52.971Z</time>
      </trkpt>
      <trkpt lat="46.18335" lon="2.51567">
        <ele>366.324957</ele>
        <time>2024-06-27T02:36:07.616Z</time>
      </trkpt>
      <trkpt lat="46.18341" lon="2.51528">
        <ele>368.535027</ele>
        <time>2024-06-27T02:36:22.073Z</time>
      </trkpt>
      <trkpt lat="46.18362" lon="2.5145">
        <ele>373.03266</ele>
        <time>2024-06-27T02:36:49.364Z</time>
      </trkpt>
      <trkpt lat="46.18373" lon="2.51376">
        <ele>375.883328</ele>
        <time>2024-06-27T02:37:11.116Z</time>
      </trkpt>
      <trkpt lat="46.18376" lon="2.51331">
        <ele>377.594491</ele>
        <time>2024-06-27T02:37:23.596Z</time>
      </trkpt>
      <trkpt lat="46.18374" lon="2.51287">
        <ele>379.278619</ele>
        <time>2024-06-27T02:37:35.161Z</time>
      </trkpt>
      <trkpt lat="46.18376" lon="2.51192">
        <ele>382.59213</ele>
        <time>2024-06-27T02:37:55.190Z</time>
      </trkpt>
      <trkpt lat="46.18371" lon="2.5116">
        <ele>382.959235</ele>
        <time>2024-06-27T02:38:00.358Z</time>
      </trkpt>
      <trkpt lat="46.18353" lon="2.51118">
        <ele>383.513621</ele>
        <time>2024-06-27T02:38:06.538Z</time>
      </trkpt>
      <trkpt lat="46.18349" lon="2.511">
        <ele>383.726789</ele>
        <time>2024-06-27T02:38:08.642Z</time>
      </trkpt>
      <trkpt lat="46.1835" lon="2.51082">
        <ele>383.926187</ele>
        <time>2024-06-27T02:38:10.537Z</time>
      </trkpt>
      <trkpt lat="46.18354" lon="2.5107">
        <ele>384.081843</ele>
        <time>2024-06-27T02:38:12.201Z</time>
      </trkpt>
      <trkpt lat="46.18363" lon="2.51063">
        <ele>384.235209</ele>
        <time>2024-06-27T02:38:13.820Z</time>
      </trkpt>
      <trkpt lat="46.18379" lon="2.51061">
        <ele>384.507298</ele>
        <time>2024-06-27T02:38:16.695Z</time>
      </trkpt>
      <trkpt lat="46.18389" lon="2.5107">
        <ele>384.692034</ele>
        <time>2024-06-27T02:38:19.028Z</time>
      </trkpt>
      <trkpt lat="46.18395" lon="2.5108">
        <ele>384.832055</ele>
        <time>2024-06-27T02:38:20.807Z</time>
      </trkpt>
      <trkpt lat="46.18409" lon="2.51129">
        <ele>385.43324</ele>
        <time>2024-06-27T02:38:29.075Z</time>
      </trkpt>
      <trkpt lat="46.18418" lon="2.51146">
        <ele>385.695115</ele>
        <time>2024-06-27T02:38:32.588Z</time>
      </trkpt>
      <trkpt lat="46.1844" lon="2.51175">
        <ele>386.211449</ele>
        <time>2024-06-27T02:38:39.778Z</time>
      </trkpt>
      <trkpt lat="46.18452" lon="2.51187">
        <ele>386.474449</ele>
        <time>2024-06-27T02:38:43.389Z</time>
      </trkpt>
      <trkpt lat="46.18462" lon="2.51192">
        <ele>386.657244</ele>
        <time>2024-06-27T02:38:45.752Z</time>
      </trkpt>
      <trkpt lat="46.18471" lon="2.51192">
        <ele>386.824854</ele>
        <time>2024-06-27T02:38:47.688Z</time>
      </trkpt>
      <trkpt lat="46.18481" lon="2.51188">
        <ele>386.998653</ele>
        <time>2024-06-27T02:38:49.713Z</time>
      </trkpt>
      <trkpt lat="46.18551" lon="2.51142">
        <ele>388.368039</ele>
        <time>2024-06-27T02:39:04.988Z</time>
      </trkpt>
      <trkpt lat="46.18558" lon="2.51134">
        <ele>388.521263</ele>
        <time>2024-06-27T02:39:06.884Z</time>
      </trkpt>
      <trkpt lat="46.18562" lon="2.51124">
        <ele>388.761581</ele>
        <time>2024-06-27T02:39:08.620Z</time>
      </trkpt>
      <trkpt lat="46.18562" lon="2.51112">
        <ele>389.031996</ele>
        <time>2024-06-27T02:39:10.366Z</time>
      </trkpt>
      <trkpt lat="46.1856" lon="2.51101">
        <ele>389.300858</ele>
        <time>2024-06-27T02:39:12.273Z</time>
      </trkpt>
      <trkpt lat="46.18551" lon="2.51092">
        <ele>389.667261</ele>
        <time>2024-06-27T02:39:15.000Z</time>
      </trkpt>
      <trkpt lat="46.18537" lon="2.51091">
        <ele>390.161562</ele>
        <time>2024-06-27T02:39:18.783Z</time>
      </trkpt>
      <trkpt lat="46.18465" lon="2.51113">
        <ele>392.68035</ele>
        <time>2024-06-27T02:39:40.691Z</time>
      </trkpt>
      <trkpt lat="46.18451" lon="2.51115">
        <ele>393.151793</ele>
        <time>2024-06-27T02:39:45.053Z</time>
      </trkpt>
      <trkpt lat="46.1844" lon="2.51112">
        <ele>393.547313</ele>
        <time>2024-06-27T02:39:48.696Z</time>
      </trkpt>
      <trkpt lat="46.18429" lon="2.51096">
        <ele>394.096743</ele>
        <time>2024-06-27T02:39:53.742Z</time>
      </trkpt>
      <trkpt lat="46.18423" lon="2.51071">
        <ele>394.71386</ele>
        <time>2024-06-27T02:39:59.437Z</time>
      </trkpt>
      <trkpt lat="46.18423" lon="2.51044">
        <ele>395.702498</ele>
        <time>2024-06-27T02:40:05.436Z</time>
      </trkpt>
      <trkpt lat="46.18448" lon="2.509">
        <ele>401.030501</ele>
        <time>2024-06-27T02:40:40.600Z</time>
      </trkpt>
      <trkpt lat="46.18448" lon="2.50882">
        <ele>401.672814</ele>
        <time>2024-06-27T02:40:45.382Z</time>
      </trkpt>
      <trkpt lat="46.18442" lon="2.50866">
        <ele>402.294592</ele>
        <time>2024-06-27T02:40:50.020Z</time>
      </trkpt>
      <trkpt lat="46.18426" lon="2.50855">
        <ele>403.214615</ele>
        <time>2024-06-27T02:40:57.165Z</time>
      </trkpt>
      <trkpt lat="46.18413" lon="2.50855">
        <ele>403.899078</ele>
        <time>2024-06-27T02:41:02.550Z</time>
      </trkpt>
      <trkpt lat="46.18404" lon="2.50861">
        <ele>404.477282</ele>
        <time>2024-06-27T02:41:06.774Z</time>
      </trkpt>
      <trkpt lat="46.18379" lon="2.50906">
        <ele>406.705444</ele>
        <time>2024-06-27T02:41:22.707Z</time>
      </trkpt>
      <trkpt lat="46.18368" lon="2.50921">
        <ele>407.550401</ele>
        <time>2024-06-27T02:41:28.634Z</time>
      </trkpt>
      <trkpt lat="46.18357" lon="2.50927">
        <ele>408.251748</ele>
        <time>2024-06-27T02:41:33.386Z</time>
      </trkpt>
      <trkpt lat="46.18345" lon="2.50926">
        <ele>408.919868</ele>
        <time>2024-06-27T02:41:37.845Z</time>
      </trkpt>
      <trkpt lat="46.18322" lon="2.50906">
        <ele>410.446741</ele>
        <time>2024-06-27T02:41:47.479Z</time>
      </trkpt>
      <trkpt lat="46.18305" lon="2.50884">
        <ele>411.711305</ele>
        <time>2024-06-27T02:41:55.307Z</time>
      </trkpt>
      <trkpt lat="46.18293" lon="2.50861">
        <ele>412.862633</ele>
        <time>2024-06-27T02:42:02.209Z</time>
      </trkpt>
      <trkpt lat="46.18285" lon="2.50837">
        <ele>413.890779</ele>
        <time>2024-06-27T02:42:08.654Z</time>
      </trkpt>
      <trkpt lat="46.18283" lon="2.5082">
        <ele>414.545931</ele>
        <time>2024-06-27T02:42:12.892Z</time>
      </trkpt>
      <trkpt lat="46.18285" lon="2.50786">
        <ele>415.763805</ele>
        <time>2024-06-27T02:42:21.649Z</time>
      </trkpt>
      <trkpt lat="46.18284" lon="2.50778">
        <ele>416.088279</ele>
        <time>2024-06-27T02:42:23.949Z</time>
      </trkpt>
      <trkpt lat="46.18281" lon="2.50767">
        <ele>416.521978</ele>
        <time>2024-06-27T02:42:27.091Z</time>
      </trkpt>
      <trkpt lat="46.18274" lon="2.50759">
        <ele>416.964687</ele>
        <time>2024-06-27T02:42:30.407Z</time>
      </trkpt>
      <trkpt lat="46.18267" lon="2.50757">
        <ele>417.338222</ele>
        <time>2024-06-27T02:42:33.302Z</time>
      </trkpt>
      <trkpt lat="46.18233" lon="2.50762">
        <ele>419.157856</ele>
        <time>2024-06-27T02:42:46.936Z</time>
      </trkpt>
      <trkpt lat="46.18109" lon="2.50729">
        <ele>425.385833</ele>
        <time>2024-06-27T02:43:29.750Z</time>
      </trkpt>
      <trkpt lat="46.18098" lon="2.5073">
        <ele>425.874158</ele>
        <time>2024-06-27T02:43:33.163Z</time>
      </trkpt>
      <trkpt lat="46.18081" lon="2.50742">
        <ele>426.678699</ele>
        <time>2024-06-27T02:43:38.578Z</time>
      </trkpt>
      <trkpt lat="46.18059" lon="2.50789">
        <ele>428.368252</ele>
        <time>2024-06-27T02:43:50.337Z</time>
      </trkpt>
      <trkpt lat="46.18044" lon="2.50811">
        <ele>429.312995</ele>
        <time>2024-06-27T02:43:57.305Z</time>
      </trkpt>
      <trkpt lat="46.18034" lon="2.50819">
        <ele>429.792332</ele>
        <time>2024-06-27T02:44:00.863Z</time>
      </trkpt>
      <trkpt lat="46.18014" lon="2.50826">
        <ele>430.726011</ele>
        <time>2024-06-27T02:44:08.023Z</time>
      </trkpt>
      <trkpt lat="46.17998" lon="2.50826">
        <ele>431.400537</ele>
        <time>2024-06-27T02:44:13.133Z</time>
      </trkpt>
      <trkpt lat="46.17965" lon="2.50819">
        <ele>432.651275</ele>
        <time>2024-06-27T02:44:24.266Z</time>
      </trkpt>
      <trkpt lat="46.17939" lon="2.50809">
        <ele>433.657328</ele>
        <time>2024-06-27T02:44:33.194Z</time>
      </trkpt>
      <trkpt lat="46.17898" lon="2.5078">
        <ele>435.348599</ele>
        <time>2024-06-27T02:44:47.876Z</time>
      </trkpt>
      <trkpt lat="46.17888" lon="2.50763">
        <ele>435.951262</ele>
        <time>2024-06-27T02:44:53.091Z</time>
      </trkpt>
      <trkpt lat="46.17874" lon="2.50728">
        <ele>436.986973</ele>
        <time>2024-06-27T02:45:01.189Z</time>
      </trkpt>
      <trkpt lat="46.17822" lon="2.50564">
        <ele>438.899007</ele>
        <time>2024-06-27T02:45:28.567Z</time>
      </trkpt>
      <trkpt lat="46.1782" lon="2.50559">
        <ele>438.925553</ele>
        <time>2024-06-27T02:45:29.115Z</time>
      </trkpt>
      <trkpt lat="46.17802" lon="2.50493">
        <ele>439.322727</ele>
        <time>2024-06-27T02:45:36.092Z</time>
      </trkpt>
      <trkpt lat="46.17789" lon="2.50421">
        <ele>439.203795</ele>
        <time>2024-06-27T02:45:42.826Z</time>
      </trkpt>
      <trkpt lat="46.17764" lon="2.50265">
        <ele>436.983484</ele>
        <time>2024-06-27T02:45:55.286Z</time>
      </trkpt>
      <trkpt lat="46.1776" lon="2.50205">
        <ele>436.143333</ele>
        <time>2024-06-27T02:45:59.610Z</time>
      </trkpt>
      <trkpt lat="46.17758" lon="2.50162">
        <ele>435.021419</ele>
        <time>2024-06-27T02:46:02.576Z</time>
      </trkpt>
      <trkpt lat="46.1775" lon="2.50051">
        <ele>431.556775</ele>
        <time>2024-06-27T02:46:09.969Z</time>
      </trkpt>
      <trkpt lat="46.17744" lon="2.50023">
        <ele>430.625931</ele>
        <time>2024-06-27T02:46:11.937Z</time>
      </trkpt>
      <trkpt lat="46.17735" lon="2.49994">
        <ele>429.653343</ele>
        <time>2024-06-27T02:46:13.989Z</time>
      </trkpt>
      <trkpt lat="46.17723" lon="2.49968">
        <ele>428.680667</ele>
        <time>2024-06-27T02:46:16.031Z</time>
      </trkpt>
      <trkpt lat="46.17709" lon="2.49946">
        <ele>427.75288</ele>
        <time>2024-06-27T02:46:17.975Z</time>
      </trkpt>
      <trkpt lat="46.17695" lon="2.4993">
        <ele>426.981313</ele>
        <time>2024-06-27T02:46:19.618Z</time>
      </trkpt>
      <trkpt lat="46.17658" lon="2.49898">
        <ele>425.059593</ele>
        <time>2024-06-27T02:46:23.770Z</time>
      </trkpt>
      <trkpt lat="46.17618" lon="2.49858">
        <ele>422.947785</ele>
        <time>2024-06-27T02:46:28.379Z</time>
      </trkpt>
      <trkpt lat="46.17576" lon="2.4979">
        <ele>420.170304</ele>
        <time>2024-06-27T02:46:34.642Z</time>
      </trkpt>
      <trkpt lat="46.17549" lon="2.49752">
        <ele>419.066967</ele>
        <time>2024-06-27T02:46:38.408Z</time>
      </trkpt>
      <trkpt lat="46.17529" lon="2.49733">
        <ele>418.382818</ele>
        <time>2024-06-27T02:46:40.838Z</time>
      </trkpt>
      <trkpt lat="46.17388" lon="2.49635">
        <ele>415.504186</ele>
        <time>2024-06-27T02:46:57.054Z</time>
      </trkpt>
      <trkpt lat="46.17371" lon="2.49619">
        <ele>415.845374</ele>
        <time>2024-06-27T02:47:00.615Z</time>
      </trkpt>
      <trkpt lat="46.17362" lon="2.49606">
        <ele>416.057651</ele>
        <time>2024-06-27T02:47:02.253Z</time>
      </trkpt>
      <trkpt lat="46.17357" lon="2.49583">
        <ele>416.337847</ele>
        <time>2024-06-27T02:47:06.226Z</time>
      </trkpt>
      <trkpt lat="46.17354" lon="2.49551">
        <ele>416.705775</ele>
        <time>2024-06-27T02:47:10.520Z</time>
      </trkpt>
      <trkpt lat="46.17351" lon="2.49506">
        <ele>417.228728</ele>
        <time>2024-06-27T02:47:18.763Z</time>
      </trkpt>
      <trkpt lat="46.17352" lon="2.49476">
        <ele>417.576905</ele>
        <time>2024-06-27T02:47:25.977Z</time>
      </trkpt>
      <trkpt lat="46.17354" lon="2.49453">
        <ele>417.847638</ele>
        <time>2024-06-27T02:47:30.576Z</time>
      </trkpt>
      <trkpt lat="46.17412" lon="2.49252">
        <ele>428.229729</ele>
        <time>2024-06-27T02:48:37.301Z</time>
      </trkpt>
      <trkpt lat="46.17424" lon="2.49171">
        <ele>432.259118</ele>
        <time>2024-06-27T02:49:04.521Z</time>
      </trkpt>
      <trkpt lat="46.17432" lon="2.49044">
        <ele>438.469981</ele>
        <time>2024-06-27T02:49:43.034Z</time>
      </trkpt>
      <trkpt lat="46.17436" lon="2.49034">
        <ele>439.023119</ele>
        <time>2024-06-27T02:49:46.004Z</time>
      </trkpt>
      <trkpt lat="46.17443" lon="2.49028">
        <ele>439.549025</ele>
        <time>2024-06-27T02:49:48.900Z</time>
      </trkpt>
      <trkpt lat="46.1745" lon="2.49024">
        <ele>440.101183</ele>
        <time>2024-06-27T02:49:52.140Z</time>
      </trkpt>
      <trkpt lat="46.175" lon="2.49009">
        <ele>443.627943</ele>
        <time>2024-06-27T02:50:13.287Z</time>
      </trkpt>
      <trkpt lat="46.17522" lon="2.48984">
        <ele>445.273886</ele>
        <time>2024-06-27T02:50:24.604Z</time>
      </trkpt>
      <trkpt lat="46.1756" lon="2.48919">
        <ele>448.751529</ele>
        <time>2024-06-27T02:50:48.203Z</time>
      </trkpt>
      <trkpt lat="46.17584" lon="2.48878">
        <ele>450.9267</ele>
        <time>2024-06-27T02:51:02.393Z</time>
      </trkpt>
      <trkpt lat="46.17595" lon="2.48844">
        <ele>452.497407</ele>
        <time>2024-06-27T02:51:12.440Z</time>
      </trkpt>
      <trkpt lat="46.17596" lon="2.48805">
        <ele>453.977885</ele>
        <time>2024-06-27T02:51:21.524Z</time>
      </trkpt>
      <trkpt lat="46.17599" lon="2.48794">
        <ele>454.241593</ele>
        <time>2024-06-27T02:51:24.172Z</time>
      </trkpt>
      <trkpt lat="46.17595" lon="2.48788">
        <ele>454.43448</ele>
        <time>2024-06-27T02:51:26.440Z</time>
      </trkpt>
      <trkpt lat="46.17593" lon="2.48769">
        <ele>454.854261</ele>
        <time>2024-06-27T02:51:31.609Z</time>
      </trkpt>
      <trkpt lat="46.17593" lon="2.48752">
        <ele>455.21945</ele>
        <time>2024-06-27T02:51:36.124Z</time>
      </trkpt>
      <trkpt lat="46.17594" lon="2.48749">
        <ele>455.290249</ele>
        <time>2024-06-27T02:51:36.967Z</time>
      </trkpt>
      <trkpt lat="46.17593" lon="2.48691">
        <ele>456.567793</ele>
        <time>2024-06-27T02:51:52.059Z</time>
      </trkpt>
      <trkpt lat="46.17593" lon="2.48691">
        <ele>456.574423</ele>
        <time>2024-06-27T02:51:52.130Z</time>
      </trkpt>
      <trkpt lat="46.17591" lon="2.48678">
        <ele>456.877412</ele>
        <time>2024-06-27T02:51:55.515Z</time>
      </trkpt>
      <trkpt lat="46.17599" lon="2.48644">
        <ele>457.652362</ele>
        <time>2024-06-27T02:52:02.216Z</time>
      </trkpt>
      <trkpt lat="46.17602" lon="2.48639">
        <ele>457.819638</ele>
        <time>2024-06-27T02:52:03.504Z</time>
      </trkpt>
      <trkpt lat="46.17623" lon="2.48621">
        <ele>458.605729</ele>
        <time>2024-06-27T02:52:09.236Z</time>
      </trkpt>
      <trkpt lat="46.17632" lon="2.48615">
        <ele>458.923223</ele>
        <time>2024-06-27T02:52:11.161Z</time>
      </trkpt>
      <trkpt lat="46.17638" lon="2.48605">
        <ele>459.22009</ele>
        <time>2024-06-27T02:52:13.095Z</time>
      </trkpt>
      <trkpt lat="46.17655" lon="2.48543">
        <ele>459.27836</ele>
        <time>2024-06-27T02:52:20.591Z</time>
      </trkpt>
      <trkpt lat="46.17661" lon="2.48544">
        <ele>459.217304</ele>
        <time>2024-06-27T02:52:21.360Z</time>
      </trkpt>
      <trkpt lat="46.1768" lon="2.485">
        <ele>458.835736</ele>
        <time>2024-06-27T02:52:26.047Z</time>
      </trkpt>
      <trkpt lat="46.17691" lon="2.48453">
        <ele>458.479822</ele>
        <time>2024-06-27T02:52:29.902Z</time>
      </trkpt>
      <trkpt lat="46.17696" lon="2.48414">
        <ele>458.190595</ele>
        <time>2024-06-27T02:52:32.945Z</time>
      </trkpt>
      <trkpt lat="46.17702" lon="2.48392">
        <ele>458.016105</ele>
        <time>2024-06-27T02:52:34.717Z</time>
      </trkpt>
      <trkpt lat="46.17715" lon="2.4836">
        <ele>457.747425</ele>
        <time>2024-06-27T02:52:37.500Z</time>
      </trkpt>
      <trkpt lat="46.17766" lon="2.48305">
        <ele>456.158279</ele>
        <time>2024-06-27T02:52:44.284Z</time>
      </trkpt>
      <trkpt lat="46.17774" lon="2.48296">
        <ele>455.910385</ele>
        <time>2024-06-27T02:52:45.288Z</time>
      </trkpt>
      <trkpt lat="46.17786" lon="2.48283">
        <ele>455.520824</ele>
        <time>2024-06-27T02:52:46.927Z</time>
      </trkpt>
      <trkpt lat="46.17807" lon="2.48261">
        <ele>454.868103</ele>
        <time>2024-06-27T02:52:49.619Z</time>
      </trkpt>
      <trkpt lat="46.17852" lon="2.48217">
        <ele>453.488309</ele>
        <time>2024-06-27T02:52:55.290Z</time>
      </trkpt>
      <trkpt lat="46.17878" lon="2.48199">
        <ele>452.596332</ele>
        <time>2024-06-27T02:52:58.337Z</time>
      </trkpt>
      <trkpt lat="46.17913" lon="2.48183">
        <ele>451.386876</ele>
        <time>2024-06-27T02:53:02.116Z</time>
      </trkpt>
      <trkpt lat="46.17938" lon="2.48164">
        <ele>450.437968</ele>
        <time>2024-06-27T02:53:05.103Z</time>
      </trkpt>
      <trkpt lat="46.18011" lon="2.4813">
        <ele>447.885325</ele>
        <time>2024-06-27T02:53:12.780Z</time>
      </trkpt>
      <trkpt lat="46.1806" lon="2.48113">
        <ele>445.387234</ele>
        <time>2024-06-27T02:53:17.631Z</time>
      </trkpt>
      <trkpt lat="46.18157" lon="2.48067">
        <ele>439.086982</ele>
        <time>2024-06-27T02:53:26.982Z</time>
      </trkpt>
      <trkpt lat="46.18184" lon="2.48055">
        <ele>437.294029</ele>
        <time>2024-06-27T02:53:29.579Z</time>
      </trkpt>
      <trkpt lat="46.18247" lon="2.48025">
        <ele>431.900843</ele>
        <time>2024-06-27T02:53:35.402Z</time>
      </trkpt>
      <trkpt lat="46.18279" lon="2.48003">
        <ele>428.72627</ele>
        <time>2024-06-27T02:53:38.485Z</time>
      </trkpt>
      <trkpt lat="46.183" lon="2.47976">
        <ele>426.244342</ele>
        <time>2024-06-27T02:53:40.891Z</time>
      </trkpt>
      <trkpt lat="46.18308" lon="2.47951">
        <ele>424.498128</ele>
        <time>2024-06-27T02:53:42.580Z</time>
      </trkpt>
      <trkpt lat="46.18335" lon="2.47837">
        <ele>417.080033</ele>
        <time>2024-06-27T02:53:49.790Z</time>
      </trkpt>
      <trkpt lat="46.18357" lon="2.47736">
        <ele>410.648778</ele>
        <time>2024-06-27T02:53:56.126Z</time>
      </trkpt>
      <trkpt lat="46.18373" lon="2.47635">
        <ele>404.315546</ele>
        <time>2024-06-27T02:54:02.465Z</time>
      </trkpt>
      <trkpt lat="46.18375" lon="2.47605">
        <ele>402.575696</ele>
        <time>2024-06-27T02:54:04.351Z</time>
      </trkpt>
      <trkpt lat="46.18374" lon="2.4748">
        <ele>395.592155</ele>
        <time>2024-06-27T02:54:11.953Z</time>
      </trkpt>
      <trkpt lat="46.18389" lon="2.4739">
        <ele>390.428879</ele>
        <time>2024-06-27T02:54:17.594Z</time>
      </trkpt>
      <trkpt lat="46.18399" lon="2.47298">
        <ele>385.288294</ele>
        <time>2024-06-27T02:54:23.309Z</time>
      </trkpt>
      <trkpt lat="46.18404" lon="2.47138">
        <ele>376.479074</ele>
        <time>2024-06-27T02:54:33.102Z</time>
      </trkpt>
      <trkpt lat="46.1841" lon="2.47072">
        <ele>372.87892</ele>
        <time>2024-06-27T02:54:37.188Z</time>
      </trkpt>
      <trkpt lat="46.1842" lon="2.47006">
        <ele>369.232851</ele>
        <time>2024-06-27T02:54:41.372Z</time>
      </trkpt>
      <trkpt lat="46.18406" lon="2.46899">
        <ele>363.327969</ele>
        <time>2024-06-27T02:54:48.034Z</time>
      </trkpt>
      <trkpt lat="46.18405" lon="2.46874">
        <ele>361.998473</ele>
        <time>2024-06-27T02:54:49.542Z</time>
      </trkpt>
      <trkpt lat="46.18409" lon="2.46814">
        <ele>358.803231</ele>
        <time>2024-06-27T02:54:53.289Z</time>
      </trkpt>
      <trkpt lat="46.18409" lon="2.46753">
        <ele>355.631293</ele>
        <time>2024-06-27T02:54:57.032Z</time>
      </trkpt>
      <trkpt lat="46.18411" lon="2.4673">
        <ele>354.413079</ele>
        <time>2024-06-27T02:54:58.463Z</time>
      </trkpt>
      <trkpt lat="46.18415" lon="2.46713">
        <ele>353.484197</ele>
        <time>2024-06-27T02:54:59.562Z</time>
      </trkpt>
      <trkpt lat="46.1844" lon="2.46659">
        <ele>350.107326</ele>
        <time>2024-06-27T02:55:03.515Z</time>
      </trkpt>
      <trkpt lat="46.18466" lon="2.46614">
        <ele>347.155544</ele>
        <time>2024-06-27T02:55:07.148Z</time>
      </trkpt>
      <trkpt lat="46.18475" lon="2.46585">
        <ele>345.836068</ele>
        <time>2024-06-27T02:55:09.105Z</time>
      </trkpt>
      <trkpt lat="46.18484" lon="2.46499">
        <ele>342.19169</ele>
        <time>2024-06-27T02:55:14.696Z</time>
      </trkpt>
      <trkpt lat="46.18481" lon="2.46372">
        <ele>336.891143</ele>
        <time>2024-06-27T02:55:22.840Z</time>
      </trkpt>
      <trkpt lat="46.18482" lon="2.46328">
        <ele>336.207937</ele>
        <time>2024-06-27T02:55:25.630Z</time>
      </trkpt>
      <trkpt lat="46.18485" lon="2.46286">
        <ele>335.582918</ele>
        <time>2024-06-27T02:55:28.393Z</time>
      </trkpt>
      <trkpt lat="46.18499" lon="2.46198">
        <ele>334.25033</ele>
        <time>2024-06-27T02:55:35.612Z</time>
      </trkpt>
      <trkpt lat="46.18521" lon="2.46122">
        <ele>333.017161</ele>
        <time>2024-06-27T02:55:44.128Z</time>
      </trkpt>
      <trkpt lat="46.1852" lon="2.46088">
        <ele>333.53571</ele>
        <time>2024-06-27T02:55:47.911Z</time>
      </trkpt>
      <trkpt lat="46.18515" lon="2.46068">
        <ele>333.906897</ele>
        <time>2024-06-27T02:55:50.587Z</time>
      </trkpt>
      <trkpt lat="46.18511" lon="2.46053">
        <ele>334.181195</ele>
        <time>2024-06-27T02:55:52.870Z</time>
      </trkpt>
      <trkpt lat="46.1851" lon="2.46048">
        <ele>334.271909</ele>
        <time>2024-06-27T02:55:53.503Z</time>
      </trkpt>
      <trkpt lat="46.18503" lon="2.46023">
        <ele>334.74365</ele>
        <time>2024-06-27T02:55:57.700Z</time>
      </trkpt>
      <trkpt lat="46.18464" lon="2.45883">
        <ele>337.398818</ele>
        <time>2024-06-27T02:56:29.419Z</time>
      </trkpt>
      <trkpt lat="46.18429" lon="2.4577">
        <ele>339.406325</ele>
        <time>2024-06-27T02:56:52.968Z</time>
      </trkpt>
      <trkpt lat="46.18415" lon="2.45715">
        <ele>340.352411</ele>
        <time>2024-06-27T02:57:02.143Z</time>
      </trkpt>
      <trkpt lat="46.18411" lon="2.45681">
        <ele>340.908204</ele>
        <time>2024-06-27T02:57:07.533Z</time>
      </trkpt>
      <trkpt lat="46.18411" lon="2.4562">
        <ele>341.768005</ele>
        <time>2024-06-27T02:57:16.407Z</time>
      </trkpt>
      <trkpt lat="46.1843" lon="2.45234">
        <ele>343.378527</ele>
        <time>2024-06-27T02:57:59.239Z</time>
      </trkpt>
      <trkpt lat="46.18427" lon="2.45183">
        <ele>343.664964</ele>
        <time>2024-06-27T02:58:06.093Z</time>
      </trkpt>
      <trkpt lat="46.1842" lon="2.4513">
        <ele>343.966727</ele>
        <time>2024-06-27T02:58:13.656Z</time>
      </trkpt>
      <trkpt lat="46.18373" lon="2.44815">
        <ele>347.327717</ele>
        <time>2024-06-27T02:59:01.554Z</time>
      </trkpt>
      <trkpt lat="46.18372" lon="2.44792">
        <ele>347.506405</ele>
        <time>2024-06-27T02:59:05.054Z</time>
      </trkpt>
      <trkpt lat="46.18372" lon="2.44769">
        <ele>347.684716</ele>
        <time>2024-06-27T02:59:08.574Z</time>
      </trkpt>
      <trkpt lat="46.18407" lon="2.44489">
        <ele>348.755003</ele>
        <time>2024-06-27T02:59:44.052Z</time>
      </trkpt>
      <trkpt lat="46.18426" lon="2.44399">
        <ele>348.571981</ele>
        <time>2024-06-27T02:59:51.929Z</time>
      </trkpt>
      <trkpt lat="46.18462" lon="2.44259">
        <ele>346.892371</ele>
        <time>2024-06-27T03:00:04.089Z</time>
      </trkpt>
      <trkpt lat="46.18492" lon="2.44128">
        <ele>344.673959</ele>
        <time>2024-06-27T03:00:13.967Z</time>
      </trkpt>
      <trkpt lat="46.18523" lon="2.43987">
        <ele>342.085484</ele>
        <time>2024-06-27T03:00:24.429Z</time>
      </trkpt>
      <trkpt lat="46.18532" lon="2.43931">
        <ele>341.070598</ele>
        <time>2024-06-27T03:00:28.563Z</time>
      </trkpt>
      <trkpt lat="46.18532" lon="2.43874">
        <ele>340.066291</ele>
        <time>2024-06-27T03:00:32.634Z</time>
      </trkpt>
      <trkpt lat="46.18518" lon="2.43808">
        <ele>340.135905</ele>
        <time>2024-06-27T03:00:38.320Z</time>
      </trkpt>
      <trkpt lat="46.18511" lon="2.43744">
        <ele>340.68352</ele>
        <time>2024-06-27T03:00:45.493Z</time>
      </trkpt>
      <trkpt lat="46.18511" lon="2.43385">
        <ele>344.800745</ele>
        <time>2024-06-27T03:01:51.206Z</time>
      </trkpt>
      <trkpt lat="46.1851" lon="2.43103">
        <ele>342.298853</ele>
        <time>2024-06-27T03:02:14.390Z</time>
      </trkpt>
      <trkpt lat="46.18511" lon="2.43083">
        <ele>342.035219</ele>
        <time>2024-06-27T03:02:15.641Z</time>
      </trkpt>
      <trkpt lat="46.18514" lon="2.43068">
        <ele>341.522189</ele>
        <time>2024-06-27T03:02:16.669Z</time>
      </trkpt>
      <trkpt lat="46.18519" lon="2.43056">
        <ele>340.966126</ele>
        <time>2024-06-27T03:02:17.548Z</time>
      </trkpt>
      <trkpt lat="46.18528" lon="2.43045">
        <ele>340.296884</ele>
        <time>2024-06-27T03:02:18.592Z</time>
      </trkpt>
      <trkpt lat="46.18597" lon="2.42987">
        <ele>335.749464</ele>
        <time>2024-06-27T03:02:25.820Z</time>
      </trkpt>
      <trkpt lat="46.18599" lon="2.42986">
        <ele>335.603364</ele>
        <time>2024-06-27T03:02:26.057Z</time>
      </trkpt>
      <trkpt lat="46.18698" lon="2.42904">
        <ele>330.993406</ele>
        <time>2024-06-27T03:02:36.490Z</time>
      </trkpt>
      <trkpt lat="46.18717" lon="2.42887">
        <ele>330.630118</ele>
        <time>2024-06-27T03:02:39.056Z</time>
      </trkpt>
      <trkpt lat="46.18723" lon="2.42882">
        <ele>330.521131</ele>
        <time>2024-06-27T03:02:39.837Z</time>
      </trkpt>
      <trkpt lat="46.18765" lon="2.42847">
        <ele>329.735209</ele>
        <time>2024-06-27T03:02:47.590Z</time>
      </trkpt>
      <trkpt lat="46.188" lon="2.42818">
        <ele>329.069775</ele>
        <time>2024-06-27T03:02:54.438Z</time>
      </trkpt>
      <trkpt lat="46.18811" lon="2.42802">
        <ele>328.819916</ele>
        <time>2024-06-27T03:02:57.191Z</time>
      </trkpt>
      <trkpt lat="46.18818" lon="2.42765">
        <ele>328.970898</ele>
        <time>2024-06-27T03:03:01.713Z</time>
      </trkpt>
      <trkpt lat="46.18823" lon="2.42728">
        <ele>329.134066</ele>
        <time>2024-06-27T03:03:06.195Z</time>
      </trkpt>
      <trkpt lat="46.18825" lon="2.42705">
        <ele>329.234466</ele>
        <time>2024-06-27T03:03:09.123Z</time>
      </trkpt>
      <trkpt lat="46.18829" lon="2.42669">
        <ele>329.395235</ele>
        <time>2024-06-27T03:03:13.763Z</time>
      </trkpt>
      <trkpt lat="46.18832" lon="2.42633">
        <ele>329.549912</ele>
        <time>2024-06-27T03:03:18.544Z</time>
      </trkpt>
      <trkpt lat="46.18834" lon="2.42613">
        <ele>329.63691</ele>
        <time>2024-06-27T03:03:20.935Z</time>
      </trkpt>
      <trkpt lat="46.18835" lon="2.42592">
        <ele>329.732439</ele>
        <time>2024-06-27T03:03:23.646Z</time>
      </trkpt>
      <trkpt lat="46.18836" lon="2.42589">
        <ele>329.745578</ele>
        <time>2024-06-27T03:03:23.978Z</time>
      </trkpt>
      <trkpt lat="46.18839" lon="2.42559">
        <ele>329.874161</ele>
        <time>2024-06-27T03:03:27.263Z</time>
      </trkpt>
      <trkpt lat="46.18843" lon="2.42526">
        <ele>329.936183</ele>
        <time>2024-06-27T03:03:31.057Z</time>
      </trkpt>
      <trkpt lat="46.18849" lon="2.42469">
        <ele>329.936183</ele>
        <time>2024-06-27T03:03:36.946Z</time>
      </trkpt>
      <trkpt lat="46.18852" lon="2.42441">
        <ele>329.936183</ele>
        <time>2024-06-27T03:03:40.041Z</time>
      </trkpt>
      <trkpt lat="46.1886" lon="2.42369">
        <ele>329.936183</ele>
        <time>2024-06-27T03:03:47.370Z</time>
      </trkpt>
      <trkpt lat="46.18866" lon="2.4232">
        <ele>329.936183</ele>
        <time>2024-06-27T03:03:52.254Z</time>
      </trkpt>
      <trkpt lat="46.18875" lon="2.42234">
        <ele>329.936183</ele>
        <time>2024-06-27T03:04:00.470Z</time>
      </trkpt>
    </trkseg>
  </trk>
</gpx>